<?xml version="1.0" encoding="UTF-8" standalone="no" ?>
<gpx xmlns="http://www.topografix.com/GPX/1/1" xmlns:xsi="http://www.w3.org/2001/XMLSchema-instance" xsi:schemaLocation="http://www.topografix.com/GPX/1/1 http://www.topografix.com/GPX/1/1/gpx.xsd" version="1.1" creator="VisuGPX - https://www.visugpx.com">
  <metadata>
    <name>2015.07.05. Equi\'Tey </name>
    <desc><![CDATA[Nous partons Claire et moi avec chacune en dextre nos jeunes. Grande première pour Dipti : voir plusieurs chevaux inconnus d\'un coup, de nouveaux chemins, des tunnels, des petits pont en bois, la ligne d\'attache...
45 km et aux trois allures, le plus était de 17 km.... Bien sur elle est tout de même entraînée ! 
Rendez-vous pour le petit déj du coté de La Boissière (10km), pour le midi, pique-nique à l\'étang de St Hilarion (20 km avec pour moyenne 7.5 km/h) et retour au pré (15 km).]]></desc>
  </metadata>
  <trk>
    <name><![CDATA[Saint-Léger-en-Yvelines Autre]]></name>
    <trkseg>
      <trkpt lat="48.70766" lon="1.75829">
        <ele>173.6</ele>
        <time>2015-07-05T05:23:27.000Z</time>
      </trkpt>
      <trkpt lat="48.70761" lon="1.75821">
        <ele>173.4</ele>
        <time>2015-07-05T05:23:33.000Z</time>
      </trkpt>
      <trkpt lat="48.70756" lon="1.75813">
        <ele>173.2</ele>
        <time>2015-07-05T05:23:41.000Z</time>
      </trkpt>
      <trkpt lat="48.70746" lon="1.75796">
        <ele>173</ele>
        <time>2015-07-05T05:24:23.000Z</time>
      </trkpt>
      <trkpt lat="48.70738" lon="1.75784">
        <ele>173</ele>
        <time>2015-07-05T05:24:31.000Z</time>
      </trkpt>
      <trkpt lat="48.70732" lon="1.75774">
        <ele>173</ele>
        <time>2015-07-05T05:24:39.000Z</time>
      </trkpt>
      <trkpt lat="48.70725" lon="1.75763">
        <ele>173</ele>
        <time>2015-07-05T05:24:47.000Z</time>
      </trkpt>
      <trkpt lat="48.70719" lon="1.75753">
        <ele>172.9</ele>
        <time>2015-07-05T05:24:55.000Z</time>
      </trkpt>
      <trkpt lat="48.7071" lon="1.75744">
        <ele>172.5</ele>
        <time>2015-07-05T05:25:04.000Z</time>
      </trkpt>
      <trkpt lat="48.70701" lon="1.75735">
        <ele>172.5</ele>
        <time>2015-07-05T05:25:12.000Z</time>
      </trkpt>
      <trkpt lat="48.70693" lon="1.75721">
        <ele>172.9</ele>
        <time>2015-07-05T05:25:22.000Z</time>
      </trkpt>
      <trkpt lat="48.70689" lon="1.75717">
        <ele>172.6</ele>
        <time>2015-07-05T05:25:27.000Z</time>
      </trkpt>
      <trkpt lat="48.70682" lon="1.75709">
        <ele>172.3</ele>
        <time>2015-07-05T05:25:33.000Z</time>
      </trkpt>
      <trkpt lat="48.70675" lon="1.75698">
        <ele>172</ele>
        <time>2015-07-05T05:25:39.000Z</time>
      </trkpt>
      <trkpt lat="48.70665" lon="1.75693">
        <ele>172</ele>
        <time>2015-07-05T05:25:48.000Z</time>
      </trkpt>
      <trkpt lat="48.70657" lon="1.75685">
        <ele>172.1</ele>
        <time>2015-07-05T05:25:55.000Z</time>
      </trkpt>
      <trkpt lat="48.70651" lon="1.75682">
        <ele>172.3</ele>
        <time>2015-07-05T05:26:00.000Z</time>
      </trkpt>
      <trkpt lat="48.70648" lon="1.7568">
        <ele>172.3</ele>
        <time>2015-07-05T05:26:05.000Z</time>
      </trkpt>
      <trkpt lat="48.7065" lon="1.75667">
        <ele>172.6</ele>
        <time>2015-07-05T05:26:45.000Z</time>
      </trkpt>
      <trkpt lat="48.70644" lon="1.75661">
        <ele>172.8</ele>
        <time>2015-07-05T05:26:48.000Z</time>
      </trkpt>
      <trkpt lat="48.70636" lon="1.75654">
        <ele>173</ele>
        <time>2015-07-05T05:26:54.000Z</time>
      </trkpt>
      <trkpt lat="48.70633" lon="1.75649">
        <ele>173</ele>
        <time>2015-07-05T05:27:00.000Z</time>
      </trkpt>
      <trkpt lat="48.70629" lon="1.75648">
        <ele>173</ele>
        <time>2015-07-05T05:27:06.000Z</time>
      </trkpt>
      <trkpt lat="48.70621" lon="1.75646">
        <ele>173</ele>
        <time>2015-07-05T05:27:11.000Z</time>
      </trkpt>
      <trkpt lat="48.70615" lon="1.75631">
        <ele>172.7</ele>
        <time>2015-07-05T05:27:20.000Z</time>
      </trkpt>
      <trkpt lat="48.70608" lon="1.75621">
        <ele>172.4</ele>
        <time>2015-07-05T05:27:27.000Z</time>
      </trkpt>
      <trkpt lat="48.70604" lon="1.75615">
        <ele>172.4</ele>
        <time>2015-07-05T05:27:31.000Z</time>
      </trkpt>
      <trkpt lat="48.70604" lon="1.75612">
        <ele>172.3</ele>
        <time>2015-07-05T05:27:35.000Z</time>
      </trkpt>
      <trkpt lat="48.706" lon="1.75606">
        <ele>172.4</ele>
        <time>2015-07-05T05:27:46.000Z</time>
      </trkpt>
      <trkpt lat="48.70594" lon="1.75599">
        <ele>172.6</ele>
        <time>2015-07-05T05:27:52.000Z</time>
      </trkpt>
      <trkpt lat="48.70589" lon="1.75592">
        <ele>172.8</ele>
        <time>2015-07-05T05:27:56.000Z</time>
      </trkpt>
      <trkpt lat="48.70586" lon="1.75589">
        <ele>172.9</ele>
        <time>2015-07-05T05:27:58.000Z</time>
      </trkpt>
      <trkpt lat="48.70582" lon="1.75585">
        <ele>173</ele>
        <time>2015-07-05T05:28:03.000Z</time>
      </trkpt>
      <trkpt lat="48.70575" lon="1.75578">
        <ele>173</ele>
        <time>2015-07-05T05:28:10.000Z</time>
      </trkpt>
      <trkpt lat="48.70572" lon="1.75575">
        <ele>173</ele>
        <time>2015-07-05T05:28:14.000Z</time>
      </trkpt>
      <trkpt lat="48.70564" lon="1.75568">
        <ele>173</ele>
        <time>2015-07-05T05:28:21.000Z</time>
      </trkpt>
      <trkpt lat="48.70559" lon="1.75563">
        <ele>173</ele>
        <time>2015-07-05T05:28:26.000Z</time>
      </trkpt>
      <trkpt lat="48.70556" lon="1.75558">
        <ele>173</ele>
        <time>2015-07-05T05:28:30.000Z</time>
      </trkpt>
      <trkpt lat="48.70553" lon="1.75552">
        <ele>173</ele>
        <time>2015-07-05T05:28:34.000Z</time>
      </trkpt>
      <trkpt lat="48.70547" lon="1.75544">
        <ele>173</ele>
        <time>2015-07-05T05:28:40.000Z</time>
      </trkpt>
      <trkpt lat="48.70542" lon="1.7554">
        <ele>173</ele>
        <time>2015-07-05T05:28:46.000Z</time>
      </trkpt>
      <trkpt lat="48.70535" lon="1.75538">
        <ele>173</ele>
        <time>2015-07-05T05:28:53.000Z</time>
      </trkpt>
      <trkpt lat="48.7053" lon="1.75533">
        <ele>173</ele>
        <time>2015-07-05T05:28:58.000Z</time>
      </trkpt>
      <trkpt lat="48.70527" lon="1.75529">
        <ele>173</ele>
        <time>2015-07-05T05:29:02.000Z</time>
      </trkpt>
      <trkpt lat="48.70521" lon="1.75522">
        <ele>173</ele>
        <time>2015-07-05T05:29:08.000Z</time>
      </trkpt>
      <trkpt lat="48.70517" lon="1.75517">
        <ele>173</ele>
        <time>2015-07-05T05:29:13.000Z</time>
      </trkpt>
      <trkpt lat="48.70509" lon="1.7551">
        <ele>173</ele>
        <time>2015-07-05T05:29:21.000Z</time>
      </trkpt>
      <trkpt lat="48.70502" lon="1.75502">
        <ele>173</ele>
        <time>2015-07-05T05:29:27.000Z</time>
      </trkpt>
      <trkpt lat="48.70494" lon="1.75498">
        <ele>173.1</ele>
        <time>2015-07-05T05:29:33.000Z</time>
      </trkpt>
      <trkpt lat="48.70491" lon="1.75497">
        <ele>173.1</ele>
        <time>2015-07-05T05:29:35.000Z</time>
      </trkpt>
      <trkpt lat="48.70487" lon="1.75493">
        <ele>173.3</ele>
        <time>2015-07-05T05:29:39.000Z</time>
      </trkpt>
      <trkpt lat="48.70479" lon="1.7548">
        <ele>173.7</ele>
        <time>2015-07-05T05:29:47.000Z</time>
      </trkpt>
      <trkpt lat="48.70472" lon="1.75473">
        <ele>174</ele>
        <time>2015-07-05T05:29:54.000Z</time>
      </trkpt>
      <trkpt lat="48.70466" lon="1.75469">
        <ele>173.8</ele>
        <time>2015-07-05T05:30:00.000Z</time>
      </trkpt>
      <trkpt lat="48.70459" lon="1.75461">
        <ele>173.5</ele>
        <time>2015-07-05T05:30:06.000Z</time>
      </trkpt>
      <trkpt lat="48.70451" lon="1.75459">
        <ele>173.2</ele>
        <time>2015-07-05T05:30:12.000Z</time>
      </trkpt>
      <trkpt lat="48.70442" lon="1.75448">
        <ele>173</ele>
        <time>2015-07-05T05:30:21.000Z</time>
      </trkpt>
      <trkpt lat="48.70435" lon="1.75439">
        <ele>173.1</ele>
        <time>2015-07-05T05:30:29.000Z</time>
      </trkpt>
      <trkpt lat="48.70429" lon="1.75433">
        <ele>173.2</ele>
        <time>2015-07-05T05:30:35.000Z</time>
      </trkpt>
      <trkpt lat="48.70421" lon="1.75429">
        <ele>173.1</ele>
        <time>2015-07-05T05:30:43.000Z</time>
      </trkpt>
      <trkpt lat="48.70419" lon="1.75427">
        <ele>173.1</ele>
        <time>2015-07-05T05:30:45.000Z</time>
      </trkpt>
      <trkpt lat="48.70416" lon="1.75426">
        <ele>173</ele>
        <time>2015-07-05T05:30:48.000Z</time>
      </trkpt>
      <trkpt lat="48.70408" lon="1.75425">
        <ele>173</ele>
        <time>2015-07-05T05:30:54.000Z</time>
      </trkpt>
      <trkpt lat="48.70401" lon="1.75417">
        <ele>173</ele>
        <time>2015-07-05T05:31:02.000Z</time>
      </trkpt>
      <trkpt lat="48.70396" lon="1.75414">
        <ele>173</ele>
        <time>2015-07-05T05:31:06.000Z</time>
      </trkpt>
      <trkpt lat="48.70392" lon="1.75411">
        <ele>173</ele>
        <time>2015-07-05T05:31:09.000Z</time>
      </trkpt>
      <trkpt lat="48.70391" lon="1.75399">
        <ele>173</ele>
        <time>2015-07-05T05:31:15.000Z</time>
      </trkpt>
      <trkpt lat="48.70392" lon="1.75398">
        <ele>173</ele>
        <time>2015-07-05T05:31:19.000Z</time>
      </trkpt>
      <trkpt lat="48.70386" lon="1.75397">
        <ele>173</ele>
        <time>2015-07-05T05:31:26.000Z</time>
      </trkpt>
      <trkpt lat="48.70382" lon="1.75404">
        <ele>173</ele>
        <time>2015-07-05T05:31:31.000Z</time>
      </trkpt>
      <trkpt lat="48.7038" lon="1.75405">
        <ele>173</ele>
        <time>2015-07-05T05:31:32.000Z</time>
      </trkpt>
      <trkpt lat="48.70374" lon="1.75405">
        <ele>173</ele>
        <time>2015-07-05T05:31:40.000Z</time>
      </trkpt>
      <trkpt lat="48.70374" lon="1.75406">
        <ele>173</ele>
        <time>2015-07-05T05:31:43.000Z</time>
      </trkpt>
      <trkpt lat="48.70369" lon="1.75405">
        <ele>173</ele>
        <time>2015-07-05T05:31:59.000Z</time>
      </trkpt>
      <trkpt lat="48.70365" lon="1.75399">
        <ele>173</ele>
        <time>2015-07-05T05:32:02.000Z</time>
      </trkpt>
      <trkpt lat="48.7036" lon="1.75394">
        <ele>173</ele>
        <time>2015-07-05T05:32:09.000Z</time>
      </trkpt>
      <trkpt lat="48.70354" lon="1.75385">
        <ele>173</ele>
        <time>2015-07-05T05:32:16.000Z</time>
      </trkpt>
      <trkpt lat="48.70352" lon="1.75382">
        <ele>172.9</ele>
        <time>2015-07-05T05:32:18.000Z</time>
      </trkpt>
      <trkpt lat="48.70345" lon="1.75374">
        <ele>172.7</ele>
        <time>2015-07-05T05:32:26.000Z</time>
      </trkpt>
      <trkpt lat="48.70341" lon="1.75367">
        <ele>172.4</ele>
        <time>2015-07-05T05:32:31.000Z</time>
      </trkpt>
      <trkpt lat="48.70335" lon="1.75362">
        <ele>172.1</ele>
        <time>2015-07-05T05:32:36.000Z</time>
      </trkpt>
      <trkpt lat="48.70325" lon="1.75357">
        <ele>172</ele>
        <time>2015-07-05T05:32:43.000Z</time>
      </trkpt>
      <trkpt lat="48.70318" lon="1.75349">
        <ele>171.8</ele>
        <time>2015-07-05T05:32:50.000Z</time>
      </trkpt>
      <trkpt lat="48.70316" lon="1.75346">
        <ele>171.6</ele>
        <time>2015-07-05T05:32:55.000Z</time>
      </trkpt>
      <trkpt lat="48.70312" lon="1.75342">
        <ele>171.5</ele>
        <time>2015-07-05T05:32:59.000Z</time>
      </trkpt>
      <trkpt lat="48.70309" lon="1.75339">
        <ele>171.3</ele>
        <time>2015-07-05T05:33:02.000Z</time>
      </trkpt>
      <trkpt lat="48.70306" lon="1.75329">
        <ele>170.9</ele>
        <time>2015-07-05T05:33:10.000Z</time>
      </trkpt>
      <trkpt lat="48.70311" lon="1.75328">
        <ele>171</ele>
        <time>2015-07-05T05:33:20.000Z</time>
      </trkpt>
      <trkpt lat="48.70298" lon="1.75309">
        <ele>170.1</ele>
        <time>2015-07-05T05:34:21.000Z</time>
      </trkpt>
      <trkpt lat="48.70295" lon="1.75302">
        <ele>170</ele>
        <time>2015-07-05T05:34:26.000Z</time>
      </trkpt>
      <trkpt lat="48.70292" lon="1.75293">
        <ele>170</ele>
        <time>2015-07-05T05:34:32.000Z</time>
      </trkpt>
      <trkpt lat="48.70288" lon="1.75289">
        <ele>170</ele>
        <time>2015-07-05T05:34:36.000Z</time>
      </trkpt>
      <trkpt lat="48.70287" lon="1.75288">
        <ele>170</ele>
        <time>2015-07-05T05:34:39.000Z</time>
      </trkpt>
      <trkpt lat="48.70275" lon="1.75285">
        <ele>170</ele>
        <time>2015-07-05T05:35:18.000Z</time>
      </trkpt>
      <trkpt lat="48.70271" lon="1.7528">
        <ele>170</ele>
        <time>2015-07-05T05:35:22.000Z</time>
      </trkpt>
      <trkpt lat="48.70265" lon="1.75273">
        <ele>169.8</ele>
        <time>2015-07-05T05:35:28.000Z</time>
      </trkpt>
      <trkpt lat="48.70264" lon="1.75272">
        <ele>169.8</ele>
        <time>2015-07-05T05:35:30.000Z</time>
      </trkpt>
      <trkpt lat="48.7026" lon="1.75268">
        <ele>169.6</ele>
        <time>2015-07-05T05:35:34.000Z</time>
      </trkpt>
      <trkpt lat="48.7025" lon="1.75261">
        <ele>169.4</ele>
        <time>2015-07-05T05:35:42.000Z</time>
      </trkpt>
      <trkpt lat="48.70243" lon="1.75255">
        <ele>169.2</ele>
        <time>2015-07-05T05:35:48.000Z</time>
      </trkpt>
      <trkpt lat="48.70237" lon="1.7525">
        <ele>169</ele>
        <time>2015-07-05T05:35:53.000Z</time>
      </trkpt>
      <trkpt lat="48.70224" lon="1.75245">
        <ele>169</ele>
        <time>2015-07-05T05:36:01.000Z</time>
      </trkpt>
      <trkpt lat="48.70216" lon="1.75242">
        <ele>168.9</ele>
        <time>2015-07-05T05:36:07.000Z</time>
      </trkpt>
      <trkpt lat="48.70209" lon="1.7524">
        <ele>168.8</ele>
        <time>2015-07-05T05:36:12.000Z</time>
      </trkpt>
      <trkpt lat="48.70207" lon="1.75231">
        <ele>168.6</ele>
        <time>2015-07-05T05:36:17.000Z</time>
      </trkpt>
      <trkpt lat="48.70209" lon="1.7522">
        <ele>168.5</ele>
        <time>2015-07-05T05:36:23.000Z</time>
      </trkpt>
      <trkpt lat="48.70209" lon="1.75216">
        <ele>168.4</ele>
        <time>2015-07-05T05:36:25.000Z</time>
      </trkpt>
      <trkpt lat="48.70213" lon="1.75198">
        <ele>168.1</ele>
        <time>2015-07-05T05:36:32.000Z</time>
      </trkpt>
      <trkpt lat="48.70211" lon="1.75191">
        <ele>168</ele>
        <time>2015-07-05T05:36:37.000Z</time>
      </trkpt>
      <trkpt lat="48.70205" lon="1.75182">
        <ele>168</ele>
        <time>2015-07-05T05:36:41.000Z</time>
      </trkpt>
      <trkpt lat="48.70208" lon="1.75167">
        <ele>168</ele>
        <time>2015-07-05T05:36:47.000Z</time>
      </trkpt>
      <trkpt lat="48.70211" lon="1.75151">
        <ele>168.3</ele>
        <time>2015-07-05T05:36:54.000Z</time>
      </trkpt>
      <trkpt lat="48.70212" lon="1.75136">
        <ele>168.7</ele>
        <time>2015-07-05T05:37:00.000Z</time>
      </trkpt>
      <trkpt lat="48.70215" lon="1.7512">
        <ele>168.9</ele>
        <time>2015-07-05T05:37:08.000Z</time>
      </trkpt>
      <trkpt lat="48.70215" lon="1.75106">
        <ele>169.2</ele>
        <time>2015-07-05T05:37:14.000Z</time>
      </trkpt>
      <trkpt lat="48.70218" lon="1.75096">
        <ele>169.6</ele>
        <time>2015-07-05T05:37:19.000Z</time>
      </trkpt>
      <trkpt lat="48.70221" lon="1.75084">
        <ele>170</ele>
        <time>2015-07-05T05:37:26.000Z</time>
      </trkpt>
      <trkpt lat="48.70222" lon="1.7508">
        <ele>170</ele>
        <time>2015-07-05T05:37:28.000Z</time>
      </trkpt>
      <trkpt lat="48.70224" lon="1.75062">
        <ele>170</ele>
        <time>2015-07-05T05:37:37.000Z</time>
      </trkpt>
      <trkpt lat="48.70225" lon="1.75045">
        <ele>170</ele>
        <time>2015-07-05T05:37:44.000Z</time>
      </trkpt>
      <trkpt lat="48.70228" lon="1.75024">
        <ele>170</ele>
        <time>2015-07-05T05:37:53.000Z</time>
      </trkpt>
      <trkpt lat="48.70231" lon="1.75008">
        <ele>170</ele>
        <time>2015-07-05T05:38:00.000Z</time>
      </trkpt>
      <trkpt lat="48.70234" lon="1.75002">
        <ele>170</ele>
        <time>2015-07-05T05:38:07.000Z</time>
      </trkpt>
      <trkpt lat="48.70236" lon="1.74991">
        <ele>169.8</ele>
        <time>2015-07-05T05:38:13.000Z</time>
      </trkpt>
      <trkpt lat="48.70238" lon="1.74969">
        <ele>169.4</ele>
        <time>2015-07-05T05:38:22.000Z</time>
      </trkpt>
      <trkpt lat="48.7024" lon="1.74955">
        <ele>169.4</ele>
        <time>2015-07-05T05:38:30.000Z</time>
      </trkpt>
      <trkpt lat="48.70244" lon="1.74938">
        <ele>169</ele>
        <time>2015-07-05T05:38:39.000Z</time>
      </trkpt>
      <trkpt lat="48.70248" lon="1.74917">
        <ele>168.1</ele>
        <time>2015-07-05T05:38:49.000Z</time>
      </trkpt>
      <trkpt lat="48.70251" lon="1.74902">
        <ele>167.4</ele>
        <time>2015-07-05T05:38:56.000Z</time>
      </trkpt>
      <trkpt lat="48.70253" lon="1.74884">
        <ele>166.7</ele>
        <time>2015-07-05T05:39:04.000Z</time>
      </trkpt>
      <trkpt lat="48.70255" lon="1.74868">
        <ele>166.1</ele>
        <time>2015-07-05T05:39:11.000Z</time>
      </trkpt>
      <trkpt lat="48.70256" lon="1.74859">
        <ele>165.8</ele>
        <time>2015-07-05T05:39:15.000Z</time>
      </trkpt>
      <trkpt lat="48.70258" lon="1.74846">
        <ele>165.7</ele>
        <time>2015-07-05T05:39:21.000Z</time>
      </trkpt>
      <trkpt lat="48.7026" lon="1.74826">
        <ele>165.4</ele>
        <time>2015-07-05T05:39:30.000Z</time>
      </trkpt>
      <trkpt lat="48.70261" lon="1.74819">
        <ele>165.1</ele>
        <time>2015-07-05T05:39:33.000Z</time>
      </trkpt>
      <trkpt lat="48.70262" lon="1.74809">
        <ele>164.7</ele>
        <time>2015-07-05T05:39:38.000Z</time>
      </trkpt>
      <trkpt lat="48.70264" lon="1.74791">
        <ele>164.5</ele>
        <time>2015-07-05T05:39:46.000Z</time>
      </trkpt>
      <trkpt lat="48.70266" lon="1.74772">
        <ele>164.2</ele>
        <time>2015-07-05T05:39:55.000Z</time>
      </trkpt>
      <trkpt lat="48.70268" lon="1.74756">
        <ele>163.6</ele>
        <time>2015-07-05T05:40:02.000Z</time>
      </trkpt>
      <trkpt lat="48.7027" lon="1.74741">
        <ele>163.3</ele>
        <time>2015-07-05T05:40:09.000Z</time>
      </trkpt>
      <trkpt lat="48.70275" lon="1.74722">
        <ele>163.1</ele>
        <time>2015-07-05T05:40:18.000Z</time>
      </trkpt>
      <trkpt lat="48.70278" lon="1.74701">
        <ele>163</ele>
        <time>2015-07-05T05:40:28.000Z</time>
      </trkpt>
      <trkpt lat="48.70283" lon="1.74682">
        <ele>163</ele>
        <time>2015-07-05T05:40:37.000Z</time>
      </trkpt>
      <trkpt lat="48.70283" lon="1.74665">
        <ele>163</ele>
        <time>2015-07-05T05:40:44.000Z</time>
      </trkpt>
      <trkpt lat="48.70287" lon="1.7466">
        <ele>162.8</ele>
        <time>2015-07-05T05:40:48.000Z</time>
      </trkpt>
      <trkpt lat="48.703" lon="1.74656">
        <ele>162.9</ele>
        <time>2015-07-05T05:40:56.000Z</time>
      </trkpt>
      <trkpt lat="48.70306" lon="1.74646">
        <ele>163</ele>
        <time>2015-07-05T05:41:03.000Z</time>
      </trkpt>
      <trkpt lat="48.70307" lon="1.7464">
        <ele>163.1</ele>
        <time>2015-07-05T05:41:06.000Z</time>
      </trkpt>
      <trkpt lat="48.70304" lon="1.74628">
        <ele>163</ele>
        <time>2015-07-05T05:41:12.000Z</time>
      </trkpt>
      <trkpt lat="48.70302" lon="1.74621">
        <ele>162.9</ele>
        <time>2015-07-05T05:41:16.000Z</time>
      </trkpt>
      <trkpt lat="48.70296" lon="1.74599">
        <ele>162.5</ele>
        <time>2015-07-05T05:41:26.000Z</time>
      </trkpt>
      <trkpt lat="48.70295" lon="1.74587">
        <ele>162.3</ele>
        <time>2015-07-05T05:41:32.000Z</time>
      </trkpt>
      <trkpt lat="48.70295" lon="1.74578">
        <ele>162.4</ele>
        <time>2015-07-05T05:41:37.000Z</time>
      </trkpt>
      <trkpt lat="48.70293" lon="1.74568">
        <ele>162.3</ele>
        <time>2015-07-05T05:41:42.000Z</time>
      </trkpt>
      <trkpt lat="48.70288" lon="1.74554">
        <ele>162.4</ele>
        <time>2015-07-05T05:41:49.000Z</time>
      </trkpt>
      <trkpt lat="48.70287" lon="1.74549">
        <ele>162.3</ele>
        <time>2015-07-05T05:41:51.000Z</time>
      </trkpt>
      <trkpt lat="48.70283" lon="1.74535">
        <ele>162.2</ele>
        <time>2015-07-05T05:41:57.000Z</time>
      </trkpt>
      <trkpt lat="48.70281" lon="1.74532">
        <ele>162.1</ele>
        <time>2015-07-05T05:41:58.000Z</time>
      </trkpt>
      <trkpt lat="48.70278" lon="1.74514">
        <ele>162.5</ele>
        <time>2015-07-05T05:42:03.000Z</time>
      </trkpt>
      <trkpt lat="48.70276" lon="1.74505">
        <ele>162.8</ele>
        <time>2015-07-05T05:42:06.000Z</time>
      </trkpt>
      <trkpt lat="48.70274" lon="1.74492">
        <ele>163</ele>
        <time>2015-07-05T05:42:13.000Z</time>
      </trkpt>
      <trkpt lat="48.70272" lon="1.74477">
        <ele>163.2</ele>
        <time>2015-07-05T05:42:19.000Z</time>
      </trkpt>
      <trkpt lat="48.70274" lon="1.74469">
        <ele>163.2</ele>
        <time>2015-07-05T05:42:24.000Z</time>
      </trkpt>
      <trkpt lat="48.70275" lon="1.74461">
        <ele>163.5</ele>
        <time>2015-07-05T05:42:29.000Z</time>
      </trkpt>
      <trkpt lat="48.70274" lon="1.74448">
        <ele>164</ele>
        <time>2015-07-05T05:42:34.000Z</time>
      </trkpt>
      <trkpt lat="48.70275" lon="1.74439">
        <ele>164.1</ele>
        <time>2015-07-05T05:42:38.000Z</time>
      </trkpt>
      <trkpt lat="48.70274" lon="1.74431">
        <ele>164.1</ele>
        <time>2015-07-05T05:42:42.000Z</time>
      </trkpt>
      <trkpt lat="48.70273" lon="1.74413">
        <ele>164.3</ele>
        <time>2015-07-05T05:42:50.000Z</time>
      </trkpt>
      <trkpt lat="48.70272" lon="1.74406">
        <ele>164.6</ele>
        <time>2015-07-05T05:42:54.000Z</time>
      </trkpt>
      <trkpt lat="48.70272" lon="1.74396">
        <ele>164.9</ele>
        <time>2015-07-05T05:42:59.000Z</time>
      </trkpt>
      <trkpt lat="48.70267" lon="1.74381">
        <ele>165.7</ele>
        <time>2015-07-05T05:43:06.000Z</time>
      </trkpt>
      <trkpt lat="48.70266" lon="1.74376">
        <ele>165.9</ele>
        <time>2015-07-05T05:43:09.000Z</time>
      </trkpt>
      <trkpt lat="48.70265" lon="1.74364">
        <ele>166.4</ele>
        <time>2015-07-05T05:43:15.000Z</time>
      </trkpt>
      <trkpt lat="48.70265" lon="1.7436">
        <ele>166.5</ele>
        <time>2015-07-05T05:43:17.000Z</time>
      </trkpt>
      <trkpt lat="48.70258" lon="1.74342">
        <ele>166.9</ele>
        <time>2015-07-05T05:43:25.000Z</time>
      </trkpt>
      <trkpt lat="48.70258" lon="1.74336">
        <ele>167</ele>
        <time>2015-07-05T05:43:30.000Z</time>
      </trkpt>
      <trkpt lat="48.70257" lon="1.74328">
        <ele>167.1</ele>
        <time>2015-07-05T05:43:36.000Z</time>
      </trkpt>
      <trkpt lat="48.70257" lon="1.74326">
        <ele>167.2</ele>
        <time>2015-07-05T05:43:38.000Z</time>
      </trkpt>
      <trkpt lat="48.70257" lon="1.74319">
        <ele>167.4</ele>
        <time>2015-07-05T05:43:42.000Z</time>
      </trkpt>
      <trkpt lat="48.70258" lon="1.74311">
        <ele>167.6</ele>
        <time>2015-07-05T05:43:49.000Z</time>
      </trkpt>
      <trkpt lat="48.70258" lon="1.74311">
        <ele>167.6</ele>
        <time>2015-07-05T05:43:51.000Z</time>
      </trkpt>
      <trkpt lat="48.70256" lon="1.74302">
        <ele>167.8</ele>
        <time>2015-07-05T05:44:00.000Z</time>
      </trkpt>
      <trkpt lat="48.70253" lon="1.7429">
        <ele>167.9</ele>
        <time>2015-07-05T05:44:05.000Z</time>
      </trkpt>
      <trkpt lat="48.70249" lon="1.74279">
        <ele>168</ele>
        <time>2015-07-05T05:44:11.000Z</time>
      </trkpt>
      <trkpt lat="48.70248" lon="1.74265">
        <ele>168.1</ele>
        <time>2015-07-05T05:44:18.000Z</time>
      </trkpt>
      <trkpt lat="48.70246" lon="1.7426">
        <ele>168.1</ele>
        <time>2015-07-05T05:44:21.000Z</time>
      </trkpt>
      <trkpt lat="48.70241" lon="1.74249">
        <ele>168.4</ele>
        <time>2015-07-05T05:44:28.000Z</time>
      </trkpt>
      <trkpt lat="48.70236" lon="1.74241">
        <ele>168.7</ele>
        <time>2015-07-05T05:44:34.000Z</time>
      </trkpt>
      <trkpt lat="48.70227" lon="1.7423">
        <ele>169</ele>
        <time>2015-07-05T05:44:41.000Z</time>
      </trkpt>
      <trkpt lat="48.70224" lon="1.74226">
        <ele>169</ele>
        <time>2015-07-05T05:44:43.000Z</time>
      </trkpt>
      <trkpt lat="48.70216" lon="1.74217">
        <ele>169</ele>
        <time>2015-07-05T05:44:50.000Z</time>
      </trkpt>
      <trkpt lat="48.70212" lon="1.74211">
        <ele>169</ele>
        <time>2015-07-05T05:44:54.000Z</time>
      </trkpt>
      <trkpt lat="48.70205" lon="1.74197">
        <ele>169</ele>
        <time>2015-07-05T05:45:02.000Z</time>
      </trkpt>
      <trkpt lat="48.70205" lon="1.7419">
        <ele>169.2</ele>
        <time>2015-07-05T05:45:06.000Z</time>
      </trkpt>
      <trkpt lat="48.70201" lon="1.74174">
        <ele>169.7</ele>
        <time>2015-07-05T05:45:13.000Z</time>
      </trkpt>
      <trkpt lat="48.70197" lon="1.74157">
        <ele>170</ele>
        <time>2015-07-05T05:45:20.000Z</time>
      </trkpt>
      <trkpt lat="48.70192" lon="1.74141">
        <ele>170</ele>
        <time>2015-07-05T05:45:27.000Z</time>
      </trkpt>
      <trkpt lat="48.70189" lon="1.74119">
        <ele>170</ele>
        <time>2015-07-05T05:45:36.000Z</time>
      </trkpt>
      <trkpt lat="48.70187" lon="1.74111">
        <ele>170</ele>
        <time>2015-07-05T05:45:42.000Z</time>
      </trkpt>
      <trkpt lat="48.70186" lon="1.7411">
        <ele>170</ele>
        <time>2015-07-05T05:45:45.000Z</time>
      </trkpt>
      <trkpt lat="48.70184" lon="1.74103">
        <ele>170</ele>
        <time>2015-07-05T05:45:54.000Z</time>
      </trkpt>
      <trkpt lat="48.70179" lon="1.7409">
        <ele>170</ele>
        <time>2015-07-05T05:45:57.000Z</time>
      </trkpt>
      <trkpt lat="48.70174" lon="1.74068">
        <ele>170</ele>
        <time>2015-07-05T05:46:02.000Z</time>
      </trkpt>
      <trkpt lat="48.70171" lon="1.74056">
        <ele>170</ele>
        <time>2015-07-05T05:46:07.000Z</time>
      </trkpt>
      <trkpt lat="48.7017" lon="1.74044">
        <ele>170</ele>
        <time>2015-07-05T05:46:15.000Z</time>
      </trkpt>
      <trkpt lat="48.70165" lon="1.74046">
        <ele>170</ele>
        <time>2015-07-05T05:46:22.000Z</time>
      </trkpt>
      <trkpt lat="48.70155" lon="1.7405">
        <ele>170</ele>
        <time>2015-07-05T05:46:30.000Z</time>
      </trkpt>
      <trkpt lat="48.70144" lon="1.74055">
        <ele>170</ele>
        <time>2015-07-05T05:46:38.000Z</time>
      </trkpt>
      <trkpt lat="48.70135" lon="1.74059">
        <ele>169.9</ele>
        <time>2015-07-05T05:46:46.000Z</time>
      </trkpt>
      <trkpt lat="48.70126" lon="1.74064">
        <ele>169.5</ele>
        <time>2015-07-05T05:46:53.000Z</time>
      </trkpt>
      <trkpt lat="48.70116" lon="1.74068">
        <ele>169.2</ele>
        <time>2015-07-05T05:47:01.000Z</time>
      </trkpt>
      <trkpt lat="48.70104" lon="1.74074">
        <ele>168.8</ele>
        <time>2015-07-05T05:47:10.000Z</time>
      </trkpt>
      <trkpt lat="48.70089" lon="1.7408">
        <ele>168.3</ele>
        <time>2015-07-05T05:47:19.000Z</time>
      </trkpt>
      <trkpt lat="48.7008" lon="1.74083">
        <ele>168</ele>
        <time>2015-07-05T05:47:26.000Z</time>
      </trkpt>
      <trkpt lat="48.70071" lon="1.74088">
        <ele>167.9</ele>
        <time>2015-07-05T05:47:33.000Z</time>
      </trkpt>
      <trkpt lat="48.70063" lon="1.74092">
        <ele>167.8</ele>
        <time>2015-07-05T05:47:39.000Z</time>
      </trkpt>
      <trkpt lat="48.70055" lon="1.74097">
        <ele>167.5</ele>
        <time>2015-07-05T05:47:45.000Z</time>
      </trkpt>
      <trkpt lat="48.70048" lon="1.74097">
        <ele>167.1</ele>
        <time>2015-07-05T05:47:51.000Z</time>
      </trkpt>
      <trkpt lat="48.70038" lon="1.74101">
        <ele>166.5</ele>
        <time>2015-07-05T05:47:58.000Z</time>
      </trkpt>
      <trkpt lat="48.70031" lon="1.74105">
        <ele>166.1</ele>
        <time>2015-07-05T05:48:02.000Z</time>
      </trkpt>
      <trkpt lat="48.70023" lon="1.74109">
        <ele>165.7</ele>
        <time>2015-07-05T05:48:06.000Z</time>
      </trkpt>
      <trkpt lat="48.70019" lon="1.74111">
        <ele>165.3</ele>
        <time>2015-07-05T05:48:09.000Z</time>
      </trkpt>
      <trkpt lat="48.70015" lon="1.74113">
        <ele>165</ele>
        <time>2015-07-05T05:48:11.000Z</time>
      </trkpt>
      <trkpt lat="48.70009" lon="1.74117">
        <ele>164.4</ele>
        <time>2015-07-05T05:48:17.000Z</time>
      </trkpt>
      <trkpt lat="48.7" lon="1.7412">
        <ele>163.7</ele>
        <time>2015-07-05T05:48:23.000Z</time>
      </trkpt>
      <trkpt lat="48.69989" lon="1.74124">
        <ele>162.5</ele>
        <time>2015-07-05T05:48:31.000Z</time>
      </trkpt>
      <trkpt lat="48.69987" lon="1.74125">
        <ele>162.3</ele>
        <time>2015-07-05T05:48:32.000Z</time>
      </trkpt>
      <trkpt lat="48.6998" lon="1.74129">
        <ele>161.6</ele>
        <time>2015-07-05T05:48:38.000Z</time>
      </trkpt>
      <trkpt lat="48.69969" lon="1.74134">
        <ele>160.9</ele>
        <time>2015-07-05T05:48:45.000Z</time>
      </trkpt>
      <trkpt lat="48.6996" lon="1.74139">
        <ele>160.5</ele>
        <time>2015-07-05T05:48:52.000Z</time>
      </trkpt>
      <trkpt lat="48.69952" lon="1.74142">
        <ele>160.3</ele>
        <time>2015-07-05T05:48:58.000Z</time>
      </trkpt>
      <trkpt lat="48.69944" lon="1.74146">
        <ele>160</ele>
        <time>2015-07-05T05:49:05.000Z</time>
      </trkpt>
      <trkpt lat="48.69931" lon="1.7415">
        <ele>159.5</ele>
        <time>2015-07-05T05:49:14.000Z</time>
      </trkpt>
      <trkpt lat="48.69924" lon="1.74153">
        <ele>159.3</ele>
        <time>2015-07-05T05:49:19.000Z</time>
      </trkpt>
      <trkpt lat="48.69915" lon="1.74158">
        <ele>159</ele>
        <time>2015-07-05T05:49:26.000Z</time>
      </trkpt>
      <trkpt lat="48.69907" lon="1.74164">
        <ele>159</ele>
        <time>2015-07-05T05:49:33.000Z</time>
      </trkpt>
      <trkpt lat="48.69896" lon="1.74172">
        <ele>159.1</ele>
        <time>2015-07-05T05:49:40.000Z</time>
      </trkpt>
      <trkpt lat="48.69891" lon="1.74171">
        <ele>159</ele>
        <time>2015-07-05T05:49:44.000Z</time>
      </trkpt>
      <trkpt lat="48.69886" lon="1.74161">
        <ele>159</ele>
        <time>2015-07-05T05:49:51.000Z</time>
      </trkpt>
      <trkpt lat="48.69884" lon="1.74152">
        <ele>159</ele>
        <time>2015-07-05T05:49:56.000Z</time>
      </trkpt>
      <trkpt lat="48.69878" lon="1.74137">
        <ele>159</ele>
        <time>2015-07-05T05:50:03.000Z</time>
      </trkpt>
      <trkpt lat="48.69876" lon="1.74131">
        <ele>159</ele>
        <time>2015-07-05T05:50:05.000Z</time>
      </trkpt>
      <trkpt lat="48.69872" lon="1.74118">
        <ele>159</ele>
        <time>2015-07-05T05:50:10.000Z</time>
      </trkpt>
      <trkpt lat="48.6987" lon="1.74112">
        <ele>159</ele>
        <time>2015-07-05T05:50:12.000Z</time>
      </trkpt>
      <trkpt lat="48.69863" lon="1.74091">
        <ele>159.7</ele>
        <time>2015-07-05T05:50:20.000Z</time>
      </trkpt>
      <trkpt lat="48.69858" lon="1.74077">
        <ele>160</ele>
        <time>2015-07-05T05:50:27.000Z</time>
      </trkpt>
      <trkpt lat="48.69856" lon="1.74065">
        <ele>160.1</ele>
        <time>2015-07-05T05:50:34.000Z</time>
      </trkpt>
      <trkpt lat="48.69857" lon="1.74055">
        <ele>160.2</ele>
        <time>2015-07-05T05:50:39.000Z</time>
      </trkpt>
      <trkpt lat="48.69856" lon="1.74041">
        <ele>160.7</ele>
        <time>2015-07-05T05:50:46.000Z</time>
      </trkpt>
      <trkpt lat="48.69852" lon="1.74026">
        <ele>161.4</ele>
        <time>2015-07-05T05:50:54.000Z</time>
      </trkpt>
      <trkpt lat="48.69849" lon="1.74012">
        <ele>161.8</ele>
        <time>2015-07-05T05:51:02.000Z</time>
      </trkpt>
      <trkpt lat="48.69848" lon="1.74009">
        <ele>161.8</ele>
        <time>2015-07-05T05:51:04.000Z</time>
      </trkpt>
      <trkpt lat="48.69843" lon="1.73997">
        <ele>162.1</ele>
        <time>2015-07-05T05:51:11.000Z</time>
      </trkpt>
      <trkpt lat="48.69838" lon="1.73988">
        <ele>162.4</ele>
        <time>2015-07-05T05:51:16.000Z</time>
      </trkpt>
      <trkpt lat="48.69835" lon="1.73973">
        <ele>163</ele>
        <time>2015-07-05T05:51:22.000Z</time>
      </trkpt>
      <trkpt lat="48.69834" lon="1.7397">
        <ele>163.1</ele>
        <time>2015-07-05T05:51:23.000Z</time>
      </trkpt>
      <trkpt lat="48.69828" lon="1.73948">
        <ele>164</ele>
        <time>2015-07-05T05:51:32.000Z</time>
      </trkpt>
      <trkpt lat="48.69825" lon="1.73929">
        <ele>164.9</ele>
        <time>2015-07-05T05:51:41.000Z</time>
      </trkpt>
      <trkpt lat="48.69823" lon="1.73918">
        <ele>165.3</ele>
        <time>2015-07-05T05:51:46.000Z</time>
      </trkpt>
      <trkpt lat="48.69821" lon="1.73909">
        <ele>165.7</ele>
        <time>2015-07-05T05:51:51.000Z</time>
      </trkpt>
      <trkpt lat="48.69821" lon="1.73897">
        <ele>166.1</ele>
        <time>2015-07-05T05:51:57.000Z</time>
      </trkpt>
      <trkpt lat="48.69819" lon="1.73889">
        <ele>166.5</ele>
        <time>2015-07-05T05:52:01.000Z</time>
      </trkpt>
      <trkpt lat="48.69814" lon="1.73869">
        <ele>166.7</ele>
        <time>2015-07-05T05:52:10.000Z</time>
      </trkpt>
      <trkpt lat="48.6981" lon="1.73851">
        <ele>167.2</ele>
        <time>2015-07-05T05:52:18.000Z</time>
      </trkpt>
      <trkpt lat="48.69805" lon="1.73834">
        <ele>168</ele>
        <time>2015-07-05T05:52:25.000Z</time>
      </trkpt>
      <trkpt lat="48.69799" lon="1.73814">
        <ele>168</ele>
        <time>2015-07-05T05:52:34.000Z</time>
      </trkpt>
      <trkpt lat="48.69793" lon="1.73797">
        <ele>168</ele>
        <time>2015-07-05T05:52:41.000Z</time>
      </trkpt>
      <trkpt lat="48.69789" lon="1.73782">
        <ele>168</ele>
        <time>2015-07-05T05:52:47.000Z</time>
      </trkpt>
      <trkpt lat="48.69784" lon="1.73766">
        <ele>168</ele>
        <time>2015-07-05T05:52:55.000Z</time>
      </trkpt>
      <trkpt lat="48.6978" lon="1.7375">
        <ele>168</ele>
        <time>2015-07-05T05:53:02.000Z</time>
      </trkpt>
      <trkpt lat="48.69777" lon="1.73735">
        <ele>168</ele>
        <time>2015-07-05T05:53:10.000Z</time>
      </trkpt>
      <trkpt lat="48.69773" lon="1.73716">
        <ele>168.4</ele>
        <time>2015-07-05T05:53:20.000Z</time>
      </trkpt>
      <trkpt lat="48.69771" lon="1.73705">
        <ele>168.7</ele>
        <time>2015-07-05T05:53:26.000Z</time>
      </trkpt>
      <trkpt lat="48.69767" lon="1.73695">
        <ele>169</ele>
        <time>2015-07-05T05:53:31.000Z</time>
      </trkpt>
      <trkpt lat="48.69766" lon="1.73682">
        <ele>169</ele>
        <time>2015-07-05T05:53:37.000Z</time>
      </trkpt>
      <trkpt lat="48.69765" lon="1.7368">
        <ele>169</ele>
        <time>2015-07-05T05:53:38.000Z</time>
      </trkpt>
      <trkpt lat="48.69765" lon="1.73677">
        <ele>169</ele>
        <time>2015-07-05T05:53:40.000Z</time>
      </trkpt>
      <trkpt lat="48.69759" lon="1.73672">
        <ele>169</ele>
        <time>2015-07-05T05:53:48.000Z</time>
      </trkpt>
      <trkpt lat="48.69755" lon="1.7367">
        <ele>169</ele>
        <time>2015-07-05T05:53:53.000Z</time>
      </trkpt>
      <trkpt lat="48.69747" lon="1.73674">
        <ele>169.1</ele>
        <time>2015-07-05T05:54:00.000Z</time>
      </trkpt>
      <trkpt lat="48.69734" lon="1.73675">
        <ele>169.6</ele>
        <time>2015-07-05T05:54:08.000Z</time>
      </trkpt>
      <trkpt lat="48.69731" lon="1.73675">
        <ele>169.7</ele>
        <time>2015-07-05T05:54:10.000Z</time>
      </trkpt>
      <trkpt lat="48.69725" lon="1.73673">
        <ele>169.9</ele>
        <time>2015-07-05T05:54:14.000Z</time>
      </trkpt>
      <trkpt lat="48.69717" lon="1.73674">
        <ele>170</ele>
        <time>2015-07-05T05:54:20.000Z</time>
      </trkpt>
      <trkpt lat="48.69703" lon="1.73672">
        <ele>170</ele>
        <time>2015-07-05T05:54:30.000Z</time>
      </trkpt>
      <trkpt lat="48.69694" lon="1.73672">
        <ele>170</ele>
        <time>2015-07-05T05:54:37.000Z</time>
      </trkpt>
      <trkpt lat="48.6969" lon="1.73672">
        <ele>170.2</ele>
        <time>2015-07-05T05:54:41.000Z</time>
      </trkpt>
      <trkpt lat="48.6969" lon="1.73673">
        <ele>170.2</ele>
        <time>2015-07-05T05:54:44.000Z</time>
      </trkpt>
      <trkpt lat="48.69697" lon="1.73673">
        <ele>170</ele>
        <time>2015-07-05T05:54:54.000Z</time>
      </trkpt>
      <trkpt lat="48.69708" lon="1.73672">
        <ele>170</ele>
        <time>2015-07-05T05:55:01.000Z</time>
      </trkpt>
      <trkpt lat="48.6972" lon="1.73671">
        <ele>170</ele>
        <time>2015-07-05T05:55:10.000Z</time>
      </trkpt>
      <trkpt lat="48.69731" lon="1.73671">
        <ele>169.7</ele>
        <time>2015-07-05T05:55:18.000Z</time>
      </trkpt>
      <trkpt lat="48.69742" lon="1.73668">
        <ele>169.3</ele>
        <time>2015-07-05T05:55:26.000Z</time>
      </trkpt>
      <trkpt lat="48.69751" lon="1.73668">
        <ele>169</ele>
        <time>2015-07-05T05:55:33.000Z</time>
      </trkpt>
      <trkpt lat="48.69759" lon="1.73668">
        <ele>169</ele>
        <time>2015-07-05T05:55:39.000Z</time>
      </trkpt>
      <trkpt lat="48.69759" lon="1.73668">
        <ele>169</ele>
        <time>2015-07-05T05:55:40.000Z</time>
      </trkpt>
      <trkpt lat="48.69765" lon="1.73665">
        <ele>169</ele>
        <time>2015-07-05T05:55:44.000Z</time>
      </trkpt>
      <trkpt lat="48.69775" lon="1.7366">
        <ele>169</ele>
        <time>2015-07-05T05:55:50.000Z</time>
      </trkpt>
      <trkpt lat="48.69776" lon="1.73659">
        <ele>169</ele>
        <time>2015-07-05T05:55:51.000Z</time>
      </trkpt>
      <trkpt lat="48.69784" lon="1.73648">
        <ele>168.8</ele>
        <time>2015-07-05T05:55:59.000Z</time>
      </trkpt>
      <trkpt lat="48.69787" lon="1.73638">
        <ele>168.7</ele>
        <time>2015-07-05T05:56:04.000Z</time>
      </trkpt>
      <trkpt lat="48.69791" lon="1.73626">
        <ele>168.7</ele>
        <time>2015-07-05T05:56:09.000Z</time>
      </trkpt>
      <trkpt lat="48.69795" lon="1.73616">
        <ele>168.9</ele>
        <time>2015-07-05T05:56:14.000Z</time>
      </trkpt>
      <trkpt lat="48.69798" lon="1.73604">
        <ele>169</ele>
        <time>2015-07-05T05:56:20.000Z</time>
      </trkpt>
      <trkpt lat="48.69799" lon="1.73597">
        <ele>169</ele>
        <time>2015-07-05T05:56:22.000Z</time>
      </trkpt>
      <trkpt lat="48.69805" lon="1.73585">
        <ele>169</ele>
        <time>2015-07-05T05:56:29.000Z</time>
      </trkpt>
      <trkpt lat="48.69812" lon="1.73572">
        <ele>169</ele>
        <time>2015-07-05T05:56:37.000Z</time>
      </trkpt>
      <trkpt lat="48.69815" lon="1.73567">
        <ele>169</ele>
        <time>2015-07-05T05:56:40.000Z</time>
      </trkpt>
      <trkpt lat="48.69819" lon="1.73555">
        <ele>169</ele>
        <time>2015-07-05T05:56:46.000Z</time>
      </trkpt>
      <trkpt lat="48.69826" lon="1.73544">
        <ele>169</ele>
        <time>2015-07-05T05:56:53.000Z</time>
      </trkpt>
      <trkpt lat="48.69831" lon="1.73533">
        <ele>169</ele>
        <time>2015-07-05T05:56:58.000Z</time>
      </trkpt>
      <trkpt lat="48.69834" lon="1.73525">
        <ele>169</ele>
        <time>2015-07-05T05:57:02.000Z</time>
      </trkpt>
      <trkpt lat="48.69835" lon="1.73521">
        <ele>169</ele>
        <time>2015-07-05T05:57:04.000Z</time>
      </trkpt>
      <trkpt lat="48.69845" lon="1.73505">
        <ele>169</ele>
        <time>2015-07-05T05:57:13.000Z</time>
      </trkpt>
      <trkpt lat="48.69845" lon="1.73503">
        <ele>169</ele>
        <time>2015-07-05T05:57:14.000Z</time>
      </trkpt>
      <trkpt lat="48.69851" lon="1.73493">
        <ele>169</ele>
        <time>2015-07-05T05:57:21.000Z</time>
      </trkpt>
      <trkpt lat="48.69858" lon="1.7348">
        <ele>169</ele>
        <time>2015-07-05T05:57:28.000Z</time>
      </trkpt>
      <trkpt lat="48.69864" lon="1.73472">
        <ele>169</ele>
        <time>2015-07-05T05:57:32.000Z</time>
      </trkpt>
      <trkpt lat="48.69868" lon="1.73468">
        <ele>169</ele>
        <time>2015-07-05T05:57:38.000Z</time>
      </trkpt>
      <trkpt lat="48.69871" lon="1.73465">
        <ele>169</ele>
        <time>2015-07-05T05:57:42.000Z</time>
      </trkpt>
      <trkpt lat="48.69877" lon="1.73454">
        <ele>169</ele>
        <time>2015-07-05T05:57:48.000Z</time>
      </trkpt>
      <trkpt lat="48.69881" lon="1.73443">
        <ele>169</ele>
        <time>2015-07-05T05:57:55.000Z</time>
      </trkpt>
      <trkpt lat="48.69887" lon="1.73432">
        <ele>169</ele>
        <time>2015-07-05T05:58:02.000Z</time>
      </trkpt>
      <trkpt lat="48.69893" lon="1.73419">
        <ele>169</ele>
        <time>2015-07-05T05:58:09.000Z</time>
      </trkpt>
      <trkpt lat="48.69895" lon="1.73415">
        <ele>169</ele>
        <time>2015-07-05T05:58:11.000Z</time>
      </trkpt>
      <trkpt lat="48.69899" lon="1.73406">
        <ele>169</ele>
        <time>2015-07-05T05:58:16.000Z</time>
      </trkpt>
      <trkpt lat="48.699" lon="1.73399">
        <ele>169</ele>
        <time>2015-07-05T05:58:19.000Z</time>
      </trkpt>
      <trkpt lat="48.69906" lon="1.73387">
        <ele>169.1</ele>
        <time>2015-07-05T05:58:26.000Z</time>
      </trkpt>
      <trkpt lat="48.69907" lon="1.73383">
        <ele>169.1</ele>
        <time>2015-07-05T05:58:28.000Z</time>
      </trkpt>
      <trkpt lat="48.69914" lon="1.73369">
        <ele>169.6</ele>
        <time>2015-07-05T05:58:36.000Z</time>
      </trkpt>
      <trkpt lat="48.69921" lon="1.73357">
        <ele>170</ele>
        <time>2015-07-05T05:58:44.000Z</time>
      </trkpt>
      <trkpt lat="48.69928" lon="1.73341">
        <ele>170</ele>
        <time>2015-07-05T05:58:53.000Z</time>
      </trkpt>
      <trkpt lat="48.69935" lon="1.73327">
        <ele>170</ele>
        <time>2015-07-05T05:59:01.000Z</time>
      </trkpt>
      <trkpt lat="48.69938" lon="1.73322">
        <ele>170</ele>
        <time>2015-07-05T05:59:05.000Z</time>
      </trkpt>
      <trkpt lat="48.69943" lon="1.73312">
        <ele>170</ele>
        <time>2015-07-05T05:59:11.000Z</time>
      </trkpt>
      <trkpt lat="48.69946" lon="1.73304">
        <ele>170</ele>
        <time>2015-07-05T05:59:15.000Z</time>
      </trkpt>
      <trkpt lat="48.69952" lon="1.73295">
        <ele>170</ele>
        <time>2015-07-05T05:59:20.000Z</time>
      </trkpt>
      <trkpt lat="48.69953" lon="1.73291">
        <ele>170</ele>
        <time>2015-07-05T05:59:25.000Z</time>
      </trkpt>
      <trkpt lat="48.69955" lon="1.73285">
        <ele>170</ele>
        <time>2015-07-05T05:59:40.000Z</time>
      </trkpt>
      <trkpt lat="48.69961" lon="1.73278">
        <ele>170</ele>
        <time>2015-07-05T05:59:45.000Z</time>
      </trkpt>
      <trkpt lat="48.69968" lon="1.73262">
        <ele>170.1</ele>
        <time>2015-07-05T05:59:55.000Z</time>
      </trkpt>
      <trkpt lat="48.69972" lon="1.73252">
        <ele>170</ele>
        <time>2015-07-05T06:00:01.000Z</time>
      </trkpt>
      <trkpt lat="48.69978" lon="1.73244">
        <ele>170.2</ele>
        <time>2015-07-05T06:00:07.000Z</time>
      </trkpt>
      <trkpt lat="48.69983" lon="1.73234">
        <ele>170.4</ele>
        <time>2015-07-05T06:00:13.000Z</time>
      </trkpt>
      <trkpt lat="48.69988" lon="1.73222">
        <ele>170.4</ele>
        <time>2015-07-05T06:00:19.000Z</time>
      </trkpt>
      <trkpt lat="48.69995" lon="1.7321">
        <ele>170.2</ele>
        <time>2015-07-05T06:00:27.000Z</time>
      </trkpt>
      <trkpt lat="48.69999" lon="1.73192">
        <ele>170.1</ele>
        <time>2015-07-05T06:00:35.000Z</time>
      </trkpt>
      <trkpt lat="48.7" lon="1.7319">
        <ele>170.2</ele>
        <time>2015-07-05T06:00:36.000Z</time>
      </trkpt>
      <trkpt lat="48.70004" lon="1.73181">
        <ele>170.6</ele>
        <time>2015-07-05T06:00:42.000Z</time>
      </trkpt>
      <trkpt lat="48.7001" lon="1.73171">
        <ele>170.9</ele>
        <time>2015-07-05T06:00:48.000Z</time>
      </trkpt>
      <trkpt lat="48.70012" lon="1.73166">
        <ele>171</ele>
        <time>2015-07-05T06:00:51.000Z</time>
      </trkpt>
      <trkpt lat="48.70018" lon="1.73156">
        <ele>171</ele>
        <time>2015-07-05T06:00:58.000Z</time>
      </trkpt>
      <trkpt lat="48.7002" lon="1.73146">
        <ele>171</ele>
        <time>2015-07-05T06:01:03.000Z</time>
      </trkpt>
      <trkpt lat="48.70022" lon="1.73136">
        <ele>171.1</ele>
        <time>2015-07-05T06:01:08.000Z</time>
      </trkpt>
      <trkpt lat="48.70029" lon="1.73122">
        <ele>171.6</ele>
        <time>2015-07-05T06:01:15.000Z</time>
      </trkpt>
      <trkpt lat="48.70033" lon="1.73115">
        <ele>171.9</ele>
        <time>2015-07-05T06:01:19.000Z</time>
      </trkpt>
      <trkpt lat="48.70034" lon="1.73114">
        <ele>171.9</ele>
        <time>2015-07-05T06:01:20.000Z</time>
      </trkpt>
      <trkpt lat="48.7004" lon="1.73103">
        <ele>172</ele>
        <time>2015-07-05T06:01:27.000Z</time>
      </trkpt>
      <trkpt lat="48.70043" lon="1.73093">
        <ele>172</ele>
        <time>2015-07-05T06:01:32.000Z</time>
      </trkpt>
      <trkpt lat="48.70046" lon="1.73082">
        <ele>172</ele>
        <time>2015-07-05T06:01:38.000Z</time>
      </trkpt>
      <trkpt lat="48.70047" lon="1.73069">
        <ele>172</ele>
        <time>2015-07-05T06:01:44.000Z</time>
      </trkpt>
      <trkpt lat="48.70048" lon="1.73061">
        <ele>172</ele>
        <time>2015-07-05T06:01:48.000Z</time>
      </trkpt>
      <trkpt lat="48.70051" lon="1.73045">
        <ele>172.3</ele>
        <time>2015-07-05T06:01:55.000Z</time>
      </trkpt>
      <trkpt lat="48.70055" lon="1.73037">
        <ele>172.6</ele>
        <time>2015-07-05T06:02:00.000Z</time>
      </trkpt>
      <trkpt lat="48.70058" lon="1.73027">
        <ele>173</ele>
        <time>2015-07-05T06:02:05.000Z</time>
      </trkpt>
      <trkpt lat="48.70059" lon="1.73022">
        <ele>173</ele>
        <time>2015-07-05T06:02:08.000Z</time>
      </trkpt>
      <trkpt lat="48.70065" lon="1.73013">
        <ele>173</ele>
        <time>2015-07-05T06:02:14.000Z</time>
      </trkpt>
      <trkpt lat="48.7007" lon="1.73007">
        <ele>173</ele>
        <time>2015-07-05T06:02:19.000Z</time>
      </trkpt>
      <trkpt lat="48.70071" lon="1.73003">
        <ele>173</ele>
        <time>2015-07-05T06:02:21.000Z</time>
      </trkpt>
      <trkpt lat="48.70074" lon="1.72987">
        <ele>172.8</ele>
        <time>2015-07-05T06:02:29.000Z</time>
      </trkpt>
      <trkpt lat="48.70076" lon="1.72978">
        <ele>172.8</ele>
        <time>2015-07-05T06:02:35.000Z</time>
      </trkpt>
      <trkpt lat="48.70079" lon="1.72968">
        <ele>172.8</ele>
        <time>2015-07-05T06:02:41.000Z</time>
      </trkpt>
      <trkpt lat="48.7008" lon="1.72964">
        <ele>172.9</ele>
        <time>2015-07-05T06:02:43.000Z</time>
      </trkpt>
      <trkpt lat="48.70085" lon="1.72948">
        <ele>173</ele>
        <time>2015-07-05T06:02:50.000Z</time>
      </trkpt>
      <trkpt lat="48.70089" lon="1.72937">
        <ele>172.8</ele>
        <time>2015-07-05T06:02:56.000Z</time>
      </trkpt>
      <trkpt lat="48.70093" lon="1.72924">
        <ele>172.5</ele>
        <time>2015-07-05T06:03:02.000Z</time>
      </trkpt>
      <trkpt lat="48.70094" lon="1.72923">
        <ele>172.5</ele>
        <time>2015-07-05T06:03:03.000Z</time>
      </trkpt>
      <trkpt lat="48.70096" lon="1.72916">
        <ele>172.4</ele>
        <time>2015-07-05T06:03:07.000Z</time>
      </trkpt>
      <trkpt lat="48.70098" lon="1.7291">
        <ele>172.4</ele>
        <time>2015-07-05T06:03:10.000Z</time>
      </trkpt>
      <trkpt lat="48.70102" lon="1.72899">
        <ele>172.2</ele>
        <time>2015-07-05T06:03:16.000Z</time>
      </trkpt>
      <trkpt lat="48.70106" lon="1.72892">
        <ele>172.1</ele>
        <time>2015-07-05T06:03:19.000Z</time>
      </trkpt>
      <trkpt lat="48.70111" lon="1.72881">
        <ele>172</ele>
        <time>2015-07-05T06:03:25.000Z</time>
      </trkpt>
      <trkpt lat="48.70114" lon="1.72874">
        <ele>172.1</ele>
        <time>2015-07-05T06:03:29.000Z</time>
      </trkpt>
      <trkpt lat="48.70116" lon="1.72862">
        <ele>172.2</ele>
        <time>2015-07-05T06:03:35.000Z</time>
      </trkpt>
      <trkpt lat="48.70117" lon="1.7286">
        <ele>172.2</ele>
        <time>2015-07-05T06:03:36.000Z</time>
      </trkpt>
      <trkpt lat="48.7012" lon="1.72852">
        <ele>172</ele>
        <time>2015-07-05T06:03:41.000Z</time>
      </trkpt>
      <trkpt lat="48.70124" lon="1.72841">
        <ele>171.7</ele>
        <time>2015-07-05T06:03:47.000Z</time>
      </trkpt>
      <trkpt lat="48.70127" lon="1.72832">
        <ele>171.6</ele>
        <time>2015-07-05T06:03:52.000Z</time>
      </trkpt>
      <trkpt lat="48.70127" lon="1.72831">
        <ele>171.6</ele>
        <time>2015-07-05T06:03:53.000Z</time>
      </trkpt>
      <trkpt lat="48.70132" lon="1.72818">
        <ele>171.7</ele>
        <time>2015-07-05T06:04:00.000Z</time>
      </trkpt>
      <trkpt lat="48.70135" lon="1.72807">
        <ele>171.9</ele>
        <time>2015-07-05T06:04:06.000Z</time>
      </trkpt>
      <trkpt lat="48.70139" lon="1.72798">
        <ele>172</ele>
        <time>2015-07-05T06:04:11.000Z</time>
      </trkpt>
      <trkpt lat="48.70142" lon="1.72786">
        <ele>172.1</ele>
        <time>2015-07-05T06:04:18.000Z</time>
      </trkpt>
      <trkpt lat="48.70143" lon="1.72782">
        <ele>172.2</ele>
        <time>2015-07-05T06:04:20.000Z</time>
      </trkpt>
      <trkpt lat="48.70147" lon="1.72772">
        <ele>172.3</ele>
        <time>2015-07-05T06:04:26.000Z</time>
      </trkpt>
      <trkpt lat="48.70151" lon="1.7276">
        <ele>172.4</ele>
        <time>2015-07-05T06:04:32.000Z</time>
      </trkpt>
      <trkpt lat="48.70153" lon="1.72756">
        <ele>172.5</ele>
        <time>2015-07-05T06:04:34.000Z</time>
      </trkpt>
      <trkpt lat="48.70158" lon="1.72744">
        <ele>172.6</ele>
        <time>2015-07-05T06:04:41.000Z</time>
      </trkpt>
      <trkpt lat="48.70161" lon="1.72734">
        <ele>172.7</ele>
        <time>2015-07-05T06:04:46.000Z</time>
      </trkpt>
      <trkpt lat="48.70166" lon="1.72723">
        <ele>172.9</ele>
        <time>2015-07-05T06:04:52.000Z</time>
      </trkpt>
      <trkpt lat="48.70167" lon="1.72721">
        <ele>173</ele>
        <time>2015-07-05T06:04:53.000Z</time>
      </trkpt>
      <trkpt lat="48.70171" lon="1.72703">
        <ele>173.1</ele>
        <time>2015-07-05T06:05:01.000Z</time>
      </trkpt>
      <trkpt lat="48.70174" lon="1.72685">
        <ele>173.2</ele>
        <time>2015-07-05T06:05:10.000Z</time>
      </trkpt>
      <trkpt lat="48.70176" lon="1.72675">
        <ele>173.1</ele>
        <time>2015-07-05T06:05:16.000Z</time>
      </trkpt>
      <trkpt lat="48.70178" lon="1.72664">
        <ele>173.1</ele>
        <time>2015-07-05T06:05:23.000Z</time>
      </trkpt>
      <trkpt lat="48.70179" lon="1.72659">
        <ele>173.3</ele>
        <time>2015-07-05T06:05:25.000Z</time>
      </trkpt>
      <trkpt lat="48.70181" lon="1.72648">
        <ele>173.7</ele>
        <time>2015-07-05T06:05:32.000Z</time>
      </trkpt>
      <trkpt lat="48.70185" lon="1.72631">
        <ele>174.2</ele>
        <time>2015-07-05T06:05:40.000Z</time>
      </trkpt>
      <trkpt lat="48.70188" lon="1.72615">
        <ele>174.6</ele>
        <time>2015-07-05T06:05:48.000Z</time>
      </trkpt>
      <trkpt lat="48.70189" lon="1.72604">
        <ele>174.9</ele>
        <time>2015-07-05T06:05:54.000Z</time>
      </trkpt>
      <trkpt lat="48.7019" lon="1.72598">
        <ele>174.9</ele>
        <time>2015-07-05T06:05:57.000Z</time>
      </trkpt>
      <trkpt lat="48.7019" lon="1.72585">
        <ele>175</ele>
        <time>2015-07-05T06:06:03.000Z</time>
      </trkpt>
      <trkpt lat="48.70192" lon="1.72574">
        <ele>175</ele>
        <time>2015-07-05T06:06:08.000Z</time>
      </trkpt>
      <trkpt lat="48.70194" lon="1.72565">
        <ele>175</ele>
        <time>2015-07-05T06:06:13.000Z</time>
      </trkpt>
      <trkpt lat="48.70198" lon="1.72553">
        <ele>175.2</ele>
        <time>2015-07-05T06:06:20.000Z</time>
      </trkpt>
      <trkpt lat="48.70199" lon="1.72549">
        <ele>175.4</ele>
        <time>2015-07-05T06:06:22.000Z</time>
      </trkpt>
      <trkpt lat="48.70202" lon="1.72539">
        <ele>175.7</ele>
        <time>2015-07-05T06:06:27.000Z</time>
      </trkpt>
      <trkpt lat="48.70203" lon="1.72529">
        <ele>176</ele>
        <time>2015-07-05T06:06:32.000Z</time>
      </trkpt>
      <trkpt lat="48.70206" lon="1.72517">
        <ele>176</ele>
        <time>2015-07-05T06:06:38.000Z</time>
      </trkpt>
      <trkpt lat="48.70206" lon="1.72508">
        <ele>176</ele>
        <time>2015-07-05T06:06:43.000Z</time>
      </trkpt>
      <trkpt lat="48.7021" lon="1.72495">
        <ele>176</ele>
        <time>2015-07-05T06:06:50.000Z</time>
      </trkpt>
      <trkpt lat="48.7021" lon="1.72494">
        <ele>176</ele>
        <time>2015-07-05T06:06:52.000Z</time>
      </trkpt>
      <trkpt lat="48.70214" lon="1.72477">
        <ele>176</ele>
        <time>2015-07-05T06:07:00.000Z</time>
      </trkpt>
      <trkpt lat="48.70218" lon="1.72461">
        <ele>176</ele>
        <time>2015-07-05T06:07:07.000Z</time>
      </trkpt>
      <trkpt lat="48.70219" lon="1.72456">
        <ele>176</ele>
        <time>2015-07-05T06:07:09.000Z</time>
      </trkpt>
      <trkpt lat="48.70225" lon="1.72439">
        <ele>176</ele>
        <time>2015-07-05T06:07:18.000Z</time>
      </trkpt>
      <trkpt lat="48.70227" lon="1.72427">
        <ele>176</ele>
        <time>2015-07-05T06:07:24.000Z</time>
      </trkpt>
      <trkpt lat="48.7023" lon="1.72413">
        <ele>176</ele>
        <time>2015-07-05T06:07:31.000Z</time>
      </trkpt>
      <trkpt lat="48.70232" lon="1.72398">
        <ele>176</ele>
        <time>2015-07-05T06:07:38.000Z</time>
      </trkpt>
      <trkpt lat="48.70234" lon="1.72393">
        <ele>176</ele>
        <time>2015-07-05T06:07:41.000Z</time>
      </trkpt>
      <trkpt lat="48.70238" lon="1.72375">
        <ele>176</ele>
        <time>2015-07-05T06:07:51.000Z</time>
      </trkpt>
      <trkpt lat="48.7024" lon="1.72362">
        <ele>176</ele>
        <time>2015-07-05T06:07:58.000Z</time>
      </trkpt>
      <trkpt lat="48.70241" lon="1.72356">
        <ele>176</ele>
        <time>2015-07-05T06:08:02.000Z</time>
      </trkpt>
      <trkpt lat="48.70244" lon="1.72342">
        <ele>176</ele>
        <time>2015-07-05T06:08:09.000Z</time>
      </trkpt>
      <trkpt lat="48.70247" lon="1.72325">
        <ele>176</ele>
        <time>2015-07-05T06:08:17.000Z</time>
      </trkpt>
      <trkpt lat="48.70248" lon="1.72322">
        <ele>176</ele>
        <time>2015-07-05T06:08:19.000Z</time>
      </trkpt>
      <trkpt lat="48.70251" lon="1.72307">
        <ele>176</ele>
        <time>2015-07-05T06:08:26.000Z</time>
      </trkpt>
      <trkpt lat="48.70252" lon="1.72301">
        <ele>175.9</ele>
        <time>2015-07-05T06:08:29.000Z</time>
      </trkpt>
      <trkpt lat="48.70255" lon="1.72282">
        <ele>175.3</ele>
        <time>2015-07-05T06:08:38.000Z</time>
      </trkpt>
      <trkpt lat="48.70256" lon="1.72268">
        <ele>175.2</ele>
        <time>2015-07-05T06:08:45.000Z</time>
      </trkpt>
      <trkpt lat="48.70257" lon="1.72266">
        <ele>175.2</ele>
        <time>2015-07-05T06:08:46.000Z</time>
      </trkpt>
      <trkpt lat="48.70259" lon="1.72254">
        <ele>175.3</ele>
        <time>2015-07-05T06:08:52.000Z</time>
      </trkpt>
      <trkpt lat="48.70259" lon="1.7225">
        <ele>175.3</ele>
        <time>2015-07-05T06:08:54.000Z</time>
      </trkpt>
      <trkpt lat="48.70265" lon="1.72237">
        <ele>175.5</ele>
        <time>2015-07-05T06:09:01.000Z</time>
      </trkpt>
      <trkpt lat="48.70267" lon="1.72222">
        <ele>175.6</ele>
        <time>2015-07-05T06:09:08.000Z</time>
      </trkpt>
      <trkpt lat="48.70268" lon="1.7222">
        <ele>175.6</ele>
        <time>2015-07-05T06:09:09.000Z</time>
      </trkpt>
      <trkpt lat="48.70269" lon="1.72214">
        <ele>175.4</ele>
        <time>2015-07-05T06:09:12.000Z</time>
      </trkpt>
      <trkpt lat="48.70271" lon="1.72201">
        <ele>175</ele>
        <time>2015-07-05T06:09:17.000Z</time>
      </trkpt>
      <trkpt lat="48.70272" lon="1.72193">
        <ele>174.8</ele>
        <time>2015-07-05T06:09:21.000Z</time>
      </trkpt>
      <trkpt lat="48.70274" lon="1.72183">
        <ele>174.9</ele>
        <time>2015-07-05T06:09:26.000Z</time>
      </trkpt>
      <trkpt lat="48.70276" lon="1.72176">
        <ele>174.9</ele>
        <time>2015-07-05T06:09:30.000Z</time>
      </trkpt>
      <trkpt lat="48.70283" lon="1.72163">
        <ele>175.2</ele>
        <time>2015-07-05T06:09:37.000Z</time>
      </trkpt>
      <trkpt lat="48.70288" lon="1.7215">
        <ele>175.4</ele>
        <time>2015-07-05T06:09:45.000Z</time>
      </trkpt>
      <trkpt lat="48.70288" lon="1.72149">
        <ele>175.4</ele>
        <time>2015-07-05T06:09:46.000Z</time>
      </trkpt>
      <trkpt lat="48.70289" lon="1.72138">
        <ele>175.4</ele>
        <time>2015-07-05T06:09:51.000Z</time>
      </trkpt>
      <trkpt lat="48.70295" lon="1.72122">
        <ele>175.6</ele>
        <time>2015-07-05T06:09:59.000Z</time>
      </trkpt>
      <trkpt lat="48.70296" lon="1.72117">
        <ele>175.6</ele>
        <time>2015-07-05T06:10:01.000Z</time>
      </trkpt>
      <trkpt lat="48.70297" lon="1.72103">
        <ele>175.7</ele>
        <time>2015-07-05T06:10:07.000Z</time>
      </trkpt>
      <trkpt lat="48.70298" lon="1.72089">
        <ele>175.7</ele>
        <time>2015-07-05T06:10:13.000Z</time>
      </trkpt>
      <trkpt lat="48.70301" lon="1.72076">
        <ele>175.8</ele>
        <time>2015-07-05T06:10:20.000Z</time>
      </trkpt>
      <trkpt lat="48.70303" lon="1.72061">
        <ele>175.9</ele>
        <time>2015-07-05T06:10:27.000Z</time>
      </trkpt>
      <trkpt lat="48.70305" lon="1.72051">
        <ele>176</ele>
        <time>2015-07-05T06:10:33.000Z</time>
      </trkpt>
      <trkpt lat="48.70307" lon="1.72039">
        <ele>176.1</ele>
        <time>2015-07-05T06:10:39.000Z</time>
      </trkpt>
      <trkpt lat="48.70312" lon="1.72031">
        <ele>176.2</ele>
        <time>2015-07-05T06:10:45.000Z</time>
      </trkpt>
      <trkpt lat="48.70313" lon="1.72021">
        <ele>176.3</ele>
        <time>2015-07-05T06:10:50.000Z</time>
      </trkpt>
      <trkpt lat="48.70315" lon="1.72009">
        <ele>176.3</ele>
        <time>2015-07-05T06:10:56.000Z</time>
      </trkpt>
      <trkpt lat="48.70316" lon="1.72005">
        <ele>176.4</ele>
        <time>2015-07-05T06:10:59.000Z</time>
      </trkpt>
      <trkpt lat="48.70321" lon="1.71989">
        <ele>176.5</ele>
        <time>2015-07-05T06:11:06.000Z</time>
      </trkpt>
      <trkpt lat="48.70322" lon="1.71987">
        <ele>176.6</ele>
        <time>2015-07-05T06:11:07.000Z</time>
      </trkpt>
      <trkpt lat="48.70328" lon="1.71974">
        <ele>176.8</ele>
        <time>2015-07-05T06:11:13.000Z</time>
      </trkpt>
      <trkpt lat="48.70331" lon="1.7196">
        <ele>176.9</ele>
        <time>2015-07-05T06:11:20.000Z</time>
      </trkpt>
      <trkpt lat="48.70331" lon="1.71957">
        <ele>176.9</ele>
        <time>2015-07-05T06:11:21.000Z</time>
      </trkpt>
      <trkpt lat="48.70334" lon="1.71945">
        <ele>177</ele>
        <time>2015-07-05T06:11:28.000Z</time>
      </trkpt>
      <trkpt lat="48.70336" lon="1.71935">
        <ele>177.1</ele>
        <time>2015-07-05T06:11:33.000Z</time>
      </trkpt>
      <trkpt lat="48.70341" lon="1.7192">
        <ele>177.3</ele>
        <time>2015-07-05T06:11:40.000Z</time>
      </trkpt>
      <trkpt lat="48.70344" lon="1.71907">
        <ele>177.4</ele>
        <time>2015-07-05T06:11:46.000Z</time>
      </trkpt>
      <trkpt lat="48.70345" lon="1.71897">
        <ele>177.4</ele>
        <time>2015-07-05T06:11:50.000Z</time>
      </trkpt>
      <trkpt lat="48.70348" lon="1.71884">
        <ele>177.5</ele>
        <time>2015-07-05T06:11:57.000Z</time>
      </trkpt>
      <trkpt lat="48.70348" lon="1.71875">
        <ele>177.5</ele>
        <time>2015-07-05T06:12:01.000Z</time>
      </trkpt>
      <trkpt lat="48.70349" lon="1.71861">
        <ele>177.6</ele>
        <time>2015-07-05T06:12:07.000Z</time>
      </trkpt>
      <trkpt lat="48.70351" lon="1.71848">
        <ele>177.6</ele>
        <time>2015-07-05T06:12:12.000Z</time>
      </trkpt>
      <trkpt lat="48.70352" lon="1.71838">
        <ele>177.7</ele>
        <time>2015-07-05T06:12:16.000Z</time>
      </trkpt>
      <trkpt lat="48.70353" lon="1.71825">
        <ele>177.7</ele>
        <time>2015-07-05T06:12:22.000Z</time>
      </trkpt>
      <trkpt lat="48.70353" lon="1.71821">
        <ele>177.7</ele>
        <time>2015-07-05T06:12:24.000Z</time>
      </trkpt>
      <trkpt lat="48.70356" lon="1.71808">
        <ele>177.8</ele>
        <time>2015-07-05T06:12:31.000Z</time>
      </trkpt>
      <trkpt lat="48.70362" lon="1.71794">
        <ele>178</ele>
        <time>2015-07-05T06:12:38.000Z</time>
      </trkpt>
      <trkpt lat="48.70368" lon="1.71781">
        <ele>178</ele>
        <time>2015-07-05T06:12:45.000Z</time>
      </trkpt>
      <trkpt lat="48.70371" lon="1.7177">
        <ele>178</ele>
        <time>2015-07-05T06:12:51.000Z</time>
      </trkpt>
      <trkpt lat="48.70376" lon="1.7176">
        <ele>178</ele>
        <time>2015-07-05T06:12:58.000Z</time>
      </trkpt>
      <trkpt lat="48.70378" lon="1.71746">
        <ele>178</ele>
        <time>2015-07-05T06:13:04.000Z</time>
      </trkpt>
      <trkpt lat="48.70381" lon="1.71731">
        <ele>178</ele>
        <time>2015-07-05T06:13:11.000Z</time>
      </trkpt>
      <trkpt lat="48.70383" lon="1.7172">
        <ele>178</ele>
        <time>2015-07-05T06:13:16.000Z</time>
      </trkpt>
      <trkpt lat="48.70384" lon="1.71712">
        <ele>177.9</ele>
        <time>2015-07-05T06:13:20.000Z</time>
      </trkpt>
      <trkpt lat="48.70388" lon="1.71699">
        <ele>178</ele>
        <time>2015-07-05T06:13:27.000Z</time>
      </trkpt>
      <trkpt lat="48.7039" lon="1.71686">
        <ele>178</ele>
        <time>2015-07-05T06:13:33.000Z</time>
      </trkpt>
      <trkpt lat="48.70391" lon="1.71681">
        <ele>178</ele>
        <time>2015-07-05T06:13:36.000Z</time>
      </trkpt>
      <trkpt lat="48.70392" lon="1.71665">
        <ele>178</ele>
        <time>2015-07-05T06:13:43.000Z</time>
      </trkpt>
      <trkpt lat="48.70393" lon="1.7165">
        <ele>177.5</ele>
        <time>2015-07-05T06:13:49.000Z</time>
      </trkpt>
      <trkpt lat="48.70395" lon="1.71634">
        <ele>177</ele>
        <time>2015-07-05T06:13:55.000Z</time>
      </trkpt>
      <trkpt lat="48.70396" lon="1.71615">
        <ele>176.4</ele>
        <time>2015-07-05T06:14:02.000Z</time>
      </trkpt>
      <trkpt lat="48.70397" lon="1.71611">
        <ele>176.3</ele>
        <time>2015-07-05T06:14:04.000Z</time>
      </trkpt>
      <trkpt lat="48.704" lon="1.71589">
        <ele>176.4</ele>
        <time>2015-07-05T06:14:13.000Z</time>
      </trkpt>
      <trkpt lat="48.70399" lon="1.71587">
        <ele>176.4</ele>
        <time>2015-07-05T06:14:14.000Z</time>
      </trkpt>
      <trkpt lat="48.70404" lon="1.71573">
        <ele>176.4</ele>
        <time>2015-07-05T06:14:21.000Z</time>
      </trkpt>
      <trkpt lat="48.70408" lon="1.7156">
        <ele>176.1</ele>
        <time>2015-07-05T06:14:28.000Z</time>
      </trkpt>
      <trkpt lat="48.70411" lon="1.71546">
        <ele>176.4</ele>
        <time>2015-07-05T06:14:34.000Z</time>
      </trkpt>
      <trkpt lat="48.70414" lon="1.71529">
        <ele>177</ele>
        <time>2015-07-05T06:14:41.000Z</time>
      </trkpt>
      <trkpt lat="48.70418" lon="1.7152">
        <ele>177</ele>
        <time>2015-07-05T06:14:46.000Z</time>
      </trkpt>
      <trkpt lat="48.70421" lon="1.71508">
        <ele>177</ele>
        <time>2015-07-05T06:14:51.000Z</time>
      </trkpt>
      <trkpt lat="48.70422" lon="1.71496">
        <ele>177.1</ele>
        <time>2015-07-05T06:14:57.000Z</time>
      </trkpt>
      <trkpt lat="48.70425" lon="1.71483">
        <ele>177.6</ele>
        <time>2015-07-05T06:15:03.000Z</time>
      </trkpt>
      <trkpt lat="48.70428" lon="1.71469">
        <ele>178</ele>
        <time>2015-07-05T06:15:08.000Z</time>
      </trkpt>
      <trkpt lat="48.70429" lon="1.71462">
        <ele>178</ele>
        <time>2015-07-05T06:15:11.000Z</time>
      </trkpt>
      <trkpt lat="48.70431" lon="1.71452">
        <ele>178</ele>
        <time>2015-07-05T06:15:16.000Z</time>
      </trkpt>
      <trkpt lat="48.70432" lon="1.71432">
        <ele>178.2</ele>
        <time>2015-07-05T06:15:24.000Z</time>
      </trkpt>
      <trkpt lat="48.70434" lon="1.71417">
        <ele>178.4</ele>
        <time>2015-07-05T06:15:31.000Z</time>
      </trkpt>
      <trkpt lat="48.70441" lon="1.71402">
        <ele>178.1</ele>
        <time>2015-07-05T06:15:39.000Z</time>
      </trkpt>
      <trkpt lat="48.70442" lon="1.714">
        <ele>178.1</ele>
        <time>2015-07-05T06:15:40.000Z</time>
      </trkpt>
      <trkpt lat="48.70444" lon="1.71391">
        <ele>178</ele>
        <time>2015-07-05T06:15:44.000Z</time>
      </trkpt>
      <trkpt lat="48.70447" lon="1.7138">
        <ele>178</ele>
        <time>2015-07-05T06:15:49.000Z</time>
      </trkpt>
      <trkpt lat="48.7045" lon="1.71363">
        <ele>178</ele>
        <time>2015-07-05T06:15:57.000Z</time>
      </trkpt>
      <trkpt lat="48.70451" lon="1.71361">
        <ele>178</ele>
        <time>2015-07-05T06:15:58.000Z</time>
      </trkpt>
      <trkpt lat="48.70453" lon="1.71348">
        <ele>178</ele>
        <time>2015-07-05T06:16:05.000Z</time>
      </trkpt>
      <trkpt lat="48.70454" lon="1.71341">
        <ele>178</ele>
        <time>2015-07-05T06:16:08.000Z</time>
      </trkpt>
      <trkpt lat="48.70456" lon="1.71333">
        <ele>178</ele>
        <time>2015-07-05T06:16:12.000Z</time>
      </trkpt>
      <trkpt lat="48.7046" lon="1.71313">
        <ele>178.3</ele>
        <time>2015-07-05T06:16:21.000Z</time>
      </trkpt>
      <trkpt lat="48.70461" lon="1.71311">
        <ele>178.3</ele>
        <time>2015-07-05T06:16:22.000Z</time>
      </trkpt>
      <trkpt lat="48.70465" lon="1.71299">
        <ele>178.4</ele>
        <time>2015-07-05T06:16:29.000Z</time>
      </trkpt>
      <trkpt lat="48.70466" lon="1.71294">
        <ele>178.6</ele>
        <time>2015-07-05T06:16:31.000Z</time>
      </trkpt>
      <trkpt lat="48.7047" lon="1.71271">
        <ele>179</ele>
        <time>2015-07-05T06:16:41.000Z</time>
      </trkpt>
      <trkpt lat="48.70472" lon="1.71259">
        <ele>179</ele>
        <time>2015-07-05T06:16:47.000Z</time>
      </trkpt>
      <trkpt lat="48.70475" lon="1.71249">
        <ele>179</ele>
        <time>2015-07-05T06:16:52.000Z</time>
      </trkpt>
      <trkpt lat="48.70481" lon="1.71235">
        <ele>179</ele>
        <time>2015-07-05T06:17:00.000Z</time>
      </trkpt>
      <trkpt lat="48.70483" lon="1.71215">
        <ele>179</ele>
        <time>2015-07-05T06:17:09.000Z</time>
      </trkpt>
      <trkpt lat="48.70487" lon="1.71197">
        <ele>179</ele>
        <time>2015-07-05T06:17:18.000Z</time>
      </trkpt>
      <trkpt lat="48.70487" lon="1.71183">
        <ele>179.2</ele>
        <time>2015-07-05T06:17:25.000Z</time>
      </trkpt>
      <trkpt lat="48.70482" lon="1.7117">
        <ele>179.3</ele>
        <time>2015-07-05T06:17:33.000Z</time>
      </trkpt>
      <trkpt lat="48.70478" lon="1.71157">
        <ele>179.1</ele>
        <time>2015-07-05T06:17:41.000Z</time>
      </trkpt>
      <trkpt lat="48.70474" lon="1.71143">
        <ele>179</ele>
        <time>2015-07-05T06:17:48.000Z</time>
      </trkpt>
      <trkpt lat="48.70469" lon="1.71134">
        <ele>179</ele>
        <time>2015-07-05T06:17:55.000Z</time>
      </trkpt>
      <trkpt lat="48.70464" lon="1.71128">
        <ele>179</ele>
        <time>2015-07-05T06:17:59.000Z</time>
      </trkpt>
      <trkpt lat="48.7046" lon="1.7112">
        <ele>179</ele>
        <time>2015-07-05T06:18:04.000Z</time>
      </trkpt>
      <trkpt lat="48.70457" lon="1.71117">
        <ele>179</ele>
        <time>2015-07-05T06:18:08.000Z</time>
      </trkpt>
      <trkpt lat="48.70455" lon="1.71116">
        <ele>179</ele>
        <time>2015-07-05T06:18:11.000Z</time>
      </trkpt>
      <trkpt lat="48.70452" lon="1.71109">
        <ele>178.9</ele>
        <time>2015-07-05T06:18:23.000Z</time>
      </trkpt>
      <trkpt lat="48.70448" lon="1.7109">
        <ele>178.3</ele>
        <time>2015-07-05T06:18:31.000Z</time>
      </trkpt>
      <trkpt lat="48.70443" lon="1.71074">
        <ele>178</ele>
        <time>2015-07-05T06:18:40.000Z</time>
      </trkpt>
      <trkpt lat="48.70435" lon="1.71057">
        <ele>178</ele>
        <time>2015-07-05T06:18:50.000Z</time>
      </trkpt>
      <trkpt lat="48.70428" lon="1.71039">
        <ele>178.2</ele>
        <time>2015-07-05T06:19:00.000Z</time>
      </trkpt>
      <trkpt lat="48.70425" lon="1.71027">
        <ele>178.3</ele>
        <time>2015-07-05T06:19:07.000Z</time>
      </trkpt>
      <trkpt lat="48.70422" lon="1.71015">
        <ele>178.1</ele>
        <time>2015-07-05T06:19:14.000Z</time>
      </trkpt>
      <trkpt lat="48.70421" lon="1.71015">
        <ele>178.1</ele>
        <time>2015-07-05T06:19:16.000Z</time>
      </trkpt>
      <trkpt lat="48.70418" lon="1.71004">
        <ele>178</ele>
        <time>2015-07-05T06:19:53.000Z</time>
      </trkpt>
      <trkpt lat="48.70413" lon="1.70988">
        <ele>178</ele>
        <time>2015-07-05T06:20:00.000Z</time>
      </trkpt>
      <trkpt lat="48.70409" lon="1.7098">
        <ele>178</ele>
        <time>2015-07-05T06:20:06.000Z</time>
      </trkpt>
      <trkpt lat="48.70407" lon="1.70972">
        <ele>178</ele>
        <time>2015-07-05T06:20:13.000Z</time>
      </trkpt>
      <trkpt lat="48.70401" lon="1.70959">
        <ele>178</ele>
        <time>2015-07-05T06:20:20.000Z</time>
      </trkpt>
      <trkpt lat="48.70394" lon="1.70946">
        <ele>178</ele>
        <time>2015-07-05T06:20:28.000Z</time>
      </trkpt>
      <trkpt lat="48.70388" lon="1.70931">
        <ele>177.5</ele>
        <time>2015-07-05T06:20:36.000Z</time>
      </trkpt>
      <trkpt lat="48.70384" lon="1.70917">
        <ele>177</ele>
        <time>2015-07-05T06:20:43.000Z</time>
      </trkpt>
      <trkpt lat="48.70378" lon="1.70903">
        <ele>177</ele>
        <time>2015-07-05T06:20:51.000Z</time>
      </trkpt>
      <trkpt lat="48.70375" lon="1.70891">
        <ele>177</ele>
        <time>2015-07-05T06:20:57.000Z</time>
      </trkpt>
      <trkpt lat="48.7037" lon="1.70879">
        <ele>177.1</ele>
        <time>2015-07-05T06:21:04.000Z</time>
      </trkpt>
      <trkpt lat="48.70365" lon="1.70865">
        <ele>177.1</ele>
        <time>2015-07-05T06:21:12.000Z</time>
      </trkpt>
      <trkpt lat="48.7036" lon="1.70854">
        <ele>177</ele>
        <time>2015-07-05T06:21:19.000Z</time>
      </trkpt>
      <trkpt lat="48.70354" lon="1.70841">
        <ele>177</ele>
        <time>2015-07-05T06:21:27.000Z</time>
      </trkpt>
      <trkpt lat="48.70354" lon="1.7084">
        <ele>177</ele>
        <time>2015-07-05T06:21:29.000Z</time>
      </trkpt>
      <trkpt lat="48.70352" lon="1.70828">
        <ele>176.9</ele>
        <time>2015-07-05T06:21:47.000Z</time>
      </trkpt>
      <trkpt lat="48.70348" lon="1.70817">
        <ele>176.7</ele>
        <time>2015-07-05T06:21:53.000Z</time>
      </trkpt>
      <trkpt lat="48.70346" lon="1.7081">
        <ele>176.5</ele>
        <time>2015-07-05T06:21:57.000Z</time>
      </trkpt>
      <trkpt lat="48.70341" lon="1.70799">
        <ele>176.3</ele>
        <time>2015-07-05T06:22:04.000Z</time>
      </trkpt>
      <trkpt lat="48.70338" lon="1.70788">
        <ele>176.2</ele>
        <time>2015-07-05T06:22:11.000Z</time>
      </trkpt>
      <trkpt lat="48.70334" lon="1.70775">
        <ele>176</ele>
        <time>2015-07-05T06:22:18.000Z</time>
      </trkpt>
      <trkpt lat="48.70328" lon="1.70761">
        <ele>176</ele>
        <time>2015-07-05T06:22:25.000Z</time>
      </trkpt>
      <trkpt lat="48.70327" lon="1.70757">
        <ele>176</ele>
        <time>2015-07-05T06:22:32.000Z</time>
      </trkpt>
      <trkpt lat="48.70323" lon="1.70752">
        <ele>176</ele>
        <time>2015-07-05T06:22:41.000Z</time>
      </trkpt>
      <trkpt lat="48.70323" lon="1.70751">
        <ele>176</ele>
        <time>2015-07-05T06:22:43.000Z</time>
      </trkpt>
      <trkpt lat="48.70319" lon="1.70736">
        <ele>176.2</ele>
        <time>2015-07-05T06:23:25.000Z</time>
      </trkpt>
      <trkpt lat="48.70316" lon="1.70723">
        <ele>176.4</ele>
        <time>2015-07-05T06:23:31.000Z</time>
      </trkpt>
      <trkpt lat="48.70313" lon="1.70712">
        <ele>176</ele>
        <time>2015-07-05T06:23:38.000Z</time>
      </trkpt>
      <trkpt lat="48.70311" lon="1.70702">
        <ele>175.6</ele>
        <time>2015-07-05T06:23:44.000Z</time>
      </trkpt>
      <trkpt lat="48.70306" lon="1.70688">
        <ele>175</ele>
        <time>2015-07-05T06:23:51.000Z</time>
      </trkpt>
      <trkpt lat="48.70301" lon="1.70673">
        <ele>175</ele>
        <time>2015-07-05T06:23:59.000Z</time>
      </trkpt>
      <trkpt lat="48.70294" lon="1.70657">
        <ele>175</ele>
        <time>2015-07-05T06:24:08.000Z</time>
      </trkpt>
      <trkpt lat="48.70291" lon="1.70646">
        <ele>175</ele>
        <time>2015-07-05T06:24:14.000Z</time>
      </trkpt>
      <trkpt lat="48.7029" lon="1.70645">
        <ele>175</ele>
        <time>2015-07-05T06:24:15.000Z</time>
      </trkpt>
      <trkpt lat="48.70284" lon="1.70629">
        <ele>174.7</ele>
        <time>2015-07-05T06:24:23.000Z</time>
      </trkpt>
      <trkpt lat="48.70279" lon="1.70617">
        <ele>174.2</ele>
        <time>2015-07-05T06:24:30.000Z</time>
      </trkpt>
      <trkpt lat="48.70276" lon="1.70609">
        <ele>173.9</ele>
        <time>2015-07-05T06:24:35.000Z</time>
      </trkpt>
      <trkpt lat="48.70275" lon="1.70607">
        <ele>173.9</ele>
        <time>2015-07-05T06:24:36.000Z</time>
      </trkpt>
      <trkpt lat="48.70268" lon="1.70592">
        <ele>173.7</ele>
        <time>2015-07-05T06:24:44.000Z</time>
      </trkpt>
      <trkpt lat="48.70265" lon="1.70579">
        <ele>173.5</ele>
        <time>2015-07-05T06:24:51.000Z</time>
      </trkpt>
      <trkpt lat="48.70261" lon="1.70572">
        <ele>173.4</ele>
        <time>2015-07-05T06:24:55.000Z</time>
      </trkpt>
      <trkpt lat="48.70258" lon="1.70562">
        <ele>173.3</ele>
        <time>2015-07-05T06:25:00.000Z</time>
      </trkpt>
      <trkpt lat="48.70252" lon="1.70545">
        <ele>173.1</ele>
        <time>2015-07-05T06:25:09.000Z</time>
      </trkpt>
      <trkpt lat="48.70249" lon="1.70535">
        <ele>173</ele>
        <time>2015-07-05T06:25:15.000Z</time>
      </trkpt>
      <trkpt lat="48.70248" lon="1.70529">
        <ele>172.9</ele>
        <time>2015-07-05T06:25:18.000Z</time>
      </trkpt>
      <trkpt lat="48.70241" lon="1.7051">
        <ele>172.7</ele>
        <time>2015-07-05T06:25:27.000Z</time>
      </trkpt>
      <trkpt lat="48.70239" lon="1.70496">
        <ele>172.8</ele>
        <time>2015-07-05T06:25:34.000Z</time>
      </trkpt>
      <trkpt lat="48.70236" lon="1.70483">
        <ele>173.1</ele>
        <time>2015-07-05T06:25:41.000Z</time>
      </trkpt>
      <trkpt lat="48.70233" lon="1.70471">
        <ele>173.4</ele>
        <time>2015-07-05T06:25:48.000Z</time>
      </trkpt>
      <trkpt lat="48.70229" lon="1.70464">
        <ele>173.2</ele>
        <time>2015-07-05T06:25:52.000Z</time>
      </trkpt>
      <trkpt lat="48.70226" lon="1.70456">
        <ele>173.2</ele>
        <time>2015-07-05T06:25:56.000Z</time>
      </trkpt>
      <trkpt lat="48.7022" lon="1.70438">
        <ele>172.9</ele>
        <time>2015-07-05T06:26:05.000Z</time>
      </trkpt>
      <trkpt lat="48.70217" lon="1.70428">
        <ele>172.8</ele>
        <time>2015-07-05T06:26:11.000Z</time>
      </trkpt>
      <trkpt lat="48.70214" lon="1.70417">
        <ele>172.7</ele>
        <time>2015-07-05T06:26:16.000Z</time>
      </trkpt>
      <trkpt lat="48.70207" lon="1.70403">
        <ele>172.7</ele>
        <time>2015-07-05T06:26:24.000Z</time>
      </trkpt>
      <trkpt lat="48.70199" lon="1.7039">
        <ele>172.4</ele>
        <time>2015-07-05T06:26:33.000Z</time>
      </trkpt>
      <trkpt lat="48.70199" lon="1.70389">
        <ele>172.3</ele>
        <time>2015-07-05T06:26:34.000Z</time>
      </trkpt>
      <trkpt lat="48.70199" lon="1.7038">
        <ele>172.3</ele>
        <time>2015-07-05T06:26:39.000Z</time>
      </trkpt>
      <trkpt lat="48.70197" lon="1.70375">
        <ele>172.1</ele>
        <time>2015-07-05T06:26:42.000Z</time>
      </trkpt>
      <trkpt lat="48.70192" lon="1.70366">
        <ele>171.9</ele>
        <time>2015-07-05T06:26:47.000Z</time>
      </trkpt>
      <trkpt lat="48.7019" lon="1.70356">
        <ele>172</ele>
        <time>2015-07-05T06:26:52.000Z</time>
      </trkpt>
      <trkpt lat="48.70189" lon="1.70354">
        <ele>172.1</ele>
        <time>2015-07-05T06:26:53.000Z</time>
      </trkpt>
      <trkpt lat="48.70186" lon="1.70344">
        <ele>172.3</ele>
        <time>2015-07-05T06:26:59.000Z</time>
      </trkpt>
      <trkpt lat="48.70184" lon="1.70338">
        <ele>172.5</ele>
        <time>2015-07-05T06:27:02.000Z</time>
      </trkpt>
      <trkpt lat="48.70181" lon="1.70324">
        <ele>172.5</ele>
        <time>2015-07-05T06:27:09.000Z</time>
      </trkpt>
      <trkpt lat="48.70176" lon="1.70309">
        <ele>172.3</ele>
        <time>2015-07-05T06:27:17.000Z</time>
      </trkpt>
      <trkpt lat="48.70172" lon="1.70297">
        <ele>172.2</ele>
        <time>2015-07-05T06:27:23.000Z</time>
      </trkpt>
      <trkpt lat="48.70165" lon="1.70284">
        <ele>172</ele>
        <time>2015-07-05T06:27:31.000Z</time>
      </trkpt>
      <trkpt lat="48.70161" lon="1.70272">
        <ele>172.2</ele>
        <time>2015-07-05T06:27:37.000Z</time>
      </trkpt>
      <trkpt lat="48.70155" lon="1.70257">
        <ele>172.4</ele>
        <time>2015-07-05T06:27:45.000Z</time>
      </trkpt>
      <trkpt lat="48.70152" lon="1.70243">
        <ele>172.5</ele>
        <time>2015-07-05T06:27:52.000Z</time>
      </trkpt>
      <trkpt lat="48.70147" lon="1.70231">
        <ele>172.3</ele>
        <time>2015-07-05T06:27:58.000Z</time>
      </trkpt>
      <trkpt lat="48.70143" lon="1.70217">
        <ele>172.2</ele>
        <time>2015-07-05T06:28:04.000Z</time>
      </trkpt>
      <trkpt lat="48.70138" lon="1.70201">
        <ele>172</ele>
        <time>2015-07-05T06:28:12.000Z</time>
      </trkpt>
      <trkpt lat="48.70137" lon="1.70199">
        <ele>171.9</ele>
        <time>2015-07-05T06:28:13.000Z</time>
      </trkpt>
      <trkpt lat="48.70135" lon="1.70188">
        <ele>171.9</ele>
        <time>2015-07-05T06:28:19.000Z</time>
      </trkpt>
      <trkpt lat="48.70133" lon="1.70179">
        <ele>171.9</ele>
        <time>2015-07-05T06:28:23.000Z</time>
      </trkpt>
      <trkpt lat="48.7013" lon="1.7017">
        <ele>172</ele>
        <time>2015-07-05T06:28:28.000Z</time>
      </trkpt>
      <trkpt lat="48.70128" lon="1.70167">
        <ele>172</ele>
        <time>2015-07-05T06:28:30.000Z</time>
      </trkpt>
      <trkpt lat="48.7012" lon="1.70153">
        <ele>172.2</ele>
        <time>2015-07-05T06:28:38.000Z</time>
      </trkpt>
      <trkpt lat="48.70115" lon="1.70142">
        <ele>172.1</ele>
        <time>2015-07-05T06:28:44.000Z</time>
      </trkpt>
      <trkpt lat="48.70108" lon="1.70127">
        <ele>172</ele>
        <time>2015-07-05T06:28:53.000Z</time>
      </trkpt>
      <trkpt lat="48.701" lon="1.70115">
        <ele>172</ele>
        <time>2015-07-05T06:29:01.000Z</time>
      </trkpt>
      <trkpt lat="48.70096" lon="1.70106">
        <ele>172.1</ele>
        <time>2015-07-05T06:29:06.000Z</time>
      </trkpt>
      <trkpt lat="48.70091" lon="1.70093">
        <ele>172.2</ele>
        <time>2015-07-05T06:29:13.000Z</time>
      </trkpt>
      <trkpt lat="48.70084" lon="1.70082">
        <ele>172</ele>
        <time>2015-07-05T06:29:21.000Z</time>
      </trkpt>
      <trkpt lat="48.70077" lon="1.70073">
        <ele>172</ele>
        <time>2015-07-05T06:29:27.000Z</time>
      </trkpt>
      <trkpt lat="48.70069" lon="1.70066">
        <ele>172</ele>
        <time>2015-07-05T06:29:33.000Z</time>
      </trkpt>
      <trkpt lat="48.70067" lon="1.70063">
        <ele>172</ele>
        <time>2015-07-05T06:29:35.000Z</time>
      </trkpt>
      <trkpt lat="48.70059" lon="1.70052">
        <ele>172</ele>
        <time>2015-07-05T06:29:43.000Z</time>
      </trkpt>
      <trkpt lat="48.70056" lon="1.70048">
        <ele>172</ele>
        <time>2015-07-05T06:29:46.000Z</time>
      </trkpt>
      <trkpt lat="48.7005" lon="1.7004">
        <ele>171.8</ele>
        <time>2015-07-05T06:29:52.000Z</time>
      </trkpt>
      <trkpt lat="48.70049" lon="1.70039">
        <ele>171.8</ele>
        <time>2015-07-05T06:29:53.000Z</time>
      </trkpt>
      <trkpt lat="48.70042" lon="1.70027">
        <ele>171.5</ele>
        <time>2015-07-05T06:30:00.000Z</time>
      </trkpt>
      <trkpt lat="48.70037" lon="1.70016">
        <ele>171.3</ele>
        <time>2015-07-05T06:30:06.000Z</time>
      </trkpt>
      <trkpt lat="48.70032" lon="1.70005">
        <ele>171.1</ele>
        <time>2015-07-05T06:30:12.000Z</time>
      </trkpt>
      <trkpt lat="48.70027" lon="1.69998">
        <ele>171</ele>
        <time>2015-07-05T06:30:16.000Z</time>
      </trkpt>
      <trkpt lat="48.70022" lon="1.6999">
        <ele>170.8</ele>
        <time>2015-07-05T06:30:22.000Z</time>
      </trkpt>
      <trkpt lat="48.70016" lon="1.6998">
        <ele>170.6</ele>
        <time>2015-07-05T06:30:28.000Z</time>
      </trkpt>
      <trkpt lat="48.7001" lon="1.6997">
        <ele>170.4</ele>
        <time>2015-07-05T06:30:34.000Z</time>
      </trkpt>
      <trkpt lat="48.70007" lon="1.69966">
        <ele>170.3</ele>
        <time>2015-07-05T06:30:37.000Z</time>
      </trkpt>
      <trkpt lat="48.70004" lon="1.69959">
        <ele>170.1</ele>
        <time>2015-07-05T06:30:41.000Z</time>
      </trkpt>
      <trkpt lat="48.69999" lon="1.69951">
        <ele>170</ele>
        <time>2015-07-05T06:30:46.000Z</time>
      </trkpt>
      <trkpt lat="48.69994" lon="1.69944">
        <ele>169.8</ele>
        <time>2015-07-05T06:30:51.000Z</time>
      </trkpt>
      <trkpt lat="48.69992" lon="1.69941">
        <ele>169.7</ele>
        <time>2015-07-05T06:30:53.000Z</time>
      </trkpt>
      <trkpt lat="48.69986" lon="1.69933">
        <ele>169.5</ele>
        <time>2015-07-05T06:30:58.000Z</time>
      </trkpt>
      <trkpt lat="48.69978" lon="1.69923">
        <ele>169.2</ele>
        <time>2015-07-05T06:31:04.000Z</time>
      </trkpt>
      <trkpt lat="48.69976" lon="1.69919">
        <ele>169.1</ele>
        <time>2015-07-05T06:31:07.000Z</time>
      </trkpt>
      <trkpt lat="48.69966" lon="1.69908">
        <ele>168.6</ele>
        <time>2015-07-05T06:31:13.000Z</time>
      </trkpt>
      <trkpt lat="48.69958" lon="1.69894">
        <ele>168.1</ele>
        <time>2015-07-05T06:31:21.000Z</time>
      </trkpt>
      <trkpt lat="48.69954" lon="1.69879">
        <ele>167.8</ele>
        <time>2015-07-05T06:31:28.000Z</time>
      </trkpt>
      <trkpt lat="48.69951" lon="1.6987">
        <ele>167.5</ele>
        <time>2015-07-05T06:31:33.000Z</time>
      </trkpt>
      <trkpt lat="48.69947" lon="1.69859">
        <ele>167</ele>
        <time>2015-07-05T06:31:39.000Z</time>
      </trkpt>
      <trkpt lat="48.69946" lon="1.69855">
        <ele>166.8</ele>
        <time>2015-07-05T06:31:41.000Z</time>
      </trkpt>
      <trkpt lat="48.69945" lon="1.69852">
        <ele>166.7</ele>
        <time>2015-07-05T06:31:45.000Z</time>
      </trkpt>
      <trkpt lat="48.69936" lon="1.69833">
        <ele>166</ele>
        <time>2015-07-05T06:32:12.000Z</time>
      </trkpt>
      <trkpt lat="48.69936" lon="1.69831">
        <ele>165.9</ele>
        <time>2015-07-05T06:32:13.000Z</time>
      </trkpt>
      <trkpt lat="48.69933" lon="1.6982">
        <ele>165.5</ele>
        <time>2015-07-05T06:32:19.000Z</time>
      </trkpt>
      <trkpt lat="48.69929" lon="1.69805">
        <ele>165</ele>
        <time>2015-07-05T06:32:27.000Z</time>
      </trkpt>
      <trkpt lat="48.69928" lon="1.698">
        <ele>164.9</ele>
        <time>2015-07-05T06:32:29.000Z</time>
      </trkpt>
      <trkpt lat="48.69923" lon="1.69791">
        <ele>164.6</ele>
        <time>2015-07-05T06:32:35.000Z</time>
      </trkpt>
      <trkpt lat="48.69919" lon="1.69777">
        <ele>164.1</ele>
        <time>2015-07-05T06:32:42.000Z</time>
      </trkpt>
      <trkpt lat="48.69917" lon="1.69771">
        <ele>163.5</ele>
        <time>2015-07-05T06:32:46.000Z</time>
      </trkpt>
      <trkpt lat="48.69911" lon="1.69756">
        <ele>162.3</ele>
        <time>2015-07-05T06:32:54.000Z</time>
      </trkpt>
      <trkpt lat="48.69904" lon="1.69734">
        <ele>160.1</ele>
        <time>2015-07-05T06:33:03.000Z</time>
      </trkpt>
      <trkpt lat="48.69901" lon="1.69724">
        <ele>159</ele>
        <time>2015-07-05T06:33:07.000Z</time>
      </trkpt>
      <trkpt lat="48.69899" lon="1.69714">
        <ele>158.4</ele>
        <time>2015-07-05T06:33:12.000Z</time>
      </trkpt>
      <trkpt lat="48.69894" lon="1.69702">
        <ele>157.6</ele>
        <time>2015-07-05T06:33:18.000Z</time>
      </trkpt>
      <trkpt lat="48.69888" lon="1.69689">
        <ele>157</ele>
        <time>2015-07-05T06:33:26.000Z</time>
      </trkpt>
      <trkpt lat="48.69883" lon="1.69676">
        <ele>156.7</ele>
        <time>2015-07-05T06:33:33.000Z</time>
      </trkpt>
      <trkpt lat="48.6988" lon="1.69664">
        <ele>156.4</ele>
        <time>2015-07-05T06:33:39.000Z</time>
      </trkpt>
      <trkpt lat="48.69872" lon="1.69646">
        <ele>155.8</ele>
        <time>2015-07-05T06:33:48.000Z</time>
      </trkpt>
      <trkpt lat="48.69868" lon="1.69632">
        <ele>155.8</ele>
        <time>2015-07-05T06:33:56.000Z</time>
      </trkpt>
      <trkpt lat="48.69862" lon="1.69612">
        <ele>156</ele>
        <time>2015-07-05T06:34:05.000Z</time>
      </trkpt>
      <trkpt lat="48.69858" lon="1.69598">
        <ele>155.8</ele>
        <time>2015-07-05T06:34:12.000Z</time>
      </trkpt>
      <trkpt lat="48.69854" lon="1.69585">
        <ele>155.5</ele>
        <time>2015-07-05T06:34:18.000Z</time>
      </trkpt>
      <trkpt lat="48.69847" lon="1.69564">
        <ele>155</ele>
        <time>2015-07-05T06:34:27.000Z</time>
      </trkpt>
      <trkpt lat="48.69842" lon="1.69546">
        <ele>155</ele>
        <time>2015-07-05T06:34:35.000Z</time>
      </trkpt>
      <trkpt lat="48.69837" lon="1.69532">
        <ele>155.1</ele>
        <time>2015-07-05T06:34:42.000Z</time>
      </trkpt>
      <trkpt lat="48.69833" lon="1.69519">
        <ele>155</ele>
        <time>2015-07-05T06:34:48.000Z</time>
      </trkpt>
      <trkpt lat="48.69831" lon="1.69508">
        <ele>154.8</ele>
        <time>2015-07-05T06:34:54.000Z</time>
      </trkpt>
      <trkpt lat="48.69827" lon="1.69498">
        <ele>154.5</ele>
        <time>2015-07-05T06:35:01.000Z</time>
      </trkpt>
      <trkpt lat="48.69823" lon="1.69482">
        <ele>154.2</ele>
        <time>2015-07-05T06:35:09.000Z</time>
      </trkpt>
      <trkpt lat="48.69822" lon="1.69465">
        <ele>154.2</ele>
        <time>2015-07-05T06:35:17.000Z</time>
      </trkpt>
      <trkpt lat="48.69822" lon="1.69463">
        <ele>154.2</ele>
        <time>2015-07-05T06:35:18.000Z</time>
      </trkpt>
      <trkpt lat="48.69822" lon="1.69455">
        <ele>154.2</ele>
        <time>2015-07-05T06:35:23.000Z</time>
      </trkpt>
      <trkpt lat="48.69814" lon="1.69432">
        <ele>153.5</ele>
        <time>2015-07-05T06:35:33.000Z</time>
      </trkpt>
      <trkpt lat="48.69811" lon="1.69418">
        <ele>153.2</ele>
        <time>2015-07-05T06:35:41.000Z</time>
      </trkpt>
      <trkpt lat="48.69809" lon="1.69415">
        <ele>153.1</ele>
        <time>2015-07-05T06:35:43.000Z</time>
      </trkpt>
      <trkpt lat="48.69806" lon="1.69404">
        <ele>153</ele>
        <time>2015-07-05T06:35:48.000Z</time>
      </trkpt>
      <trkpt lat="48.69805" lon="1.69388">
        <ele>153</ele>
        <time>2015-07-05T06:35:55.000Z</time>
      </trkpt>
      <trkpt lat="48.69802" lon="1.6937">
        <ele>152.8</ele>
        <time>2015-07-05T06:36:03.000Z</time>
      </trkpt>
      <trkpt lat="48.69797" lon="1.69353">
        <ele>152.4</ele>
        <time>2015-07-05T06:36:10.000Z</time>
      </trkpt>
      <trkpt lat="48.69793" lon="1.69338">
        <ele>152.1</ele>
        <time>2015-07-05T06:36:18.000Z</time>
      </trkpt>
      <trkpt lat="48.69792" lon="1.69325">
        <ele>151.9</ele>
        <time>2015-07-05T06:36:25.000Z</time>
      </trkpt>
      <trkpt lat="48.6979" lon="1.69311">
        <ele>151.5</ele>
        <time>2015-07-05T06:36:32.000Z</time>
      </trkpt>
      <trkpt lat="48.69789" lon="1.69307">
        <ele>151.4</ele>
        <time>2015-07-05T06:36:34.000Z</time>
      </trkpt>
      <trkpt lat="48.69787" lon="1.69293">
        <ele>151.3</ele>
        <time>2015-07-05T06:36:41.000Z</time>
      </trkpt>
      <trkpt lat="48.69786" lon="1.69291">
        <ele>151.3</ele>
        <time>2015-07-05T06:36:42.000Z</time>
      </trkpt>
      <trkpt lat="48.69783" lon="1.69274">
        <ele>151.2</ele>
        <time>2015-07-05T06:36:49.000Z</time>
      </trkpt>
      <trkpt lat="48.69778" lon="1.69254">
        <ele>151</ele>
        <time>2015-07-05T06:36:58.000Z</time>
      </trkpt>
      <trkpt lat="48.69774" lon="1.69235">
        <ele>150.4</ele>
        <time>2015-07-05T06:37:07.000Z</time>
      </trkpt>
      <trkpt lat="48.69774" lon="1.69233">
        <ele>150.3</ele>
        <time>2015-07-05T06:37:08.000Z</time>
      </trkpt>
      <trkpt lat="48.69772" lon="1.69223">
        <ele>150</ele>
        <time>2015-07-05T06:37:13.000Z</time>
      </trkpt>
      <trkpt lat="48.69771" lon="1.69208">
        <ele>150</ele>
        <time>2015-07-05T06:37:20.000Z</time>
      </trkpt>
      <trkpt lat="48.69767" lon="1.69187">
        <ele>150</ele>
        <time>2015-07-05T06:37:30.000Z</time>
      </trkpt>
      <trkpt lat="48.69767" lon="1.69173">
        <ele>150</ele>
        <time>2015-07-05T06:37:37.000Z</time>
      </trkpt>
      <trkpt lat="48.69763" lon="1.69153">
        <ele>149.5</ele>
        <time>2015-07-05T06:37:45.000Z</time>
      </trkpt>
      <trkpt lat="48.6976" lon="1.69139">
        <ele>149</ele>
        <time>2015-07-05T06:37:51.000Z</time>
      </trkpt>
      <trkpt lat="48.6976" lon="1.69135">
        <ele>149</ele>
        <time>2015-07-05T06:37:54.000Z</time>
      </trkpt>
      <trkpt lat="48.69756" lon="1.6912">
        <ele>149</ele>
        <time>2015-07-05T06:38:01.000Z</time>
      </trkpt>
      <trkpt lat="48.69755" lon="1.69114">
        <ele>149</ele>
        <time>2015-07-05T06:38:04.000Z</time>
      </trkpt>
      <trkpt lat="48.69755" lon="1.69097">
        <ele>148.6</ele>
        <time>2015-07-05T06:38:12.000Z</time>
      </trkpt>
      <trkpt lat="48.69755" lon="1.69086">
        <ele>148.2</ele>
        <time>2015-07-05T06:38:17.000Z</time>
      </trkpt>
      <trkpt lat="48.69753" lon="1.6907">
        <ele>148.1</ele>
        <time>2015-07-05T06:38:24.000Z</time>
      </trkpt>
      <trkpt lat="48.69752" lon="1.69068">
        <ele>148</ele>
        <time>2015-07-05T06:38:25.000Z</time>
      </trkpt>
      <trkpt lat="48.69752" lon="1.69063">
        <ele>148</ele>
        <time>2015-07-05T06:38:28.000Z</time>
      </trkpt>
      <trkpt lat="48.69753" lon="1.69051">
        <ele>148</ele>
        <time>2015-07-05T06:38:34.000Z</time>
      </trkpt>
      <trkpt lat="48.69754" lon="1.69035">
        <ele>148</ele>
        <time>2015-07-05T06:38:41.000Z</time>
      </trkpt>
      <trkpt lat="48.69754" lon="1.69029">
        <ele>148</ele>
        <time>2015-07-05T06:38:44.000Z</time>
      </trkpt>
      <trkpt lat="48.69754" lon="1.69026">
        <ele>148</ele>
        <time>2015-07-05T06:38:46.000Z</time>
      </trkpt>
      <trkpt lat="48.69752" lon="1.69011">
        <ele>148</ele>
        <time>2015-07-05T06:38:52.000Z</time>
      </trkpt>
      <trkpt lat="48.69752" lon="1.69003">
        <ele>148</ele>
        <time>2015-07-05T06:38:56.000Z</time>
      </trkpt>
      <trkpt lat="48.69752" lon="1.68993">
        <ele>148</ele>
        <time>2015-07-05T06:39:01.000Z</time>
      </trkpt>
      <trkpt lat="48.69751" lon="1.68979">
        <ele>148</ele>
        <time>2015-07-05T06:39:07.000Z</time>
      </trkpt>
      <trkpt lat="48.6975" lon="1.68964">
        <ele>148</ele>
        <time>2015-07-05T06:39:13.000Z</time>
      </trkpt>
      <trkpt lat="48.6975" lon="1.68948">
        <ele>148</ele>
        <time>2015-07-05T06:39:21.000Z</time>
      </trkpt>
      <trkpt lat="48.69749" lon="1.6894">
        <ele>148</ele>
        <time>2015-07-05T06:39:24.000Z</time>
      </trkpt>
      <trkpt lat="48.6975" lon="1.68931">
        <ele>148</ele>
        <time>2015-07-05T06:39:29.000Z</time>
      </trkpt>
      <trkpt lat="48.69752" lon="1.68919">
        <ele>148</ele>
        <time>2015-07-05T06:39:35.000Z</time>
      </trkpt>
      <trkpt lat="48.69751" lon="1.6891">
        <ele>148</ele>
        <time>2015-07-05T06:39:39.000Z</time>
      </trkpt>
      <trkpt lat="48.69751" lon="1.68892">
        <ele>148</ele>
        <time>2015-07-05T06:39:47.000Z</time>
      </trkpt>
      <trkpt lat="48.6975" lon="1.6888">
        <ele>148</ele>
        <time>2015-07-05T06:39:54.000Z</time>
      </trkpt>
      <trkpt lat="48.6975" lon="1.68875">
        <ele>148</ele>
        <time>2015-07-05T06:39:57.000Z</time>
      </trkpt>
      <trkpt lat="48.69748" lon="1.68859">
        <ele>147.9</ele>
        <time>2015-07-05T06:40:05.000Z</time>
      </trkpt>
      <trkpt lat="48.69747" lon="1.68851">
        <ele>147.9</ele>
        <time>2015-07-05T06:40:07.000Z</time>
      </trkpt>
      <trkpt lat="48.69748" lon="1.68842">
        <ele>147.9</ele>
        <time>2015-07-05T06:40:11.000Z</time>
      </trkpt>
      <trkpt lat="48.69748" lon="1.68827">
        <ele>147.9</ele>
        <time>2015-07-05T06:40:19.000Z</time>
      </trkpt>
      <trkpt lat="48.69745" lon="1.68809">
        <ele>147.8</ele>
        <time>2015-07-05T06:40:26.000Z</time>
      </trkpt>
      <trkpt lat="48.69744" lon="1.68796">
        <ele>147.8</ele>
        <time>2015-07-05T06:40:32.000Z</time>
      </trkpt>
      <trkpt lat="48.69745" lon="1.68795">
        <ele>147.8</ele>
        <time>2015-07-05T06:40:33.000Z</time>
      </trkpt>
      <trkpt lat="48.69742" lon="1.6878">
        <ele>147.7</ele>
        <time>2015-07-05T06:40:39.000Z</time>
      </trkpt>
      <trkpt lat="48.69742" lon="1.68758">
        <ele>147.9</ele>
        <time>2015-07-05T06:40:49.000Z</time>
      </trkpt>
      <trkpt lat="48.69742" lon="1.68741">
        <ele>148</ele>
        <time>2015-07-05T06:40:57.000Z</time>
      </trkpt>
      <trkpt lat="48.69742" lon="1.68732">
        <ele>148</ele>
        <time>2015-07-05T06:41:01.000Z</time>
      </trkpt>
      <trkpt lat="48.69742" lon="1.6872">
        <ele>148.1</ele>
        <time>2015-07-05T06:41:08.000Z</time>
      </trkpt>
      <trkpt lat="48.69743" lon="1.68708">
        <ele>148.4</ele>
        <time>2015-07-05T06:41:15.000Z</time>
      </trkpt>
      <trkpt lat="48.69743" lon="1.68701">
        <ele>148.6</ele>
        <time>2015-07-05T06:41:18.000Z</time>
      </trkpt>
      <trkpt lat="48.69743" lon="1.68693">
        <ele>148.8</ele>
        <time>2015-07-05T06:41:22.000Z</time>
      </trkpt>
      <trkpt lat="48.69742" lon="1.68678">
        <ele>148.7</ele>
        <time>2015-07-05T06:41:30.000Z</time>
      </trkpt>
      <trkpt lat="48.69742" lon="1.68663">
        <ele>148.7</ele>
        <time>2015-07-05T06:41:37.000Z</time>
      </trkpt>
      <trkpt lat="48.69742" lon="1.68646">
        <ele>148.7</ele>
        <time>2015-07-05T06:41:46.000Z</time>
      </trkpt>
      <trkpt lat="48.69742" lon="1.68632">
        <ele>148.7</ele>
        <time>2015-07-05T06:41:53.000Z</time>
      </trkpt>
      <trkpt lat="48.69742" lon="1.6862">
        <ele>148.7</ele>
        <time>2015-07-05T06:41:59.000Z</time>
      </trkpt>
      <trkpt lat="48.69743" lon="1.68612">
        <ele>148.8</ele>
        <time>2015-07-05T06:42:03.000Z</time>
      </trkpt>
      <trkpt lat="48.69744" lon="1.6861">
        <ele>148.7</ele>
        <time>2015-07-05T06:42:05.000Z</time>
      </trkpt>
      <trkpt lat="48.69744" lon="1.68608">
        <ele>148.7</ele>
        <time>2015-07-05T06:42:08.000Z</time>
      </trkpt>
      <trkpt lat="48.69744" lon="1.68591">
        <ele>148.2</ele>
        <time>2015-07-05T06:42:23.000Z</time>
      </trkpt>
      <trkpt lat="48.69743" lon="1.68578">
        <ele>148</ele>
        <time>2015-07-05T06:42:28.000Z</time>
      </trkpt>
      <trkpt lat="48.69743" lon="1.68564">
        <ele>147.8</ele>
        <time>2015-07-05T06:42:35.000Z</time>
      </trkpt>
      <trkpt lat="48.69744" lon="1.68553">
        <ele>147.7</ele>
        <time>2015-07-05T06:42:41.000Z</time>
      </trkpt>
      <trkpt lat="48.69744" lon="1.68551">
        <ele>147.6</ele>
        <time>2015-07-05T06:42:42.000Z</time>
      </trkpt>
      <trkpt lat="48.69743" lon="1.68536">
        <ele>147</ele>
        <time>2015-07-05T06:42:50.000Z</time>
      </trkpt>
      <trkpt lat="48.69743" lon="1.68526">
        <ele>146.7</ele>
        <time>2015-07-05T06:42:55.000Z</time>
      </trkpt>
      <trkpt lat="48.69743" lon="1.68513">
        <ele>146.3</ele>
        <time>2015-07-05T06:43:02.000Z</time>
      </trkpt>
      <trkpt lat="48.69743" lon="1.68501">
        <ele>146</ele>
        <time>2015-07-05T06:43:08.000Z</time>
      </trkpt>
      <trkpt lat="48.69744" lon="1.68491">
        <ele>145.7</ele>
        <time>2015-07-05T06:43:15.000Z</time>
      </trkpt>
      <trkpt lat="48.69745" lon="1.68474">
        <ele>145.1</ele>
        <time>2015-07-05T06:43:23.000Z</time>
      </trkpt>
      <trkpt lat="48.69745" lon="1.68464">
        <ele>144.7</ele>
        <time>2015-07-05T06:43:27.000Z</time>
      </trkpt>
      <trkpt lat="48.69745" lon="1.68452">
        <ele>144.3</ele>
        <time>2015-07-05T06:43:32.000Z</time>
      </trkpt>
      <trkpt lat="48.69746" lon="1.68433">
        <ele>144</ele>
        <time>2015-07-05T06:43:40.000Z</time>
      </trkpt>
      <trkpt lat="48.69747" lon="1.68414">
        <ele>144</ele>
        <time>2015-07-05T06:43:48.000Z</time>
      </trkpt>
      <trkpt lat="48.69748" lon="1.68396">
        <ele>144</ele>
        <time>2015-07-05T06:43:56.000Z</time>
      </trkpt>
      <trkpt lat="48.69749" lon="1.68384">
        <ele>144</ele>
        <time>2015-07-05T06:44:02.000Z</time>
      </trkpt>
      <trkpt lat="48.6975" lon="1.68367">
        <ele>144</ele>
        <time>2015-07-05T06:44:10.000Z</time>
      </trkpt>
      <trkpt lat="48.69753" lon="1.68349">
        <ele>143.7</ele>
        <time>2015-07-05T06:44:18.000Z</time>
      </trkpt>
      <trkpt lat="48.69752" lon="1.68331">
        <ele>143.2</ele>
        <time>2015-07-05T06:44:26.000Z</time>
      </trkpt>
      <trkpt lat="48.69753" lon="1.68309">
        <ele>143.2</ele>
        <time>2015-07-05T06:44:36.000Z</time>
      </trkpt>
      <trkpt lat="48.69752" lon="1.68302">
        <ele>143.1</ele>
        <time>2015-07-05T06:44:39.000Z</time>
      </trkpt>
      <trkpt lat="48.69752" lon="1.68293">
        <ele>143.1</ele>
        <time>2015-07-05T06:44:43.000Z</time>
      </trkpt>
      <trkpt lat="48.69751" lon="1.68269">
        <ele>143</ele>
        <time>2015-07-05T06:44:54.000Z</time>
      </trkpt>
      <trkpt lat="48.69751" lon="1.6825">
        <ele>143</ele>
        <time>2015-07-05T06:45:03.000Z</time>
      </trkpt>
      <trkpt lat="48.6975" lon="1.68237">
        <ele>143</ele>
        <time>2015-07-05T06:45:11.000Z</time>
      </trkpt>
      <trkpt lat="48.6975" lon="1.68231">
        <ele>143</ele>
        <time>2015-07-05T06:45:14.000Z</time>
      </trkpt>
      <trkpt lat="48.69753" lon="1.68216">
        <ele>143</ele>
        <time>2015-07-05T06:45:21.000Z</time>
      </trkpt>
      <trkpt lat="48.69753" lon="1.68212">
        <ele>143</ele>
        <time>2015-07-05T06:45:23.000Z</time>
      </trkpt>
      <trkpt lat="48.69754" lon="1.68187">
        <ele>143</ele>
        <time>2015-07-05T06:45:35.000Z</time>
      </trkpt>
      <trkpt lat="48.69755" lon="1.6817">
        <ele>143</ele>
        <time>2015-07-05T06:45:43.000Z</time>
      </trkpt>
      <trkpt lat="48.69755" lon="1.6815">
        <ele>143</ele>
        <time>2015-07-05T06:45:52.000Z</time>
      </trkpt>
      <trkpt lat="48.69759" lon="1.68138">
        <ele>143</ele>
        <time>2015-07-05T06:45:58.000Z</time>
      </trkpt>
      <trkpt lat="48.69758" lon="1.68123">
        <ele>143</ele>
        <time>2015-07-05T06:46:05.000Z</time>
      </trkpt>
      <trkpt lat="48.69757" lon="1.68106">
        <ele>142.9</ele>
        <time>2015-07-05T06:46:12.000Z</time>
      </trkpt>
      <trkpt lat="48.69756" lon="1.68099">
        <ele>142.7</ele>
        <time>2015-07-05T06:46:15.000Z</time>
      </trkpt>
      <trkpt lat="48.69754" lon="1.68081">
        <ele>142.1</ele>
        <time>2015-07-05T06:46:23.000Z</time>
      </trkpt>
      <trkpt lat="48.69755" lon="1.68062">
        <ele>142.2</ele>
        <time>2015-07-05T06:46:32.000Z</time>
      </trkpt>
      <trkpt lat="48.69753" lon="1.68046">
        <ele>142.1</ele>
        <time>2015-07-05T06:46:39.000Z</time>
      </trkpt>
      <trkpt lat="48.69752" lon="1.68031">
        <ele>142.1</ele>
        <time>2015-07-05T06:46:43.000Z</time>
      </trkpt>
      <trkpt lat="48.69751" lon="1.68014">
        <ele>142</ele>
        <time>2015-07-05T06:46:49.000Z</time>
      </trkpt>
      <trkpt lat="48.6975" lon="1.67997">
        <ele>142</ele>
        <time>2015-07-05T06:46:57.000Z</time>
      </trkpt>
      <trkpt lat="48.69749" lon="1.67977">
        <ele>142</ele>
        <time>2015-07-05T06:47:05.000Z</time>
      </trkpt>
      <trkpt lat="48.69746" lon="1.67963">
        <ele>142.3</ele>
        <time>2015-07-05T06:47:10.000Z</time>
      </trkpt>
      <trkpt lat="48.69745" lon="1.67957">
        <ele>142.5</ele>
        <time>2015-07-05T06:47:13.000Z</time>
      </trkpt>
      <trkpt lat="48.69742" lon="1.67949">
        <ele>142.6</ele>
        <time>2015-07-05T06:47:17.000Z</time>
      </trkpt>
      <trkpt lat="48.69741" lon="1.67939">
        <ele>142.7</ele>
        <time>2015-07-05T06:47:22.000Z</time>
      </trkpt>
      <trkpt lat="48.6974" lon="1.6793">
        <ele>142.6</ele>
        <time>2015-07-05T06:47:26.000Z</time>
      </trkpt>
      <trkpt lat="48.69739" lon="1.67919">
        <ele>142.6</ele>
        <time>2015-07-05T06:47:31.000Z</time>
      </trkpt>
      <trkpt lat="48.69738" lon="1.67913">
        <ele>142.6</ele>
        <time>2015-07-05T06:47:34.000Z</time>
      </trkpt>
      <trkpt lat="48.69733" lon="1.67895">
        <ele>142.9</ele>
        <time>2015-07-05T06:47:42.000Z</time>
      </trkpt>
      <trkpt lat="48.69729" lon="1.67877">
        <ele>143.1</ele>
        <time>2015-07-05T06:47:50.000Z</time>
      </trkpt>
      <trkpt lat="48.69727" lon="1.67864">
        <ele>143.2</ele>
        <time>2015-07-05T06:47:56.000Z</time>
      </trkpt>
      <trkpt lat="48.69725" lon="1.67849">
        <ele>143.1</ele>
        <time>2015-07-05T06:48:02.000Z</time>
      </trkpt>
      <trkpt lat="48.69722" lon="1.67838">
        <ele>143</ele>
        <time>2015-07-05T06:48:08.000Z</time>
      </trkpt>
      <trkpt lat="48.69722" lon="1.67836">
        <ele>143</ele>
        <time>2015-07-05T06:48:09.000Z</time>
      </trkpt>
      <trkpt lat="48.69719" lon="1.6782">
        <ele>143.4</ele>
        <time>2015-07-05T06:48:16.000Z</time>
      </trkpt>
      <trkpt lat="48.69717" lon="1.67799">
        <ele>143.8</ele>
        <time>2015-07-05T06:48:25.000Z</time>
      </trkpt>
      <trkpt lat="48.69714" lon="1.67777">
        <ele>143.7</ele>
        <time>2015-07-05T06:48:35.000Z</time>
      </trkpt>
      <trkpt lat="48.69713" lon="1.67762">
        <ele>143.7</ele>
        <time>2015-07-05T06:48:43.000Z</time>
      </trkpt>
      <trkpt lat="48.69712" lon="1.67748">
        <ele>143.6</ele>
        <time>2015-07-05T06:48:50.000Z</time>
      </trkpt>
      <trkpt lat="48.69708" lon="1.67733">
        <ele>143.5</ele>
        <time>2015-07-05T06:48:57.000Z</time>
      </trkpt>
      <trkpt lat="48.69705" lon="1.67721">
        <ele>143.4</ele>
        <time>2015-07-05T06:49:02.000Z</time>
      </trkpt>
      <trkpt lat="48.69704" lon="1.67708">
        <ele>143.4</ele>
        <time>2015-07-05T06:49:08.000Z</time>
      </trkpt>
      <trkpt lat="48.69703" lon="1.67694">
        <ele>143.3</ele>
        <time>2015-07-05T06:49:13.000Z</time>
      </trkpt>
      <trkpt lat="48.69704" lon="1.67686">
        <ele>143.3</ele>
        <time>2015-07-05T06:49:17.000Z</time>
      </trkpt>
      <trkpt lat="48.69699" lon="1.67668">
        <ele>143.2</ele>
        <time>2015-07-05T06:49:23.000Z</time>
      </trkpt>
      <trkpt lat="48.69697" lon="1.67654">
        <ele>142.7</ele>
        <time>2015-07-05T06:49:30.000Z</time>
      </trkpt>
      <trkpt lat="48.69695" lon="1.67638">
        <ele>142</ele>
        <time>2015-07-05T06:49:38.000Z</time>
      </trkpt>
      <trkpt lat="48.69691" lon="1.67623">
        <ele>141.9</ele>
        <time>2015-07-05T06:49:45.000Z</time>
      </trkpt>
      <trkpt lat="48.69689" lon="1.67612">
        <ele>141.8</ele>
        <time>2015-07-05T06:49:50.000Z</time>
      </trkpt>
      <trkpt lat="48.69687" lon="1.67596">
        <ele>141.2</ele>
        <time>2015-07-05T06:49:57.000Z</time>
      </trkpt>
      <trkpt lat="48.69684" lon="1.67587">
        <ele>140.7</ele>
        <time>2015-07-05T06:50:01.000Z</time>
      </trkpt>
      <trkpt lat="48.69681" lon="1.67575">
        <ele>140.4</ele>
        <time>2015-07-05T06:50:06.000Z</time>
      </trkpt>
      <trkpt lat="48.69677" lon="1.67557">
        <ele>140</ele>
        <time>2015-07-05T06:50:15.000Z</time>
      </trkpt>
      <trkpt lat="48.69673" lon="1.6754">
        <ele>139.5</ele>
        <time>2015-07-05T06:50:23.000Z</time>
      </trkpt>
      <trkpt lat="48.69669" lon="1.6753">
        <ele>139.2</ele>
        <time>2015-07-05T06:50:28.000Z</time>
      </trkpt>
      <trkpt lat="48.69668" lon="1.67524">
        <ele>139</ele>
        <time>2015-07-05T06:50:30.000Z</time>
      </trkpt>
      <trkpt lat="48.69663" lon="1.67506">
        <ele>139</ele>
        <time>2015-07-05T06:50:37.000Z</time>
      </trkpt>
      <trkpt lat="48.69661" lon="1.67498">
        <ele>139</ele>
        <time>2015-07-05T06:50:41.000Z</time>
      </trkpt>
      <trkpt lat="48.69659" lon="1.6749">
        <ele>139</ele>
        <time>2015-07-05T06:50:46.000Z</time>
      </trkpt>
      <trkpt lat="48.69653" lon="1.67472">
        <ele>139</ele>
        <time>2015-07-05T06:50:54.000Z</time>
      </trkpt>
      <trkpt lat="48.69645" lon="1.6746">
        <ele>139.1</ele>
        <time>2015-07-05T06:51:01.000Z</time>
      </trkpt>
      <trkpt lat="48.69643" lon="1.67457">
        <ele>139.1</ele>
        <time>2015-07-05T06:51:03.000Z</time>
      </trkpt>
      <trkpt lat="48.69634" lon="1.67452">
        <ele>139</ele>
        <time>2015-07-05T06:51:09.000Z</time>
      </trkpt>
      <trkpt lat="48.69628" lon="1.67448">
        <ele>139</ele>
        <time>2015-07-05T06:51:13.000Z</time>
      </trkpt>
      <trkpt lat="48.69625" lon="1.67443">
        <ele>139.1</ele>
        <time>2015-07-05T06:51:18.000Z</time>
      </trkpt>
      <trkpt lat="48.69619" lon="1.67431">
        <ele>139.5</ele>
        <time>2015-07-05T06:51:25.000Z</time>
      </trkpt>
      <trkpt lat="48.69617" lon="1.67418">
        <ele>139.9</ele>
        <time>2015-07-05T06:51:31.000Z</time>
      </trkpt>
      <trkpt lat="48.69614" lon="1.6741">
        <ele>140</ele>
        <time>2015-07-05T06:51:35.000Z</time>
      </trkpt>
      <trkpt lat="48.69613" lon="1.67407">
        <ele>140</ele>
        <time>2015-07-05T06:51:37.000Z</time>
      </trkpt>
      <trkpt lat="48.69608" lon="1.67392">
        <ele>140</ele>
        <time>2015-07-05T06:51:45.000Z</time>
      </trkpt>
      <trkpt lat="48.69605" lon="1.67382">
        <ele>140.2</ele>
        <time>2015-07-05T06:51:50.000Z</time>
      </trkpt>
      <trkpt lat="48.69604" lon="1.67381">
        <ele>140.3</ele>
        <time>2015-07-05T06:51:51.000Z</time>
      </trkpt>
      <trkpt lat="48.69597" lon="1.6737">
        <ele>140.7</ele>
        <time>2015-07-05T06:51:58.000Z</time>
      </trkpt>
      <trkpt lat="48.69597" lon="1.67369">
        <ele>140.7</ele>
        <time>2015-07-05T06:51:59.000Z</time>
      </trkpt>
      <trkpt lat="48.69587" lon="1.67355">
        <ele>141</ele>
        <time>2015-07-05T06:52:07.000Z</time>
      </trkpt>
      <trkpt lat="48.69583" lon="1.67349">
        <ele>141</ele>
        <time>2015-07-05T06:52:12.000Z</time>
      </trkpt>
      <trkpt lat="48.6958" lon="1.67345">
        <ele>141</ele>
        <time>2015-07-05T06:52:14.000Z</time>
      </trkpt>
      <trkpt lat="48.69575" lon="1.67336">
        <ele>141</ele>
        <time>2015-07-05T06:52:20.000Z</time>
      </trkpt>
      <trkpt lat="48.69574" lon="1.67335">
        <ele>141</ele>
        <time>2015-07-05T06:52:21.000Z</time>
      </trkpt>
      <trkpt lat="48.69572" lon="1.67331">
        <ele>141.1</ele>
        <time>2015-07-05T06:52:23.000Z</time>
      </trkpt>
      <trkpt lat="48.69568" lon="1.67326">
        <ele>141.3</ele>
        <time>2015-07-05T06:52:27.000Z</time>
      </trkpt>
      <trkpt lat="48.69565" lon="1.67315">
        <ele>141.7</ele>
        <time>2015-07-05T06:52:33.000Z</time>
      </trkpt>
      <trkpt lat="48.69555" lon="1.67297">
        <ele>142</ele>
        <time>2015-07-05T06:52:42.000Z</time>
      </trkpt>
      <trkpt lat="48.69552" lon="1.6729">
        <ele>141.9</ele>
        <time>2015-07-05T06:52:45.000Z</time>
      </trkpt>
      <trkpt lat="48.69547" lon="1.6728">
        <ele>142</ele>
        <time>2015-07-05T06:52:51.000Z</time>
      </trkpt>
      <trkpt lat="48.69541" lon="1.6727">
        <ele>142.3</ele>
        <time>2015-07-05T06:52:57.000Z</time>
      </trkpt>
      <trkpt lat="48.6954" lon="1.67268">
        <ele>142.4</ele>
        <time>2015-07-05T06:52:58.000Z</time>
      </trkpt>
      <trkpt lat="48.69538" lon="1.67262">
        <ele>142.6</ele>
        <time>2015-07-05T06:53:01.000Z</time>
      </trkpt>
      <trkpt lat="48.69532" lon="1.67253">
        <ele>142.9</ele>
        <time>2015-07-05T06:53:06.000Z</time>
      </trkpt>
      <trkpt lat="48.69531" lon="1.6725">
        <ele>143</ele>
        <time>2015-07-05T06:53:07.000Z</time>
      </trkpt>
      <trkpt lat="48.69527" lon="1.67242">
        <ele>143</ele>
        <time>2015-07-05T06:53:11.000Z</time>
      </trkpt>
      <trkpt lat="48.69522" lon="1.67232">
        <ele>142.9</ele>
        <time>2015-07-05T06:53:17.000Z</time>
      </trkpt>
      <trkpt lat="48.69519" lon="1.67219">
        <ele>143.1</ele>
        <time>2015-07-05T06:53:24.000Z</time>
      </trkpt>
      <trkpt lat="48.69519" lon="1.67217">
        <ele>143.1</ele>
        <time>2015-07-05T06:53:25.000Z</time>
      </trkpt>
      <trkpt lat="48.69513" lon="1.67203">
        <ele>143.3</ele>
        <time>2015-07-05T06:53:32.000Z</time>
      </trkpt>
      <trkpt lat="48.69512" lon="1.67199">
        <ele>143.3</ele>
        <time>2015-07-05T06:53:34.000Z</time>
      </trkpt>
      <trkpt lat="48.6951" lon="1.67192">
        <ele>143.3</ele>
        <time>2015-07-05T06:53:38.000Z</time>
      </trkpt>
      <trkpt lat="48.69507" lon="1.67187">
        <ele>143.3</ele>
        <time>2015-07-05T06:53:41.000Z</time>
      </trkpt>
      <trkpt lat="48.69503" lon="1.67172">
        <ele>143.1</ele>
        <time>2015-07-05T06:53:48.000Z</time>
      </trkpt>
      <trkpt lat="48.69501" lon="1.67161">
        <ele>143.2</ele>
        <time>2015-07-05T06:53:53.000Z</time>
      </trkpt>
      <trkpt lat="48.69499" lon="1.67146">
        <ele>143.7</ele>
        <time>2015-07-05T06:54:01.000Z</time>
      </trkpt>
      <trkpt lat="48.69497" lon="1.67135">
        <ele>143.7</ele>
        <time>2015-07-05T06:54:07.000Z</time>
      </trkpt>
      <trkpt lat="48.69493" lon="1.67113">
        <ele>142.8</ele>
        <time>2015-07-05T06:54:17.000Z</time>
      </trkpt>
      <trkpt lat="48.69487" lon="1.67089">
        <ele>142.5</ele>
        <time>2015-07-05T06:54:27.000Z</time>
      </trkpt>
      <trkpt lat="48.69485" lon="1.67074">
        <ele>142.4</ele>
        <time>2015-07-05T06:54:34.000Z</time>
      </trkpt>
      <trkpt lat="48.69484" lon="1.67066">
        <ele>142.4</ele>
        <time>2015-07-05T06:54:39.000Z</time>
      </trkpt>
      <trkpt lat="48.69483" lon="1.67055">
        <ele>142.4</ele>
        <time>2015-07-05T06:54:44.000Z</time>
      </trkpt>
      <trkpt lat="48.69483" lon="1.67049">
        <ele>142.1</ele>
        <time>2015-07-05T06:54:48.000Z</time>
      </trkpt>
      <trkpt lat="48.69479" lon="1.67026">
        <ele>141.2</ele>
        <time>2015-07-05T06:54:59.000Z</time>
      </trkpt>
      <trkpt lat="48.69478" lon="1.6702">
        <ele>141.1</ele>
        <time>2015-07-05T06:55:02.000Z</time>
      </trkpt>
      <trkpt lat="48.69476" lon="1.67013">
        <ele>141.1</ele>
        <time>2015-07-05T06:55:06.000Z</time>
      </trkpt>
      <trkpt lat="48.69474" lon="1.66998">
        <ele>140.9</ele>
        <time>2015-07-05T06:55:13.000Z</time>
      </trkpt>
      <trkpt lat="48.69472" lon="1.66978">
        <ele>140.2</ele>
        <time>2015-07-05T06:55:22.000Z</time>
      </trkpt>
      <trkpt lat="48.69471" lon="1.66963">
        <ele>140</ele>
        <time>2015-07-05T06:55:29.000Z</time>
      </trkpt>
      <trkpt lat="48.69467" lon="1.6695">
        <ele>139.9</ele>
        <time>2015-07-05T06:55:35.000Z</time>
      </trkpt>
      <trkpt lat="48.69464" lon="1.66938">
        <ele>139.7</ele>
        <time>2015-07-05T06:55:41.000Z</time>
      </trkpt>
      <trkpt lat="48.69464" lon="1.66925">
        <ele>139.7</ele>
        <time>2015-07-05T06:55:48.000Z</time>
      </trkpt>
      <trkpt lat="48.6946" lon="1.66909">
        <ele>139.6</ele>
        <time>2015-07-05T06:55:55.000Z</time>
      </trkpt>
      <trkpt lat="48.6946" lon="1.66907">
        <ele>139.6</ele>
        <time>2015-07-05T06:55:56.000Z</time>
      </trkpt>
      <trkpt lat="48.69458" lon="1.66889">
        <ele>139.5</ele>
        <time>2015-07-05T06:56:04.000Z</time>
      </trkpt>
      <trkpt lat="48.69457" lon="1.66887">
        <ele>139.5</ele>
        <time>2015-07-05T06:56:05.000Z</time>
      </trkpt>
      <trkpt lat="48.69452" lon="1.66867">
        <ele>139.3</ele>
        <time>2015-07-05T06:56:13.000Z</time>
      </trkpt>
      <trkpt lat="48.69451" lon="1.66853">
        <ele>139.2</ele>
        <time>2015-07-05T06:56:20.000Z</time>
      </trkpt>
      <trkpt lat="48.69447" lon="1.66839">
        <ele>139.1</ele>
        <time>2015-07-05T06:56:27.000Z</time>
      </trkpt>
      <trkpt lat="48.69444" lon="1.66821">
        <ele>139</ele>
        <time>2015-07-05T06:56:35.000Z</time>
      </trkpt>
      <trkpt lat="48.69441" lon="1.66808">
        <ele>138.9</ele>
        <time>2015-07-05T06:56:42.000Z</time>
      </trkpt>
      <trkpt lat="48.69438" lon="1.66793">
        <ele>138.8</ele>
        <time>2015-07-05T06:56:50.000Z</time>
      </trkpt>
      <trkpt lat="48.69438" lon="1.6679">
        <ele>138.8</ele>
        <time>2015-07-05T06:56:52.000Z</time>
      </trkpt>
      <trkpt lat="48.69433" lon="1.66768">
        <ele>138.8</ele>
        <time>2015-07-05T06:57:03.000Z</time>
      </trkpt>
      <trkpt lat="48.6943" lon="1.66754">
        <ele>138.9</ele>
        <time>2015-07-05T06:57:10.000Z</time>
      </trkpt>
      <trkpt lat="48.69426" lon="1.66737">
        <ele>139</ele>
        <time>2015-07-05T06:57:18.000Z</time>
      </trkpt>
      <trkpt lat="48.69424" lon="1.66732">
        <ele>139</ele>
        <time>2015-07-05T06:57:24.000Z</time>
      </trkpt>
      <trkpt lat="48.69418" lon="1.66727">
        <ele>138.9</ele>
        <time>2015-07-05T06:57:50.000Z</time>
      </trkpt>
      <trkpt lat="48.69414" lon="1.66714">
        <ele>138.9</ele>
        <time>2015-07-05T06:57:55.000Z</time>
      </trkpt>
      <trkpt lat="48.69411" lon="1.66693">
        <ele>138.8</ele>
        <time>2015-07-05T06:58:02.000Z</time>
      </trkpt>
      <trkpt lat="48.69409" lon="1.66677">
        <ele>138.7</ele>
        <time>2015-07-05T06:58:06.000Z</time>
      </trkpt>
      <trkpt lat="48.69411" lon="1.66661">
        <ele>138.8</ele>
        <time>2015-07-05T06:58:14.000Z</time>
      </trkpt>
      <trkpt lat="48.69414" lon="1.66644">
        <ele>138.9</ele>
        <time>2015-07-05T06:58:22.000Z</time>
      </trkpt>
      <trkpt lat="48.69417" lon="1.66624">
        <ele>139</ele>
        <time>2015-07-05T06:58:32.000Z</time>
      </trkpt>
      <trkpt lat="48.69419" lon="1.66611">
        <ele>139.2</ele>
        <time>2015-07-05T06:58:39.000Z</time>
      </trkpt>
      <trkpt lat="48.69421" lon="1.66599">
        <ele>139.7</ele>
        <time>2015-07-05T06:58:45.000Z</time>
      </trkpt>
      <trkpt lat="48.69423" lon="1.66589">
        <ele>140.1</ele>
        <time>2015-07-05T06:58:51.000Z</time>
      </trkpt>
      <trkpt lat="48.69425" lon="1.66578">
        <ele>140.3</ele>
        <time>2015-07-05T06:58:57.000Z</time>
      </trkpt>
      <trkpt lat="48.69426" lon="1.6656">
        <ele>140.3</ele>
        <time>2015-07-05T06:59:05.000Z</time>
      </trkpt>
      <trkpt lat="48.69429" lon="1.6655">
        <ele>140.4</ele>
        <time>2015-07-05T06:59:11.000Z</time>
      </trkpt>
      <trkpt lat="48.69431" lon="1.66533">
        <ele>140.5</ele>
        <time>2015-07-05T06:59:19.000Z</time>
      </trkpt>
      <trkpt lat="48.69433" lon="1.66522">
        <ele>140.6</ele>
        <time>2015-07-05T06:59:25.000Z</time>
      </trkpt>
      <trkpt lat="48.69436" lon="1.6651">
        <ele>140.7</ele>
        <time>2015-07-05T06:59:31.000Z</time>
      </trkpt>
      <trkpt lat="48.69437" lon="1.66499">
        <ele>140.7</ele>
        <time>2015-07-05T06:59:35.000Z</time>
      </trkpt>
      <trkpt lat="48.6944" lon="1.66488">
        <ele>140.8</ele>
        <time>2015-07-05T06:59:41.000Z</time>
      </trkpt>
      <trkpt lat="48.69444" lon="1.66476">
        <ele>141</ele>
        <time>2015-07-05T06:59:48.000Z</time>
      </trkpt>
      <trkpt lat="48.69448" lon="1.6646">
        <ele>140.7</ele>
        <time>2015-07-05T06:59:55.000Z</time>
      </trkpt>
      <trkpt lat="48.69449" lon="1.66447">
        <ele>140.4</ele>
        <time>2015-07-05T07:00:01.000Z</time>
      </trkpt>
      <trkpt lat="48.69451" lon="1.66433">
        <ele>140.4</ele>
        <time>2015-07-05T07:00:08.000Z</time>
      </trkpt>
      <trkpt lat="48.69455" lon="1.66421">
        <ele>140.4</ele>
        <time>2015-07-05T07:00:13.000Z</time>
      </trkpt>
      <trkpt lat="48.69457" lon="1.66409">
        <ele>140.4</ele>
        <time>2015-07-05T07:00:19.000Z</time>
      </trkpt>
      <trkpt lat="48.69458" lon="1.66408">
        <ele>140.5</ele>
        <time>2015-07-05T07:00:20.000Z</time>
      </trkpt>
      <trkpt lat="48.69462" lon="1.66396">
        <ele>140.6</ele>
        <time>2015-07-05T07:00:26.000Z</time>
      </trkpt>
      <trkpt lat="48.69463" lon="1.66395">
        <ele>140.7</ele>
        <time>2015-07-05T07:00:27.000Z</time>
      </trkpt>
      <trkpt lat="48.69466" lon="1.66389">
        <ele>140.8</ele>
        <time>2015-07-05T07:00:30.000Z</time>
      </trkpt>
      <trkpt lat="48.69471" lon="1.66378">
        <ele>140.6</ele>
        <time>2015-07-05T07:00:35.000Z</time>
      </trkpt>
      <trkpt lat="48.69477" lon="1.66365">
        <ele>140.4</ele>
        <time>2015-07-05T07:00:42.000Z</time>
      </trkpt>
      <trkpt lat="48.69482" lon="1.66353">
        <ele>140.7</ele>
        <time>2015-07-05T07:00:49.000Z</time>
      </trkpt>
      <trkpt lat="48.69488" lon="1.66344">
        <ele>141.2</ele>
        <time>2015-07-05T07:00:55.000Z</time>
      </trkpt>
      <trkpt lat="48.6949" lon="1.66343">
        <ele>141.3</ele>
        <time>2015-07-05T07:00:56.000Z</time>
      </trkpt>
      <trkpt lat="48.69493" lon="1.66339">
        <ele>141.5</ele>
        <time>2015-07-05T07:00:59.000Z</time>
      </trkpt>
      <trkpt lat="48.69494" lon="1.6633">
        <ele>141.6</ele>
        <time>2015-07-05T07:01:03.000Z</time>
      </trkpt>
      <trkpt lat="48.69497" lon="1.66322">
        <ele>141.8</ele>
        <time>2015-07-05T07:01:08.000Z</time>
      </trkpt>
      <trkpt lat="48.69499" lon="1.66319">
        <ele>141.9</ele>
        <time>2015-07-05T07:01:10.000Z</time>
      </trkpt>
      <trkpt lat="48.695" lon="1.66314">
        <ele>142</ele>
        <time>2015-07-05T07:01:12.000Z</time>
      </trkpt>
      <trkpt lat="48.69503" lon="1.66298">
        <ele>142.1</ele>
        <time>2015-07-05T07:01:17.000Z</time>
      </trkpt>
      <trkpt lat="48.69505" lon="1.66285">
        <ele>142.2</ele>
        <time>2015-07-05T07:01:22.000Z</time>
      </trkpt>
      <trkpt lat="48.69506" lon="1.66269">
        <ele>142.2</ele>
        <time>2015-07-05T07:01:29.000Z</time>
      </trkpt>
      <trkpt lat="48.69507" lon="1.66257">
        <ele>142.2</ele>
        <time>2015-07-05T07:01:35.000Z</time>
      </trkpt>
      <trkpt lat="48.69507" lon="1.66247">
        <ele>142.3</ele>
        <time>2015-07-05T07:01:39.000Z</time>
      </trkpt>
      <trkpt lat="48.69506" lon="1.66239">
        <ele>142.3</ele>
        <time>2015-07-05T07:01:43.000Z</time>
      </trkpt>
      <trkpt lat="48.69506" lon="1.66232">
        <ele>142.3</ele>
        <time>2015-07-05T07:01:46.000Z</time>
      </trkpt>
      <trkpt lat="48.69509" lon="1.66219">
        <ele>142.7</ele>
        <time>2015-07-05T07:01:53.000Z</time>
      </trkpt>
      <trkpt lat="48.69511" lon="1.66212">
        <ele>143</ele>
        <time>2015-07-05T07:01:57.000Z</time>
      </trkpt>
      <trkpt lat="48.69514" lon="1.66203">
        <ele>143.4</ele>
        <time>2015-07-05T07:02:01.000Z</time>
      </trkpt>
      <trkpt lat="48.6952" lon="1.66192">
        <ele>143.7</ele>
        <time>2015-07-05T07:02:06.000Z</time>
      </trkpt>
      <trkpt lat="48.69526" lon="1.66174">
        <ele>143.9</ele>
        <time>2015-07-05T07:02:14.000Z</time>
      </trkpt>
      <trkpt lat="48.6953" lon="1.66159">
        <ele>144.4</ele>
        <time>2015-07-05T07:02:19.000Z</time>
      </trkpt>
      <trkpt lat="48.69531" lon="1.66154">
        <ele>144.7</ele>
        <time>2015-07-05T07:02:22.000Z</time>
      </trkpt>
      <trkpt lat="48.69533" lon="1.6615">
        <ele>144.8</ele>
        <time>2015-07-05T07:02:24.000Z</time>
      </trkpt>
      <trkpt lat="48.69534" lon="1.66147">
        <ele>145</ele>
        <time>2015-07-05T07:02:28.000Z</time>
      </trkpt>
      <trkpt lat="48.69535" lon="1.66139">
        <ele>145.2</ele>
        <time>2015-07-05T07:02:37.000Z</time>
      </trkpt>
      <trkpt lat="48.69537" lon="1.66127">
        <ele>145.3</ele>
        <time>2015-07-05T07:02:42.000Z</time>
      </trkpt>
      <trkpt lat="48.69539" lon="1.66116">
        <ele>145.4</ele>
        <time>2015-07-05T07:02:47.000Z</time>
      </trkpt>
      <trkpt lat="48.69543" lon="1.66106">
        <ele>145.5</ele>
        <time>2015-07-05T07:02:52.000Z</time>
      </trkpt>
      <trkpt lat="48.69545" lon="1.66091">
        <ele>145.6</ele>
        <time>2015-07-05T07:02:59.000Z</time>
      </trkpt>
      <trkpt lat="48.69548" lon="1.66077">
        <ele>145.7</ele>
        <time>2015-07-05T07:03:05.000Z</time>
      </trkpt>
      <trkpt lat="48.6955" lon="1.66066">
        <ele>145.8</ele>
        <time>2015-07-05T07:03:10.000Z</time>
      </trkpt>
      <trkpt lat="48.69553" lon="1.66051">
        <ele>145.8</ele>
        <time>2015-07-05T07:03:17.000Z</time>
      </trkpt>
      <trkpt lat="48.69555" lon="1.66038">
        <ele>145.4</ele>
        <time>2015-07-05T07:03:23.000Z</time>
      </trkpt>
      <trkpt lat="48.69555" lon="1.66022">
        <ele>145</ele>
        <time>2015-07-05T07:03:30.000Z</time>
      </trkpt>
      <trkpt lat="48.69553" lon="1.66005">
        <ele>144.8</ele>
        <time>2015-07-05T07:03:35.000Z</time>
      </trkpt>
      <trkpt lat="48.69552" lon="1.65989">
        <ele>144.8</ele>
        <time>2015-07-05T07:03:40.000Z</time>
      </trkpt>
      <trkpt lat="48.69552" lon="1.65986">
        <ele>144.8</ele>
        <time>2015-07-05T07:03:41.000Z</time>
      </trkpt>
      <trkpt lat="48.69552" lon="1.6598">
        <ele>144.8</ele>
        <time>2015-07-05T07:03:43.000Z</time>
      </trkpt>
      <trkpt lat="48.69549" lon="1.65967">
        <ele>144.5</ele>
        <time>2015-07-05T07:03:48.000Z</time>
      </trkpt>
      <trkpt lat="48.69549" lon="1.65962">
        <ele>144.5</ele>
        <time>2015-07-05T07:03:50.000Z</time>
      </trkpt>
      <trkpt lat="48.69547" lon="1.65945">
        <ele>144.4</ele>
        <time>2015-07-05T07:03:58.000Z</time>
      </trkpt>
      <trkpt lat="48.69546" lon="1.65928">
        <ele>144.7</ele>
        <time>2015-07-05T07:04:05.000Z</time>
      </trkpt>
      <trkpt lat="48.69544" lon="1.65907">
        <ele>144.8</ele>
        <time>2015-07-05T07:04:12.000Z</time>
      </trkpt>
      <trkpt lat="48.69545" lon="1.65898">
        <ele>144.8</ele>
        <time>2015-07-05T07:04:16.000Z</time>
      </trkpt>
      <trkpt lat="48.69546" lon="1.65872">
        <ele>145</ele>
        <time>2015-07-05T07:04:28.000Z</time>
      </trkpt>
      <trkpt lat="48.69547" lon="1.65852">
        <ele>144.8</ele>
        <time>2015-07-05T07:04:37.000Z</time>
      </trkpt>
      <trkpt lat="48.69549" lon="1.65832">
        <ele>144.5</ele>
        <time>2015-07-05T07:04:46.000Z</time>
      </trkpt>
      <trkpt lat="48.69549" lon="1.6583">
        <ele>144.4</ele>
        <time>2015-07-05T07:04:47.000Z</time>
      </trkpt>
      <trkpt lat="48.69554" lon="1.65814">
        <ele>144.2</ele>
        <time>2015-07-05T07:04:55.000Z</time>
      </trkpt>
      <trkpt lat="48.69557" lon="1.65801">
        <ele>143.9</ele>
        <time>2015-07-05T07:05:01.000Z</time>
      </trkpt>
      <trkpt lat="48.69557" lon="1.65799">
        <ele>143.9</ele>
        <time>2015-07-05T07:05:02.000Z</time>
      </trkpt>
      <trkpt lat="48.6956" lon="1.65789">
        <ele>143.8</ele>
        <time>2015-07-05T07:05:07.000Z</time>
      </trkpt>
      <trkpt lat="48.69563" lon="1.65776">
        <ele>143.5</ele>
        <time>2015-07-05T07:05:13.000Z</time>
      </trkpt>
      <trkpt lat="48.69563" lon="1.65771">
        <ele>143.5</ele>
        <time>2015-07-05T07:05:15.000Z</time>
      </trkpt>
      <trkpt lat="48.69563" lon="1.65764">
        <ele>143.4</ele>
        <time>2015-07-05T07:05:18.000Z</time>
      </trkpt>
      <trkpt lat="48.69562" lon="1.65748">
        <ele>143.2</ele>
        <time>2015-07-05T07:05:25.000Z</time>
      </trkpt>
      <trkpt lat="48.69561" lon="1.65739">
        <ele>142.8</ele>
        <time>2015-07-05T07:05:29.000Z</time>
      </trkpt>
      <trkpt lat="48.69561" lon="1.65736">
        <ele>142.7</ele>
        <time>2015-07-05T07:05:31.000Z</time>
      </trkpt>
      <trkpt lat="48.6956" lon="1.65722">
        <ele>142.2</ele>
        <time>2015-07-05T07:05:38.000Z</time>
      </trkpt>
      <trkpt lat="48.69558" lon="1.65716">
        <ele>142.1</ele>
        <time>2015-07-05T07:05:41.000Z</time>
      </trkpt>
      <trkpt lat="48.69548" lon="1.65703">
        <ele>142</ele>
        <time>2015-07-05T07:05:51.000Z</time>
      </trkpt>
      <trkpt lat="48.69539" lon="1.65702">
        <ele>142</ele>
        <time>2015-07-05T07:05:58.000Z</time>
      </trkpt>
      <trkpt lat="48.69528" lon="1.65704">
        <ele>142</ele>
        <time>2015-07-05T07:06:06.000Z</time>
      </trkpt>
      <trkpt lat="48.69519" lon="1.65705">
        <ele>142</ele>
        <time>2015-07-05T07:06:13.000Z</time>
      </trkpt>
      <trkpt lat="48.69511" lon="1.65707">
        <ele>142</ele>
        <time>2015-07-05T07:06:20.000Z</time>
      </trkpt>
      <trkpt lat="48.69502" lon="1.65708">
        <ele>142</ele>
        <time>2015-07-05T07:06:26.000Z</time>
      </trkpt>
      <trkpt lat="48.69497" lon="1.6571">
        <ele>141.9</ele>
        <time>2015-07-05T07:06:32.000Z</time>
      </trkpt>
      <trkpt lat="48.69497" lon="1.6571">
        <ele>141.9</ele>
        <time>2015-07-05T07:06:33.000Z</time>
      </trkpt>
      <trkpt lat="48.69489" lon="1.6571">
        <ele>141.8</ele>
        <time>2015-07-05T07:06:41.000Z</time>
      </trkpt>
      <trkpt lat="48.69478" lon="1.65711">
        <ele>141.5</ele>
        <time>2015-07-05T07:06:47.000Z</time>
      </trkpt>
      <trkpt lat="48.6947" lon="1.65713">
        <ele>141.3</ele>
        <time>2015-07-05T07:06:53.000Z</time>
      </trkpt>
      <trkpt lat="48.6946" lon="1.65714">
        <ele>141.3</ele>
        <time>2015-07-05T07:07:00.000Z</time>
      </trkpt>
      <trkpt lat="48.6945" lon="1.65716">
        <ele>141.2</ele>
        <time>2015-07-05T07:07:07.000Z</time>
      </trkpt>
      <trkpt lat="48.6944" lon="1.65718">
        <ele>141.2</ele>
        <time>2015-07-05T07:07:14.000Z</time>
      </trkpt>
      <trkpt lat="48.6943" lon="1.65717">
        <ele>141.2</ele>
        <time>2015-07-05T07:07:20.000Z</time>
      </trkpt>
      <trkpt lat="48.69423" lon="1.65716">
        <ele>141.2</ele>
        <time>2015-07-05T07:07:30.000Z</time>
      </trkpt>
      <trkpt lat="48.69412" lon="1.65719">
        <ele>141.1</ele>
        <time>2015-07-05T07:07:39.000Z</time>
      </trkpt>
      <trkpt lat="48.69408" lon="1.6572">
        <ele>141.1</ele>
        <time>2015-07-05T07:07:44.000Z</time>
      </trkpt>
      <trkpt lat="48.69401" lon="1.65724">
        <ele>140.9</ele>
        <time>2015-07-05T07:08:14.000Z</time>
      </trkpt>
      <trkpt lat="48.69389" lon="1.65727">
        <ele>140.8</ele>
        <time>2015-07-05T07:08:20.000Z</time>
      </trkpt>
      <trkpt lat="48.69388" lon="1.65727">
        <ele>140.9</ele>
        <time>2015-07-05T07:08:21.000Z</time>
      </trkpt>
      <trkpt lat="48.69381" lon="1.65728">
        <ele>141.1</ele>
        <time>2015-07-05T07:08:26.000Z</time>
      </trkpt>
      <trkpt lat="48.69373" lon="1.65728">
        <ele>141.4</ele>
        <time>2015-07-05T07:08:31.000Z</time>
      </trkpt>
      <trkpt lat="48.69362" lon="1.65731">
        <ele>141.7</ele>
        <time>2015-07-05T07:08:39.000Z</time>
      </trkpt>
      <trkpt lat="48.6935" lon="1.65734">
        <ele>142</ele>
        <time>2015-07-05T07:08:47.000Z</time>
      </trkpt>
      <trkpt lat="48.69334" lon="1.65737">
        <ele>142.4</ele>
        <time>2015-07-05T07:08:57.000Z</time>
      </trkpt>
      <trkpt lat="48.69324" lon="1.65738">
        <ele>142.3</ele>
        <time>2015-07-05T07:09:04.000Z</time>
      </trkpt>
      <trkpt lat="48.69316" lon="1.65742">
        <ele>142.1</ele>
        <time>2015-07-05T07:09:09.000Z</time>
      </trkpt>
      <trkpt lat="48.69301" lon="1.65745">
        <ele>142</ele>
        <time>2015-07-05T07:09:18.000Z</time>
      </trkpt>
      <trkpt lat="48.69287" lon="1.65748">
        <ele>142</ele>
        <time>2015-07-05T07:09:27.000Z</time>
      </trkpt>
      <trkpt lat="48.69276" lon="1.65753">
        <ele>141.8</ele>
        <time>2015-07-05T07:09:34.000Z</time>
      </trkpt>
      <trkpt lat="48.69264" lon="1.65756">
        <ele>141.4</ele>
        <time>2015-07-05T07:09:42.000Z</time>
      </trkpt>
      <trkpt lat="48.69248" lon="1.65759">
        <ele>140.9</ele>
        <time>2015-07-05T07:09:53.000Z</time>
      </trkpt>
      <trkpt lat="48.69236" lon="1.65763">
        <ele>140.5</ele>
        <time>2015-07-05T07:10:01.000Z</time>
      </trkpt>
      <trkpt lat="48.69222" lon="1.65764">
        <ele>140</ele>
        <time>2015-07-05T07:10:10.000Z</time>
      </trkpt>
      <trkpt lat="48.69219" lon="1.65753">
        <ele>140</ele>
        <time>2015-07-05T07:10:15.000Z</time>
      </trkpt>
      <trkpt lat="48.69217" lon="1.65737">
        <ele>140</ele>
        <time>2015-07-05T07:10:22.000Z</time>
      </trkpt>
      <trkpt lat="48.69217" lon="1.65736">
        <ele>140</ele>
        <time>2015-07-05T07:10:25.000Z</time>
      </trkpt>
      <trkpt lat="48.69218" lon="1.65749">
        <ele>140</ele>
        <time>2015-07-05T08:05:05.000Z</time>
      </trkpt>
      <trkpt lat="48.69218" lon="1.65749">
        <ele>140</ele>
        <time>2015-07-05T08:05:05.000Z</time>
      </trkpt>
      <trkpt lat="48.69218" lon="1.65749">
        <ele>140</ele>
        <time>2015-07-05T08:05:06.000Z</time>
      </trkpt>
      <trkpt lat="48.69222" lon="1.65769">
        <ele>140</ele>
        <time>2015-07-05T08:06:22.000Z</time>
      </trkpt>
      <trkpt lat="48.69227" lon="1.65769">
        <ele>140.2</ele>
        <time>2015-07-05T08:06:25.000Z</time>
      </trkpt>
      <trkpt lat="48.6924" lon="1.65765">
        <ele>140.7</ele>
        <time>2015-07-05T08:06:34.000Z</time>
      </trkpt>
      <trkpt lat="48.69249" lon="1.65763">
        <ele>141</ele>
        <time>2015-07-05T08:06:40.000Z</time>
      </trkpt>
      <trkpt lat="48.6926" lon="1.65762">
        <ele>141.2</ele>
        <time>2015-07-05T08:06:48.000Z</time>
      </trkpt>
      <trkpt lat="48.69268" lon="1.65758">
        <ele>141.5</ele>
        <time>2015-07-05T08:06:54.000Z</time>
      </trkpt>
      <trkpt lat="48.69279" lon="1.65756">
        <ele>141.8</ele>
        <time>2015-07-05T08:07:02.000Z</time>
      </trkpt>
      <trkpt lat="48.6928" lon="1.65757">
        <ele>141.8</ele>
        <time>2015-07-05T08:07:03.000Z</time>
      </trkpt>
      <trkpt lat="48.69284" lon="1.65753">
        <ele>141.9</ele>
        <time>2015-07-05T08:07:07.000Z</time>
      </trkpt>
      <trkpt lat="48.69292" lon="1.65752">
        <ele>141.9</ele>
        <time>2015-07-05T08:07:12.000Z</time>
      </trkpt>
      <trkpt lat="48.69297" lon="1.65752">
        <ele>141.9</ele>
        <time>2015-07-05T08:07:15.000Z</time>
      </trkpt>
      <trkpt lat="48.69305" lon="1.65749">
        <ele>142</ele>
        <time>2015-07-05T08:07:22.000Z</time>
      </trkpt>
      <trkpt lat="48.69308" lon="1.65748">
        <ele>142</ele>
        <time>2015-07-05T08:07:26.000Z</time>
      </trkpt>
      <trkpt lat="48.69318" lon="1.65745">
        <ele>142.1</ele>
        <time>2015-07-05T08:07:33.000Z</time>
      </trkpt>
      <trkpt lat="48.69326" lon="1.6574">
        <ele>142.3</ele>
        <time>2015-07-05T08:07:39.000Z</time>
      </trkpt>
      <trkpt lat="48.69334" lon="1.65738">
        <ele>142.4</ele>
        <time>2015-07-05T08:07:44.000Z</time>
      </trkpt>
      <trkpt lat="48.69336" lon="1.65737">
        <ele>142.4</ele>
        <time>2015-07-05T08:07:46.000Z</time>
      </trkpt>
      <trkpt lat="48.69344" lon="1.65737">
        <ele>142.1</ele>
        <time>2015-07-05T08:07:52.000Z</time>
      </trkpt>
      <trkpt lat="48.69347" lon="1.65738">
        <ele>142</ele>
        <time>2015-07-05T08:07:54.000Z</time>
      </trkpt>
      <trkpt lat="48.69358" lon="1.65737">
        <ele>141.6</ele>
        <time>2015-07-05T08:08:01.000Z</time>
      </trkpt>
      <trkpt lat="48.69364" lon="1.65735">
        <ele>141.4</ele>
        <time>2015-07-05T08:08:07.000Z</time>
      </trkpt>
      <trkpt lat="48.69373" lon="1.6573">
        <ele>141.3</ele>
        <time>2015-07-05T08:08:15.000Z</time>
      </trkpt>
      <trkpt lat="48.69382" lon="1.65727">
        <ele>141.1</ele>
        <time>2015-07-05T08:08:22.000Z</time>
      </trkpt>
      <trkpt lat="48.69387" lon="1.65726">
        <ele>140.9</ele>
        <time>2015-07-05T08:08:26.000Z</time>
      </trkpt>
      <trkpt lat="48.69391" lon="1.65722">
        <ele>141</ele>
        <time>2015-07-05T08:08:29.000Z</time>
      </trkpt>
      <trkpt lat="48.69396" lon="1.65713">
        <ele>141.3</ele>
        <time>2015-07-05T08:08:35.000Z</time>
      </trkpt>
      <trkpt lat="48.69403" lon="1.65713">
        <ele>141.3</ele>
        <time>2015-07-05T08:08:39.000Z</time>
      </trkpt>
      <trkpt lat="48.69414" lon="1.65714">
        <ele>141.3</ele>
        <time>2015-07-05T08:08:46.000Z</time>
      </trkpt>
      <trkpt lat="48.69419" lon="1.65717">
        <ele>141.2</ele>
        <time>2015-07-05T08:08:50.000Z</time>
      </trkpt>
      <trkpt lat="48.69428" lon="1.65721">
        <ele>141</ele>
        <time>2015-07-05T08:08:56.000Z</time>
      </trkpt>
      <trkpt lat="48.69437" lon="1.65722">
        <ele>141</ele>
        <time>2015-07-05T08:09:02.000Z</time>
      </trkpt>
      <trkpt lat="48.69445" lon="1.65724">
        <ele>141</ele>
        <time>2015-07-05T08:09:09.000Z</time>
      </trkpt>
      <trkpt lat="48.6945" lon="1.65723">
        <ele>141</ele>
        <time>2015-07-05T08:09:13.000Z</time>
      </trkpt>
      <trkpt lat="48.69456" lon="1.65721">
        <ele>141</ele>
        <time>2015-07-05T08:09:17.000Z</time>
      </trkpt>
      <trkpt lat="48.6946" lon="1.6572">
        <ele>141.1</ele>
        <time>2015-07-05T08:09:20.000Z</time>
      </trkpt>
      <trkpt lat="48.69465" lon="1.65718">
        <ele>141.2</ele>
        <time>2015-07-05T08:09:24.000Z</time>
      </trkpt>
      <trkpt lat="48.69471" lon="1.65718">
        <ele>141.2</ele>
        <time>2015-07-05T08:09:28.000Z</time>
      </trkpt>
      <trkpt lat="48.69479" lon="1.65715">
        <ele>141.4</ele>
        <time>2015-07-05T08:09:34.000Z</time>
      </trkpt>
      <trkpt lat="48.69489" lon="1.65718">
        <ele>141.7</ele>
        <time>2015-07-05T08:09:40.000Z</time>
      </trkpt>
      <trkpt lat="48.69499" lon="1.65716">
        <ele>142</ele>
        <time>2015-07-05T08:09:47.000Z</time>
      </trkpt>
      <trkpt lat="48.69508" lon="1.65714">
        <ele>142</ele>
        <time>2015-07-05T08:09:53.000Z</time>
      </trkpt>
      <trkpt lat="48.69521" lon="1.65712">
        <ele>142</ele>
        <time>2015-07-05T08:09:59.000Z</time>
      </trkpt>
      <trkpt lat="48.6953" lon="1.65709">
        <ele>142</ele>
        <time>2015-07-05T08:10:05.000Z</time>
      </trkpt>
      <trkpt lat="48.69538" lon="1.6571">
        <ele>142</ele>
        <time>2015-07-05T08:10:10.000Z</time>
      </trkpt>
      <trkpt lat="48.69545" lon="1.65707">
        <ele>142</ele>
        <time>2015-07-05T08:10:18.000Z</time>
      </trkpt>
      <trkpt lat="48.69551" lon="1.65708">
        <ele>142</ele>
        <time>2015-07-05T08:10:23.000Z</time>
      </trkpt>
      <trkpt lat="48.69552" lon="1.65709">
        <ele>142</ele>
        <time>2015-07-05T08:10:24.000Z</time>
      </trkpt>
      <trkpt lat="48.69559" lon="1.6572">
        <ele>142.1</ele>
        <time>2015-07-05T08:10:31.000Z</time>
      </trkpt>
      <trkpt lat="48.69562" lon="1.65729">
        <ele>142.5</ele>
        <time>2015-07-05T08:10:37.000Z</time>
      </trkpt>
      <trkpt lat="48.69565" lon="1.65728">
        <ele>142.5</ele>
        <time>2015-07-05T08:10:44.000Z</time>
      </trkpt>
      <trkpt lat="48.69566" lon="1.65727">
        <ele>142.5</ele>
        <time>2015-07-05T08:10:48.000Z</time>
      </trkpt>
      <trkpt lat="48.69562" lon="1.65741">
        <ele>142.9</ele>
        <time>2015-07-05T08:11:22.000Z</time>
      </trkpt>
      <trkpt lat="48.69563" lon="1.65755">
        <ele>143.3</ele>
        <time>2015-07-05T08:11:27.000Z</time>
      </trkpt>
      <trkpt lat="48.69562" lon="1.65763">
        <ele>143.3</ele>
        <time>2015-07-05T08:11:31.000Z</time>
      </trkpt>
      <trkpt lat="48.69562" lon="1.65766">
        <ele>143.3</ele>
        <time>2015-07-05T08:11:32.000Z</time>
      </trkpt>
      <trkpt lat="48.6956" lon="1.65781">
        <ele>143.4</ele>
        <time>2015-07-05T08:11:39.000Z</time>
      </trkpt>
      <trkpt lat="48.69556" lon="1.65789">
        <ele>143.5</ele>
        <time>2015-07-05T08:11:45.000Z</time>
      </trkpt>
      <trkpt lat="48.69552" lon="1.65806">
        <ele>143.8</ele>
        <time>2015-07-05T08:11:52.000Z</time>
      </trkpt>
      <trkpt lat="48.69551" lon="1.65822">
        <ele>144.2</ele>
        <time>2015-07-05T08:11:58.000Z</time>
      </trkpt>
      <trkpt lat="48.69549" lon="1.65839">
        <ele>144.7</ele>
        <time>2015-07-05T08:12:05.000Z</time>
      </trkpt>
      <trkpt lat="48.69549" lon="1.65842">
        <ele>144.7</ele>
        <time>2015-07-05T08:12:06.000Z</time>
      </trkpt>
      <trkpt lat="48.69548" lon="1.65851">
        <ele>144.9</ele>
        <time>2015-07-05T08:12:10.000Z</time>
      </trkpt>
      <trkpt lat="48.69547" lon="1.65867">
        <ele>145.1</ele>
        <time>2015-07-05T08:12:17.000Z</time>
      </trkpt>
      <trkpt lat="48.69547" lon="1.65885">
        <ele>145</ele>
        <time>2015-07-05T08:12:24.000Z</time>
      </trkpt>
      <trkpt lat="48.69546" lon="1.65906">
        <ele>145</ele>
        <time>2015-07-05T08:12:32.000Z</time>
      </trkpt>
      <trkpt lat="48.69548" lon="1.65924">
        <ele>145</ele>
        <time>2015-07-05T08:12:39.000Z</time>
      </trkpt>
      <trkpt lat="48.69549" lon="1.65939">
        <ele>144.7</ele>
        <time>2015-07-05T08:12:45.000Z</time>
      </trkpt>
      <trkpt lat="48.69551" lon="1.65945">
        <ele>144.6</ele>
        <time>2015-07-05T08:12:48.000Z</time>
      </trkpt>
      <trkpt lat="48.69549" lon="1.65956">
        <ele>144.5</ele>
        <time>2015-07-05T08:12:53.000Z</time>
      </trkpt>
      <trkpt lat="48.69549" lon="1.65959">
        <ele>144.5</ele>
        <time>2015-07-05T08:12:54.000Z</time>
      </trkpt>
      <trkpt lat="48.6955" lon="1.65967">
        <ele>144.6</ele>
        <time>2015-07-05T08:12:57.000Z</time>
      </trkpt>
      <trkpt lat="48.6955" lon="1.6598">
        <ele>144.6</ele>
        <time>2015-07-05T08:13:02.000Z</time>
      </trkpt>
      <trkpt lat="48.69551" lon="1.65986">
        <ele>144.6</ele>
        <time>2015-07-05T08:13:04.000Z</time>
      </trkpt>
      <trkpt lat="48.69552" lon="1.65999">
        <ele>144.7</ele>
        <time>2015-07-05T08:13:09.000Z</time>
      </trkpt>
      <trkpt lat="48.69555" lon="1.66021">
        <ele>145</ele>
        <time>2015-07-05T08:13:18.000Z</time>
      </trkpt>
      <trkpt lat="48.69554" lon="1.66035">
        <ele>145.2</ele>
        <time>2015-07-05T08:13:24.000Z</time>
      </trkpt>
      <trkpt lat="48.69553" lon="1.66058">
        <ele>145.9</ele>
        <time>2015-07-05T08:13:33.000Z</time>
      </trkpt>
      <trkpt lat="48.69549" lon="1.66074">
        <ele>145.8</ele>
        <time>2015-07-05T08:13:40.000Z</time>
      </trkpt>
      <trkpt lat="48.69546" lon="1.6609">
        <ele>145.6</ele>
        <time>2015-07-05T08:13:47.000Z</time>
      </trkpt>
      <trkpt lat="48.6954" lon="1.66107">
        <ele>145.5</ele>
        <time>2015-07-05T08:13:55.000Z</time>
      </trkpt>
      <trkpt lat="48.69535" lon="1.66123">
        <ele>145.3</ele>
        <time>2015-07-05T08:14:02.000Z</time>
      </trkpt>
      <trkpt lat="48.69531" lon="1.66137">
        <ele>145.1</ele>
        <time>2015-07-05T08:14:07.000Z</time>
      </trkpt>
      <trkpt lat="48.69526" lon="1.66157">
        <ele>144.3</ele>
        <time>2015-07-05T08:14:15.000Z</time>
      </trkpt>
      <trkpt lat="48.69521" lon="1.66173">
        <ele>143.8</ele>
        <time>2015-07-05T08:14:22.000Z</time>
      </trkpt>
      <trkpt lat="48.69516" lon="1.66193">
        <ele>143.6</ele>
        <time>2015-07-05T08:14:31.000Z</time>
      </trkpt>
      <trkpt lat="48.69511" lon="1.66206">
        <ele>143.1</ele>
        <time>2015-07-05T08:14:37.000Z</time>
      </trkpt>
      <trkpt lat="48.69508" lon="1.66223">
        <ele>142.6</ele>
        <time>2015-07-05T08:14:44.000Z</time>
      </trkpt>
      <trkpt lat="48.69508" lon="1.66246">
        <ele>142.3</ele>
        <time>2015-07-05T08:14:52.000Z</time>
      </trkpt>
      <trkpt lat="48.69507" lon="1.66263">
        <ele>142.3</ele>
        <time>2015-07-05T08:14:59.000Z</time>
      </trkpt>
      <trkpt lat="48.69507" lon="1.66282">
        <ele>142.3</ele>
        <time>2015-07-05T08:15:06.000Z</time>
      </trkpt>
      <trkpt lat="48.69504" lon="1.66296">
        <ele>142.1</ele>
        <time>2015-07-05T08:15:12.000Z</time>
      </trkpt>
      <trkpt lat="48.69496" lon="1.66319">
        <ele>141.7</ele>
        <time>2015-07-05T08:15:22.000Z</time>
      </trkpt>
      <trkpt lat="48.69488" lon="1.66339">
        <ele>141.1</ele>
        <time>2015-07-05T08:15:31.000Z</time>
      </trkpt>
      <trkpt lat="48.69481" lon="1.66351">
        <ele>140.7</ele>
        <time>2015-07-05T08:15:37.000Z</time>
      </trkpt>
      <trkpt lat="48.69474" lon="1.66368">
        <ele>140.3</ele>
        <time>2015-07-05T08:15:45.000Z</time>
      </trkpt>
      <trkpt lat="48.69466" lon="1.66385">
        <ele>140.6</ele>
        <time>2015-07-05T08:15:53.000Z</time>
      </trkpt>
      <trkpt lat="48.6946" lon="1.66399">
        <ele>140.6</ele>
        <time>2015-07-05T08:16:00.000Z</time>
      </trkpt>
      <trkpt lat="48.69454" lon="1.66421">
        <ele>140.4</ele>
        <time>2015-07-05T08:16:10.000Z</time>
      </trkpt>
      <trkpt lat="48.6945" lon="1.66437">
        <ele>140.3</ele>
        <time>2015-07-05T08:16:17.000Z</time>
      </trkpt>
      <trkpt lat="48.69446" lon="1.66449">
        <ele>140.3</ele>
        <time>2015-07-05T08:16:22.000Z</time>
      </trkpt>
      <trkpt lat="48.69444" lon="1.6646">
        <ele>140.5</ele>
        <time>2015-07-05T08:16:27.000Z</time>
      </trkpt>
      <trkpt lat="48.69438" lon="1.66487">
        <ele>140.7</ele>
        <time>2015-07-05T08:16:38.000Z</time>
      </trkpt>
      <trkpt lat="48.69434" lon="1.66512">
        <ele>140.6</ele>
        <time>2015-07-05T08:16:48.000Z</time>
      </trkpt>
      <trkpt lat="48.69431" lon="1.66534">
        <ele>140.5</ele>
        <time>2015-07-05T08:16:57.000Z</time>
      </trkpt>
      <trkpt lat="48.69427" lon="1.66554">
        <ele>140.4</ele>
        <time>2015-07-05T08:17:05.000Z</time>
      </trkpt>
      <trkpt lat="48.69426" lon="1.66568">
        <ele>140.3</ele>
        <time>2015-07-05T08:17:11.000Z</time>
      </trkpt>
      <trkpt lat="48.69422" lon="1.66591">
        <ele>140</ele>
        <time>2015-07-05T08:17:20.000Z</time>
      </trkpt>
      <trkpt lat="48.69419" lon="1.66611">
        <ele>139.1</ele>
        <time>2015-07-05T08:17:28.000Z</time>
      </trkpt>
      <trkpt lat="48.69415" lon="1.6663">
        <ele>139</ele>
        <time>2015-07-05T08:17:35.000Z</time>
      </trkpt>
      <trkpt lat="48.69412" lon="1.66657">
        <ele>138.8</ele>
        <time>2015-07-05T08:17:46.000Z</time>
      </trkpt>
      <trkpt lat="48.69411" lon="1.66679">
        <ele>138.8</ele>
        <time>2015-07-05T08:17:54.000Z</time>
      </trkpt>
      <trkpt lat="48.69414" lon="1.667">
        <ele>138.9</ele>
        <time>2015-07-05T08:18:02.000Z</time>
      </trkpt>
      <trkpt lat="48.69418" lon="1.66716">
        <ele>139</ele>
        <time>2015-07-05T08:18:09.000Z</time>
      </trkpt>
      <trkpt lat="48.69426" lon="1.66736">
        <ele>139</ele>
        <time>2015-07-05T08:18:18.000Z</time>
      </trkpt>
      <trkpt lat="48.6943" lon="1.66752">
        <ele>138.9</ele>
        <time>2015-07-05T08:18:25.000Z</time>
      </trkpt>
      <trkpt lat="48.69435" lon="1.66773">
        <ele>138.8</ele>
        <time>2015-07-05T08:18:34.000Z</time>
      </trkpt>
      <trkpt lat="48.69439" lon="1.66789">
        <ele>138.8</ele>
        <time>2015-07-05T08:18:41.000Z</time>
      </trkpt>
      <trkpt lat="48.69442" lon="1.66809">
        <ele>138.9</ele>
        <time>2015-07-05T08:18:49.000Z</time>
      </trkpt>
      <trkpt lat="48.69446" lon="1.66831">
        <ele>139.1</ele>
        <time>2015-07-05T08:18:58.000Z</time>
      </trkpt>
      <trkpt lat="48.6945" lon="1.66856">
        <ele>139.2</ele>
        <time>2015-07-05T08:19:08.000Z</time>
      </trkpt>
      <trkpt lat="48.69454" lon="1.66878">
        <ele>139.4</ele>
        <time>2015-07-05T08:19:17.000Z</time>
      </trkpt>
      <trkpt lat="48.69459" lon="1.66894">
        <ele>139.5</ele>
        <time>2015-07-05T08:19:24.000Z</time>
      </trkpt>
      <trkpt lat="48.69461" lon="1.66909">
        <ele>139.6</ele>
        <time>2015-07-05T08:19:31.000Z</time>
      </trkpt>
      <trkpt lat="48.69466" lon="1.66931">
        <ele>139.8</ele>
        <time>2015-07-05T08:19:41.000Z</time>
      </trkpt>
      <trkpt lat="48.69469" lon="1.66949">
        <ele>139.9</ele>
        <time>2015-07-05T08:19:49.000Z</time>
      </trkpt>
      <trkpt lat="48.69471" lon="1.66967">
        <ele>140</ele>
        <time>2015-07-05T08:19:56.000Z</time>
      </trkpt>
      <trkpt lat="48.69474" lon="1.66986">
        <ele>140.5</ele>
        <time>2015-07-05T08:20:04.000Z</time>
      </trkpt>
      <trkpt lat="48.69478" lon="1.67008">
        <ele>141.1</ele>
        <time>2015-07-05T08:20:13.000Z</time>
      </trkpt>
      <trkpt lat="48.69481" lon="1.67033">
        <ele>141.5</ele>
        <time>2015-07-05T08:20:23.000Z</time>
      </trkpt>
      <trkpt lat="48.69483" lon="1.67051">
        <ele>142.2</ele>
        <time>2015-07-05T08:20:31.000Z</time>
      </trkpt>
      <trkpt lat="48.69485" lon="1.67069">
        <ele>142.5</ele>
        <time>2015-07-05T08:20:39.000Z</time>
      </trkpt>
      <trkpt lat="48.69488" lon="1.67089">
        <ele>142.6</ele>
        <time>2015-07-05T08:20:47.000Z</time>
      </trkpt>
      <trkpt lat="48.69491" lon="1.67113">
        <ele>142.7</ele>
        <time>2015-07-05T08:20:57.000Z</time>
      </trkpt>
      <trkpt lat="48.69493" lon="1.67128">
        <ele>143.4</ele>
        <time>2015-07-05T08:21:04.000Z</time>
      </trkpt>
      <trkpt lat="48.69494" lon="1.6713">
        <ele>143.5</ele>
        <time>2015-07-05T08:21:05.000Z</time>
      </trkpt>
      <trkpt lat="48.69495" lon="1.67139">
        <ele>143.8</ele>
        <time>2015-07-05T08:21:09.000Z</time>
      </trkpt>
      <trkpt lat="48.69499" lon="1.67165">
        <ele>143</ele>
        <time>2015-07-05T08:21:20.000Z</time>
      </trkpt>
      <trkpt lat="48.69502" lon="1.67178">
        <ele>143.1</ele>
        <time>2015-07-05T08:21:26.000Z</time>
      </trkpt>
      <trkpt lat="48.69506" lon="1.6719">
        <ele>143.2</ele>
        <time>2015-07-05T08:21:31.000Z</time>
      </trkpt>
      <trkpt lat="48.69515" lon="1.67212">
        <ele>143.2</ele>
        <time>2015-07-05T08:21:42.000Z</time>
      </trkpt>
      <trkpt lat="48.69518" lon="1.67217">
        <ele>143.1</ele>
        <time>2015-07-05T08:21:45.000Z</time>
      </trkpt>
      <trkpt lat="48.69522" lon="1.67225">
        <ele>143</ele>
        <time>2015-07-05T08:21:50.000Z</time>
      </trkpt>
      <trkpt lat="48.69528" lon="1.67239">
        <ele>143</ele>
        <time>2015-07-05T08:21:58.000Z</time>
      </trkpt>
      <trkpt lat="48.69529" lon="1.67241">
        <ele>143</ele>
        <time>2015-07-05T08:21:59.000Z</time>
      </trkpt>
      <trkpt lat="48.69535" lon="1.67253">
        <ele>142.9</ele>
        <time>2015-07-05T08:22:06.000Z</time>
      </trkpt>
      <trkpt lat="48.69536" lon="1.67255">
        <ele>142.8</ele>
        <time>2015-07-05T08:22:07.000Z</time>
      </trkpt>
      <trkpt lat="48.6954" lon="1.67266">
        <ele>142.4</ele>
        <time>2015-07-05T08:22:13.000Z</time>
      </trkpt>
      <trkpt lat="48.69542" lon="1.67269">
        <ele>142.3</ele>
        <time>2015-07-05T08:22:15.000Z</time>
      </trkpt>
      <trkpt lat="48.69549" lon="1.67286">
        <ele>141.9</ele>
        <time>2015-07-05T08:22:23.000Z</time>
      </trkpt>
      <trkpt lat="48.69553" lon="1.67296">
        <ele>141.9</ele>
        <time>2015-07-05T08:22:28.000Z</time>
      </trkpt>
      <trkpt lat="48.69554" lon="1.67299">
        <ele>142</ele>
        <time>2015-07-05T08:22:29.000Z</time>
      </trkpt>
      <trkpt lat="48.69557" lon="1.67304">
        <ele>142</ele>
        <time>2015-07-05T08:22:32.000Z</time>
      </trkpt>
      <trkpt lat="48.69559" lon="1.67312">
        <ele>141.8</ele>
        <time>2015-07-05T08:22:35.000Z</time>
      </trkpt>
      <trkpt lat="48.69564" lon="1.67322">
        <ele>141.4</ele>
        <time>2015-07-05T08:22:41.000Z</time>
      </trkpt>
      <trkpt lat="48.69571" lon="1.67333">
        <ele>141</ele>
        <time>2015-07-05T08:22:47.000Z</time>
      </trkpt>
      <trkpt lat="48.69577" lon="1.67342">
        <ele>141</ele>
        <time>2015-07-05T08:22:53.000Z</time>
      </trkpt>
      <trkpt lat="48.69583" lon="1.67351">
        <ele>141</ele>
        <time>2015-07-05T08:22:59.000Z</time>
      </trkpt>
      <trkpt lat="48.69586" lon="1.67354">
        <ele>141</ele>
        <time>2015-07-05T08:23:02.000Z</time>
      </trkpt>
      <trkpt lat="48.69592" lon="1.67366">
        <ele>140.8</ele>
        <time>2015-07-05T08:23:08.000Z</time>
      </trkpt>
      <trkpt lat="48.69595" lon="1.67372">
        <ele>140.6</ele>
        <time>2015-07-05T08:23:11.000Z</time>
      </trkpt>
      <trkpt lat="48.69598" lon="1.67381">
        <ele>140.3</ele>
        <time>2015-07-05T08:23:16.000Z</time>
      </trkpt>
      <trkpt lat="48.69603" lon="1.67387">
        <ele>140.1</ele>
        <time>2015-07-05T08:23:20.000Z</time>
      </trkpt>
      <trkpt lat="48.69608" lon="1.674">
        <ele>140</ele>
        <time>2015-07-05T08:23:27.000Z</time>
      </trkpt>
      <trkpt lat="48.69614" lon="1.67412">
        <ele>140</ele>
        <time>2015-07-05T08:23:33.000Z</time>
      </trkpt>
      <trkpt lat="48.69619" lon="1.67421">
        <ele>139.9</ele>
        <time>2015-07-05T08:23:37.000Z</time>
      </trkpt>
      <trkpt lat="48.69624" lon="1.67436">
        <ele>139.3</ele>
        <time>2015-07-05T08:23:45.000Z</time>
      </trkpt>
      <trkpt lat="48.69632" lon="1.67448">
        <ele>139</ele>
        <time>2015-07-05T08:23:52.000Z</time>
      </trkpt>
      <trkpt lat="48.69634" lon="1.6745">
        <ele>139</ele>
        <time>2015-07-05T08:23:54.000Z</time>
      </trkpt>
      <trkpt lat="48.69643" lon="1.67459">
        <ele>139.1</ele>
        <time>2015-07-05T08:24:01.000Z</time>
      </trkpt>
      <trkpt lat="48.69648" lon="1.67466">
        <ele>139.1</ele>
        <time>2015-07-05T08:24:07.000Z</time>
      </trkpt>
      <trkpt lat="48.69651" lon="1.67471">
        <ele>139</ele>
        <time>2015-07-05T08:24:10.000Z</time>
      </trkpt>
      <trkpt lat="48.69656" lon="1.67482">
        <ele>139</ele>
        <time>2015-07-05T08:24:15.000Z</time>
      </trkpt>
      <trkpt lat="48.69658" lon="1.67485">
        <ele>139</ele>
        <time>2015-07-05T08:24:17.000Z</time>
      </trkpt>
      <trkpt lat="48.69663" lon="1.67501">
        <ele>139</ele>
        <time>2015-07-05T08:24:25.000Z</time>
      </trkpt>
      <trkpt lat="48.69668" lon="1.67514">
        <ele>139.1</ele>
        <time>2015-07-05T08:24:32.000Z</time>
      </trkpt>
      <trkpt lat="48.69669" lon="1.67516">
        <ele>139.1</ele>
        <time>2015-07-05T08:24:33.000Z</time>
      </trkpt>
      <trkpt lat="48.69673" lon="1.67531">
        <ele>139.3</ele>
        <time>2015-07-05T08:24:40.000Z</time>
      </trkpt>
      <trkpt lat="48.69679" lon="1.67555">
        <ele>140</ele>
        <time>2015-07-05T08:24:50.000Z</time>
      </trkpt>
      <trkpt lat="48.69682" lon="1.67575">
        <ele>140.4</ele>
        <time>2015-07-05T08:24:59.000Z</time>
      </trkpt>
      <trkpt lat="48.69688" lon="1.676">
        <ele>141.4</ele>
        <time>2015-07-05T08:25:11.000Z</time>
      </trkpt>
      <trkpt lat="48.69691" lon="1.67611">
        <ele>141.8</ele>
        <time>2015-07-05T08:25:16.000Z</time>
      </trkpt>
      <trkpt lat="48.69692" lon="1.67617">
        <ele>141.9</ele>
        <time>2015-07-05T08:25:19.000Z</time>
      </trkpt>
      <trkpt lat="48.69696" lon="1.6763">
        <ele>142.1</ele>
        <time>2015-07-05T08:25:27.000Z</time>
      </trkpt>
      <trkpt lat="48.69698" lon="1.67648">
        <ele>142.5</ele>
        <time>2015-07-05T08:25:35.000Z</time>
      </trkpt>
      <trkpt lat="48.697" lon="1.67662">
        <ele>143</ele>
        <time>2015-07-05T08:25:40.000Z</time>
      </trkpt>
      <trkpt lat="48.69702" lon="1.67681">
        <ele>143.3</ele>
        <time>2015-07-05T08:25:48.000Z</time>
      </trkpt>
      <trkpt lat="48.69705" lon="1.67702">
        <ele>143.4</ele>
        <time>2015-07-05T08:25:57.000Z</time>
      </trkpt>
      <trkpt lat="48.69708" lon="1.6772">
        <ele>143.5</ele>
        <time>2015-07-05T08:26:06.000Z</time>
      </trkpt>
      <trkpt lat="48.6971" lon="1.67736">
        <ele>143.6</ele>
        <time>2015-07-05T08:26:13.000Z</time>
      </trkpt>
      <trkpt lat="48.69713" lon="1.67752">
        <ele>143.7</ele>
        <time>2015-07-05T08:26:20.000Z</time>
      </trkpt>
      <trkpt lat="48.69717" lon="1.6777">
        <ele>143.8</ele>
        <time>2015-07-05T08:26:28.000Z</time>
      </trkpt>
      <trkpt lat="48.69719" lon="1.67787">
        <ele>143.9</ele>
        <time>2015-07-05T08:26:35.000Z</time>
      </trkpt>
      <trkpt lat="48.69721" lon="1.67797">
        <ele>143.9</ele>
        <time>2015-07-05T08:26:40.000Z</time>
      </trkpt>
      <trkpt lat="48.69722" lon="1.67815">
        <ele>143.6</ele>
        <time>2015-07-05T08:26:47.000Z</time>
      </trkpt>
      <trkpt lat="48.69725" lon="1.67837">
        <ele>143.1</ele>
        <time>2015-07-05T08:26:56.000Z</time>
      </trkpt>
      <trkpt lat="48.6973" lon="1.67855">
        <ele>143.3</ele>
        <time>2015-07-05T08:27:05.000Z</time>
      </trkpt>
      <trkpt lat="48.69733" lon="1.67873">
        <ele>143.2</ele>
        <time>2015-07-05T08:27:13.000Z</time>
      </trkpt>
      <trkpt lat="48.69737" lon="1.67893">
        <ele>142.9</ele>
        <time>2015-07-05T08:27:21.000Z</time>
      </trkpt>
      <trkpt lat="48.69737" lon="1.6791">
        <ele>142.6</ele>
        <time>2015-07-05T08:27:27.000Z</time>
      </trkpt>
      <trkpt lat="48.69741" lon="1.67929">
        <ele>142.7</ele>
        <time>2015-07-05T08:27:36.000Z</time>
      </trkpt>
      <trkpt lat="48.69745" lon="1.67945">
        <ele>142.8</ele>
        <time>2015-07-05T08:27:44.000Z</time>
      </trkpt>
      <trkpt lat="48.69748" lon="1.67964">
        <ele>142.3</ele>
        <time>2015-07-05T08:27:53.000Z</time>
      </trkpt>
      <trkpt lat="48.69751" lon="1.67983">
        <ele>142</ele>
        <time>2015-07-05T08:28:01.000Z</time>
      </trkpt>
      <trkpt lat="48.69753" lon="1.68007">
        <ele>142.1</ele>
        <time>2015-07-05T08:28:11.000Z</time>
      </trkpt>
      <trkpt lat="48.69754" lon="1.68021">
        <ele>142.1</ele>
        <time>2015-07-05T08:28:18.000Z</time>
      </trkpt>
      <trkpt lat="48.69758" lon="1.68043">
        <ele>142.3</ele>
        <time>2015-07-05T08:28:28.000Z</time>
      </trkpt>
      <trkpt lat="48.69758" lon="1.68064">
        <ele>142.3</ele>
        <time>2015-07-05T08:28:36.000Z</time>
      </trkpt>
      <trkpt lat="48.69758" lon="1.68078">
        <ele>142.3</ele>
        <time>2015-07-05T08:28:42.000Z</time>
      </trkpt>
      <trkpt lat="48.69759" lon="1.68099">
        <ele>142.7</ele>
        <time>2015-07-05T08:28:50.000Z</time>
      </trkpt>
      <trkpt lat="48.69761" lon="1.68115">
        <ele>143</ele>
        <time>2015-07-05T08:28:56.000Z</time>
      </trkpt>
      <trkpt lat="48.69759" lon="1.68139">
        <ele>143</ele>
        <time>2015-07-05T08:29:03.000Z</time>
      </trkpt>
      <trkpt lat="48.69756" lon="1.68157">
        <ele>143</ele>
        <time>2015-07-05T08:29:09.000Z</time>
      </trkpt>
      <trkpt lat="48.69756" lon="1.68184">
        <ele>143</ele>
        <time>2015-07-05T08:29:16.000Z</time>
      </trkpt>
      <trkpt lat="48.69753" lon="1.68217">
        <ele>143</ele>
        <time>2015-07-05T08:29:24.000Z</time>
      </trkpt>
      <trkpt lat="48.69754" lon="1.68242">
        <ele>143.1</ele>
        <time>2015-07-05T08:29:30.000Z</time>
      </trkpt>
      <trkpt lat="48.69754" lon="1.68273">
        <ele>143.1</ele>
        <time>2015-07-05T08:29:37.000Z</time>
      </trkpt>
      <trkpt lat="48.69754" lon="1.68297">
        <ele>143.2</ele>
        <time>2015-07-05T08:29:43.000Z</time>
      </trkpt>
      <trkpt lat="48.69754" lon="1.68315">
        <ele>143.4</ele>
        <time>2015-07-05T08:29:51.000Z</time>
      </trkpt>
      <trkpt lat="48.69755" lon="1.68324">
        <ele>143.4</ele>
        <time>2015-07-05T08:29:55.000Z</time>
      </trkpt>
      <trkpt lat="48.69755" lon="1.68354">
        <ele>144</ele>
        <time>2015-07-05T08:30:07.000Z</time>
      </trkpt>
      <trkpt lat="48.69754" lon="1.68378">
        <ele>144.1</ele>
        <time>2015-07-05T08:30:17.000Z</time>
      </trkpt>
      <trkpt lat="48.69752" lon="1.68388">
        <ele>144.1</ele>
        <time>2015-07-05T08:30:21.000Z</time>
      </trkpt>
      <trkpt lat="48.69751" lon="1.68403">
        <ele>144</ele>
        <time>2015-07-05T08:30:28.000Z</time>
      </trkpt>
      <trkpt lat="48.69748" lon="1.68421">
        <ele>144</ele>
        <time>2015-07-05T08:30:34.000Z</time>
      </trkpt>
      <trkpt lat="48.69747" lon="1.68444">
        <ele>144</ele>
        <time>2015-07-05T08:30:43.000Z</time>
      </trkpt>
      <trkpt lat="48.69746" lon="1.68456">
        <ele>144.4</ele>
        <time>2015-07-05T08:30:47.000Z</time>
      </trkpt>
      <trkpt lat="48.69745" lon="1.68463">
        <ele>144.7</ele>
        <time>2015-07-05T08:30:51.000Z</time>
      </trkpt>
      <trkpt lat="48.69743" lon="1.68485">
        <ele>145.4</ele>
        <time>2015-07-05T08:30:59.000Z</time>
      </trkpt>
      <trkpt lat="48.69743" lon="1.68508">
        <ele>146.2</ele>
        <time>2015-07-05T08:31:07.000Z</time>
      </trkpt>
      <trkpt lat="48.6974" lon="1.68536">
        <ele>146.9</ele>
        <time>2015-07-05T08:31:17.000Z</time>
      </trkpt>
      <trkpt lat="48.6974" lon="1.68546">
        <ele>147.3</ele>
        <time>2015-07-05T08:31:22.000Z</time>
      </trkpt>
      <trkpt lat="48.69743" lon="1.68556">
        <ele>147.8</ele>
        <time>2015-07-05T08:31:28.000Z</time>
      </trkpt>
      <trkpt lat="48.69742" lon="1.68569">
        <ele>147.9</ele>
        <time>2015-07-05T08:31:34.000Z</time>
      </trkpt>
      <trkpt lat="48.69742" lon="1.68589">
        <ele>148.2</ele>
        <time>2015-07-05T08:31:42.000Z</time>
      </trkpt>
      <trkpt lat="48.69744" lon="1.68611">
        <ele>148.8</ele>
        <time>2015-07-05T08:31:50.000Z</time>
      </trkpt>
      <trkpt lat="48.69744" lon="1.68625">
        <ele>148.8</ele>
        <time>2015-07-05T08:31:55.000Z</time>
      </trkpt>
      <trkpt lat="48.69743" lon="1.68642">
        <ele>148.7</ele>
        <time>2015-07-05T08:32:01.000Z</time>
      </trkpt>
      <trkpt lat="48.69742" lon="1.68663">
        <ele>148.7</ele>
        <time>2015-07-05T08:32:08.000Z</time>
      </trkpt>
      <trkpt lat="48.69741" lon="1.68689">
        <ele>148.7</ele>
        <time>2015-07-05T08:32:17.000Z</time>
      </trkpt>
      <trkpt lat="48.69741" lon="1.68704">
        <ele>148.5</ele>
        <time>2015-07-05T08:32:23.000Z</time>
      </trkpt>
      <trkpt lat="48.69741" lon="1.68725">
        <ele>148</ele>
        <time>2015-07-05T08:32:31.000Z</time>
      </trkpt>
      <trkpt lat="48.69741" lon="1.68739">
        <ele>148</ele>
        <time>2015-07-05T08:32:37.000Z</time>
      </trkpt>
      <trkpt lat="48.69743" lon="1.68756">
        <ele>147.9</ele>
        <time>2015-07-05T08:32:45.000Z</time>
      </trkpt>
      <trkpt lat="48.69744" lon="1.68774">
        <ele>147.8</ele>
        <time>2015-07-05T08:32:53.000Z</time>
      </trkpt>
      <trkpt lat="48.69745" lon="1.68787">
        <ele>147.8</ele>
        <time>2015-07-05T08:32:58.000Z</time>
      </trkpt>
      <trkpt lat="48.69745" lon="1.68795">
        <ele>147.8</ele>
        <time>2015-07-05T08:33:02.000Z</time>
      </trkpt>
      <trkpt lat="48.69744" lon="1.68811">
        <ele>147.8</ele>
        <time>2015-07-05T08:33:07.000Z</time>
      </trkpt>
      <trkpt lat="48.69744" lon="1.68827">
        <ele>147.8</ele>
        <time>2015-07-05T08:33:14.000Z</time>
      </trkpt>
      <trkpt lat="48.69744" lon="1.68842">
        <ele>147.8</ele>
        <time>2015-07-05T08:33:21.000Z</time>
      </trkpt>
      <trkpt lat="48.69747" lon="1.68858">
        <ele>147.9</ele>
        <time>2015-07-05T08:33:28.000Z</time>
      </trkpt>
      <trkpt lat="48.69747" lon="1.6887">
        <ele>147.9</ele>
        <time>2015-07-05T08:33:32.000Z</time>
      </trkpt>
      <trkpt lat="48.69747" lon="1.68888">
        <ele>147.9</ele>
        <time>2015-07-05T08:33:40.000Z</time>
      </trkpt>
      <trkpt lat="48.69748" lon="1.68902">
        <ele>147.9</ele>
        <time>2015-07-05T08:33:45.000Z</time>
      </trkpt>
      <trkpt lat="48.69748" lon="1.68924">
        <ele>147.9</ele>
        <time>2015-07-05T08:33:53.000Z</time>
      </trkpt>
      <trkpt lat="48.69748" lon="1.68944">
        <ele>147.9</ele>
        <time>2015-07-05T08:33:59.000Z</time>
      </trkpt>
      <trkpt lat="48.69748" lon="1.6895">
        <ele>147.9</ele>
        <time>2015-07-05T08:34:01.000Z</time>
      </trkpt>
      <trkpt lat="48.69749" lon="1.68964">
        <ele>148</ele>
        <time>2015-07-05T08:34:07.000Z</time>
      </trkpt>
      <trkpt lat="48.6975" lon="1.68979">
        <ele>148</ele>
        <time>2015-07-05T08:34:12.000Z</time>
      </trkpt>
      <trkpt lat="48.6975" lon="1.69001">
        <ele>148</ele>
        <time>2015-07-05T08:34:20.000Z</time>
      </trkpt>
      <trkpt lat="48.69751" lon="1.69009">
        <ele>148</ele>
        <time>2015-07-05T08:34:24.000Z</time>
      </trkpt>
      <trkpt lat="48.69752" lon="1.69023">
        <ele>148</ele>
        <time>2015-07-05T08:34:29.000Z</time>
      </trkpt>
      <trkpt lat="48.69756" lon="1.69047">
        <ele>148</ele>
        <time>2015-07-05T08:34:39.000Z</time>
      </trkpt>
      <trkpt lat="48.69757" lon="1.69065">
        <ele>148.1</ele>
        <time>2015-07-05T08:34:47.000Z</time>
      </trkpt>
      <trkpt lat="48.69757" lon="1.69072">
        <ele>148.1</ele>
        <time>2015-07-05T08:34:53.000Z</time>
      </trkpt>
      <trkpt lat="48.69757" lon="1.69089">
        <ele>148.4</ele>
        <time>2015-07-05T08:34:59.000Z</time>
      </trkpt>
      <trkpt lat="48.69757" lon="1.69106">
        <ele>148.9</ele>
        <time>2015-07-05T08:35:05.000Z</time>
      </trkpt>
      <trkpt lat="48.69759" lon="1.69122">
        <ele>149</ele>
        <time>2015-07-05T08:35:11.000Z</time>
      </trkpt>
      <trkpt lat="48.6976" lon="1.69138">
        <ele>149</ele>
        <time>2015-07-05T08:35:18.000Z</time>
      </trkpt>
      <trkpt lat="48.69763" lon="1.69166">
        <ele>150</ele>
        <time>2015-07-05T08:35:24.000Z</time>
      </trkpt>
      <trkpt lat="48.69765" lon="1.69185">
        <ele>150</ele>
        <time>2015-07-05T08:35:28.000Z</time>
      </trkpt>
      <trkpt lat="48.69771" lon="1.69219">
        <ele>150</ele>
        <time>2015-07-05T08:35:34.000Z</time>
      </trkpt>
      <trkpt lat="48.6978" lon="1.69252">
        <ele>151</ele>
        <time>2015-07-05T08:35:40.000Z</time>
      </trkpt>
      <trkpt lat="48.69785" lon="1.69274">
        <ele>151.2</ele>
        <time>2015-07-05T08:35:44.000Z</time>
      </trkpt>
      <trkpt lat="48.6979" lon="1.69302">
        <ele>151.4</ele>
        <time>2015-07-05T08:35:49.000Z</time>
      </trkpt>
      <trkpt lat="48.69792" lon="1.69315">
        <ele>151.7</ele>
        <time>2015-07-05T08:35:51.000Z</time>
      </trkpt>
      <trkpt lat="48.69796" lon="1.69334">
        <ele>152.3</ele>
        <time>2015-07-05T08:35:54.000Z</time>
      </trkpt>
      <trkpt lat="48.69801" lon="1.69358">
        <ele>152.7</ele>
        <time>2015-07-05T08:35:58.000Z</time>
      </trkpt>
      <trkpt lat="48.69809" lon="1.69397">
        <ele>153.1</ele>
        <time>2015-07-05T08:36:04.000Z</time>
      </trkpt>
      <trkpt lat="48.69811" lon="1.69409">
        <ele>153.2</ele>
        <time>2015-07-05T08:36:06.000Z</time>
      </trkpt>
      <trkpt lat="48.69817" lon="1.6944">
        <ele>153.8</ele>
        <time>2015-07-05T08:36:12.000Z</time>
      </trkpt>
      <trkpt lat="48.69821" lon="1.69463">
        <ele>154.1</ele>
        <time>2015-07-05T08:36:17.000Z</time>
      </trkpt>
      <trkpt lat="48.69822" lon="1.69491">
        <ele>154.2</ele>
        <time>2015-07-05T08:36:22.000Z</time>
      </trkpt>
      <trkpt lat="48.6983" lon="1.69518">
        <ele>154.8</ele>
        <time>2015-07-05T08:36:30.000Z</time>
      </trkpt>
      <trkpt lat="48.69835" lon="1.69532">
        <ele>155</ele>
        <time>2015-07-05T08:36:36.000Z</time>
      </trkpt>
      <trkpt lat="48.6984" lon="1.69546">
        <ele>154.8</ele>
        <time>2015-07-05T08:36:43.000Z</time>
      </trkpt>
      <trkpt lat="48.69845" lon="1.6956">
        <ele>154.8</ele>
        <time>2015-07-05T08:36:50.000Z</time>
      </trkpt>
      <trkpt lat="48.69847" lon="1.69567">
        <ele>155</ele>
        <time>2015-07-05T08:36:53.000Z</time>
      </trkpt>
      <trkpt lat="48.69851" lon="1.69583">
        <ele>155.3</ele>
        <time>2015-07-05T08:37:00.000Z</time>
      </trkpt>
      <trkpt lat="48.69853" lon="1.69591">
        <ele>155.4</ele>
        <time>2015-07-05T08:37:03.000Z</time>
      </trkpt>
      <trkpt lat="48.6986" lon="1.69608">
        <ele>155.9</ele>
        <time>2015-07-05T08:37:11.000Z</time>
      </trkpt>
      <trkpt lat="48.69865" lon="1.69623">
        <ele>155.9</ele>
        <time>2015-07-05T08:37:18.000Z</time>
      </trkpt>
      <trkpt lat="48.69871" lon="1.69639">
        <ele>155.7</ele>
        <time>2015-07-05T08:37:25.000Z</time>
      </trkpt>
      <trkpt lat="48.69875" lon="1.69648">
        <ele>156</ele>
        <time>2015-07-05T08:37:29.000Z</time>
      </trkpt>
      <trkpt lat="48.69879" lon="1.69661">
        <ele>156.3</ele>
        <time>2015-07-05T08:37:35.000Z</time>
      </trkpt>
      <trkpt lat="48.69883" lon="1.69676">
        <ele>156.7</ele>
        <time>2015-07-05T08:37:42.000Z</time>
      </trkpt>
      <trkpt lat="48.69889" lon="1.69687">
        <ele>157</ele>
        <time>2015-07-05T08:37:47.000Z</time>
      </trkpt>
      <trkpt lat="48.69895" lon="1.69703">
        <ele>157.7</ele>
        <time>2015-07-05T08:37:54.000Z</time>
      </trkpt>
      <trkpt lat="48.69898" lon="1.69713">
        <ele>158.3</ele>
        <time>2015-07-05T08:37:59.000Z</time>
      </trkpt>
      <trkpt lat="48.69902" lon="1.69726">
        <ele>159.4</ele>
        <time>2015-07-05T08:38:05.000Z</time>
      </trkpt>
      <trkpt lat="48.69903" lon="1.69729">
        <ele>159.7</ele>
        <time>2015-07-05T08:38:06.000Z</time>
      </trkpt>
      <trkpt lat="48.6991" lon="1.69752">
        <ele>161.9</ele>
        <time>2015-07-05T08:38:15.000Z</time>
      </trkpt>
      <trkpt lat="48.69915" lon="1.69769">
        <ele>163.4</ele>
        <time>2015-07-05T08:38:22.000Z</time>
      </trkpt>
      <trkpt lat="48.69918" lon="1.69778">
        <ele>164.1</ele>
        <time>2015-07-05T08:38:27.000Z</time>
      </trkpt>
      <trkpt lat="48.6992" lon="1.69787">
        <ele>164.4</ele>
        <time>2015-07-05T08:38:31.000Z</time>
      </trkpt>
      <trkpt lat="48.69926" lon="1.69802">
        <ele>164.9</ele>
        <time>2015-07-05T08:38:38.000Z</time>
      </trkpt>
      <trkpt lat="48.69929" lon="1.6981">
        <ele>165.1</ele>
        <time>2015-07-05T08:38:42.000Z</time>
      </trkpt>
      <trkpt lat="48.69935" lon="1.69819">
        <ele>165.5</ele>
        <time>2015-07-05T08:38:47.000Z</time>
      </trkpt>
      <trkpt lat="48.69935" lon="1.69822">
        <ele>165.6</ele>
        <time>2015-07-05T08:38:48.000Z</time>
      </trkpt>
      <trkpt lat="48.6994" lon="1.69837">
        <ele>166.1</ele>
        <time>2015-07-05T08:38:55.000Z</time>
      </trkpt>
      <trkpt lat="48.69943" lon="1.69847">
        <ele>166.5</ele>
        <time>2015-07-05T08:38:59.000Z</time>
      </trkpt>
      <trkpt lat="48.69946" lon="1.69855">
        <ele>166.8</ele>
        <time>2015-07-05T08:39:03.000Z</time>
      </trkpt>
      <trkpt lat="48.69948" lon="1.69861">
        <ele>167.1</ele>
        <time>2015-07-05T08:39:06.000Z</time>
      </trkpt>
      <trkpt lat="48.69952" lon="1.69872">
        <ele>167.6</ele>
        <time>2015-07-05T08:39:11.000Z</time>
      </trkpt>
      <trkpt lat="48.69961" lon="1.69894">
        <ele>168.1</ele>
        <time>2015-07-05T08:39:21.000Z</time>
      </trkpt>
      <trkpt lat="48.69967" lon="1.69909">
        <ele>168.6</ele>
        <time>2015-07-05T08:39:28.000Z</time>
      </trkpt>
      <trkpt lat="48.69974" lon="1.6992">
        <ele>169.1</ele>
        <time>2015-07-05T08:39:34.000Z</time>
      </trkpt>
      <trkpt lat="48.69976" lon="1.69923">
        <ele>169.1</ele>
        <time>2015-07-05T08:39:36.000Z</time>
      </trkpt>
      <trkpt lat="48.69984" lon="1.69935">
        <ele>169.4</ele>
        <time>2015-07-05T08:39:43.000Z</time>
      </trkpt>
      <trkpt lat="48.69987" lon="1.69939">
        <ele>169.5</ele>
        <time>2015-07-05T08:39:45.000Z</time>
      </trkpt>
      <trkpt lat="48.69996" lon="1.69955">
        <ele>169.9</ele>
        <time>2015-07-05T08:39:53.000Z</time>
      </trkpt>
      <trkpt lat="48.70002" lon="1.69964">
        <ele>170.1</ele>
        <time>2015-07-05T08:39:58.000Z</time>
      </trkpt>
      <trkpt lat="48.70006" lon="1.69969">
        <ele>170.2</ele>
        <time>2015-07-05T08:40:03.000Z</time>
      </trkpt>
      <trkpt lat="48.70015" lon="1.69981">
        <ele>170.5</ele>
        <time>2015-07-05T08:40:09.000Z</time>
      </trkpt>
      <trkpt lat="48.70023" lon="1.69991">
        <ele>170.8</ele>
        <time>2015-07-05T08:40:15.000Z</time>
      </trkpt>
      <trkpt lat="48.70029" lon="1.7">
        <ele>171</ele>
        <time>2015-07-05T08:40:20.000Z</time>
      </trkpt>
      <trkpt lat="48.70035" lon="1.7001">
        <ele>171.2</ele>
        <time>2015-07-05T08:40:25.000Z</time>
      </trkpt>
      <trkpt lat="48.70038" lon="1.70013">
        <ele>171.4</ele>
        <time>2015-07-05T08:40:27.000Z</time>
      </trkpt>
      <trkpt lat="48.70045" lon="1.70026">
        <ele>171.6</ele>
        <time>2015-07-05T08:40:33.000Z</time>
      </trkpt>
      <trkpt lat="48.70052" lon="1.7004">
        <ele>171.9</ele>
        <time>2015-07-05T08:40:40.000Z</time>
      </trkpt>
      <trkpt lat="48.70057" lon="1.70047">
        <ele>172</ele>
        <time>2015-07-05T08:40:44.000Z</time>
      </trkpt>
      <trkpt lat="48.70067" lon="1.70061">
        <ele>172</ele>
        <time>2015-07-05T08:40:52.000Z</time>
      </trkpt>
      <trkpt lat="48.7007" lon="1.70066">
        <ele>172</ele>
        <time>2015-07-05T08:40:55.000Z</time>
      </trkpt>
      <trkpt lat="48.70079" lon="1.70074">
        <ele>172</ele>
        <time>2015-07-05T08:41:01.000Z</time>
      </trkpt>
      <trkpt lat="48.70086" lon="1.70087">
        <ele>172.1</ele>
        <time>2015-07-05T08:41:07.000Z</time>
      </trkpt>
      <trkpt lat="48.70094" lon="1.70101">
        <ele>172.1</ele>
        <time>2015-07-05T08:41:14.000Z</time>
      </trkpt>
      <trkpt lat="48.70103" lon="1.7012">
        <ele>172</ele>
        <time>2015-07-05T08:41:23.000Z</time>
      </trkpt>
      <trkpt lat="48.70111" lon="1.70137">
        <ele>172</ele>
        <time>2015-07-05T08:41:31.000Z</time>
      </trkpt>
      <trkpt lat="48.70117" lon="1.70154">
        <ele>172.1</ele>
        <time>2015-07-05T08:41:38.000Z</time>
      </trkpt>
      <trkpt lat="48.70124" lon="1.70172">
        <ele>171.9</ele>
        <time>2015-07-05T08:41:46.000Z</time>
      </trkpt>
      <trkpt lat="48.70128" lon="1.70185">
        <ele>171.7</ele>
        <time>2015-07-05T08:41:52.000Z</time>
      </trkpt>
      <trkpt lat="48.70135" lon="1.70198">
        <ele>171.9</ele>
        <time>2015-07-05T08:41:59.000Z</time>
      </trkpt>
      <trkpt lat="48.7014" lon="1.70207">
        <ele>172</ele>
        <time>2015-07-05T08:42:04.000Z</time>
      </trkpt>
      <trkpt lat="48.70146" lon="1.70217">
        <ele>172.3</ele>
        <time>2015-07-05T08:42:10.000Z</time>
      </trkpt>
      <trkpt lat="48.70149" lon="1.7023">
        <ele>172.4</ele>
        <time>2015-07-05T08:42:15.000Z</time>
      </trkpt>
      <trkpt lat="48.70155" lon="1.70243">
        <ele>172.6</ele>
        <time>2015-07-05T08:42:21.000Z</time>
      </trkpt>
      <trkpt lat="48.70161" lon="1.70257">
        <ele>172.6</ele>
        <time>2015-07-05T08:42:27.000Z</time>
      </trkpt>
      <trkpt lat="48.70164" lon="1.70269">
        <ele>172.3</ele>
        <time>2015-07-05T08:42:32.000Z</time>
      </trkpt>
      <trkpt lat="48.7017" lon="1.70291">
        <ele>172.1</ele>
        <time>2015-07-05T08:42:41.000Z</time>
      </trkpt>
      <trkpt lat="48.70174" lon="1.70307">
        <ele>172.3</ele>
        <time>2015-07-05T08:42:48.000Z</time>
      </trkpt>
      <trkpt lat="48.70178" lon="1.70322">
        <ele>172.4</ele>
        <time>2015-07-05T08:42:54.000Z</time>
      </trkpt>
      <trkpt lat="48.70183" lon="1.7034">
        <ele>172.4</ele>
        <time>2015-07-05T08:43:02.000Z</time>
      </trkpt>
      <trkpt lat="48.70186" lon="1.70351">
        <ele>172.1</ele>
        <time>2015-07-05T08:43:07.000Z</time>
      </trkpt>
      <trkpt lat="48.7019" lon="1.70363">
        <ele>171.9</ele>
        <time>2015-07-05T08:43:13.000Z</time>
      </trkpt>
      <trkpt lat="48.70194" lon="1.70376">
        <ele>172</ele>
        <time>2015-07-05T08:43:18.000Z</time>
      </trkpt>
      <trkpt lat="48.70196" lon="1.70388">
        <ele>172.1</ele>
        <time>2015-07-05T08:43:23.000Z</time>
      </trkpt>
      <trkpt lat="48.70195" lon="1.70404">
        <ele>172</ele>
        <time>2015-07-05T08:43:30.000Z</time>
      </trkpt>
      <trkpt lat="48.70192" lon="1.70417">
        <ele>171.9</ele>
        <time>2015-07-05T08:43:37.000Z</time>
      </trkpt>
      <trkpt lat="48.70187" lon="1.70437">
        <ele>171.7</ele>
        <time>2015-07-05T08:43:45.000Z</time>
      </trkpt>
      <trkpt lat="48.70185" lon="1.70444">
        <ele>171.7</ele>
        <time>2015-07-05T08:43:48.000Z</time>
      </trkpt>
      <trkpt lat="48.70182" lon="1.70452">
        <ele>171.4</ele>
        <time>2015-07-05T08:43:52.000Z</time>
      </trkpt>
      <trkpt lat="48.70176" lon="1.7047">
        <ele>171</ele>
        <time>2015-07-05T08:44:00.000Z</time>
      </trkpt>
      <trkpt lat="48.70174" lon="1.70486">
        <ele>170.6</ele>
        <time>2015-07-05T08:44:07.000Z</time>
      </trkpt>
      <trkpt lat="48.70169" lon="1.70499">
        <ele>170.1</ele>
        <time>2015-07-05T08:44:13.000Z</time>
      </trkpt>
      <trkpt lat="48.70166" lon="1.70516">
        <ele>170</ele>
        <time>2015-07-05T08:44:20.000Z</time>
      </trkpt>
      <trkpt lat="48.70162" lon="1.70531">
        <ele>170.1</ele>
        <time>2015-07-05T08:44:26.000Z</time>
      </trkpt>
      <trkpt lat="48.70156" lon="1.70553">
        <ele>170.6</ele>
        <time>2015-07-05T08:44:34.000Z</time>
      </trkpt>
      <trkpt lat="48.70149" lon="1.70577">
        <ele>170.4</ele>
        <time>2015-07-05T08:44:44.000Z</time>
      </trkpt>
      <trkpt lat="48.70142" lon="1.706">
        <ele>170.1</ele>
        <time>2015-07-05T08:44:53.000Z</time>
      </trkpt>
      <trkpt lat="48.70139" lon="1.70613">
        <ele>170.1</ele>
        <time>2015-07-05T08:44:59.000Z</time>
      </trkpt>
      <trkpt lat="48.70132" lon="1.70634">
        <ele>170.6</ele>
        <time>2015-07-05T08:45:07.000Z</time>
      </trkpt>
      <trkpt lat="48.70125" lon="1.70652">
        <ele>170.5</ele>
        <time>2015-07-05T08:45:14.000Z</time>
      </trkpt>
      <trkpt lat="48.70121" lon="1.70669">
        <ele>170.4</ele>
        <time>2015-07-05T08:45:20.000Z</time>
      </trkpt>
      <trkpt lat="48.70115" lon="1.70689">
        <ele>170.8</ele>
        <time>2015-07-05T08:45:28.000Z</time>
      </trkpt>
      <trkpt lat="48.70111" lon="1.70704">
        <ele>171</ele>
        <time>2015-07-05T08:45:35.000Z</time>
      </trkpt>
      <trkpt lat="48.70106" lon="1.70722">
        <ele>171</ele>
        <time>2015-07-05T08:45:43.000Z</time>
      </trkpt>
      <trkpt lat="48.70103" lon="1.70735">
        <ele>171.3</ele>
        <time>2015-07-05T08:45:49.000Z</time>
      </trkpt>
      <trkpt lat="48.70101" lon="1.70746">
        <ele>171.5</ele>
        <time>2015-07-05T08:45:55.000Z</time>
      </trkpt>
      <trkpt lat="48.70096" lon="1.7076">
        <ele>171.5</ele>
        <time>2015-07-05T08:46:02.000Z</time>
      </trkpt>
      <trkpt lat="48.70091" lon="1.70778">
        <ele>171.3</ele>
        <time>2015-07-05T08:46:10.000Z</time>
      </trkpt>
      <trkpt lat="48.70085" lon="1.70801">
        <ele>171.1</ele>
        <time>2015-07-05T08:46:20.000Z</time>
      </trkpt>
      <trkpt lat="48.7008" lon="1.70819">
        <ele>170.9</ele>
        <time>2015-07-05T08:46:28.000Z</time>
      </trkpt>
      <trkpt lat="48.70076" lon="1.70831">
        <ele>170.7</ele>
        <time>2015-07-05T08:46:34.000Z</time>
      </trkpt>
      <trkpt lat="48.70072" lon="1.70841">
        <ele>170.6</ele>
        <time>2015-07-05T08:46:40.000Z</time>
      </trkpt>
      <trkpt lat="48.70066" lon="1.70857">
        <ele>170.4</ele>
        <time>2015-07-05T08:46:47.000Z</time>
      </trkpt>
      <trkpt lat="48.70061" lon="1.70875">
        <ele>170.2</ele>
        <time>2015-07-05T08:46:54.000Z</time>
      </trkpt>
      <trkpt lat="48.70056" lon="1.70894">
        <ele>170</ele>
        <time>2015-07-05T08:47:00.000Z</time>
      </trkpt>
      <trkpt lat="48.70047" lon="1.70921">
        <ele>169.6</ele>
        <time>2015-07-05T08:47:09.000Z</time>
      </trkpt>
      <trkpt lat="48.70046" lon="1.7093">
        <ele>169.5</ele>
        <time>2015-07-05T08:47:16.000Z</time>
      </trkpt>
      <trkpt lat="48.70047" lon="1.7093">
        <ele>169.5</ele>
        <time>2015-07-05T08:47:18.000Z</time>
      </trkpt>
      <trkpt lat="48.70044" lon="1.70935">
        <ele>169.3</ele>
        <time>2015-07-05T08:47:45.000Z</time>
      </trkpt>
      <trkpt lat="48.70048" lon="1.70935">
        <ele>169.5</ele>
        <time>2015-07-05T08:47:50.000Z</time>
      </trkpt>
      <trkpt lat="48.70053" lon="1.70932">
        <ele>169.8</ele>
        <time>2015-07-05T08:47:56.000Z</time>
      </trkpt>
      <trkpt lat="48.70045" lon="1.70952">
        <ele>169</ele>
        <time>2015-07-05T08:48:15.000Z</time>
      </trkpt>
      <trkpt lat="48.70039" lon="1.70967">
        <ele>168.5</ele>
        <time>2015-07-05T08:48:22.000Z</time>
      </trkpt>
      <trkpt lat="48.70033" lon="1.7098">
        <ele>168</ele>
        <time>2015-07-05T08:48:29.000Z</time>
      </trkpt>
      <trkpt lat="48.70029" lon="1.70994">
        <ele>167.3</ele>
        <time>2015-07-05T08:48:35.000Z</time>
      </trkpt>
      <trkpt lat="48.70024" lon="1.71009">
        <ele>167</ele>
        <time>2015-07-05T08:48:42.000Z</time>
      </trkpt>
      <trkpt lat="48.7002" lon="1.71021">
        <ele>166.8</ele>
        <time>2015-07-05T08:48:48.000Z</time>
      </trkpt>
      <trkpt lat="48.70015" lon="1.71039">
        <ele>166.3</ele>
        <time>2015-07-05T08:48:56.000Z</time>
      </trkpt>
      <trkpt lat="48.70012" lon="1.7105">
        <ele>166.1</ele>
        <time>2015-07-05T08:49:00.000Z</time>
      </trkpt>
      <trkpt lat="48.70002" lon="1.71077">
        <ele>166</ele>
        <time>2015-07-05T08:49:09.000Z</time>
      </trkpt>
      <trkpt lat="48.69995" lon="1.71102">
        <ele>165.9</ele>
        <time>2015-07-05T08:49:13.000Z</time>
      </trkpt>
      <trkpt lat="48.69987" lon="1.71127">
        <ele>165.2</ele>
        <time>2015-07-05T08:49:17.000Z</time>
      </trkpt>
      <trkpt lat="48.69978" lon="1.71163">
        <ele>164.3</ele>
        <time>2015-07-05T08:49:22.000Z</time>
      </trkpt>
      <trkpt lat="48.69964" lon="1.71206">
        <ele>164</ele>
        <time>2015-07-05T08:49:28.000Z</time>
      </trkpt>
      <trkpt lat="48.69952" lon="1.71248">
        <ele>163.1</ele>
        <time>2015-07-05T08:49:33.000Z</time>
      </trkpt>
      <trkpt lat="48.6995" lon="1.71256">
        <ele>163</ele>
        <time>2015-07-05T08:49:34.000Z</time>
      </trkpt>
      <trkpt lat="48.69941" lon="1.71285">
        <ele>163</ele>
        <time>2015-07-05T08:49:38.000Z</time>
      </trkpt>
      <trkpt lat="48.69928" lon="1.71331">
        <ele>163</ele>
        <time>2015-07-05T08:49:44.000Z</time>
      </trkpt>
      <trkpt lat="48.69916" lon="1.71376">
        <ele>163</ele>
        <time>2015-07-05T08:49:50.000Z</time>
      </trkpt>
      <trkpt lat="48.69908" lon="1.71408">
        <ele>163</ele>
        <time>2015-07-05T08:49:55.000Z</time>
      </trkpt>
      <trkpt lat="48.699" lon="1.71436">
        <ele>163</ele>
        <time>2015-07-05T08:49:59.000Z</time>
      </trkpt>
      <trkpt lat="48.69896" lon="1.71451">
        <ele>162.9</ele>
        <time>2015-07-05T08:50:01.000Z</time>
      </trkpt>
      <trkpt lat="48.69888" lon="1.71476">
        <ele>163</ele>
        <time>2015-07-05T08:50:04.000Z</time>
      </trkpt>
      <trkpt lat="48.69875" lon="1.71518">
        <ele>162.7</ele>
        <time>2015-07-05T08:50:09.000Z</time>
      </trkpt>
      <trkpt lat="48.69873" lon="1.71524">
        <ele>162.6</ele>
        <time>2015-07-05T08:50:10.000Z</time>
      </trkpt>
      <trkpt lat="48.69861" lon="1.71567">
        <ele>163</ele>
        <time>2015-07-05T08:50:17.000Z</time>
      </trkpt>
      <trkpt lat="48.69852" lon="1.71599">
        <ele>163</ele>
        <time>2015-07-05T08:50:22.000Z</time>
      </trkpt>
      <trkpt lat="48.69851" lon="1.71605">
        <ele>163</ele>
        <time>2015-07-05T08:50:23.000Z</time>
      </trkpt>
      <trkpt lat="48.69845" lon="1.71624">
        <ele>163</ele>
        <time>2015-07-05T08:50:28.000Z</time>
      </trkpt>
      <trkpt lat="48.69839" lon="1.7164">
        <ele>163</ele>
        <time>2015-07-05T08:50:33.000Z</time>
      </trkpt>
      <trkpt lat="48.69834" lon="1.71658">
        <ele>163</ele>
        <time>2015-07-05T08:50:39.000Z</time>
      </trkpt>
      <trkpt lat="48.69833" lon="1.71663">
        <ele>163</ele>
        <time>2015-07-05T08:50:42.000Z</time>
      </trkpt>
      <trkpt lat="48.69828" lon="1.7168">
        <ele>163</ele>
        <time>2015-07-05T08:50:50.000Z</time>
      </trkpt>
      <trkpt lat="48.69828" lon="1.71692">
        <ele>163</ele>
        <time>2015-07-05T08:50:56.000Z</time>
      </trkpt>
      <trkpt lat="48.69823" lon="1.717">
        <ele>163</ele>
        <time>2015-07-05T08:51:01.000Z</time>
      </trkpt>
      <trkpt lat="48.6982" lon="1.71704">
        <ele>163</ele>
        <time>2015-07-05T08:51:04.000Z</time>
      </trkpt>
      <trkpt lat="48.69813" lon="1.71704">
        <ele>163</ele>
        <time>2015-07-05T08:51:09.000Z</time>
      </trkpt>
      <trkpt lat="48.69799" lon="1.71696">
        <ele>163</ele>
        <time>2015-07-05T08:51:18.000Z</time>
      </trkpt>
      <trkpt lat="48.6979" lon="1.71689">
        <ele>163</ele>
        <time>2015-07-05T08:51:25.000Z</time>
      </trkpt>
      <trkpt lat="48.69784" lon="1.71686">
        <ele>163</ele>
        <time>2015-07-05T08:51:29.000Z</time>
      </trkpt>
      <trkpt lat="48.69776" lon="1.71679">
        <ele>163</ele>
        <time>2015-07-05T08:51:36.000Z</time>
      </trkpt>
      <trkpt lat="48.69769" lon="1.71675">
        <ele>163</ele>
        <time>2015-07-05T08:51:43.000Z</time>
      </trkpt>
      <trkpt lat="48.69757" lon="1.71672">
        <ele>163</ele>
        <time>2015-07-05T08:52:16.000Z</time>
      </trkpt>
      <trkpt lat="48.69749" lon="1.7167">
        <ele>163</ele>
        <time>2015-07-05T08:52:20.000Z</time>
      </trkpt>
      <trkpt lat="48.6974" lon="1.71662">
        <ele>163</ele>
        <time>2015-07-05T08:52:27.000Z</time>
      </trkpt>
      <trkpt lat="48.69733" lon="1.71656">
        <ele>163</ele>
        <time>2015-07-05T08:52:34.000Z</time>
      </trkpt>
      <trkpt lat="48.69729" lon="1.71652">
        <ele>163</ele>
        <time>2015-07-05T08:52:36.000Z</time>
      </trkpt>
      <trkpt lat="48.69724" lon="1.71648">
        <ele>163</ele>
        <time>2015-07-05T08:52:40.000Z</time>
      </trkpt>
      <trkpt lat="48.69719" lon="1.71642">
        <ele>163</ele>
        <time>2015-07-05T08:52:46.000Z</time>
      </trkpt>
      <trkpt lat="48.69708" lon="1.71635">
        <ele>163</ele>
        <time>2015-07-05T08:52:53.000Z</time>
      </trkpt>
      <trkpt lat="48.69707" lon="1.71633">
        <ele>163</ele>
        <time>2015-07-05T08:52:54.000Z</time>
      </trkpt>
      <trkpt lat="48.69696" lon="1.71625">
        <ele>163</ele>
        <time>2015-07-05T08:53:02.000Z</time>
      </trkpt>
      <trkpt lat="48.69688" lon="1.7162">
        <ele>163</ele>
        <time>2015-07-05T08:53:07.000Z</time>
      </trkpt>
      <trkpt lat="48.69682" lon="1.71615">
        <ele>163</ele>
        <time>2015-07-05T08:53:12.000Z</time>
      </trkpt>
      <trkpt lat="48.69672" lon="1.71608">
        <ele>162.9</ele>
        <time>2015-07-05T08:53:18.000Z</time>
      </trkpt>
      <trkpt lat="48.69671" lon="1.71607">
        <ele>162.9</ele>
        <time>2015-07-05T08:53:19.000Z</time>
      </trkpt>
      <trkpt lat="48.69663" lon="1.71603">
        <ele>162.6</ele>
        <time>2015-07-05T08:53:26.000Z</time>
      </trkpt>
      <trkpt lat="48.69663" lon="1.71603">
        <ele>162.6</ele>
        <time>2015-07-05T08:53:27.000Z</time>
      </trkpt>
      <trkpt lat="48.69659" lon="1.71601">
        <ele>162.5</ele>
        <time>2015-07-05T08:53:34.000Z</time>
      </trkpt>
      <trkpt lat="48.69658" lon="1.71599">
        <ele>162.4</ele>
        <time>2015-07-05T08:53:35.000Z</time>
      </trkpt>
      <trkpt lat="48.69643" lon="1.71588">
        <ele>162</ele>
        <time>2015-07-05T08:53:39.000Z</time>
      </trkpt>
      <trkpt lat="48.69633" lon="1.71578">
        <ele>162</ele>
        <time>2015-07-05T08:53:45.000Z</time>
      </trkpt>
      <trkpt lat="48.6963" lon="1.71572">
        <ele>162</ele>
        <time>2015-07-05T08:53:50.000Z</time>
      </trkpt>
      <trkpt lat="48.69632" lon="1.71566">
        <ele>162</ele>
        <time>2015-07-05T08:53:55.000Z</time>
      </trkpt>
      <trkpt lat="48.69632" lon="1.71559">
        <ele>162</ele>
        <time>2015-07-05T08:54:02.000Z</time>
      </trkpt>
      <trkpt lat="48.69632" lon="1.71559">
        <ele>162</ele>
        <time>2015-07-05T08:54:03.000Z</time>
      </trkpt>
      <trkpt lat="48.69622" lon="1.71578">
        <ele>162</ele>
        <time>2015-07-05T08:56:08.000Z</time>
      </trkpt>
      <trkpt lat="48.69612" lon="1.71568">
        <ele>162</ele>
        <time>2015-07-05T08:56:14.000Z</time>
      </trkpt>
      <trkpt lat="48.69604" lon="1.7156">
        <ele>162</ele>
        <time>2015-07-05T08:56:18.000Z</time>
      </trkpt>
      <trkpt lat="48.69595" lon="1.71545">
        <ele>162</ele>
        <time>2015-07-05T08:56:25.000Z</time>
      </trkpt>
      <trkpt lat="48.69587" lon="1.71535">
        <ele>162</ele>
        <time>2015-07-05T08:56:32.000Z</time>
      </trkpt>
      <trkpt lat="48.6958" lon="1.71527">
        <ele>162</ele>
        <time>2015-07-05T08:56:38.000Z</time>
      </trkpt>
      <trkpt lat="48.69572" lon="1.71515">
        <ele>162</ele>
        <time>2015-07-05T08:56:44.000Z</time>
      </trkpt>
      <trkpt lat="48.69562" lon="1.71501">
        <ele>162</ele>
        <time>2015-07-05T08:56:51.000Z</time>
      </trkpt>
      <trkpt lat="48.69559" lon="1.71497">
        <ele>162</ele>
        <time>2015-07-05T08:56:54.000Z</time>
      </trkpt>
      <trkpt lat="48.69547" lon="1.71489">
        <ele>161.7</ele>
        <time>2015-07-05T08:57:04.000Z</time>
      </trkpt>
      <trkpt lat="48.69535" lon="1.7148">
        <ele>161.3</ele>
        <time>2015-07-05T08:57:12.000Z</time>
      </trkpt>
      <trkpt lat="48.69527" lon="1.71469">
        <ele>161</ele>
        <time>2015-07-05T08:57:18.000Z</time>
      </trkpt>
      <trkpt lat="48.69521" lon="1.71461">
        <ele>161</ele>
        <time>2015-07-05T08:57:22.000Z</time>
      </trkpt>
      <trkpt lat="48.69513" lon="1.71447">
        <ele>161</ele>
        <time>2015-07-05T08:57:29.000Z</time>
      </trkpt>
      <trkpt lat="48.69503" lon="1.71439">
        <ele>161</ele>
        <time>2015-07-05T08:57:36.000Z</time>
      </trkpt>
      <trkpt lat="48.69502" lon="1.71437">
        <ele>161</ele>
        <time>2015-07-05T08:57:38.000Z</time>
      </trkpt>
      <trkpt lat="48.69498" lon="1.71433">
        <ele>161</ele>
        <time>2015-07-05T08:57:44.000Z</time>
      </trkpt>
      <trkpt lat="48.6949" lon="1.71439">
        <ele>161</ele>
        <time>2015-07-05T08:57:50.000Z</time>
      </trkpt>
      <trkpt lat="48.69484" lon="1.71444">
        <ele>161</ele>
        <time>2015-07-05T08:57:54.000Z</time>
      </trkpt>
      <trkpt lat="48.69475" lon="1.71455">
        <ele>161</ele>
        <time>2015-07-05T08:58:01.000Z</time>
      </trkpt>
      <trkpt lat="48.69465" lon="1.71462">
        <ele>161</ele>
        <time>2015-07-05T08:58:08.000Z</time>
      </trkpt>
      <trkpt lat="48.69464" lon="1.71463">
        <ele>161</ele>
        <time>2015-07-05T08:58:09.000Z</time>
      </trkpt>
      <trkpt lat="48.69457" lon="1.71468">
        <ele>161</ele>
        <time>2015-07-05T08:58:14.000Z</time>
      </trkpt>
      <trkpt lat="48.69453" lon="1.7147">
        <ele>161</ele>
        <time>2015-07-05T08:58:18.000Z</time>
      </trkpt>
      <trkpt lat="48.69445" lon="1.71479">
        <ele>161</ele>
        <time>2015-07-05T08:58:30.000Z</time>
      </trkpt>
      <trkpt lat="48.69436" lon="1.71488">
        <ele>161</ele>
        <time>2015-07-05T08:58:36.000Z</time>
      </trkpt>
      <trkpt lat="48.69421" lon="1.71502">
        <ele>161</ele>
        <time>2015-07-05T08:58:45.000Z</time>
      </trkpt>
      <trkpt lat="48.69408" lon="1.71512">
        <ele>161</ele>
        <time>2015-07-05T08:58:54.000Z</time>
      </trkpt>
      <trkpt lat="48.69403" lon="1.71518">
        <ele>161</ele>
        <time>2015-07-05T08:58:59.000Z</time>
      </trkpt>
      <trkpt lat="48.69394" lon="1.71526">
        <ele>161</ele>
        <time>2015-07-05T08:59:06.000Z</time>
      </trkpt>
      <trkpt lat="48.69383" lon="1.71533">
        <ele>160.8</ele>
        <time>2015-07-05T08:59:13.000Z</time>
      </trkpt>
      <trkpt lat="48.69374" lon="1.71542">
        <ele>160.8</ele>
        <time>2015-07-05T08:59:20.000Z</time>
      </trkpt>
      <trkpt lat="48.6936" lon="1.71556">
        <ele>161</ele>
        <time>2015-07-05T08:59:29.000Z</time>
      </trkpt>
      <trkpt lat="48.6935" lon="1.71567">
        <ele>160.7</ele>
        <time>2015-07-05T08:59:37.000Z</time>
      </trkpt>
      <trkpt lat="48.69338" lon="1.71576">
        <ele>160.9</ele>
        <time>2015-07-05T08:59:45.000Z</time>
      </trkpt>
      <trkpt lat="48.69328" lon="1.71585">
        <ele>160.9</ele>
        <time>2015-07-05T08:59:52.000Z</time>
      </trkpt>
      <trkpt lat="48.69313" lon="1.71598">
        <ele>160.8</ele>
        <time>2015-07-05T09:00:02.000Z</time>
      </trkpt>
      <trkpt lat="48.69301" lon="1.71608">
        <ele>161</ele>
        <time>2015-07-05T09:00:10.000Z</time>
      </trkpt>
      <trkpt lat="48.69292" lon="1.71616">
        <ele>160.9</ele>
        <time>2015-07-05T09:00:17.000Z</time>
      </trkpt>
      <trkpt lat="48.69278" lon="1.71626">
        <ele>161</ele>
        <time>2015-07-05T09:00:26.000Z</time>
      </trkpt>
      <trkpt lat="48.69268" lon="1.71633">
        <ele>161</ele>
        <time>2015-07-05T09:00:33.000Z</time>
      </trkpt>
      <trkpt lat="48.69256" lon="1.71644">
        <ele>160.8</ele>
        <time>2015-07-05T09:00:41.000Z</time>
      </trkpt>
      <trkpt lat="48.69253" lon="1.71647">
        <ele>160.7</ele>
        <time>2015-07-05T09:00:43.000Z</time>
      </trkpt>
      <trkpt lat="48.69246" lon="1.71654">
        <ele>160.5</ele>
        <time>2015-07-05T09:00:48.000Z</time>
      </trkpt>
      <trkpt lat="48.69237" lon="1.71663">
        <ele>160.5</ele>
        <time>2015-07-05T09:00:55.000Z</time>
      </trkpt>
      <trkpt lat="48.69228" lon="1.7167">
        <ele>160.7</ele>
        <time>2015-07-05T09:01:02.000Z</time>
      </trkpt>
      <trkpt lat="48.69217" lon="1.71678">
        <ele>160.6</ele>
        <time>2015-07-05T09:01:09.000Z</time>
      </trkpt>
      <trkpt lat="48.69206" lon="1.71687">
        <ele>160.3</ele>
        <time>2015-07-05T09:01:15.000Z</time>
      </trkpt>
      <trkpt lat="48.69199" lon="1.71696">
        <ele>160</ele>
        <time>2015-07-05T09:01:19.000Z</time>
      </trkpt>
      <trkpt lat="48.69193" lon="1.71702">
        <ele>160</ele>
        <time>2015-07-05T09:01:23.000Z</time>
      </trkpt>
      <trkpt lat="48.69181" lon="1.71712">
        <ele>160.2</ele>
        <time>2015-07-05T09:01:30.000Z</time>
      </trkpt>
      <trkpt lat="48.6917" lon="1.71721">
        <ele>160</ele>
        <time>2015-07-05T09:01:37.000Z</time>
      </trkpt>
      <trkpt lat="48.69158" lon="1.71733">
        <ele>160.2</ele>
        <time>2015-07-05T09:01:44.000Z</time>
      </trkpt>
      <trkpt lat="48.69149" lon="1.71741">
        <ele>160.2</ele>
        <time>2015-07-05T09:01:51.000Z</time>
      </trkpt>
      <trkpt lat="48.69135" lon="1.71753">
        <ele>160.1</ele>
        <time>2015-07-05T09:02:01.000Z</time>
      </trkpt>
      <trkpt lat="48.69124" lon="1.71764">
        <ele>160.3</ele>
        <time>2015-07-05T09:02:08.000Z</time>
      </trkpt>
      <trkpt lat="48.69123" lon="1.71765">
        <ele>160.3</ele>
        <time>2015-07-05T09:02:09.000Z</time>
      </trkpt>
      <trkpt lat="48.69114" lon="1.71771">
        <ele>160.2</ele>
        <time>2015-07-05T09:02:15.000Z</time>
      </trkpt>
      <trkpt lat="48.69102" lon="1.7178">
        <ele>160.3</ele>
        <time>2015-07-05T09:02:22.000Z</time>
      </trkpt>
      <trkpt lat="48.69089" lon="1.71791">
        <ele>160.8</ele>
        <time>2015-07-05T09:02:31.000Z</time>
      </trkpt>
      <trkpt lat="48.69079" lon="1.71801">
        <ele>161</ele>
        <time>2015-07-05T09:02:38.000Z</time>
      </trkpt>
      <trkpt lat="48.69072" lon="1.71806">
        <ele>161</ele>
        <time>2015-07-05T09:02:43.000Z</time>
      </trkpt>
      <trkpt lat="48.69061" lon="1.71813">
        <ele>160.9</ele>
        <time>2015-07-05T09:02:51.000Z</time>
      </trkpt>
      <trkpt lat="48.69061" lon="1.71814">
        <ele>160.9</ele>
        <time>2015-07-05T09:02:52.000Z</time>
      </trkpt>
      <trkpt lat="48.69053" lon="1.71823">
        <ele>161</ele>
        <time>2015-07-05T09:02:58.000Z</time>
      </trkpt>
      <trkpt lat="48.6905" lon="1.71826">
        <ele>161</ele>
        <time>2015-07-05T09:03:00.000Z</time>
      </trkpt>
      <trkpt lat="48.69041" lon="1.71836">
        <ele>161</ele>
        <time>2015-07-05T09:03:06.000Z</time>
      </trkpt>
      <trkpt lat="48.69031" lon="1.71848">
        <ele>161</ele>
        <time>2015-07-05T09:03:13.000Z</time>
      </trkpt>
      <trkpt lat="48.69021" lon="1.71863">
        <ele>160.9</ele>
        <time>2015-07-05T09:03:20.000Z</time>
      </trkpt>
      <trkpt lat="48.69014" lon="1.71871">
        <ele>160.7</ele>
        <time>2015-07-05T09:03:27.000Z</time>
      </trkpt>
      <trkpt lat="48.69005" lon="1.71881">
        <ele>160.3</ele>
        <time>2015-07-05T09:03:33.000Z</time>
      </trkpt>
      <trkpt lat="48.69003" lon="1.71883">
        <ele>160.2</ele>
        <time>2015-07-05T09:03:34.000Z</time>
      </trkpt>
      <trkpt lat="48.68993" lon="1.71898">
        <ele>160</ele>
        <time>2015-07-05T09:03:41.000Z</time>
      </trkpt>
      <trkpt lat="48.68986" lon="1.71905">
        <ele>160</ele>
        <time>2015-07-05T09:03:47.000Z</time>
      </trkpt>
      <trkpt lat="48.68977" lon="1.71914">
        <ele>160</ele>
        <time>2015-07-05T09:03:53.000Z</time>
      </trkpt>
      <trkpt lat="48.68965" lon="1.71928">
        <ele>160</ele>
        <time>2015-07-05T09:04:01.000Z</time>
      </trkpt>
      <trkpt lat="48.68957" lon="1.71936">
        <ele>160</ele>
        <time>2015-07-05T09:04:07.000Z</time>
      </trkpt>
      <trkpt lat="48.68945" lon="1.71951">
        <ele>160</ele>
        <time>2015-07-05T09:04:15.000Z</time>
      </trkpt>
      <trkpt lat="48.68936" lon="1.71962">
        <ele>160.1</ele>
        <time>2015-07-05T09:04:22.000Z</time>
      </trkpt>
      <trkpt lat="48.68926" lon="1.71974">
        <ele>160</ele>
        <time>2015-07-05T09:04:30.000Z</time>
      </trkpt>
      <trkpt lat="48.68922" lon="1.71979">
        <ele>160</ele>
        <time>2015-07-05T09:04:34.000Z</time>
      </trkpt>
      <trkpt lat="48.68918" lon="1.71985">
        <ele>160</ele>
        <time>2015-07-05T09:04:37.000Z</time>
      </trkpt>
      <trkpt lat="48.68905" lon="1.71996">
        <ele>160.4</ele>
        <time>2015-07-05T09:04:44.000Z</time>
      </trkpt>
      <trkpt lat="48.68898" lon="1.72006">
        <ele>160.7</ele>
        <time>2015-07-05T09:04:50.000Z</time>
      </trkpt>
      <trkpt lat="48.6889" lon="1.72016">
        <ele>161</ele>
        <time>2015-07-05T09:04:55.000Z</time>
      </trkpt>
      <trkpt lat="48.68886" lon="1.72021">
        <ele>161</ele>
        <time>2015-07-05T09:04:58.000Z</time>
      </trkpt>
      <trkpt lat="48.68873" lon="1.72036">
        <ele>160.9</ele>
        <time>2015-07-05T09:05:07.000Z</time>
      </trkpt>
      <trkpt lat="48.68866" lon="1.72043">
        <ele>160.9</ele>
        <time>2015-07-05T09:05:13.000Z</time>
      </trkpt>
      <trkpt lat="48.68857" lon="1.72053">
        <ele>161.1</ele>
        <time>2015-07-05T09:05:18.000Z</time>
      </trkpt>
      <trkpt lat="48.68847" lon="1.72062">
        <ele>161.5</ele>
        <time>2015-07-05T09:05:25.000Z</time>
      </trkpt>
      <trkpt lat="48.68839" lon="1.72071">
        <ele>161.8</ele>
        <time>2015-07-05T09:05:31.000Z</time>
      </trkpt>
      <trkpt lat="48.68826" lon="1.72088">
        <ele>161.9</ele>
        <time>2015-07-05T09:05:40.000Z</time>
      </trkpt>
      <trkpt lat="48.68816" lon="1.721">
        <ele>161.8</ele>
        <time>2015-07-05T09:05:47.000Z</time>
      </trkpt>
      <trkpt lat="48.68807" lon="1.72114">
        <ele>162</ele>
        <time>2015-07-05T09:05:54.000Z</time>
      </trkpt>
      <trkpt lat="48.68798" lon="1.72126">
        <ele>162.3</ele>
        <time>2015-07-05T09:06:00.000Z</time>
      </trkpt>
      <trkpt lat="48.6879" lon="1.72135">
        <ele>162.6</ele>
        <time>2015-07-05T09:06:06.000Z</time>
      </trkpt>
      <trkpt lat="48.68787" lon="1.72139">
        <ele>162.7</ele>
        <time>2015-07-05T09:06:11.000Z</time>
      </trkpt>
      <trkpt lat="48.68779" lon="1.7215">
        <ele>162.6</ele>
        <time>2015-07-05T09:06:17.000Z</time>
      </trkpt>
      <trkpt lat="48.68771" lon="1.72158">
        <ele>162.5</ele>
        <time>2015-07-05T09:06:24.000Z</time>
      </trkpt>
      <trkpt lat="48.68762" lon="1.72168">
        <ele>162.6</ele>
        <time>2015-07-05T09:06:31.000Z</time>
      </trkpt>
      <trkpt lat="48.68756" lon="1.72173">
        <ele>162.8</ele>
        <time>2015-07-05T09:06:35.000Z</time>
      </trkpt>
      <trkpt lat="48.68751" lon="1.72182">
        <ele>163</ele>
        <time>2015-07-05T09:06:39.000Z</time>
      </trkpt>
      <trkpt lat="48.68745" lon="1.72188">
        <ele>163</ele>
        <time>2015-07-05T09:06:44.000Z</time>
      </trkpt>
      <trkpt lat="48.68735" lon="1.72204">
        <ele>163</ele>
        <time>2015-07-05T09:06:51.000Z</time>
      </trkpt>
      <trkpt lat="48.68727" lon="1.72215">
        <ele>163</ele>
        <time>2015-07-05T09:06:57.000Z</time>
      </trkpt>
      <trkpt lat="48.68721" lon="1.72223">
        <ele>163</ele>
        <time>2015-07-05T09:07:02.000Z</time>
      </trkpt>
      <trkpt lat="48.68715" lon="1.72227">
        <ele>163.3</ele>
        <time>2015-07-05T09:07:08.000Z</time>
      </trkpt>
      <trkpt lat="48.68709" lon="1.72233">
        <ele>163.5</ele>
        <time>2015-07-05T09:07:14.000Z</time>
      </trkpt>
      <trkpt lat="48.687" lon="1.72241">
        <ele>163.8</ele>
        <time>2015-07-05T09:07:20.000Z</time>
      </trkpt>
      <trkpt lat="48.6869" lon="1.72253">
        <ele>164</ele>
        <time>2015-07-05T09:07:27.000Z</time>
      </trkpt>
      <trkpt lat="48.68686" lon="1.72258">
        <ele>164</ele>
        <time>2015-07-05T09:07:29.000Z</time>
      </trkpt>
      <trkpt lat="48.68683" lon="1.72262">
        <ele>164</ele>
        <time>2015-07-05T09:07:33.000Z</time>
      </trkpt>
      <trkpt lat="48.68682" lon="1.72264">
        <ele>164</ele>
        <time>2015-07-05T09:07:36.000Z</time>
      </trkpt>
      <trkpt lat="48.68675" lon="1.72272">
        <ele>164</ele>
        <time>2015-07-05T09:07:39.000Z</time>
      </trkpt>
      <trkpt lat="48.68662" lon="1.72287">
        <ele>164.2</ele>
        <time>2015-07-05T09:07:46.000Z</time>
      </trkpt>
      <trkpt lat="48.68653" lon="1.723">
        <ele>164.5</ele>
        <time>2015-07-05T09:07:53.000Z</time>
      </trkpt>
      <trkpt lat="48.68651" lon="1.72302">
        <ele>164.6</ele>
        <time>2015-07-05T09:07:55.000Z</time>
      </trkpt>
      <trkpt lat="48.68642" lon="1.7231">
        <ele>164.9</ele>
        <time>2015-07-05T09:08:02.000Z</time>
      </trkpt>
      <trkpt lat="48.68641" lon="1.72311">
        <ele>164.9</ele>
        <time>2015-07-05T09:08:03.000Z</time>
      </trkpt>
      <trkpt lat="48.68632" lon="1.7232">
        <ele>165</ele>
        <time>2015-07-05T09:08:10.000Z</time>
      </trkpt>
      <trkpt lat="48.68623" lon="1.72327">
        <ele>165</ele>
        <time>2015-07-05T09:08:17.000Z</time>
      </trkpt>
      <trkpt lat="48.6862" lon="1.7233">
        <ele>165</ele>
        <time>2015-07-05T09:08:19.000Z</time>
      </trkpt>
      <trkpt lat="48.68613" lon="1.7234">
        <ele>165</ele>
        <time>2015-07-05T09:08:24.000Z</time>
      </trkpt>
      <trkpt lat="48.68612" lon="1.72341">
        <ele>165</ele>
        <time>2015-07-05T09:08:25.000Z</time>
      </trkpt>
      <trkpt lat="48.6861" lon="1.72343">
        <ele>165</ele>
        <time>2015-07-05T09:08:27.000Z</time>
      </trkpt>
      <trkpt lat="48.68601" lon="1.72351">
        <ele>165</ele>
        <time>2015-07-05T09:08:33.000Z</time>
      </trkpt>
      <trkpt lat="48.68596" lon="1.72358">
        <ele>165</ele>
        <time>2015-07-05T09:08:37.000Z</time>
      </trkpt>
      <trkpt lat="48.68589" lon="1.72364">
        <ele>165</ele>
        <time>2015-07-05T09:08:42.000Z</time>
      </trkpt>
      <trkpt lat="48.68582" lon="1.72372">
        <ele>165</ele>
        <time>2015-07-05T09:08:48.000Z</time>
      </trkpt>
      <trkpt lat="48.68581" lon="1.72373">
        <ele>165</ele>
        <time>2015-07-05T09:08:49.000Z</time>
      </trkpt>
      <trkpt lat="48.6858" lon="1.72378">
        <ele>165</ele>
        <time>2015-07-05T09:08:52.000Z</time>
      </trkpt>
      <trkpt lat="48.68574" lon="1.72387">
        <ele>165</ele>
        <time>2015-07-05T09:08:58.000Z</time>
      </trkpt>
      <trkpt lat="48.68573" lon="1.72389">
        <ele>165</ele>
        <time>2015-07-05T09:08:59.000Z</time>
      </trkpt>
      <trkpt lat="48.6856" lon="1.72403">
        <ele>165</ele>
        <time>2015-07-05T09:09:08.000Z</time>
      </trkpt>
      <trkpt lat="48.68557" lon="1.72407">
        <ele>165</ele>
        <time>2015-07-05T09:09:12.000Z</time>
      </trkpt>
      <trkpt lat="48.68551" lon="1.72413">
        <ele>165.2</ele>
        <time>2015-07-05T09:09:17.000Z</time>
      </trkpt>
      <trkpt lat="48.68541" lon="1.72425">
        <ele>165.5</ele>
        <time>2015-07-05T09:09:23.000Z</time>
      </trkpt>
      <trkpt lat="48.68538" lon="1.72429">
        <ele>165.6</ele>
        <time>2015-07-05T09:09:26.000Z</time>
      </trkpt>
      <trkpt lat="48.68527" lon="1.72439">
        <ele>166</ele>
        <time>2015-07-05T09:09:32.000Z</time>
      </trkpt>
      <trkpt lat="48.6852" lon="1.72447">
        <ele>166</ele>
        <time>2015-07-05T09:09:37.000Z</time>
      </trkpt>
      <trkpt lat="48.68516" lon="1.72453">
        <ele>166</ele>
        <time>2015-07-05T09:09:41.000Z</time>
      </trkpt>
      <trkpt lat="48.68514" lon="1.72459">
        <ele>166</ele>
        <time>2015-07-05T09:09:45.000Z</time>
      </trkpt>
      <trkpt lat="48.6851" lon="1.72464">
        <ele>166</ele>
        <time>2015-07-05T09:09:49.000Z</time>
      </trkpt>
      <trkpt lat="48.6851" lon="1.72466">
        <ele>166</ele>
        <time>2015-07-05T09:09:53.000Z</time>
      </trkpt>
      <trkpt lat="48.68505" lon="1.72472">
        <ele>166</ele>
        <time>2015-07-05T09:10:01.000Z</time>
      </trkpt>
      <trkpt lat="48.68499" lon="1.72479">
        <ele>166</ele>
        <time>2015-07-05T09:10:05.000Z</time>
      </trkpt>
      <trkpt lat="48.68499" lon="1.72481">
        <ele>166</ele>
        <time>2015-07-05T09:10:07.000Z</time>
      </trkpt>
      <trkpt lat="48.68497" lon="1.72487">
        <ele>166</ele>
        <time>2015-07-05T09:10:14.000Z</time>
      </trkpt>
      <trkpt lat="48.68491" lon="1.7252">
        <ele>166</ele>
        <time>2015-07-05T09:11:01.000Z</time>
      </trkpt>
      <trkpt lat="48.6849" lon="1.72529">
        <ele>166</ele>
        <time>2015-07-05T09:11:07.000Z</time>
      </trkpt>
      <trkpt lat="48.6849" lon="1.72531">
        <ele>165.9</ele>
        <time>2015-07-05T09:11:08.000Z</time>
      </trkpt>
      <trkpt lat="48.68492" lon="1.72545">
        <ele>165.6</ele>
        <time>2015-07-05T09:11:15.000Z</time>
      </trkpt>
      <trkpt lat="48.68492" lon="1.72559">
        <ele>165.2</ele>
        <time>2015-07-05T09:11:21.000Z</time>
      </trkpt>
      <trkpt lat="48.68493" lon="1.72574">
        <ele>165.1</ele>
        <time>2015-07-05T09:11:27.000Z</time>
      </trkpt>
      <trkpt lat="48.68494" lon="1.72581">
        <ele>165</ele>
        <time>2015-07-05T09:11:30.000Z</time>
      </trkpt>
      <trkpt lat="48.68495" lon="1.72587">
        <ele>165</ele>
        <time>2015-07-05T09:11:33.000Z</time>
      </trkpt>
      <trkpt lat="48.68495" lon="1.72597">
        <ele>165</ele>
        <time>2015-07-05T09:11:37.000Z</time>
      </trkpt>
      <trkpt lat="48.68496" lon="1.72617">
        <ele>165</ele>
        <time>2015-07-05T09:11:45.000Z</time>
      </trkpt>
      <trkpt lat="48.68498" lon="1.72632">
        <ele>165.1</ele>
        <time>2015-07-05T09:11:52.000Z</time>
      </trkpt>
      <trkpt lat="48.68499" lon="1.72633">
        <ele>165</ele>
        <time>2015-07-05T09:11:53.000Z</time>
      </trkpt>
      <trkpt lat="48.685" lon="1.72643">
        <ele>165.2</ele>
        <time>2015-07-05T09:11:58.000Z</time>
      </trkpt>
      <trkpt lat="48.68501" lon="1.72662">
        <ele>165.8</ele>
        <time>2015-07-05T09:12:05.000Z</time>
      </trkpt>
      <trkpt lat="48.68501" lon="1.72668">
        <ele>166</ele>
        <time>2015-07-05T09:12:08.000Z</time>
      </trkpt>
      <trkpt lat="48.68501" lon="1.72685">
        <ele>166</ele>
        <time>2015-07-05T09:12:15.000Z</time>
      </trkpt>
      <trkpt lat="48.68501" lon="1.7269">
        <ele>166</ele>
        <time>2015-07-05T09:12:17.000Z</time>
      </trkpt>
      <trkpt lat="48.68503" lon="1.72709">
        <ele>166.4</ele>
        <time>2015-07-05T09:12:25.000Z</time>
      </trkpt>
      <trkpt lat="48.68503" lon="1.72725">
        <ele>166.9</ele>
        <time>2015-07-05T09:12:31.000Z</time>
      </trkpt>
      <trkpt lat="48.68505" lon="1.72746">
        <ele>167</ele>
        <time>2015-07-05T09:12:39.000Z</time>
      </trkpt>
      <trkpt lat="48.68509" lon="1.72763">
        <ele>167</ele>
        <time>2015-07-05T09:12:46.000Z</time>
      </trkpt>
      <trkpt lat="48.68508" lon="1.72769">
        <ele>167</ele>
        <time>2015-07-05T09:12:48.000Z</time>
      </trkpt>
      <trkpt lat="48.68509" lon="1.7278">
        <ele>167.1</ele>
        <time>2015-07-05T09:12:53.000Z</time>
      </trkpt>
      <trkpt lat="48.68507" lon="1.72788">
        <ele>167.3</ele>
        <time>2015-07-05T09:12:56.000Z</time>
      </trkpt>
      <trkpt lat="48.685" lon="1.72795">
        <ele>167.6</ele>
        <time>2015-07-05T09:13:03.000Z</time>
      </trkpt>
      <trkpt lat="48.68499" lon="1.72796">
        <ele>167.7</ele>
        <time>2015-07-05T09:13:04.000Z</time>
      </trkpt>
      <trkpt lat="48.68491" lon="1.72803">
        <ele>167.9</ele>
        <time>2015-07-05T09:13:11.000Z</time>
      </trkpt>
      <trkpt lat="48.68487" lon="1.72805">
        <ele>168</ele>
        <time>2015-07-05T09:13:14.000Z</time>
      </trkpt>
      <trkpt lat="48.68478" lon="1.72813">
        <ele>168</ele>
        <time>2015-07-05T09:13:20.000Z</time>
      </trkpt>
      <trkpt lat="48.68477" lon="1.72814">
        <ele>168</ele>
        <time>2015-07-05T09:13:21.000Z</time>
      </trkpt>
      <trkpt lat="48.68467" lon="1.72823">
        <ele>168</ele>
        <time>2015-07-05T09:13:29.000Z</time>
      </trkpt>
      <trkpt lat="48.68456" lon="1.7283">
        <ele>168</ele>
        <time>2015-07-05T09:13:37.000Z</time>
      </trkpt>
      <trkpt lat="48.68445" lon="1.7284">
        <ele>168</ele>
        <time>2015-07-05T09:13:43.000Z</time>
      </trkpt>
      <trkpt lat="48.68431" lon="1.72855">
        <ele>168</ele>
        <time>2015-07-05T09:13:48.000Z</time>
      </trkpt>
      <trkpt lat="48.68418" lon="1.72867">
        <ele>168</ele>
        <time>2015-07-05T09:13:52.000Z</time>
      </trkpt>
      <trkpt lat="48.68396" lon="1.72883">
        <ele>168</ele>
        <time>2015-07-05T09:13:58.000Z</time>
      </trkpt>
      <trkpt lat="48.68385" lon="1.72891">
        <ele>167.9</ele>
        <time>2015-07-05T09:14:01.000Z</time>
      </trkpt>
      <trkpt lat="48.68371" lon="1.72905">
        <ele>167.4</ele>
        <time>2015-07-05T09:14:05.000Z</time>
      </trkpt>
      <trkpt lat="48.68345" lon="1.72927">
        <ele>167</ele>
        <time>2015-07-05T09:14:12.000Z</time>
      </trkpt>
      <trkpt lat="48.68318" lon="1.72951">
        <ele>166.8</ele>
        <time>2015-07-05T09:14:18.000Z</time>
      </trkpt>
      <trkpt lat="48.68294" lon="1.72972">
        <ele>166.4</ele>
        <time>2015-07-05T09:14:23.000Z</time>
      </trkpt>
      <trkpt lat="48.68271" lon="1.72994">
        <ele>166.4</ele>
        <time>2015-07-05T09:14:29.000Z</time>
      </trkpt>
      <trkpt lat="48.68248" lon="1.73013">
        <ele>167</ele>
        <time>2015-07-05T09:14:35.000Z</time>
      </trkpt>
      <trkpt lat="48.68214" lon="1.73043">
        <ele>167.1</ele>
        <time>2015-07-05T09:14:44.000Z</time>
      </trkpt>
      <trkpt lat="48.68193" lon="1.7306">
        <ele>167.1</ele>
        <time>2015-07-05T09:14:50.000Z</time>
      </trkpt>
      <trkpt lat="48.68165" lon="1.73082">
        <ele>168</ele>
        <time>2015-07-05T09:14:58.000Z</time>
      </trkpt>
      <trkpt lat="48.68142" lon="1.73102">
        <ele>168.7</ele>
        <time>2015-07-05T09:15:05.000Z</time>
      </trkpt>
      <trkpt lat="48.68117" lon="1.73124">
        <ele>169</ele>
        <time>2015-07-05T09:15:12.000Z</time>
      </trkpt>
      <trkpt lat="48.68089" lon="1.73146">
        <ele>169</ele>
        <time>2015-07-05T09:15:20.000Z</time>
      </trkpt>
      <trkpt lat="48.6807" lon="1.73163">
        <ele>169</ele>
        <time>2015-07-05T09:15:25.000Z</time>
      </trkpt>
      <trkpt lat="48.68044" lon="1.73185">
        <ele>169.1</ele>
        <time>2015-07-05T09:15:32.000Z</time>
      </trkpt>
      <trkpt lat="48.6802" lon="1.73208">
        <ele>169.3</ele>
        <time>2015-07-05T09:15:39.000Z</time>
      </trkpt>
      <trkpt lat="48.68013" lon="1.73215">
        <ele>169.5</ele>
        <time>2015-07-05T09:15:41.000Z</time>
      </trkpt>
      <trkpt lat="48.68003" lon="1.73224">
        <ele>169.8</ele>
        <time>2015-07-05T09:15:44.000Z</time>
      </trkpt>
      <trkpt lat="48.67976" lon="1.73247">
        <ele>169.1</ele>
        <time>2015-07-05T09:15:52.000Z</time>
      </trkpt>
      <trkpt lat="48.67953" lon="1.73267">
        <ele>169.7</ele>
        <time>2015-07-05T09:15:59.000Z</time>
      </trkpt>
      <trkpt lat="48.6793" lon="1.73284">
        <ele>169.8</ele>
        <time>2015-07-05T09:16:06.000Z</time>
      </trkpt>
      <trkpt lat="48.67909" lon="1.73306">
        <ele>169.3</ele>
        <time>2015-07-05T09:16:13.000Z</time>
      </trkpt>
      <trkpt lat="48.6789" lon="1.73322">
        <ele>169.4</ele>
        <time>2015-07-05T09:16:19.000Z</time>
      </trkpt>
      <trkpt lat="48.6787" lon="1.73338">
        <ele>169.6</ele>
        <time>2015-07-05T09:16:25.000Z</time>
      </trkpt>
      <trkpt lat="48.67846" lon="1.73357">
        <ele>169.6</ele>
        <time>2015-07-05T09:16:33.000Z</time>
      </trkpt>
      <trkpt lat="48.67832" lon="1.7337">
        <ele>170</ele>
        <time>2015-07-05T09:16:40.000Z</time>
      </trkpt>
      <trkpt lat="48.67821" lon="1.73379">
        <ele>170</ele>
        <time>2015-07-05T09:16:47.000Z</time>
      </trkpt>
      <trkpt lat="48.67811" lon="1.73388">
        <ele>170</ele>
        <time>2015-07-05T09:16:54.000Z</time>
      </trkpt>
      <trkpt lat="48.67805" lon="1.73392">
        <ele>170</ele>
        <time>2015-07-05T09:16:59.000Z</time>
      </trkpt>
      <trkpt lat="48.67799" lon="1.73399">
        <ele>170</ele>
        <time>2015-07-05T09:17:05.000Z</time>
      </trkpt>
      <trkpt lat="48.67791" lon="1.73408">
        <ele>170</ele>
        <time>2015-07-05T09:17:13.000Z</time>
      </trkpt>
      <trkpt lat="48.67785" lon="1.73413">
        <ele>170</ele>
        <time>2015-07-05T09:17:19.000Z</time>
      </trkpt>
      <trkpt lat="48.67775" lon="1.73418">
        <ele>170</ele>
        <time>2015-07-05T09:17:26.000Z</time>
      </trkpt>
      <trkpt lat="48.67766" lon="1.73427">
        <ele>170</ele>
        <time>2015-07-05T09:17:33.000Z</time>
      </trkpt>
      <trkpt lat="48.67758" lon="1.7344">
        <ele>170</ele>
        <time>2015-07-05T09:17:39.000Z</time>
      </trkpt>
      <trkpt lat="48.67752" lon="1.73457">
        <ele>170</ele>
        <time>2015-07-05T09:17:46.000Z</time>
      </trkpt>
      <trkpt lat="48.67753" lon="1.7347">
        <ele>170</ele>
        <time>2015-07-05T09:17:51.000Z</time>
      </trkpt>
      <trkpt lat="48.67753" lon="1.7348">
        <ele>170</ele>
        <time>2015-07-05T09:17:55.000Z</time>
      </trkpt>
      <trkpt lat="48.67756" lon="1.73488">
        <ele>170</ele>
        <time>2015-07-05T09:17:59.000Z</time>
      </trkpt>
      <trkpt lat="48.6776" lon="1.73502">
        <ele>170</ele>
        <time>2015-07-05T09:18:07.000Z</time>
      </trkpt>
      <trkpt lat="48.67761" lon="1.73514">
        <ele>170</ele>
        <time>2015-07-05T09:18:13.000Z</time>
      </trkpt>
      <trkpt lat="48.67764" lon="1.7353">
        <ele>170</ele>
        <time>2015-07-05T09:18:19.000Z</time>
      </trkpt>
      <trkpt lat="48.67763" lon="1.73548">
        <ele>170</ele>
        <time>2015-07-05T09:18:25.000Z</time>
      </trkpt>
      <trkpt lat="48.67765" lon="1.7356">
        <ele>170</ele>
        <time>2015-07-05T09:18:30.000Z</time>
      </trkpt>
      <trkpt lat="48.67768" lon="1.73574">
        <ele>170</ele>
        <time>2015-07-05T09:18:36.000Z</time>
      </trkpt>
      <trkpt lat="48.67769" lon="1.73583">
        <ele>170</ele>
        <time>2015-07-05T09:18:40.000Z</time>
      </trkpt>
      <trkpt lat="48.67772" lon="1.73599">
        <ele>169.5</ele>
        <time>2015-07-05T09:18:47.000Z</time>
      </trkpt>
      <trkpt lat="48.67773" lon="1.73602">
        <ele>169.5</ele>
        <time>2015-07-05T09:18:48.000Z</time>
      </trkpt>
      <trkpt lat="48.67775" lon="1.73611">
        <ele>169.1</ele>
        <time>2015-07-05T09:18:52.000Z</time>
      </trkpt>
      <trkpt lat="48.67777" lon="1.73627">
        <ele>169.6</ele>
        <time>2015-07-05T09:18:59.000Z</time>
      </trkpt>
      <trkpt lat="48.67777" lon="1.73639">
        <ele>170</ele>
        <time>2015-07-05T09:19:04.000Z</time>
      </trkpt>
      <trkpt lat="48.67781" lon="1.73654">
        <ele>169.9</ele>
        <time>2015-07-05T09:19:10.000Z</time>
      </trkpt>
      <trkpt lat="48.67781" lon="1.73667">
        <ele>169.9</ele>
        <time>2015-07-05T09:19:15.000Z</time>
      </trkpt>
      <trkpt lat="48.67783" lon="1.73677">
        <ele>169.5</ele>
        <time>2015-07-05T09:19:20.000Z</time>
      </trkpt>
      <trkpt lat="48.67786" lon="1.73699">
        <ele>169</ele>
        <time>2015-07-05T09:19:29.000Z</time>
      </trkpt>
      <trkpt lat="48.6779" lon="1.73715">
        <ele>169</ele>
        <time>2015-07-05T09:19:35.000Z</time>
      </trkpt>
      <trkpt lat="48.67792" lon="1.73733">
        <ele>169</ele>
        <time>2015-07-05T09:19:42.000Z</time>
      </trkpt>
      <trkpt lat="48.67793" lon="1.73745">
        <ele>169</ele>
        <time>2015-07-05T09:19:47.000Z</time>
      </trkpt>
      <trkpt lat="48.67797" lon="1.73766">
        <ele>169</ele>
        <time>2015-07-05T09:19:56.000Z</time>
      </trkpt>
      <trkpt lat="48.678" lon="1.73782">
        <ele>169</ele>
        <time>2015-07-05T09:20:02.000Z</time>
      </trkpt>
      <trkpt lat="48.67803" lon="1.73793">
        <ele>169</ele>
        <time>2015-07-05T09:20:08.000Z</time>
      </trkpt>
      <trkpt lat="48.67805" lon="1.73806">
        <ele>169</ele>
        <time>2015-07-05T09:20:14.000Z</time>
      </trkpt>
      <trkpt lat="48.67805" lon="1.73809">
        <ele>169</ele>
        <time>2015-07-05T09:20:15.000Z</time>
      </trkpt>
      <trkpt lat="48.67807" lon="1.73815">
        <ele>169</ele>
        <time>2015-07-05T09:20:17.000Z</time>
      </trkpt>
      <trkpt lat="48.67809" lon="1.73831">
        <ele>169</ele>
        <time>2015-07-05T09:20:24.000Z</time>
      </trkpt>
      <trkpt lat="48.6781" lon="1.73842">
        <ele>169</ele>
        <time>2015-07-05T09:20:28.000Z</time>
      </trkpt>
      <trkpt lat="48.67815" lon="1.73856">
        <ele>168.7</ele>
        <time>2015-07-05T09:20:34.000Z</time>
      </trkpt>
      <trkpt lat="48.67817" lon="1.73868">
        <ele>168.5</ele>
        <time>2015-07-05T09:20:39.000Z</time>
      </trkpt>
      <trkpt lat="48.67819" lon="1.73888">
        <ele>168</ele>
        <time>2015-07-05T09:20:47.000Z</time>
      </trkpt>
      <trkpt lat="48.67821" lon="1.73902">
        <ele>168</ele>
        <time>2015-07-05T09:20:53.000Z</time>
      </trkpt>
      <trkpt lat="48.67824" lon="1.73917">
        <ele>168</ele>
        <time>2015-07-05T09:20:59.000Z</time>
      </trkpt>
      <trkpt lat="48.67825" lon="1.73928">
        <ele>168</ele>
        <time>2015-07-05T09:21:05.000Z</time>
      </trkpt>
      <trkpt lat="48.67828" lon="1.7394">
        <ele>168</ele>
        <time>2015-07-05T09:21:10.000Z</time>
      </trkpt>
      <trkpt lat="48.6783" lon="1.73958">
        <ele>168</ele>
        <time>2015-07-05T09:21:16.000Z</time>
      </trkpt>
      <trkpt lat="48.67831" lon="1.73968">
        <ele>168</ele>
        <time>2015-07-05T09:21:21.000Z</time>
      </trkpt>
      <trkpt lat="48.67833" lon="1.73979">
        <ele>168</ele>
        <time>2015-07-05T09:21:26.000Z</time>
      </trkpt>
      <trkpt lat="48.67836" lon="1.7399">
        <ele>167.9</ele>
        <time>2015-07-05T09:21:30.000Z</time>
      </trkpt>
      <trkpt lat="48.67837" lon="1.73995">
        <ele>167.9</ele>
        <time>2015-07-05T09:21:32.000Z</time>
      </trkpt>
      <trkpt lat="48.67837" lon="1.7401">
        <ele>167.5</ele>
        <time>2015-07-05T09:21:38.000Z</time>
      </trkpt>
      <trkpt lat="48.6784" lon="1.74026">
        <ele>167.1</ele>
        <time>2015-07-05T09:21:45.000Z</time>
      </trkpt>
      <trkpt lat="48.67841" lon="1.74037">
        <ele>167</ele>
        <time>2015-07-05T09:21:50.000Z</time>
      </trkpt>
      <trkpt lat="48.67848" lon="1.7405">
        <ele>167</ele>
        <time>2015-07-05T09:21:56.000Z</time>
      </trkpt>
      <trkpt lat="48.67848" lon="1.74072">
        <ele>166.7</ele>
        <time>2015-07-05T09:22:04.000Z</time>
      </trkpt>
      <trkpt lat="48.67852" lon="1.74089">
        <ele>166.5</ele>
        <time>2015-07-05T09:22:10.000Z</time>
      </trkpt>
      <trkpt lat="48.67851" lon="1.74098">
        <ele>166.7</ele>
        <time>2015-07-05T09:22:14.000Z</time>
      </trkpt>
      <trkpt lat="48.67852" lon="1.74106">
        <ele>166.9</ele>
        <time>2015-07-05T09:22:18.000Z</time>
      </trkpt>
      <trkpt lat="48.67851" lon="1.74122">
        <ele>166.8</ele>
        <time>2015-07-05T09:22:24.000Z</time>
      </trkpt>
      <trkpt lat="48.67848" lon="1.74131">
        <ele>166.6</ele>
        <time>2015-07-05T09:22:28.000Z</time>
      </trkpt>
      <trkpt lat="48.67843" lon="1.74146">
        <ele>166.6</ele>
        <time>2015-07-05T09:22:35.000Z</time>
      </trkpt>
      <trkpt lat="48.67838" lon="1.74156">
        <ele>166.8</ele>
        <time>2015-07-05T09:22:40.000Z</time>
      </trkpt>
      <trkpt lat="48.67833" lon="1.74167">
        <ele>167</ele>
        <time>2015-07-05T09:22:45.000Z</time>
      </trkpt>
      <trkpt lat="48.67827" lon="1.74177">
        <ele>167</ele>
        <time>2015-07-05T09:22:51.000Z</time>
      </trkpt>
      <trkpt lat="48.67818" lon="1.74194">
        <ele>167</ele>
        <time>2015-07-05T09:22:58.000Z</time>
      </trkpt>
      <trkpt lat="48.67813" lon="1.74205">
        <ele>166.9</ele>
        <time>2015-07-05T09:23:05.000Z</time>
      </trkpt>
      <trkpt lat="48.67807" lon="1.74215">
        <ele>167</ele>
        <time>2015-07-05T09:23:11.000Z</time>
      </trkpt>
      <trkpt lat="48.67801" lon="1.74222">
        <ele>167</ele>
        <time>2015-07-05T09:23:17.000Z</time>
      </trkpt>
      <trkpt lat="48.67793" lon="1.74228">
        <ele>166.9</ele>
        <time>2015-07-05T09:23:24.000Z</time>
      </trkpt>
      <trkpt lat="48.67788" lon="1.74233">
        <ele>166.9</ele>
        <time>2015-07-05T09:23:26.000Z</time>
      </trkpt>
      <trkpt lat="48.67778" lon="1.74242">
        <ele>167</ele>
        <time>2015-07-05T09:23:32.000Z</time>
      </trkpt>
      <trkpt lat="48.67773" lon="1.74245">
        <ele>167</ele>
        <time>2015-07-05T09:23:35.000Z</time>
      </trkpt>
      <trkpt lat="48.67771" lon="1.74246">
        <ele>167</ele>
        <time>2015-07-05T09:23:37.000Z</time>
      </trkpt>
      <trkpt lat="48.67768" lon="1.74248">
        <ele>167</ele>
        <time>2015-07-05T09:23:41.000Z</time>
      </trkpt>
      <trkpt lat="48.67767" lon="1.74249">
        <ele>167</ele>
        <time>2015-07-05T09:23:44.000Z</time>
      </trkpt>
      <trkpt lat="48.67761" lon="1.74251">
        <ele>167</ele>
        <time>2015-07-05T09:23:45.000Z</time>
      </trkpt>
      <trkpt lat="48.67754" lon="1.74257">
        <ele>167</ele>
        <time>2015-07-05T09:23:50.000Z</time>
      </trkpt>
      <trkpt lat="48.6775" lon="1.74259">
        <ele>167</ele>
        <time>2015-07-05T09:23:53.000Z</time>
      </trkpt>
      <trkpt lat="48.67748" lon="1.7426">
        <ele>167.1</ele>
        <time>2015-07-05T09:23:55.000Z</time>
      </trkpt>
      <trkpt lat="48.67739" lon="1.74267">
        <ele>167.4</ele>
        <time>2015-07-05T09:24:00.000Z</time>
      </trkpt>
      <trkpt lat="48.67731" lon="1.74275">
        <ele>167.7</ele>
        <time>2015-07-05T09:24:05.000Z</time>
      </trkpt>
      <trkpt lat="48.67718" lon="1.74284">
        <ele>167.8</ele>
        <time>2015-07-05T09:24:13.000Z</time>
      </trkpt>
      <trkpt lat="48.67709" lon="1.74289">
        <ele>167.8</ele>
        <time>2015-07-05T09:24:20.000Z</time>
      </trkpt>
      <trkpt lat="48.67698" lon="1.74296">
        <ele>167.9</ele>
        <time>2015-07-05T09:24:27.000Z</time>
      </trkpt>
      <trkpt lat="48.67692" lon="1.74299">
        <ele>167.9</ele>
        <time>2015-07-05T09:24:32.000Z</time>
      </trkpt>
      <trkpt lat="48.67687" lon="1.74301">
        <ele>167.8</ele>
        <time>2015-07-05T09:24:36.000Z</time>
      </trkpt>
      <trkpt lat="48.67677" lon="1.74298">
        <ele>167.5</ele>
        <time>2015-07-05T09:24:42.000Z</time>
      </trkpt>
      <trkpt lat="48.67675" lon="1.74295">
        <ele>167.6</ele>
        <time>2015-07-05T09:24:45.000Z</time>
      </trkpt>
      <trkpt lat="48.67662" lon="1.74297">
        <ele>167.2</ele>
        <time>2015-07-05T09:24:52.000Z</time>
      </trkpt>
      <trkpt lat="48.6766" lon="1.74298">
        <ele>167</ele>
        <time>2015-07-05T09:24:53.000Z</time>
      </trkpt>
      <trkpt lat="48.6765" lon="1.7431">
        <ele>166.4</ele>
        <time>2015-07-05T09:25:00.000Z</time>
      </trkpt>
      <trkpt lat="48.67644" lon="1.74317">
        <ele>166.2</ele>
        <time>2015-07-05T09:25:04.000Z</time>
      </trkpt>
      <trkpt lat="48.67637" lon="1.74326">
        <ele>165.9</ele>
        <time>2015-07-05T09:25:10.000Z</time>
      </trkpt>
      <trkpt lat="48.67632" lon="1.74332">
        <ele>165.8</ele>
        <time>2015-07-05T09:25:16.000Z</time>
      </trkpt>
      <trkpt lat="48.67631" lon="1.74333">
        <ele>165.7</ele>
        <time>2015-07-05T09:25:17.000Z</time>
      </trkpt>
      <trkpt lat="48.67625" lon="1.74343">
        <ele>164.8</ele>
        <time>2015-07-05T09:25:22.000Z</time>
      </trkpt>
      <trkpt lat="48.6762" lon="1.7435">
        <ele>163.9</ele>
        <time>2015-07-05T09:25:26.000Z</time>
      </trkpt>
      <trkpt lat="48.6762" lon="1.74351">
        <ele>163.8</ele>
        <time>2015-07-05T09:25:27.000Z</time>
      </trkpt>
      <trkpt lat="48.67615" lon="1.74361">
        <ele>162.5</ele>
        <time>2015-07-05T09:25:32.000Z</time>
      </trkpt>
      <trkpt lat="48.67608" lon="1.74371">
        <ele>162.3</ele>
        <time>2015-07-05T09:25:39.000Z</time>
      </trkpt>
      <trkpt lat="48.67597" lon="1.74391">
        <ele>161.9</ele>
        <time>2015-07-05T09:25:48.000Z</time>
      </trkpt>
      <trkpt lat="48.67588" lon="1.74409">
        <ele>160.1</ele>
        <time>2015-07-05T09:25:57.000Z</time>
      </trkpt>
      <trkpt lat="48.67585" lon="1.74415">
        <ele>159.4</ele>
        <time>2015-07-05T09:26:00.000Z</time>
      </trkpt>
      <trkpt lat="48.67582" lon="1.74427">
        <ele>159.3</ele>
        <time>2015-07-05T09:26:05.000Z</time>
      </trkpt>
      <trkpt lat="48.67581" lon="1.74431">
        <ele>159.4</ele>
        <time>2015-07-05T09:26:07.000Z</time>
      </trkpt>
      <trkpt lat="48.67577" lon="1.74441">
        <ele>159.4</ele>
        <time>2015-07-05T09:26:13.000Z</time>
      </trkpt>
      <trkpt lat="48.67571" lon="1.74458">
        <ele>159.1</ele>
        <time>2015-07-05T09:26:21.000Z</time>
      </trkpt>
      <trkpt lat="48.67565" lon="1.74476">
        <ele>158.4</ele>
        <time>2015-07-05T09:26:29.000Z</time>
      </trkpt>
      <trkpt lat="48.67561" lon="1.7449">
        <ele>157.4</ele>
        <time>2015-07-05T09:26:35.000Z</time>
      </trkpt>
      <trkpt lat="48.67559" lon="1.74509">
        <ele>157.2</ele>
        <time>2015-07-05T09:26:43.000Z</time>
      </trkpt>
      <trkpt lat="48.67555" lon="1.74521">
        <ele>156.7</ele>
        <time>2015-07-05T09:26:49.000Z</time>
      </trkpt>
      <trkpt lat="48.67546" lon="1.74538">
        <ele>155.1</ele>
        <time>2015-07-05T09:26:58.000Z</time>
      </trkpt>
      <trkpt lat="48.67539" lon="1.74558">
        <ele>152.8</ele>
        <time>2015-07-05T09:27:07.000Z</time>
      </trkpt>
      <trkpt lat="48.67529" lon="1.74582">
        <ele>150.1</ele>
        <time>2015-07-05T09:27:19.000Z</time>
      </trkpt>
      <trkpt lat="48.6752" lon="1.74599">
        <ele>149.7</ele>
        <time>2015-07-05T09:27:28.000Z</time>
      </trkpt>
      <trkpt lat="48.67513" lon="1.74621">
        <ele>149.8</ele>
        <time>2015-07-05T09:27:38.000Z</time>
      </trkpt>
      <trkpt lat="48.67505" lon="1.74641">
        <ele>148.1</ele>
        <time>2015-07-05T09:27:48.000Z</time>
      </trkpt>
      <trkpt lat="48.67496" lon="1.74661">
        <ele>146.1</ele>
        <time>2015-07-05T09:27:58.000Z</time>
      </trkpt>
      <trkpt lat="48.67492" lon="1.74677">
        <ele>146</ele>
        <time>2015-07-05T09:28:05.000Z</time>
      </trkpt>
      <trkpt lat="48.67487" lon="1.74693">
        <ele>146</ele>
        <time>2015-07-05T09:28:12.000Z</time>
      </trkpt>
      <trkpt lat="48.67482" lon="1.74708">
        <ele>144.9</ele>
        <time>2015-07-05T09:28:18.000Z</time>
      </trkpt>
      <trkpt lat="48.67476" lon="1.74724">
        <ele>143.4</ele>
        <time>2015-07-05T09:28:26.000Z</time>
      </trkpt>
      <trkpt lat="48.67468" lon="1.74747">
        <ele>142.7</ele>
        <time>2015-07-05T09:28:36.000Z</time>
      </trkpt>
      <trkpt lat="48.6746" lon="1.74762">
        <ele>141.9</ele>
        <time>2015-07-05T09:28:45.000Z</time>
      </trkpt>
      <trkpt lat="48.67453" lon="1.74769">
        <ele>141.4</ele>
        <time>2015-07-05T09:28:51.000Z</time>
      </trkpt>
      <trkpt lat="48.67448" lon="1.74774">
        <ele>141.2</ele>
        <time>2015-07-05T09:28:58.000Z</time>
      </trkpt>
      <trkpt lat="48.67444" lon="1.74781">
        <ele>141</ele>
        <time>2015-07-05T09:29:05.000Z</time>
      </trkpt>
      <trkpt lat="48.67435" lon="1.74792">
        <ele>140.7</ele>
        <time>2015-07-05T09:29:12.000Z</time>
      </trkpt>
      <trkpt lat="48.67426" lon="1.748">
        <ele>140.3</ele>
        <time>2015-07-05T09:29:20.000Z</time>
      </trkpt>
      <trkpt lat="48.67426" lon="1.74802">
        <ele>140.3</ele>
        <time>2015-07-05T09:29:23.000Z</time>
      </trkpt>
      <trkpt lat="48.67429" lon="1.74812">
        <ele>140.3</ele>
        <time>2015-07-05T09:30:13.000Z</time>
      </trkpt>
      <trkpt lat="48.67431" lon="1.74816">
        <ele>140.3</ele>
        <time>2015-07-05T09:30:18.000Z</time>
      </trkpt>
      <trkpt lat="48.67428" lon="1.74807">
        <ele>140.4</ele>
        <time>2015-07-05T09:34:26.000Z</time>
      </trkpt>
      <trkpt lat="48.67426" lon="1.74813">
        <ele>140.2</ele>
        <time>2015-07-05T09:34:33.000Z</time>
      </trkpt>
      <trkpt lat="48.67426" lon="1.74815">
        <ele>140.2</ele>
        <time>2015-07-05T09:34:36.000Z</time>
      </trkpt>
      <trkpt lat="48.67427" lon="1.74803">
        <ele>140.4</ele>
        <time>2015-07-05T09:34:57.000Z</time>
      </trkpt>
      <trkpt lat="48.67428" lon="1.74809">
        <ele>140.3</ele>
        <time>2015-07-05T09:36:03.000Z</time>
      </trkpt>
      <trkpt lat="48.67427" lon="1.74807">
        <ele>140.4</ele>
        <time>2015-07-05T09:36:04.000Z</time>
      </trkpt>
      <trkpt lat="48.67424" lon="1.74803">
        <ele>140.3</ele>
        <time>2015-07-05T09:36:10.000Z</time>
      </trkpt>
      <trkpt lat="48.67403" lon="1.74811">
        <ele>140.5</ele>
        <time>2015-07-05T09:37:21.000Z</time>
      </trkpt>
      <trkpt lat="48.674" lon="1.74817">
        <ele>140.6</ele>
        <time>2015-07-05T09:37:24.000Z</time>
      </trkpt>
      <trkpt lat="48.67391" lon="1.74827">
        <ele>140.9</ele>
        <time>2015-07-05T09:37:33.000Z</time>
      </trkpt>
      <trkpt lat="48.67382" lon="1.7484">
        <ele>141</ele>
        <time>2015-07-05T09:37:42.000Z</time>
      </trkpt>
      <trkpt lat="48.6737" lon="1.74852">
        <ele>141</ele>
        <time>2015-07-05T09:37:52.000Z</time>
      </trkpt>
      <trkpt lat="48.67366" lon="1.74858">
        <ele>141</ele>
        <time>2015-07-05T09:37:57.000Z</time>
      </trkpt>
      <trkpt lat="48.67354" lon="1.74863">
        <ele>141.3</ele>
        <time>2015-07-05T09:38:05.000Z</time>
      </trkpt>
      <trkpt lat="48.67348" lon="1.74866">
        <ele>141.5</ele>
        <time>2015-07-05T09:38:10.000Z</time>
      </trkpt>
      <trkpt lat="48.6734" lon="1.74872">
        <ele>141.8</ele>
        <time>2015-07-05T09:38:16.000Z</time>
      </trkpt>
      <trkpt lat="48.6733" lon="1.74882">
        <ele>142.1</ele>
        <time>2015-07-05T09:38:24.000Z</time>
      </trkpt>
      <trkpt lat="48.67323" lon="1.74886">
        <ele>142.3</ele>
        <time>2015-07-05T09:38:29.000Z</time>
      </trkpt>
      <trkpt lat="48.67312" lon="1.74892">
        <ele>142.9</ele>
        <time>2015-07-05T09:38:37.000Z</time>
      </trkpt>
      <trkpt lat="48.67301" lon="1.749">
        <ele>143.6</ele>
        <time>2015-07-05T09:38:45.000Z</time>
      </trkpt>
      <trkpt lat="48.67291" lon="1.74897">
        <ele>143.8</ele>
        <time>2015-07-05T09:38:52.000Z</time>
      </trkpt>
      <trkpt lat="48.6728" lon="1.74894">
        <ele>144.1</ele>
        <time>2015-07-05T09:38:59.000Z</time>
      </trkpt>
      <trkpt lat="48.67265" lon="1.74892">
        <ele>145</ele>
        <time>2015-07-05T09:39:09.000Z</time>
      </trkpt>
      <trkpt lat="48.6725" lon="1.74888">
        <ele>146</ele>
        <time>2015-07-05T09:39:19.000Z</time>
      </trkpt>
      <trkpt lat="48.67236" lon="1.74884">
        <ele>146.3</ele>
        <time>2015-07-05T09:39:28.000Z</time>
      </trkpt>
      <trkpt lat="48.67222" lon="1.74881">
        <ele>146.7</ele>
        <time>2015-07-05T09:39:37.000Z</time>
      </trkpt>
      <trkpt lat="48.67208" lon="1.7488">
        <ele>147</ele>
        <time>2015-07-05T09:39:46.000Z</time>
      </trkpt>
      <trkpt lat="48.67198" lon="1.74877">
        <ele>147.1</ele>
        <time>2015-07-05T09:39:53.000Z</time>
      </trkpt>
      <trkpt lat="48.6719" lon="1.74875">
        <ele>147.4</ele>
        <time>2015-07-05T09:39:58.000Z</time>
      </trkpt>
      <trkpt lat="48.67183" lon="1.74874">
        <ele>147.9</ele>
        <time>2015-07-05T09:40:03.000Z</time>
      </trkpt>
      <trkpt lat="48.67171" lon="1.74872">
        <ele>148.7</ele>
        <time>2015-07-05T09:40:12.000Z</time>
      </trkpt>
      <trkpt lat="48.6716" lon="1.74871">
        <ele>149.5</ele>
        <time>2015-07-05T09:40:20.000Z</time>
      </trkpt>
      <trkpt lat="48.67149" lon="1.74869">
        <ele>149.8</ele>
        <time>2015-07-05T09:40:27.000Z</time>
      </trkpt>
      <trkpt lat="48.67135" lon="1.74867">
        <ele>150.3</ele>
        <time>2015-07-05T09:40:37.000Z</time>
      </trkpt>
      <trkpt lat="48.67122" lon="1.74866">
        <ele>150.5</ele>
        <time>2015-07-05T09:40:46.000Z</time>
      </trkpt>
      <trkpt lat="48.6711" lon="1.74866">
        <ele>150.9</ele>
        <time>2015-07-05T09:40:54.000Z</time>
      </trkpt>
      <trkpt lat="48.671" lon="1.74867">
        <ele>151.2</ele>
        <time>2015-07-05T09:41:00.000Z</time>
      </trkpt>
      <trkpt lat="48.67091" lon="1.74868">
        <ele>151.6</ele>
        <time>2015-07-05T09:41:06.000Z</time>
      </trkpt>
      <trkpt lat="48.67076" lon="1.74871">
        <ele>152</ele>
        <time>2015-07-05T09:41:14.000Z</time>
      </trkpt>
      <trkpt lat="48.67062" lon="1.74876">
        <ele>152.2</ele>
        <time>2015-07-05T09:41:22.000Z</time>
      </trkpt>
      <trkpt lat="48.67052" lon="1.74884">
        <ele>152.6</ele>
        <time>2015-07-05T09:41:30.000Z</time>
      </trkpt>
      <trkpt lat="48.67045" lon="1.74899">
        <ele>153.4</ele>
        <time>2015-07-05T09:41:38.000Z</time>
      </trkpt>
      <trkpt lat="48.67039" lon="1.74906">
        <ele>153.6</ele>
        <time>2015-07-05T09:41:42.000Z</time>
      </trkpt>
      <trkpt lat="48.6703" lon="1.74922">
        <ele>153.7</ele>
        <time>2015-07-05T09:41:49.000Z</time>
      </trkpt>
      <trkpt lat="48.67023" lon="1.7494">
        <ele>154.4</ele>
        <time>2015-07-05T09:41:57.000Z</time>
      </trkpt>
      <trkpt lat="48.67016" lon="1.74962">
        <ele>154.5</ele>
        <time>2015-07-05T09:42:07.000Z</time>
      </trkpt>
      <trkpt lat="48.67011" lon="1.74976">
        <ele>154.3</ele>
        <time>2015-07-05T09:42:14.000Z</time>
      </trkpt>
      <trkpt lat="48.67003" lon="1.74993">
        <ele>154.1</ele>
        <time>2015-07-05T09:42:23.000Z</time>
      </trkpt>
      <trkpt lat="48.66997" lon="1.7501">
        <ele>154.8</ele>
        <time>2015-07-05T09:42:31.000Z</time>
      </trkpt>
      <trkpt lat="48.6699" lon="1.75028">
        <ele>155.6</ele>
        <time>2015-07-05T09:42:40.000Z</time>
      </trkpt>
      <trkpt lat="48.66985" lon="1.75044">
        <ele>155.7</ele>
        <time>2015-07-05T09:42:48.000Z</time>
      </trkpt>
      <trkpt lat="48.66979" lon="1.75058">
        <ele>155.7</ele>
        <time>2015-07-05T09:42:55.000Z</time>
      </trkpt>
      <trkpt lat="48.66972" lon="1.75073">
        <ele>156.3</ele>
        <time>2015-07-05T09:43:02.000Z</time>
      </trkpt>
      <trkpt lat="48.66964" lon="1.75088">
        <ele>156.8</ele>
        <time>2015-07-05T09:43:10.000Z</time>
      </trkpt>
      <trkpt lat="48.66954" lon="1.75104">
        <ele>156.6</ele>
        <time>2015-07-05T09:43:18.000Z</time>
      </trkpt>
      <trkpt lat="48.66943" lon="1.7512">
        <ele>157.1</ele>
        <time>2015-07-05T09:43:27.000Z</time>
      </trkpt>
      <trkpt lat="48.66936" lon="1.75131">
        <ele>158.1</ele>
        <time>2015-07-05T09:43:33.000Z</time>
      </trkpt>
      <trkpt lat="48.6693" lon="1.75139">
        <ele>158.5</ele>
        <time>2015-07-05T09:43:38.000Z</time>
      </trkpt>
      <trkpt lat="48.66921" lon="1.75157">
        <ele>158.5</ele>
        <time>2015-07-05T09:43:48.000Z</time>
      </trkpt>
      <trkpt lat="48.66914" lon="1.7517">
        <ele>158.4</ele>
        <time>2015-07-05T09:43:55.000Z</time>
      </trkpt>
      <trkpt lat="48.66907" lon="1.75187">
        <ele>159.8</ele>
        <time>2015-07-05T09:44:04.000Z</time>
      </trkpt>
      <trkpt lat="48.66899" lon="1.75206">
        <ele>160.4</ele>
        <time>2015-07-05T09:44:13.000Z</time>
      </trkpt>
      <trkpt lat="48.66892" lon="1.75222">
        <ele>160.5</ele>
        <time>2015-07-05T09:44:19.000Z</time>
      </trkpt>
      <trkpt lat="48.66883" lon="1.75241">
        <ele>161.8</ele>
        <time>2015-07-05T09:44:23.000Z</time>
      </trkpt>
      <trkpt lat="48.66866" lon="1.75264">
        <ele>162.3</ele>
        <time>2015-07-05T09:44:28.000Z</time>
      </trkpt>
      <trkpt lat="48.6686" lon="1.75273">
        <ele>162.6</ele>
        <time>2015-07-05T09:44:30.000Z</time>
      </trkpt>
      <trkpt lat="48.66844" lon="1.75299">
        <ele>163.4</ele>
        <time>2015-07-05T09:44:35.000Z</time>
      </trkpt>
      <trkpt lat="48.6682" lon="1.75338">
        <ele>164.4</ele>
        <time>2015-07-05T09:44:42.000Z</time>
      </trkpt>
      <trkpt lat="48.66794" lon="1.75365">
        <ele>165.8</ele>
        <time>2015-07-05T09:44:47.000Z</time>
      </trkpt>
      <trkpt lat="48.66766" lon="1.75399">
        <ele>167.2</ele>
        <time>2015-07-05T09:44:53.000Z</time>
      </trkpt>
      <trkpt lat="48.66738" lon="1.75452">
        <ele>168.3</ele>
        <time>2015-07-05T09:45:01.000Z</time>
      </trkpt>
      <trkpt lat="48.66711" lon="1.75492">
        <ele>169</ele>
        <time>2015-07-05T09:45:08.000Z</time>
      </trkpt>
      <trkpt lat="48.66683" lon="1.75537">
        <ele>169.6</ele>
        <time>2015-07-05T09:45:16.000Z</time>
      </trkpt>
      <trkpt lat="48.66656" lon="1.75582">
        <ele>170</ele>
        <time>2015-07-05T09:45:24.000Z</time>
      </trkpt>
      <trkpt lat="48.66635" lon="1.75617">
        <ele>170</ele>
        <time>2015-07-05T09:45:31.000Z</time>
      </trkpt>
      <trkpt lat="48.66612" lon="1.75657">
        <ele>170</ele>
        <time>2015-07-05T09:45:40.000Z</time>
      </trkpt>
      <trkpt lat="48.66603" lon="1.7567">
        <ele>170</ele>
        <time>2015-07-05T09:45:45.000Z</time>
      </trkpt>
      <trkpt lat="48.66596" lon="1.75681">
        <ele>170</ele>
        <time>2015-07-05T09:45:53.000Z</time>
      </trkpt>
      <trkpt lat="48.66593" lon="1.75692">
        <ele>170</ele>
        <time>2015-07-05T09:46:00.000Z</time>
      </trkpt>
      <trkpt lat="48.66593" lon="1.75693">
        <ele>170</ele>
        <time>2015-07-05T09:46:02.000Z</time>
      </trkpt>
      <trkpt lat="48.666" lon="1.75701">
        <ele>170</ele>
        <time>2015-07-05T09:50:34.000Z</time>
      </trkpt>
      <trkpt lat="48.66602" lon="1.75703">
        <ele>170</ele>
        <time>2015-07-05T09:50:38.000Z</time>
      </trkpt>
      <trkpt lat="48.66606" lon="1.75709">
        <ele>170</ele>
        <time>2015-07-05T09:50:49.000Z</time>
      </trkpt>
      <trkpt lat="48.66607" lon="1.75711">
        <ele>170</ele>
        <time>2015-07-05T09:50:50.000Z</time>
      </trkpt>
      <trkpt lat="48.66614" lon="1.75724">
        <ele>170</ele>
        <time>2015-07-05T09:50:56.000Z</time>
      </trkpt>
      <trkpt lat="48.66618" lon="1.7573">
        <ele>170</ele>
        <time>2015-07-05T09:50:59.000Z</time>
      </trkpt>
      <trkpt lat="48.66626" lon="1.75747">
        <ele>170</ele>
        <time>2015-07-05T09:51:07.000Z</time>
      </trkpt>
      <trkpt lat="48.66631" lon="1.75755">
        <ele>170</ele>
        <time>2015-07-05T09:51:11.000Z</time>
      </trkpt>
      <trkpt lat="48.66636" lon="1.75764">
        <ele>170</ele>
        <time>2015-07-05T09:51:16.000Z</time>
      </trkpt>
      <trkpt lat="48.66643" lon="1.75779">
        <ele>170</ele>
        <time>2015-07-05T09:51:23.000Z</time>
      </trkpt>
      <trkpt lat="48.66651" lon="1.75796">
        <ele>170</ele>
        <time>2015-07-05T09:51:32.000Z</time>
      </trkpt>
      <trkpt lat="48.66659" lon="1.75806">
        <ele>170</ele>
        <time>2015-07-05T09:51:38.000Z</time>
      </trkpt>
      <trkpt lat="48.66663" lon="1.75815">
        <ele>170</ele>
        <time>2015-07-05T09:51:42.000Z</time>
      </trkpt>
      <trkpt lat="48.6667" lon="1.75829">
        <ele>170</ele>
        <time>2015-07-05T09:51:49.000Z</time>
      </trkpt>
      <trkpt lat="48.66677" lon="1.7584">
        <ele>170</ele>
        <time>2015-07-05T09:51:55.000Z</time>
      </trkpt>
      <trkpt lat="48.66687" lon="1.75858">
        <ele>170</ele>
        <time>2015-07-05T09:52:04.000Z</time>
      </trkpt>
      <trkpt lat="48.66695" lon="1.75871">
        <ele>170</ele>
        <time>2015-07-05T09:52:11.000Z</time>
      </trkpt>
      <trkpt lat="48.66702" lon="1.75884">
        <ele>170.3</ele>
        <time>2015-07-05T09:52:17.000Z</time>
      </trkpt>
      <trkpt lat="48.66714" lon="1.75901">
        <ele>170.7</ele>
        <time>2015-07-05T09:52:26.000Z</time>
      </trkpt>
      <trkpt lat="48.66724" lon="1.75921">
        <ele>170.9</ele>
        <time>2015-07-05T09:52:36.000Z</time>
      </trkpt>
      <trkpt lat="48.6673" lon="1.75936">
        <ele>170.7</ele>
        <time>2015-07-05T09:52:43.000Z</time>
      </trkpt>
      <trkpt lat="48.66733" lon="1.75944">
        <ele>170.6</ele>
        <time>2015-07-05T09:52:47.000Z</time>
      </trkpt>
      <trkpt lat="48.66737" lon="1.75958">
        <ele>170.2</ele>
        <time>2015-07-05T09:52:54.000Z</time>
      </trkpt>
      <trkpt lat="48.66741" lon="1.75966">
        <ele>170.1</ele>
        <time>2015-07-05T09:52:58.000Z</time>
      </trkpt>
      <trkpt lat="48.66742" lon="1.75968">
        <ele>170</ele>
        <time>2015-07-05T09:52:59.000Z</time>
      </trkpt>
      <trkpt lat="48.66748" lon="1.75979">
        <ele>170</ele>
        <time>2015-07-05T09:53:04.000Z</time>
      </trkpt>
      <trkpt lat="48.66756" lon="1.75994">
        <ele>170</ele>
        <time>2015-07-05T09:53:11.000Z</time>
      </trkpt>
      <trkpt lat="48.66766" lon="1.76011">
        <ele>170</ele>
        <time>2015-07-05T09:53:19.000Z</time>
      </trkpt>
      <trkpt lat="48.66776" lon="1.76026">
        <ele>170</ele>
        <time>2015-07-05T09:53:27.000Z</time>
      </trkpt>
      <trkpt lat="48.66786" lon="1.76042">
        <ele>170</ele>
        <time>2015-07-05T09:53:35.000Z</time>
      </trkpt>
      <trkpt lat="48.668" lon="1.76061">
        <ele>170</ele>
        <time>2015-07-05T09:53:46.000Z</time>
      </trkpt>
      <trkpt lat="48.66802" lon="1.76062">
        <ele>170</ele>
        <time>2015-07-05T09:53:47.000Z</time>
      </trkpt>
      <trkpt lat="48.66811" lon="1.76074">
        <ele>170</ele>
        <time>2015-07-05T09:53:54.000Z</time>
      </trkpt>
      <trkpt lat="48.66823" lon="1.76088">
        <ele>170</ele>
        <time>2015-07-05T09:54:03.000Z</time>
      </trkpt>
      <trkpt lat="48.66839" lon="1.761">
        <ele>169.9</ele>
        <time>2015-07-05T09:54:13.000Z</time>
      </trkpt>
      <trkpt lat="48.66853" lon="1.76112">
        <ele>169.3</ele>
        <time>2015-07-05T09:54:22.000Z</time>
      </trkpt>
      <trkpt lat="48.66866" lon="1.76124">
        <ele>169</ele>
        <time>2015-07-05T09:54:31.000Z</time>
      </trkpt>
      <trkpt lat="48.6688" lon="1.76137">
        <ele>169</ele>
        <time>2015-07-05T09:54:40.000Z</time>
      </trkpt>
      <trkpt lat="48.66889" lon="1.76146">
        <ele>169</ele>
        <time>2015-07-05T09:54:46.000Z</time>
      </trkpt>
      <trkpt lat="48.66902" lon="1.76155">
        <ele>169</ele>
        <time>2015-07-05T09:54:54.000Z</time>
      </trkpt>
      <trkpt lat="48.66915" lon="1.76161">
        <ele>169</ele>
        <time>2015-07-05T09:55:02.000Z</time>
      </trkpt>
      <trkpt lat="48.66928" lon="1.76168">
        <ele>168.6</ele>
        <time>2015-07-05T09:55:09.000Z</time>
      </trkpt>
      <trkpt lat="48.66935" lon="1.76172">
        <ele>168.3</ele>
        <time>2015-07-05T09:55:14.000Z</time>
      </trkpt>
      <trkpt lat="48.66946" lon="1.7618">
        <ele>168</ele>
        <time>2015-07-05T09:55:21.000Z</time>
      </trkpt>
      <trkpt lat="48.66962" lon="1.7619">
        <ele>167.5</ele>
        <time>2015-07-05T09:55:30.000Z</time>
      </trkpt>
      <trkpt lat="48.66974" lon="1.76198">
        <ele>167</ele>
        <time>2015-07-05T09:55:37.000Z</time>
      </trkpt>
      <trkpt lat="48.66983" lon="1.76204">
        <ele>167</ele>
        <time>2015-07-05T09:55:43.000Z</time>
      </trkpt>
      <trkpt lat="48.66992" lon="1.76211">
        <ele>167</ele>
        <time>2015-07-05T09:55:50.000Z</time>
      </trkpt>
      <trkpt lat="48.66995" lon="1.76211">
        <ele>167</ele>
        <time>2015-07-05T09:55:54.000Z</time>
      </trkpt>
      <trkpt lat="48.66998" lon="1.76218">
        <ele>167</ele>
        <time>2015-07-05T09:56:00.000Z</time>
      </trkpt>
      <trkpt lat="48.66994" lon="1.76231">
        <ele>166.7</ele>
        <time>2015-07-05T09:56:04.000Z</time>
      </trkpt>
      <trkpt lat="48.66992" lon="1.76235">
        <ele>166.7</ele>
        <time>2015-07-05T09:56:06.000Z</time>
      </trkpt>
      <trkpt lat="48.66988" lon="1.76252">
        <ele>166.4</ele>
        <time>2015-07-05T09:56:13.000Z</time>
      </trkpt>
      <trkpt lat="48.66988" lon="1.7626">
        <ele>166.4</ele>
        <time>2015-07-05T09:56:17.000Z</time>
      </trkpt>
      <trkpt lat="48.66994" lon="1.76274">
        <ele>166.2</ele>
        <time>2015-07-05T09:56:24.000Z</time>
      </trkpt>
      <trkpt lat="48.66995" lon="1.76276">
        <ele>166.2</ele>
        <time>2015-07-05T09:56:25.000Z</time>
      </trkpt>
      <trkpt lat="48.66998" lon="1.76291">
        <ele>165.6</ele>
        <time>2015-07-05T09:56:32.000Z</time>
      </trkpt>
      <trkpt lat="48.67002" lon="1.76298">
        <ele>165.2</ele>
        <time>2015-07-05T09:56:37.000Z</time>
      </trkpt>
      <trkpt lat="48.6701" lon="1.76303">
        <ele>164.7</ele>
        <time>2015-07-05T09:56:53.000Z</time>
      </trkpt>
      <trkpt lat="48.67011" lon="1.76302">
        <ele>164.7</ele>
        <time>2015-07-05T09:56:55.000Z</time>
      </trkpt>
      <trkpt lat="48.66996" lon="1.76339">
        <ele>165.2</ele>
        <time>2015-07-05T09:58:15.000Z</time>
      </trkpt>
      <trkpt lat="48.66992" lon="1.76346">
        <ele>165.3</ele>
        <time>2015-07-05T09:58:18.000Z</time>
      </trkpt>
      <trkpt lat="48.66983" lon="1.76362">
        <ele>165.6</ele>
        <time>2015-07-05T09:58:26.000Z</time>
      </trkpt>
      <trkpt lat="48.66974" lon="1.76375">
        <ele>165.4</ele>
        <time>2015-07-05T09:58:33.000Z</time>
      </trkpt>
      <trkpt lat="48.66967" lon="1.76384">
        <ele>165.3</ele>
        <time>2015-07-05T09:58:38.000Z</time>
      </trkpt>
      <trkpt lat="48.66959" lon="1.76391">
        <ele>165.4</ele>
        <time>2015-07-05T09:58:45.000Z</time>
      </trkpt>
      <trkpt lat="48.66953" lon="1.76401">
        <ele>165.4</ele>
        <time>2015-07-05T09:58:51.000Z</time>
      </trkpt>
      <trkpt lat="48.66948" lon="1.76409">
        <ele>165.2</ele>
        <time>2015-07-05T09:58:55.000Z</time>
      </trkpt>
      <trkpt lat="48.66941" lon="1.76422">
        <ele>165.1</ele>
        <time>2015-07-05T09:59:02.000Z</time>
      </trkpt>
      <trkpt lat="48.6693" lon="1.76436">
        <ele>165.5</ele>
        <time>2015-07-05T09:59:07.000Z</time>
      </trkpt>
      <trkpt lat="48.66925" lon="1.76445">
        <ele>165.7</ele>
        <time>2015-07-05T09:59:12.000Z</time>
      </trkpt>
      <trkpt lat="48.66917" lon="1.76458">
        <ele>165.5</ele>
        <time>2015-07-05T09:59:19.000Z</time>
      </trkpt>
      <trkpt lat="48.66909" lon="1.76467">
        <ele>165.2</ele>
        <time>2015-07-05T09:59:26.000Z</time>
      </trkpt>
      <trkpt lat="48.66907" lon="1.76471">
        <ele>165.1</ele>
        <time>2015-07-05T09:59:28.000Z</time>
      </trkpt>
      <trkpt lat="48.669" lon="1.76477">
        <ele>165</ele>
        <time>2015-07-05T09:59:32.000Z</time>
      </trkpt>
      <trkpt lat="48.66893" lon="1.76489">
        <ele>165</ele>
        <time>2015-07-05T09:59:39.000Z</time>
      </trkpt>
      <trkpt lat="48.66888" lon="1.76501">
        <ele>165</ele>
        <time>2015-07-05T09:59:46.000Z</time>
      </trkpt>
      <trkpt lat="48.66879" lon="1.76513">
        <ele>165.3</ele>
        <time>2015-07-05T09:59:53.000Z</time>
      </trkpt>
      <trkpt lat="48.66873" lon="1.76523">
        <ele>165.6</ele>
        <time>2015-07-05T09:59:59.000Z</time>
      </trkpt>
      <trkpt lat="48.66867" lon="1.76536">
        <ele>165.6</ele>
        <time>2015-07-05T10:00:06.000Z</time>
      </trkpt>
      <trkpt lat="48.66866" lon="1.76537">
        <ele>165.5</ele>
        <time>2015-07-05T10:00:07.000Z</time>
      </trkpt>
      <trkpt lat="48.66861" lon="1.76551">
        <ele>165.2</ele>
        <time>2015-07-05T10:00:13.000Z</time>
      </trkpt>
      <trkpt lat="48.66859" lon="1.76555">
        <ele>165.1</ele>
        <time>2015-07-05T10:00:15.000Z</time>
      </trkpt>
      <trkpt lat="48.66854" lon="1.76566">
        <ele>165.2</ele>
        <time>2015-07-05T10:00:21.000Z</time>
      </trkpt>
      <trkpt lat="48.66847" lon="1.76574">
        <ele>165.2</ele>
        <time>2015-07-05T10:00:25.000Z</time>
      </trkpt>
      <trkpt lat="48.66839" lon="1.76584">
        <ele>165</ele>
        <time>2015-07-05T10:00:31.000Z</time>
      </trkpt>
      <trkpt lat="48.66834" lon="1.76592">
        <ele>165</ele>
        <time>2015-07-05T10:00:36.000Z</time>
      </trkpt>
      <trkpt lat="48.66833" lon="1.76593">
        <ele>165</ele>
        <time>2015-07-05T10:00:37.000Z</time>
      </trkpt>
      <trkpt lat="48.66825" lon="1.76604">
        <ele>165.1</ele>
        <time>2015-07-05T10:00:44.000Z</time>
      </trkpt>
      <trkpt lat="48.66816" lon="1.76616">
        <ele>165</ele>
        <time>2015-07-05T10:00:50.000Z</time>
      </trkpt>
      <trkpt lat="48.6681" lon="1.76623">
        <ele>165</ele>
        <time>2015-07-05T10:00:55.000Z</time>
      </trkpt>
      <trkpt lat="48.66802" lon="1.76635">
        <ele>165</ele>
        <time>2015-07-05T10:01:02.000Z</time>
      </trkpt>
      <trkpt lat="48.66793" lon="1.76648">
        <ele>164.9</ele>
        <time>2015-07-05T10:01:09.000Z</time>
      </trkpt>
      <trkpt lat="48.66784" lon="1.76661">
        <ele>164.4</ele>
        <time>2015-07-05T10:01:16.000Z</time>
      </trkpt>
      <trkpt lat="48.66779" lon="1.76674">
        <ele>164</ele>
        <time>2015-07-05T10:01:23.000Z</time>
      </trkpt>
      <trkpt lat="48.66771" lon="1.76687">
        <ele>163.8</ele>
        <time>2015-07-05T10:01:30.000Z</time>
      </trkpt>
      <trkpt lat="48.66768" lon="1.7669">
        <ele>163.7</ele>
        <time>2015-07-05T10:01:32.000Z</time>
      </trkpt>
      <trkpt lat="48.66759" lon="1.76703">
        <ele>163.4</ele>
        <time>2015-07-05T10:01:39.000Z</time>
      </trkpt>
      <trkpt lat="48.66751" lon="1.76715">
        <ele>163.7</ele>
        <time>2015-07-05T10:01:45.000Z</time>
      </trkpt>
      <trkpt lat="48.6674" lon="1.76729">
        <ele>164.4</ele>
        <time>2015-07-05T10:01:50.000Z</time>
      </trkpt>
      <trkpt lat="48.66727" lon="1.76745">
        <ele>164.8</ele>
        <time>2015-07-05T10:01:55.000Z</time>
      </trkpt>
      <trkpt lat="48.66717" lon="1.76758">
        <ele>165</ele>
        <time>2015-07-05T10:02:01.000Z</time>
      </trkpt>
      <trkpt lat="48.6671" lon="1.76769">
        <ele>165</ele>
        <time>2015-07-05T10:02:07.000Z</time>
      </trkpt>
      <trkpt lat="48.66701" lon="1.76783">
        <ele>165</ele>
        <time>2015-07-05T10:02:14.000Z</time>
      </trkpt>
      <trkpt lat="48.66691" lon="1.76797">
        <ele>165.1</ele>
        <time>2015-07-05T10:02:23.000Z</time>
      </trkpt>
      <trkpt lat="48.66684" lon="1.7681">
        <ele>165.3</ele>
        <time>2015-07-05T10:02:30.000Z</time>
      </trkpt>
      <trkpt lat="48.66674" lon="1.7683">
        <ele>165.1</ele>
        <time>2015-07-05T10:02:39.000Z</time>
      </trkpt>
      <trkpt lat="48.66673" lon="1.76834">
        <ele>165</ele>
        <time>2015-07-05T10:02:41.000Z</time>
      </trkpt>
      <trkpt lat="48.6667" lon="1.76842">
        <ele>165.3</ele>
        <time>2015-07-05T10:02:47.000Z</time>
      </trkpt>
      <trkpt lat="48.66664" lon="1.76853">
        <ele>165.7</ele>
        <time>2015-07-05T10:02:54.000Z</time>
      </trkpt>
      <trkpt lat="48.66662" lon="1.76857">
        <ele>165.9</ele>
        <time>2015-07-05T10:03:00.000Z</time>
      </trkpt>
      <trkpt lat="48.6666" lon="1.76857">
        <ele>165.9</ele>
        <time>2015-07-05T10:03:04.000Z</time>
      </trkpt>
      <trkpt lat="48.66655" lon="1.76868">
        <ele>165.9</ele>
        <time>2015-07-05T10:03:24.000Z</time>
      </trkpt>
      <trkpt lat="48.66648" lon="1.76878">
        <ele>165.8</ele>
        <time>2015-07-05T10:03:29.000Z</time>
      </trkpt>
      <trkpt lat="48.66643" lon="1.76887">
        <ele>165.9</ele>
        <time>2015-07-05T10:03:35.000Z</time>
      </trkpt>
      <trkpt lat="48.66636" lon="1.76895">
        <ele>166</ele>
        <time>2015-07-05T10:03:41.000Z</time>
      </trkpt>
      <trkpt lat="48.66628" lon="1.76906">
        <ele>166</ele>
        <time>2015-07-05T10:03:49.000Z</time>
      </trkpt>
      <trkpt lat="48.66621" lon="1.76915">
        <ele>166</ele>
        <time>2015-07-05T10:03:55.000Z</time>
      </trkpt>
      <trkpt lat="48.66614" lon="1.76927">
        <ele>166</ele>
        <time>2015-07-05T10:04:02.000Z</time>
      </trkpt>
      <trkpt lat="48.66604" lon="1.7694">
        <ele>166</ele>
        <time>2015-07-05T10:04:10.000Z</time>
      </trkpt>
      <trkpt lat="48.66595" lon="1.76952">
        <ele>166</ele>
        <time>2015-07-05T10:04:16.000Z</time>
      </trkpt>
      <trkpt lat="48.66585" lon="1.76967">
        <ele>166</ele>
        <time>2015-07-05T10:04:24.000Z</time>
      </trkpt>
      <trkpt lat="48.66578" lon="1.7698">
        <ele>166</ele>
        <time>2015-07-05T10:04:31.000Z</time>
      </trkpt>
      <trkpt lat="48.6657" lon="1.76992">
        <ele>166</ele>
        <time>2015-07-05T10:04:38.000Z</time>
      </trkpt>
      <trkpt lat="48.6656" lon="1.77006">
        <ele>166</ele>
        <time>2015-07-05T10:04:46.000Z</time>
      </trkpt>
      <trkpt lat="48.66552" lon="1.77018">
        <ele>165.9</ele>
        <time>2015-07-05T10:04:53.000Z</time>
      </trkpt>
      <trkpt lat="48.66546" lon="1.77027">
        <ele>165.7</ele>
        <time>2015-07-05T10:04:58.000Z</time>
      </trkpt>
      <trkpt lat="48.66537" lon="1.77042">
        <ele>165.2</ele>
        <time>2015-07-05T10:05:06.000Z</time>
      </trkpt>
      <trkpt lat="48.66527" lon="1.77056">
        <ele>165</ele>
        <time>2015-07-05T10:05:14.000Z</time>
      </trkpt>
      <trkpt lat="48.66517" lon="1.77072">
        <ele>164.8</ele>
        <time>2015-07-05T10:05:23.000Z</time>
      </trkpt>
      <trkpt lat="48.6651" lon="1.77083">
        <ele>164.4</ele>
        <time>2015-07-05T10:05:28.000Z</time>
      </trkpt>
      <trkpt lat="48.66497" lon="1.77102">
        <ele>164</ele>
        <time>2015-07-05T10:05:39.000Z</time>
      </trkpt>
      <trkpt lat="48.66488" lon="1.77119">
        <ele>163.8</ele>
        <time>2015-07-05T10:05:48.000Z</time>
      </trkpt>
      <trkpt lat="48.66482" lon="1.77127">
        <ele>163.8</ele>
        <time>2015-07-05T10:05:53.000Z</time>
      </trkpt>
      <trkpt lat="48.66475" lon="1.77138">
        <ele>163.9</ele>
        <time>2015-07-05T10:05:59.000Z</time>
      </trkpt>
      <trkpt lat="48.66469" lon="1.77146">
        <ele>164.1</ele>
        <time>2015-07-05T10:06:04.000Z</time>
      </trkpt>
      <trkpt lat="48.66459" lon="1.77162">
        <ele>164.5</ele>
        <time>2015-07-05T10:06:13.000Z</time>
      </trkpt>
      <trkpt lat="48.66455" lon="1.77168">
        <ele>164.6</ele>
        <time>2015-07-05T10:06:17.000Z</time>
      </trkpt>
      <trkpt lat="48.6645" lon="1.77176">
        <ele>164.8</ele>
        <time>2015-07-05T10:06:22.000Z</time>
      </trkpt>
      <trkpt lat="48.6644" lon="1.77189">
        <ele>165</ele>
        <time>2015-07-05T10:06:30.000Z</time>
      </trkpt>
      <trkpt lat="48.66432" lon="1.77201">
        <ele>164.9</ele>
        <time>2015-07-05T10:06:37.000Z</time>
      </trkpt>
      <trkpt lat="48.66423" lon="1.77215">
        <ele>164.8</ele>
        <time>2015-07-05T10:06:45.000Z</time>
      </trkpt>
      <trkpt lat="48.66416" lon="1.77227">
        <ele>165</ele>
        <time>2015-07-05T10:06:52.000Z</time>
      </trkpt>
      <trkpt lat="48.66408" lon="1.77235">
        <ele>165</ele>
        <time>2015-07-05T10:06:58.000Z</time>
      </trkpt>
      <trkpt lat="48.66401" lon="1.77245">
        <ele>165</ele>
        <time>2015-07-05T10:07:04.000Z</time>
      </trkpt>
      <trkpt lat="48.66393" lon="1.7726">
        <ele>165</ele>
        <time>2015-07-05T10:07:13.000Z</time>
      </trkpt>
      <trkpt lat="48.66389" lon="1.7727">
        <ele>165</ele>
        <time>2015-07-05T10:07:18.000Z</time>
      </trkpt>
      <trkpt lat="48.66379" lon="1.77285">
        <ele>165.5</ele>
        <time>2015-07-05T10:07:27.000Z</time>
      </trkpt>
      <trkpt lat="48.6637" lon="1.77296">
        <ele>165.9</ele>
        <time>2015-07-05T10:07:34.000Z</time>
      </trkpt>
      <trkpt lat="48.66364" lon="1.77306">
        <ele>166</ele>
        <time>2015-07-05T10:07:40.000Z</time>
      </trkpt>
      <trkpt lat="48.66362" lon="1.77312">
        <ele>166</ele>
        <time>2015-07-05T10:07:43.000Z</time>
      </trkpt>
      <trkpt lat="48.66359" lon="1.77321">
        <ele>166</ele>
        <time>2015-07-05T10:07:47.000Z</time>
      </trkpt>
      <trkpt lat="48.6635" lon="1.77337">
        <ele>166</ele>
        <time>2015-07-05T10:07:56.000Z</time>
      </trkpt>
      <trkpt lat="48.66342" lon="1.77344">
        <ele>166</ele>
        <time>2015-07-05T10:08:02.000Z</time>
      </trkpt>
      <trkpt lat="48.66334" lon="1.77349">
        <ele>166</ele>
        <time>2015-07-05T10:08:07.000Z</time>
      </trkpt>
      <trkpt lat="48.66328" lon="1.77353">
        <ele>166</ele>
        <time>2015-07-05T10:08:12.000Z</time>
      </trkpt>
      <trkpt lat="48.66321" lon="1.77369">
        <ele>166</ele>
        <time>2015-07-05T10:08:21.000Z</time>
      </trkpt>
      <trkpt lat="48.66315" lon="1.77379">
        <ele>166</ele>
        <time>2015-07-05T10:08:27.000Z</time>
      </trkpt>
      <trkpt lat="48.66309" lon="1.77391">
        <ele>166</ele>
        <time>2015-07-05T10:08:34.000Z</time>
      </trkpt>
      <trkpt lat="48.66305" lon="1.77401">
        <ele>166</ele>
        <time>2015-07-05T10:08:40.000Z</time>
      </trkpt>
      <trkpt lat="48.66297" lon="1.77412">
        <ele>166</ele>
        <time>2015-07-05T10:08:47.000Z</time>
      </trkpt>
      <trkpt lat="48.66288" lon="1.77422">
        <ele>166</ele>
        <time>2015-07-05T10:08:55.000Z</time>
      </trkpt>
      <trkpt lat="48.66284" lon="1.77427">
        <ele>166</ele>
        <time>2015-07-05T10:08:59.000Z</time>
      </trkpt>
      <trkpt lat="48.6628" lon="1.77427">
        <ele>166</ele>
        <time>2015-07-05T10:09:04.000Z</time>
      </trkpt>
      <trkpt lat="48.6628" lon="1.77427">
        <ele>166</ele>
        <time>2015-07-05T10:09:05.000Z</time>
      </trkpt>
      <trkpt lat="48.66274" lon="1.77434">
        <ele>166</ele>
        <time>2015-07-05T10:10:10.000Z</time>
      </trkpt>
      <trkpt lat="48.66274" lon="1.77436">
        <ele>166</ele>
        <time>2015-07-05T10:10:12.000Z</time>
      </trkpt>
      <trkpt lat="48.66274" lon="1.77442">
        <ele>166</ele>
        <time>2015-07-05T10:10:40.000Z</time>
      </trkpt>
      <trkpt lat="48.66266" lon="1.77455">
        <ele>166</ele>
        <time>2015-07-05T10:10:47.000Z</time>
      </trkpt>
      <trkpt lat="48.66259" lon="1.77467">
        <ele>166</ele>
        <time>2015-07-05T10:10:55.000Z</time>
      </trkpt>
      <trkpt lat="48.66255" lon="1.77474">
        <ele>166</ele>
        <time>2015-07-05T10:11:01.000Z</time>
      </trkpt>
      <trkpt lat="48.66254" lon="1.77474">
        <ele>166</ele>
        <time>2015-07-05T10:11:02.000Z</time>
      </trkpt>
      <trkpt lat="48.66249" lon="1.77481">
        <ele>166</ele>
        <time>2015-07-05T10:11:23.000Z</time>
      </trkpt>
      <trkpt lat="48.66243" lon="1.77489">
        <ele>166</ele>
        <time>2015-07-05T10:11:28.000Z</time>
      </trkpt>
      <trkpt lat="48.66235" lon="1.77499">
        <ele>166</ele>
        <time>2015-07-05T10:11:34.000Z</time>
      </trkpt>
      <trkpt lat="48.66226" lon="1.77514">
        <ele>166</ele>
        <time>2015-07-05T10:11:42.000Z</time>
      </trkpt>
      <trkpt lat="48.66223" lon="1.77517">
        <ele>166</ele>
        <time>2015-07-05T10:11:44.000Z</time>
      </trkpt>
      <trkpt lat="48.66217" lon="1.7753">
        <ele>166</ele>
        <time>2015-07-05T10:11:51.000Z</time>
      </trkpt>
      <trkpt lat="48.66211" lon="1.77541">
        <ele>166</ele>
        <time>2015-07-05T10:11:59.000Z</time>
      </trkpt>
      <trkpt lat="48.66209" lon="1.77544">
        <ele>166</ele>
        <time>2015-07-05T10:12:01.000Z</time>
      </trkpt>
      <trkpt lat="48.66208" lon="1.77546">
        <ele>166</ele>
        <time>2015-07-05T10:12:03.000Z</time>
      </trkpt>
      <trkpt lat="48.662" lon="1.77557">
        <ele>166</ele>
        <time>2015-07-05T10:12:09.000Z</time>
      </trkpt>
      <trkpt lat="48.66192" lon="1.7757">
        <ele>166</ele>
        <time>2015-07-05T10:12:17.000Z</time>
      </trkpt>
      <trkpt lat="48.66184" lon="1.77583">
        <ele>166</ele>
        <time>2015-07-05T10:12:25.000Z</time>
      </trkpt>
      <trkpt lat="48.66177" lon="1.77595">
        <ele>165.6</ele>
        <time>2015-07-05T10:12:31.000Z</time>
      </trkpt>
      <trkpt lat="48.66169" lon="1.77607">
        <ele>165.2</ele>
        <time>2015-07-05T10:12:38.000Z</time>
      </trkpt>
      <trkpt lat="48.66163" lon="1.77617">
        <ele>165.1</ele>
        <time>2015-07-05T10:12:44.000Z</time>
      </trkpt>
      <trkpt lat="48.66157" lon="1.77628">
        <ele>165.3</ele>
        <time>2015-07-05T10:12:50.000Z</time>
      </trkpt>
      <trkpt lat="48.66147" lon="1.77643">
        <ele>165.6</ele>
        <time>2015-07-05T10:12:58.000Z</time>
      </trkpt>
      <trkpt lat="48.66141" lon="1.77651">
        <ele>165.5</ele>
        <time>2015-07-05T10:13:03.000Z</time>
      </trkpt>
      <trkpt lat="48.66133" lon="1.77661">
        <ele>165.4</ele>
        <time>2015-07-05T10:13:09.000Z</time>
      </trkpt>
      <trkpt lat="48.66122" lon="1.7768">
        <ele>165.8</ele>
        <time>2015-07-05T10:13:15.000Z</time>
      </trkpt>
      <trkpt lat="48.66111" lon="1.77694">
        <ele>166</ele>
        <time>2015-07-05T10:13:20.000Z</time>
      </trkpt>
      <trkpt lat="48.66103" lon="1.77703">
        <ele>166.5</ele>
        <time>2015-07-05T10:13:26.000Z</time>
      </trkpt>
      <trkpt lat="48.6609" lon="1.77718">
        <ele>167</ele>
        <time>2015-07-05T10:13:34.000Z</time>
      </trkpt>
      <trkpt lat="48.66083" lon="1.77731">
        <ele>167</ele>
        <time>2015-07-05T10:13:40.000Z</time>
      </trkpt>
      <trkpt lat="48.66076" lon="1.77744">
        <ele>167.2</ele>
        <time>2015-07-05T10:13:47.000Z</time>
      </trkpt>
      <trkpt lat="48.66072" lon="1.7775">
        <ele>167.4</ele>
        <time>2015-07-05T10:13:51.000Z</time>
      </trkpt>
      <trkpt lat="48.66062" lon="1.77768">
        <ele>167.9</ele>
        <time>2015-07-05T10:14:01.000Z</time>
      </trkpt>
      <trkpt lat="48.66055" lon="1.77777">
        <ele>168</ele>
        <time>2015-07-05T10:14:08.000Z</time>
      </trkpt>
      <trkpt lat="48.66053" lon="1.77781">
        <ele>168</ele>
        <time>2015-07-05T10:14:14.000Z</time>
      </trkpt>
      <trkpt lat="48.66048" lon="1.77793">
        <ele>168</ele>
        <time>2015-07-05T10:14:21.000Z</time>
      </trkpt>
      <trkpt lat="48.66042" lon="1.77805">
        <ele>168</ele>
        <time>2015-07-05T10:14:28.000Z</time>
      </trkpt>
      <trkpt lat="48.66033" lon="1.77818">
        <ele>168</ele>
        <time>2015-07-05T10:14:36.000Z</time>
      </trkpt>
      <trkpt lat="48.66026" lon="1.77825">
        <ele>168</ele>
        <time>2015-07-05T10:14:42.000Z</time>
      </trkpt>
      <trkpt lat="48.66018" lon="1.77838">
        <ele>168</ele>
        <time>2015-07-05T10:14:50.000Z</time>
      </trkpt>
      <trkpt lat="48.66012" lon="1.77846">
        <ele>168</ele>
        <time>2015-07-05T10:14:56.000Z</time>
      </trkpt>
      <trkpt lat="48.66005" lon="1.77861">
        <ele>168</ele>
        <time>2015-07-05T10:15:03.000Z</time>
      </trkpt>
      <trkpt lat="48.65997" lon="1.77872">
        <ele>168.1</ele>
        <time>2015-07-05T10:15:09.000Z</time>
      </trkpt>
      <trkpt lat="48.65989" lon="1.77885">
        <ele>168.4</ele>
        <time>2015-07-05T10:15:17.000Z</time>
      </trkpt>
      <trkpt lat="48.65988" lon="1.77887">
        <ele>168.4</ele>
        <time>2015-07-05T10:15:18.000Z</time>
      </trkpt>
      <trkpt lat="48.65982" lon="1.77897">
        <ele>168.8</ele>
        <time>2015-07-05T10:15:24.000Z</time>
      </trkpt>
      <trkpt lat="48.65979" lon="1.77898">
        <ele>168.8</ele>
        <time>2015-07-05T10:15:26.000Z</time>
      </trkpt>
      <trkpt lat="48.65978" lon="1.77903">
        <ele>168.9</ele>
        <time>2015-07-05T10:15:30.000Z</time>
      </trkpt>
      <trkpt lat="48.65969" lon="1.77914">
        <ele>169</ele>
        <time>2015-07-05T10:15:37.000Z</time>
      </trkpt>
      <trkpt lat="48.65959" lon="1.77926">
        <ele>169</ele>
        <time>2015-07-05T10:15:43.000Z</time>
      </trkpt>
      <trkpt lat="48.65954" lon="1.77929">
        <ele>169</ele>
        <time>2015-07-05T10:15:46.000Z</time>
      </trkpt>
      <trkpt lat="48.65949" lon="1.77922">
        <ele>169</ele>
        <time>2015-07-05T10:15:52.000Z</time>
      </trkpt>
      <trkpt lat="48.65948" lon="1.77921">
        <ele>169</ele>
        <time>2015-07-05T10:15:55.000Z</time>
      </trkpt>
      <trkpt lat="48.65941" lon="1.77904">
        <ele>169</ele>
        <time>2015-07-05T10:16:25.000Z</time>
      </trkpt>
      <trkpt lat="48.65936" lon="1.77896">
        <ele>169</ele>
        <time>2015-07-05T10:16:29.000Z</time>
      </trkpt>
      <trkpt lat="48.65934" lon="1.77894">
        <ele>169</ele>
        <time>2015-07-05T10:16:31.000Z</time>
      </trkpt>
      <trkpt lat="48.65927" lon="1.77881">
        <ele>169</ele>
        <time>2015-07-05T10:16:38.000Z</time>
      </trkpt>
      <trkpt lat="48.65919" lon="1.7787">
        <ele>169</ele>
        <time>2015-07-05T10:16:45.000Z</time>
      </trkpt>
      <trkpt lat="48.65912" lon="1.77856">
        <ele>169</ele>
        <time>2015-07-05T10:16:52.000Z</time>
      </trkpt>
      <trkpt lat="48.65904" lon="1.77842">
        <ele>169</ele>
        <time>2015-07-05T10:16:59.000Z</time>
      </trkpt>
      <trkpt lat="48.65895" lon="1.77826">
        <ele>168.9</ele>
        <time>2015-07-05T10:17:06.000Z</time>
      </trkpt>
      <trkpt lat="48.65889" lon="1.77815">
        <ele>169</ele>
        <time>2015-07-05T10:17:11.000Z</time>
      </trkpt>
      <trkpt lat="48.65884" lon="1.77806">
        <ele>169</ele>
        <time>2015-07-05T10:17:18.000Z</time>
      </trkpt>
      <trkpt lat="48.65879" lon="1.77798">
        <ele>169</ele>
        <time>2015-07-05T10:17:25.000Z</time>
      </trkpt>
      <trkpt lat="48.65875" lon="1.77793">
        <ele>169</ele>
        <time>2015-07-05T10:17:31.000Z</time>
      </trkpt>
      <trkpt lat="48.65873" lon="1.77787">
        <ele>169</ele>
        <time>2015-07-05T10:17:35.000Z</time>
      </trkpt>
      <trkpt lat="48.65865" lon="1.77772">
        <ele>169</ele>
        <time>2015-07-05T10:17:43.000Z</time>
      </trkpt>
      <trkpt lat="48.65858" lon="1.77759">
        <ele>169</ele>
        <time>2015-07-05T10:17:47.000Z</time>
      </trkpt>
      <trkpt lat="48.6585" lon="1.77746">
        <ele>168.9</ele>
        <time>2015-07-05T10:17:53.000Z</time>
      </trkpt>
      <trkpt lat="48.65843" lon="1.77733">
        <ele>168.8</ele>
        <time>2015-07-05T10:18:00.000Z</time>
      </trkpt>
      <trkpt lat="48.65835" lon="1.77718">
        <ele>169</ele>
        <time>2015-07-05T10:18:09.000Z</time>
      </trkpt>
      <trkpt lat="48.65826" lon="1.77706">
        <ele>169</ele>
        <time>2015-07-05T10:18:16.000Z</time>
      </trkpt>
      <trkpt lat="48.65818" lon="1.77693">
        <ele>169</ele>
        <time>2015-07-05T10:18:22.000Z</time>
      </trkpt>
      <trkpt lat="48.65809" lon="1.77678">
        <ele>169</ele>
        <time>2015-07-05T10:18:28.000Z</time>
      </trkpt>
      <trkpt lat="48.65803" lon="1.77668">
        <ele>169</ele>
        <time>2015-07-05T10:18:33.000Z</time>
      </trkpt>
      <trkpt lat="48.65794" lon="1.77654">
        <ele>169</ele>
        <time>2015-07-05T10:18:41.000Z</time>
      </trkpt>
      <trkpt lat="48.65785" lon="1.77636">
        <ele>169</ele>
        <time>2015-07-05T10:18:50.000Z</time>
      </trkpt>
      <trkpt lat="48.65778" lon="1.77622">
        <ele>169</ele>
        <time>2015-07-05T10:18:58.000Z</time>
      </trkpt>
      <trkpt lat="48.65773" lon="1.77613">
        <ele>169</ele>
        <time>2015-07-05T10:19:03.000Z</time>
      </trkpt>
      <trkpt lat="48.65763" lon="1.77596">
        <ele>169</ele>
        <time>2015-07-05T10:19:11.000Z</time>
      </trkpt>
      <trkpt lat="48.65755" lon="1.77584">
        <ele>169</ele>
        <time>2015-07-05T10:19:17.000Z</time>
      </trkpt>
      <trkpt lat="48.65748" lon="1.77571">
        <ele>169</ele>
        <time>2015-07-05T10:19:24.000Z</time>
      </trkpt>
      <trkpt lat="48.6574" lon="1.77557">
        <ele>169</ele>
        <time>2015-07-05T10:19:32.000Z</time>
      </trkpt>
      <trkpt lat="48.65735" lon="1.77543">
        <ele>169</ele>
        <time>2015-07-05T10:19:39.000Z</time>
      </trkpt>
      <trkpt lat="48.65728" lon="1.77533">
        <ele>169</ele>
        <time>2015-07-05T10:19:45.000Z</time>
      </trkpt>
      <trkpt lat="48.65718" lon="1.77514">
        <ele>169.1</ele>
        <time>2015-07-05T10:19:54.000Z</time>
      </trkpt>
      <trkpt lat="48.65706" lon="1.77502">
        <ele>169.5</ele>
        <time>2015-07-05T10:20:00.000Z</time>
      </trkpt>
      <trkpt lat="48.65694" lon="1.77485">
        <ele>170</ele>
        <time>2015-07-05T10:20:08.000Z</time>
      </trkpt>
      <trkpt lat="48.65685" lon="1.77468">
        <ele>170</ele>
        <time>2015-07-05T10:20:17.000Z</time>
      </trkpt>
      <trkpt lat="48.65675" lon="1.77452">
        <ele>170</ele>
        <time>2015-07-05T10:20:26.000Z</time>
      </trkpt>
      <trkpt lat="48.6567" lon="1.77441">
        <ele>170</ele>
        <time>2015-07-05T10:20:32.000Z</time>
      </trkpt>
      <trkpt lat="48.65661" lon="1.77422">
        <ele>170</ele>
        <time>2015-07-05T10:20:42.000Z</time>
      </trkpt>
      <trkpt lat="48.65651" lon="1.77405">
        <ele>170</ele>
        <time>2015-07-05T10:20:51.000Z</time>
      </trkpt>
      <trkpt lat="48.65642" lon="1.77385">
        <ele>170</ele>
        <time>2015-07-05T10:21:01.000Z</time>
      </trkpt>
      <trkpt lat="48.65635" lon="1.77372">
        <ele>170</ele>
        <time>2015-07-05T10:21:08.000Z</time>
      </trkpt>
      <trkpt lat="48.65623" lon="1.77351">
        <ele>170</ele>
        <time>2015-07-05T10:21:19.000Z</time>
      </trkpt>
      <trkpt lat="48.65613" lon="1.77332">
        <ele>170</ele>
        <time>2015-07-05T10:21:29.000Z</time>
      </trkpt>
      <trkpt lat="48.656" lon="1.77312">
        <ele>170</ele>
        <time>2015-07-05T10:21:40.000Z</time>
      </trkpt>
      <trkpt lat="48.65599" lon="1.77311">
        <ele>170</ele>
        <time>2015-07-05T10:21:41.000Z</time>
      </trkpt>
      <trkpt lat="48.65593" lon="1.77298">
        <ele>170</ele>
        <time>2015-07-05T10:21:47.000Z</time>
      </trkpt>
      <trkpt lat="48.65584" lon="1.77282">
        <ele>170</ele>
        <time>2015-07-05T10:21:55.000Z</time>
      </trkpt>
      <trkpt lat="48.65577" lon="1.77269">
        <ele>170.2</ele>
        <time>2015-07-05T10:21:59.000Z</time>
      </trkpt>
      <trkpt lat="48.65559" lon="1.77237">
        <ele>170.9</ele>
        <time>2015-07-05T10:22:07.000Z</time>
      </trkpt>
      <trkpt lat="48.65548" lon="1.77214">
        <ele>171</ele>
        <time>2015-07-05T10:22:12.000Z</time>
      </trkpt>
      <trkpt lat="48.65542" lon="1.77198">
        <ele>171</ele>
        <time>2015-07-05T10:22:17.000Z</time>
      </trkpt>
      <trkpt lat="48.65535" lon="1.77181">
        <ele>171</ele>
        <time>2015-07-05T10:22:25.000Z</time>
      </trkpt>
      <trkpt lat="48.65529" lon="1.77166">
        <ele>171</ele>
        <time>2015-07-05T10:22:32.000Z</time>
      </trkpt>
      <trkpt lat="48.6552" lon="1.77146">
        <ele>171</ele>
        <time>2015-07-05T10:22:41.000Z</time>
      </trkpt>
      <trkpt lat="48.65517" lon="1.77136">
        <ele>170.9</ele>
        <time>2015-07-05T10:22:45.000Z</time>
      </trkpt>
      <trkpt lat="48.65509" lon="1.77115">
        <ele>170.1</ele>
        <time>2015-07-05T10:22:54.000Z</time>
      </trkpt>
      <trkpt lat="48.65502" lon="1.77099">
        <ele>170</ele>
        <time>2015-07-05T10:23:01.000Z</time>
      </trkpt>
      <trkpt lat="48.65496" lon="1.77084">
        <ele>170</ele>
        <time>2015-07-05T10:23:08.000Z</time>
      </trkpt>
      <trkpt lat="48.65492" lon="1.77072">
        <ele>170</ele>
        <time>2015-07-05T10:23:14.000Z</time>
      </trkpt>
      <trkpt lat="48.65482" lon="1.77051">
        <ele>170</ele>
        <time>2015-07-05T10:23:23.000Z</time>
      </trkpt>
      <trkpt lat="48.65477" lon="1.77035">
        <ele>170</ele>
        <time>2015-07-05T10:23:31.000Z</time>
      </trkpt>
      <trkpt lat="48.65472" lon="1.77024">
        <ele>170</ele>
        <time>2015-07-05T10:23:37.000Z</time>
      </trkpt>
      <trkpt lat="48.65468" lon="1.7701">
        <ele>170</ele>
        <time>2015-07-05T10:23:44.000Z</time>
      </trkpt>
      <trkpt lat="48.65461" lon="1.76991">
        <ele>170</ele>
        <time>2015-07-05T10:23:53.000Z</time>
      </trkpt>
      <trkpt lat="48.6546" lon="1.76988">
        <ele>170</ele>
        <time>2015-07-05T10:23:54.000Z</time>
      </trkpt>
      <trkpt lat="48.65455" lon="1.76975">
        <ele>170</ele>
        <time>2015-07-05T10:24:00.000Z</time>
      </trkpt>
      <trkpt lat="48.6545" lon="1.76959">
        <ele>170</ele>
        <time>2015-07-05T10:24:07.000Z</time>
      </trkpt>
      <trkpt lat="48.65442" lon="1.76937">
        <ele>169.9</ele>
        <time>2015-07-05T10:24:17.000Z</time>
      </trkpt>
      <trkpt lat="48.65435" lon="1.76916">
        <ele>169.7</ele>
        <time>2015-07-05T10:24:26.000Z</time>
      </trkpt>
      <trkpt lat="48.65428" lon="1.76902">
        <ele>169.4</ele>
        <time>2015-07-05T10:24:33.000Z</time>
      </trkpt>
      <trkpt lat="48.65421" lon="1.76883">
        <ele>169.3</ele>
        <time>2015-07-05T10:24:40.000Z</time>
      </trkpt>
      <trkpt lat="48.65415" lon="1.76866">
        <ele>169.8</ele>
        <time>2015-07-05T10:24:47.000Z</time>
      </trkpt>
      <trkpt lat="48.65406" lon="1.76845">
        <ele>169.3</ele>
        <time>2015-07-05T10:24:57.000Z</time>
      </trkpt>
      <trkpt lat="48.654" lon="1.7683">
        <ele>169</ele>
        <time>2015-07-05T10:25:03.000Z</time>
      </trkpt>
      <trkpt lat="48.65392" lon="1.76813">
        <ele>169</ele>
        <time>2015-07-05T10:25:11.000Z</time>
      </trkpt>
      <trkpt lat="48.65388" lon="1.76802">
        <ele>169</ele>
        <time>2015-07-05T10:25:18.000Z</time>
      </trkpt>
      <trkpt lat="48.65383" lon="1.76786">
        <ele>168.6</ele>
        <time>2015-07-05T10:25:26.000Z</time>
      </trkpt>
      <trkpt lat="48.6538" lon="1.76778">
        <ele>168.3</ele>
        <time>2015-07-05T10:25:30.000Z</time>
      </trkpt>
      <trkpt lat="48.65375" lon="1.76767">
        <ele>167.8</ele>
        <time>2015-07-05T10:25:36.000Z</time>
      </trkpt>
      <trkpt lat="48.65374" lon="1.76765">
        <ele>167.7</ele>
        <time>2015-07-05T10:25:37.000Z</time>
      </trkpt>
      <trkpt lat="48.65369" lon="1.76747">
        <ele>167.3</ele>
        <time>2015-07-05T10:25:46.000Z</time>
      </trkpt>
      <trkpt lat="48.65366" lon="1.76735">
        <ele>167.2</ele>
        <time>2015-07-05T10:25:52.000Z</time>
      </trkpt>
      <trkpt lat="48.65361" lon="1.76724">
        <ele>167</ele>
        <time>2015-07-05T10:25:56.000Z</time>
      </trkpt>
      <trkpt lat="48.65353" lon="1.76708">
        <ele>166.3</ele>
        <time>2015-07-05T10:26:04.000Z</time>
      </trkpt>
      <trkpt lat="48.65347" lon="1.76691">
        <ele>166</ele>
        <time>2015-07-05T10:26:12.000Z</time>
      </trkpt>
      <trkpt lat="48.65346" lon="1.76689">
        <ele>165.9</ele>
        <time>2015-07-05T10:26:13.000Z</time>
      </trkpt>
      <trkpt lat="48.65342" lon="1.76681">
        <ele>165.6</ele>
        <time>2015-07-05T10:26:18.000Z</time>
      </trkpt>
      <trkpt lat="48.65342" lon="1.76678">
        <ele>165.6</ele>
        <time>2015-07-05T10:26:19.000Z</time>
      </trkpt>
      <trkpt lat="48.65341" lon="1.76673">
        <ele>165.6</ele>
        <time>2015-07-05T10:26:21.000Z</time>
      </trkpt>
      <trkpt lat="48.65337" lon="1.7666">
        <ele>165.2</ele>
        <time>2015-07-05T10:26:27.000Z</time>
      </trkpt>
      <trkpt lat="48.65331" lon="1.76644">
        <ele>164.8</ele>
        <time>2015-07-05T10:26:34.000Z</time>
      </trkpt>
      <trkpt lat="48.65325" lon="1.76626">
        <ele>164.2</ele>
        <time>2015-07-05T10:26:41.000Z</time>
      </trkpt>
      <trkpt lat="48.65319" lon="1.76612">
        <ele>163.5</ele>
        <time>2015-07-05T10:26:47.000Z</time>
      </trkpt>
      <trkpt lat="48.65314" lon="1.766">
        <ele>162.8</ele>
        <time>2015-07-05T10:26:52.000Z</time>
      </trkpt>
      <trkpt lat="48.65309" lon="1.76587">
        <ele>162.2</ele>
        <time>2015-07-05T10:26:58.000Z</time>
      </trkpt>
      <trkpt lat="48.65302" lon="1.76574">
        <ele>161.3</ele>
        <time>2015-07-05T10:27:04.000Z</time>
      </trkpt>
      <trkpt lat="48.65298" lon="1.76563">
        <ele>160.7</ele>
        <time>2015-07-05T10:27:08.000Z</time>
      </trkpt>
      <trkpt lat="48.65293" lon="1.76548">
        <ele>160</ele>
        <time>2015-07-05T10:27:15.000Z</time>
      </trkpt>
      <trkpt lat="48.65287" lon="1.76538">
        <ele>159.2</ele>
        <time>2015-07-05T10:27:20.000Z</time>
      </trkpt>
      <trkpt lat="48.65283" lon="1.76527">
        <ele>158.5</ele>
        <time>2015-07-05T10:27:25.000Z</time>
      </trkpt>
      <trkpt lat="48.65278" lon="1.76514">
        <ele>157.1</ele>
        <time>2015-07-05T10:27:31.000Z</time>
      </trkpt>
      <trkpt lat="48.65276" lon="1.76508">
        <ele>156.4</ele>
        <time>2015-07-05T10:27:34.000Z</time>
      </trkpt>
      <trkpt lat="48.65276" lon="1.76502">
        <ele>156</ele>
        <time>2015-07-05T10:27:38.000Z</time>
      </trkpt>
      <trkpt lat="48.65276" lon="1.76501">
        <ele>155.9</ele>
        <time>2015-07-05T10:27:42.000Z</time>
      </trkpt>
      <trkpt lat="48.65263" lon="1.76487">
        <ele>153.9</ele>
        <time>2015-07-05T10:28:47.000Z</time>
      </trkpt>
      <trkpt lat="48.65259" lon="1.76482">
        <ele>153.4</ele>
        <time>2015-07-05T10:28:49.000Z</time>
      </trkpt>
      <trkpt lat="48.65256" lon="1.76476">
        <ele>152.7</ele>
        <time>2015-07-05T10:28:56.000Z</time>
      </trkpt>
      <trkpt lat="48.65254" lon="1.76465">
        <ele>152.4</ele>
        <time>2015-07-05T10:29:00.000Z</time>
      </trkpt>
      <trkpt lat="48.65249" lon="1.76445">
        <ele>152.1</ele>
        <time>2015-07-05T10:29:07.000Z</time>
      </trkpt>
      <trkpt lat="48.65246" lon="1.76431">
        <ele>153.2</ele>
        <time>2015-07-05T10:29:13.000Z</time>
      </trkpt>
      <trkpt lat="48.65241" lon="1.76416">
        <ele>154.4</ele>
        <time>2015-07-05T10:29:18.000Z</time>
      </trkpt>
      <trkpt lat="48.65229" lon="1.76391">
        <ele>155.7</ele>
        <time>2015-07-05T10:29:23.000Z</time>
      </trkpt>
      <trkpt lat="48.65217" lon="1.76361">
        <ele>157</ele>
        <time>2015-07-05T10:29:28.000Z</time>
      </trkpt>
      <trkpt lat="48.65213" lon="1.76348">
        <ele>157.5</ele>
        <time>2015-07-05T10:29:30.000Z</time>
      </trkpt>
      <trkpt lat="48.65204" lon="1.76327">
        <ele>158</ele>
        <time>2015-07-05T10:29:34.000Z</time>
      </trkpt>
      <trkpt lat="48.6519" lon="1.76294">
        <ele>158</ele>
        <time>2015-07-05T10:29:40.000Z</time>
      </trkpt>
      <trkpt lat="48.65188" lon="1.76289">
        <ele>158</ele>
        <time>2015-07-05T10:29:41.000Z</time>
      </trkpt>
      <trkpt lat="48.65179" lon="1.76271">
        <ele>158</ele>
        <time>2015-07-05T10:29:44.000Z</time>
      </trkpt>
      <trkpt lat="48.65172" lon="1.76252">
        <ele>158</ele>
        <time>2015-07-05T10:29:47.000Z</time>
      </trkpt>
      <trkpt lat="48.65162" lon="1.76218">
        <ele>158</ele>
        <time>2015-07-05T10:29:52.000Z</time>
      </trkpt>
      <trkpt lat="48.6515" lon="1.76184">
        <ele>158</ele>
        <time>2015-07-05T10:29:57.000Z</time>
      </trkpt>
      <trkpt lat="48.65137" lon="1.76149">
        <ele>158</ele>
        <time>2015-07-05T10:30:02.000Z</time>
      </trkpt>
      <trkpt lat="48.65134" lon="1.76141">
        <ele>158</ele>
        <time>2015-07-05T10:30:03.000Z</time>
      </trkpt>
      <trkpt lat="48.65124" lon="1.76118">
        <ele>158.4</ele>
        <time>2015-07-05T10:30:07.000Z</time>
      </trkpt>
      <trkpt lat="48.6511" lon="1.76075">
        <ele>159.3</ele>
        <time>2015-07-05T10:30:13.000Z</time>
      </trkpt>
      <trkpt lat="48.65098" lon="1.76046">
        <ele>160.8</ele>
        <time>2015-07-05T10:30:17.000Z</time>
      </trkpt>
      <trkpt lat="48.65093" lon="1.76027">
        <ele>161.7</ele>
        <time>2015-07-05T10:30:20.000Z</time>
      </trkpt>
      <trkpt lat="48.65088" lon="1.76011">
        <ele>161.9</ele>
        <time>2015-07-05T10:30:23.000Z</time>
      </trkpt>
      <trkpt lat="48.6508" lon="1.75994">
        <ele>162.2</ele>
        <time>2015-07-05T10:30:26.000Z</time>
      </trkpt>
      <trkpt lat="48.65068" lon="1.75963">
        <ele>163.2</ele>
        <time>2015-07-05T10:30:31.000Z</time>
      </trkpt>
      <trkpt lat="48.65052" lon="1.75926">
        <ele>164</ele>
        <time>2015-07-05T10:30:37.000Z</time>
      </trkpt>
      <trkpt lat="48.65049" lon="1.7592">
        <ele>164</ele>
        <time>2015-07-05T10:30:38.000Z</time>
      </trkpt>
      <trkpt lat="48.65038" lon="1.75888">
        <ele>164.6</ele>
        <time>2015-07-05T10:30:43.000Z</time>
      </trkpt>
      <trkpt lat="48.65035" lon="1.75882">
        <ele>164.7</ele>
        <time>2015-07-05T10:30:44.000Z</time>
      </trkpt>
      <trkpt lat="48.65022" lon="1.75846">
        <ele>165.4</ele>
        <time>2015-07-05T10:30:50.000Z</time>
      </trkpt>
      <trkpt lat="48.65018" lon="1.75831">
        <ele>165.7</ele>
        <time>2015-07-05T10:30:53.000Z</time>
      </trkpt>
      <trkpt lat="48.6501" lon="1.75808">
        <ele>165.9</ele>
        <time>2015-07-05T10:30:59.000Z</time>
      </trkpt>
      <trkpt lat="48.65004" lon="1.75795">
        <ele>166</ele>
        <time>2015-07-05T10:31:03.000Z</time>
      </trkpt>
      <trkpt lat="48.65" lon="1.75791">
        <ele>166</ele>
        <time>2015-07-05T10:31:08.000Z</time>
      </trkpt>
      <trkpt lat="48.64996" lon="1.75795">
        <ele>165.9</ele>
        <time>2015-07-05T10:31:14.000Z</time>
      </trkpt>
      <trkpt lat="48.64992" lon="1.758">
        <ele>165.7</ele>
        <time>2015-07-05T10:31:19.000Z</time>
      </trkpt>
      <trkpt lat="48.64984" lon="1.75797">
        <ele>165.4</ele>
        <time>2015-07-05T10:31:26.000Z</time>
      </trkpt>
      <trkpt lat="48.64978" lon="1.7579">
        <ele>165.2</ele>
        <time>2015-07-05T10:31:31.000Z</time>
      </trkpt>
      <trkpt lat="48.64967" lon="1.7578">
        <ele>164.8</ele>
        <time>2015-07-05T10:31:40.000Z</time>
      </trkpt>
      <trkpt lat="48.64959" lon="1.75773">
        <ele>164.6</ele>
        <time>2015-07-05T10:31:45.000Z</time>
      </trkpt>
      <trkpt lat="48.6495" lon="1.75769">
        <ele>164.3</ele>
        <time>2015-07-05T10:31:50.000Z</time>
      </trkpt>
      <trkpt lat="48.64946" lon="1.75762">
        <ele>164.1</ele>
        <time>2015-07-05T10:31:54.000Z</time>
      </trkpt>
      <trkpt lat="48.64943" lon="1.75758">
        <ele>163.9</ele>
        <time>2015-07-05T10:31:56.000Z</time>
      </trkpt>
      <trkpt lat="48.64937" lon="1.75754">
        <ele>163.5</ele>
        <time>2015-07-05T10:32:00.000Z</time>
      </trkpt>
      <trkpt lat="48.64931" lon="1.75748">
        <ele>163.1</ele>
        <time>2015-07-05T10:32:04.000Z</time>
      </trkpt>
      <trkpt lat="48.64927" lon="1.75744">
        <ele>163.1</ele>
        <time>2015-07-05T10:32:07.000Z</time>
      </trkpt>
      <trkpt lat="48.64921" lon="1.75737">
        <ele>163.2</ele>
        <time>2015-07-05T10:32:12.000Z</time>
      </trkpt>
      <trkpt lat="48.64919" lon="1.75732">
        <ele>163.4</ele>
        <time>2015-07-05T10:32:18.000Z</time>
      </trkpt>
      <trkpt lat="48.64918" lon="1.7573">
        <ele>163.5</ele>
        <time>2015-07-05T10:32:22.000Z</time>
      </trkpt>
      <trkpt lat="48.64914" lon="1.75723">
        <ele>164</ele>
        <time>2015-07-05T10:32:50.000Z</time>
      </trkpt>
      <trkpt lat="48.64905" lon="1.75716">
        <ele>164.1</ele>
        <time>2015-07-05T10:32:55.000Z</time>
      </trkpt>
      <trkpt lat="48.64894" lon="1.75704">
        <ele>164.1</ele>
        <time>2015-07-05T10:33:00.000Z</time>
      </trkpt>
      <trkpt lat="48.64881" lon="1.75691">
        <ele>164.4</ele>
        <time>2015-07-05T10:33:05.000Z</time>
      </trkpt>
      <trkpt lat="48.6487" lon="1.75678">
        <ele>165.3</ele>
        <time>2015-07-05T10:33:09.000Z</time>
      </trkpt>
      <trkpt lat="48.64861" lon="1.75666">
        <ele>166</ele>
        <time>2015-07-05T10:33:13.000Z</time>
      </trkpt>
      <trkpt lat="48.64855" lon="1.75656">
        <ele>165.9</ele>
        <time>2015-07-05T10:33:19.000Z</time>
      </trkpt>
      <trkpt lat="48.64854" lon="1.75655">
        <ele>165.8</ele>
        <time>2015-07-05T10:33:20.000Z</time>
      </trkpt>
      <trkpt lat="48.64848" lon="1.75646">
        <ele>165.9</ele>
        <time>2015-07-05T10:33:26.000Z</time>
      </trkpt>
      <trkpt lat="48.64838" lon="1.7564">
        <ele>166</ele>
        <time>2015-07-05T10:33:32.000Z</time>
      </trkpt>
      <trkpt lat="48.64826" lon="1.75637">
        <ele>166.1</ele>
        <time>2015-07-05T10:33:39.000Z</time>
      </trkpt>
      <trkpt lat="48.64816" lon="1.75633">
        <ele>166.2</ele>
        <time>2015-07-05T10:33:46.000Z</time>
      </trkpt>
      <trkpt lat="48.64807" lon="1.75629">
        <ele>166.4</ele>
        <time>2015-07-05T10:33:52.000Z</time>
      </trkpt>
      <trkpt lat="48.64807" lon="1.75627">
        <ele>166.4</ele>
        <time>2015-07-05T10:33:53.000Z</time>
      </trkpt>
      <trkpt lat="48.64798" lon="1.7562">
        <ele>166.9</ele>
        <time>2015-07-05T10:34:00.000Z</time>
      </trkpt>
      <trkpt lat="48.64797" lon="1.75618">
        <ele>167</ele>
        <time>2015-07-05T10:34:01.000Z</time>
      </trkpt>
      <trkpt lat="48.64792" lon="1.75612">
        <ele>167.4</ele>
        <time>2015-07-05T10:34:05.000Z</time>
      </trkpt>
      <trkpt lat="48.64783" lon="1.75604">
        <ele>167.9</ele>
        <time>2015-07-05T10:34:11.000Z</time>
      </trkpt>
      <trkpt lat="48.64781" lon="1.75603">
        <ele>167.9</ele>
        <time>2015-07-05T10:34:12.000Z</time>
      </trkpt>
      <trkpt lat="48.64772" lon="1.75596">
        <ele>168.1</ele>
        <time>2015-07-05T10:34:19.000Z</time>
      </trkpt>
      <trkpt lat="48.64759" lon="1.7559">
        <ele>168.5</ele>
        <time>2015-07-05T10:34:27.000Z</time>
      </trkpt>
      <trkpt lat="48.64754" lon="1.75598">
        <ele>168.4</ele>
        <time>2015-07-05T10:34:32.000Z</time>
      </trkpt>
      <trkpt lat="48.64752" lon="1.756">
        <ele>168.4</ele>
        <time>2015-07-05T10:34:34.000Z</time>
      </trkpt>
      <trkpt lat="48.64743" lon="1.75613">
        <ele>167.7</ele>
        <time>2015-07-05T10:34:42.000Z</time>
      </trkpt>
      <trkpt lat="48.64737" lon="1.75624">
        <ele>167.1</ele>
        <time>2015-07-05T10:34:48.000Z</time>
      </trkpt>
      <trkpt lat="48.64732" lon="1.75633">
        <ele>166.6</ele>
        <time>2015-07-05T10:34:54.000Z</time>
      </trkpt>
      <trkpt lat="48.64727" lon="1.7564">
        <ele>166.2</ele>
        <time>2015-07-05T10:34:59.000Z</time>
      </trkpt>
      <trkpt lat="48.64722" lon="1.75647">
        <ele>166</ele>
        <time>2015-07-05T10:35:04.000Z</time>
      </trkpt>
      <trkpt lat="48.64713" lon="1.75659">
        <ele>165.1</ele>
        <time>2015-07-05T10:35:11.000Z</time>
      </trkpt>
      <trkpt lat="48.64702" lon="1.75675">
        <ele>163.6</ele>
        <time>2015-07-05T10:35:19.000Z</time>
      </trkpt>
      <trkpt lat="48.64698" lon="1.75678">
        <ele>163</ele>
        <time>2015-07-05T10:35:21.000Z</time>
      </trkpt>
      <trkpt lat="48.64693" lon="1.75689">
        <ele>162.2</ele>
        <time>2015-07-05T10:35:25.000Z</time>
      </trkpt>
      <trkpt lat="48.6468" lon="1.75706">
        <ele>161.4</ele>
        <time>2015-07-05T10:35:33.000Z</time>
      </trkpt>
      <trkpt lat="48.6467" lon="1.75717">
        <ele>159.8</ele>
        <time>2015-07-05T10:35:41.000Z</time>
      </trkpt>
      <trkpt lat="48.64662" lon="1.75724">
        <ele>158.8</ele>
        <time>2015-07-05T10:35:47.000Z</time>
      </trkpt>
      <trkpt lat="48.64652" lon="1.75733">
        <ele>158.4</ele>
        <time>2015-07-05T10:35:53.000Z</time>
      </trkpt>
      <trkpt lat="48.64648" lon="1.7574">
        <ele>157.9</ele>
        <time>2015-07-05T10:35:57.000Z</time>
      </trkpt>
      <trkpt lat="48.6464" lon="1.75749">
        <ele>156.3</ele>
        <time>2015-07-05T10:36:03.000Z</time>
      </trkpt>
      <trkpt lat="48.6463" lon="1.75764">
        <ele>156.8</ele>
        <time>2015-07-05T10:36:12.000Z</time>
      </trkpt>
      <trkpt lat="48.64626" lon="1.75772">
        <ele>156.9</ele>
        <time>2015-07-05T10:36:17.000Z</time>
      </trkpt>
      <trkpt lat="48.64618" lon="1.75785">
        <ele>156</ele>
        <time>2015-07-05T10:36:25.000Z</time>
      </trkpt>
      <trkpt lat="48.64615" lon="1.7579">
        <ele>155.5</ele>
        <time>2015-07-05T10:36:27.000Z</time>
      </trkpt>
      <trkpt lat="48.64606" lon="1.75805">
        <ele>154.5</ele>
        <time>2015-07-05T10:36:35.000Z</time>
      </trkpt>
      <trkpt lat="48.64598" lon="1.75824">
        <ele>154.6</ele>
        <time>2015-07-05T10:36:42.000Z</time>
      </trkpt>
      <trkpt lat="48.64588" lon="1.75842">
        <ele>152.9</ele>
        <time>2015-07-05T10:36:48.000Z</time>
      </trkpt>
      <trkpt lat="48.6458" lon="1.75857">
        <ele>151.3</ele>
        <time>2015-07-05T10:36:54.000Z</time>
      </trkpt>
      <trkpt lat="48.64573" lon="1.7587">
        <ele>151.1</ele>
        <time>2015-07-05T10:37:01.000Z</time>
      </trkpt>
      <trkpt lat="48.64565" lon="1.75886">
        <ele>150.5</ele>
        <time>2015-07-05T10:37:09.000Z</time>
      </trkpt>
      <trkpt lat="48.64557" lon="1.75897">
        <ele>150</ele>
        <time>2015-07-05T10:37:15.000Z</time>
      </trkpt>
      <trkpt lat="48.64552" lon="1.75912">
        <ele>150.6</ele>
        <time>2015-07-05T10:37:22.000Z</time>
      </trkpt>
      <trkpt lat="48.64546" lon="1.75929">
        <ele>150.5</ele>
        <time>2015-07-05T10:37:29.000Z</time>
      </trkpt>
      <trkpt lat="48.64542" lon="1.75945">
        <ele>149.5</ele>
        <time>2015-07-05T10:37:36.000Z</time>
      </trkpt>
      <trkpt lat="48.64542" lon="1.75947">
        <ele>149.5</ele>
        <time>2015-07-05T10:37:37.000Z</time>
      </trkpt>
      <trkpt lat="48.64538" lon="1.75958">
        <ele>149.2</ele>
        <time>2015-07-05T10:37:42.000Z</time>
      </trkpt>
      <trkpt lat="48.64536" lon="1.75964">
        <ele>148.9</ele>
        <time>2015-07-05T10:37:44.000Z</time>
      </trkpt>
      <trkpt lat="48.64533" lon="1.7597">
        <ele>148.5</ele>
        <time>2015-07-05T10:37:48.000Z</time>
      </trkpt>
      <trkpt lat="48.64526" lon="1.75984">
        <ele>148.1</ele>
        <time>2015-07-05T10:37:54.000Z</time>
      </trkpt>
      <trkpt lat="48.64524" lon="1.75993">
        <ele>148.1</ele>
        <time>2015-07-05T10:37:57.000Z</time>
      </trkpt>
      <trkpt lat="48.64519" lon="1.75996">
        <ele>148.1</ele>
        <time>2015-07-05T10:38:00.000Z</time>
      </trkpt>
      <trkpt lat="48.64511" lon="1.76018">
        <ele>147.6</ele>
        <time>2015-07-05T10:38:06.000Z</time>
      </trkpt>
      <trkpt lat="48.64504" lon="1.76039">
        <ele>147.2</ele>
        <time>2015-07-05T10:38:13.000Z</time>
      </trkpt>
      <trkpt lat="48.64503" lon="1.76044">
        <ele>147.1</ele>
        <time>2015-07-05T10:38:16.000Z</time>
      </trkpt>
      <trkpt lat="48.64498" lon="1.76059">
        <ele>147.2</ele>
        <time>2015-07-05T10:38:23.000Z</time>
      </trkpt>
      <trkpt lat="48.64497" lon="1.76062">
        <ele>147.3</ele>
        <time>2015-07-05T10:38:25.000Z</time>
      </trkpt>
      <trkpt lat="48.64495" lon="1.76075">
        <ele>147.3</ele>
        <time>2015-07-05T10:38:30.000Z</time>
      </trkpt>
      <trkpt lat="48.6449" lon="1.76086">
        <ele>147.3</ele>
        <time>2015-07-05T10:38:34.000Z</time>
      </trkpt>
      <trkpt lat="48.64486" lon="1.761">
        <ele>147.2</ele>
        <time>2015-07-05T10:38:41.000Z</time>
      </trkpt>
      <trkpt lat="48.64481" lon="1.76111">
        <ele>147</ele>
        <time>2015-07-05T10:38:46.000Z</time>
      </trkpt>
      <trkpt lat="48.64475" lon="1.76126">
        <ele>146.5</ele>
        <time>2015-07-05T10:38:52.000Z</time>
      </trkpt>
      <trkpt lat="48.64472" lon="1.76135">
        <ele>146.2</ele>
        <time>2015-07-05T10:38:56.000Z</time>
      </trkpt>
      <trkpt lat="48.64468" lon="1.76155">
        <ele>146.2</ele>
        <time>2015-07-05T10:39:02.000Z</time>
      </trkpt>
      <trkpt lat="48.64462" lon="1.76171">
        <ele>146.2</ele>
        <time>2015-07-05T10:39:07.000Z</time>
      </trkpt>
      <trkpt lat="48.64459" lon="1.76182">
        <ele>145.9</ele>
        <time>2015-07-05T10:39:12.000Z</time>
      </trkpt>
      <trkpt lat="48.64455" lon="1.76197">
        <ele>145.6</ele>
        <time>2015-07-05T10:39:19.000Z</time>
      </trkpt>
      <trkpt lat="48.64453" lon="1.76203">
        <ele>145.5</ele>
        <time>2015-07-05T10:39:22.000Z</time>
      </trkpt>
      <trkpt lat="48.64447" lon="1.76218">
        <ele>145.2</ele>
        <time>2015-07-05T10:39:29.000Z</time>
      </trkpt>
      <trkpt lat="48.64437" lon="1.76236">
        <ele>145.4</ele>
        <time>2015-07-05T10:39:38.000Z</time>
      </trkpt>
      <trkpt lat="48.64436" lon="1.7624">
        <ele>145.4</ele>
        <time>2015-07-05T10:39:42.000Z</time>
      </trkpt>
      <trkpt lat="48.64422" lon="1.7626">
        <ele>145.8</ele>
        <time>2015-07-05T10:40:45.000Z</time>
      </trkpt>
      <trkpt lat="48.64417" lon="1.76263">
        <ele>146</ele>
        <time>2015-07-05T10:40:50.000Z</time>
      </trkpt>
      <trkpt lat="48.64412" lon="1.7627">
        <ele>145.9</ele>
        <time>2015-07-05T10:40:56.000Z</time>
      </trkpt>
      <trkpt lat="48.64403" lon="1.76278">
        <ele>145.5</ele>
        <time>2015-07-05T10:41:03.000Z</time>
      </trkpt>
      <trkpt lat="48.64394" lon="1.76286">
        <ele>144.9</ele>
        <time>2015-07-05T10:41:10.000Z</time>
      </trkpt>
      <trkpt lat="48.64385" lon="1.76291">
        <ele>144.5</ele>
        <time>2015-07-05T10:41:16.000Z</time>
      </trkpt>
      <trkpt lat="48.64378" lon="1.76301">
        <ele>144.1</ele>
        <time>2015-07-05T10:41:23.000Z</time>
      </trkpt>
      <trkpt lat="48.64377" lon="1.76303">
        <ele>144.1</ele>
        <time>2015-07-05T10:41:24.000Z</time>
      </trkpt>
      <trkpt lat="48.64375" lon="1.76307">
        <ele>144</ele>
        <time>2015-07-05T10:41:29.000Z</time>
      </trkpt>
      <trkpt lat="48.64375" lon="1.76321">
        <ele>143.5</ele>
        <time>2015-07-05T10:42:14.000Z</time>
      </trkpt>
      <trkpt lat="48.64374" lon="1.76338">
        <ele>142.9</ele>
        <time>2015-07-05T10:42:21.000Z</time>
      </trkpt>
      <trkpt lat="48.6437" lon="1.76356">
        <ele>142.6</ele>
        <time>2015-07-05T10:42:30.000Z</time>
      </trkpt>
      <trkpt lat="48.64367" lon="1.76371">
        <ele>142.1</ele>
        <time>2015-07-05T10:42:37.000Z</time>
      </trkpt>
      <trkpt lat="48.64365" lon="1.76386">
        <ele>141.4</ele>
        <time>2015-07-05T10:42:45.000Z</time>
      </trkpt>
      <trkpt lat="48.64365" lon="1.76387">
        <ele>141.3</ele>
        <time>2015-07-05T10:42:48.000Z</time>
      </trkpt>
      <trkpt lat="48.64362" lon="1.76396">
        <ele>141.1</ele>
        <time>2015-07-05T10:42:56.000Z</time>
      </trkpt>
      <trkpt lat="48.6436" lon="1.76413">
        <ele>141</ele>
        <time>2015-07-05T10:43:03.000Z</time>
      </trkpt>
      <trkpt lat="48.64362" lon="1.76437">
        <ele>140.3</ele>
        <time>2015-07-05T10:43:13.000Z</time>
      </trkpt>
      <trkpt lat="48.64364" lon="1.76456">
        <ele>140</ele>
        <time>2015-07-05T10:43:19.000Z</time>
      </trkpt>
      <trkpt lat="48.64364" lon="1.76459">
        <ele>140</ele>
        <time>2015-07-05T10:43:23.000Z</time>
      </trkpt>
      <trkpt lat="48.64365" lon="1.76466">
        <ele>140</ele>
        <time>2015-07-05T10:45:38.000Z</time>
      </trkpt>
      <trkpt lat="48.64366" lon="1.76485">
        <ele>140</ele>
        <time>2015-07-05T10:45:45.000Z</time>
      </trkpt>
      <trkpt lat="48.64367" lon="1.76487">
        <ele>140</ele>
        <time>2015-07-05T10:45:46.000Z</time>
      </trkpt>
      <trkpt lat="48.64368" lon="1.765">
        <ele>140</ele>
        <time>2015-07-05T10:45:51.000Z</time>
      </trkpt>
      <trkpt lat="48.64367" lon="1.76524">
        <ele>140</ele>
        <time>2015-07-05T10:46:01.000Z</time>
      </trkpt>
      <trkpt lat="48.64367" lon="1.76538">
        <ele>140</ele>
        <time>2015-07-05T10:46:07.000Z</time>
      </trkpt>
      <trkpt lat="48.64367" lon="1.76553">
        <ele>140</ele>
        <time>2015-07-05T10:46:14.000Z</time>
      </trkpt>
      <trkpt lat="48.64367" lon="1.76573">
        <ele>140.5</ele>
        <time>2015-07-05T10:46:23.000Z</time>
      </trkpt>
      <trkpt lat="48.64366" lon="1.76585">
        <ele>140.9</ele>
        <time>2015-07-05T10:46:28.000Z</time>
      </trkpt>
      <trkpt lat="48.64365" lon="1.76606">
        <ele>141.8</ele>
        <time>2015-07-05T10:46:37.000Z</time>
      </trkpt>
      <trkpt lat="48.64363" lon="1.76631">
        <ele>142</ele>
        <time>2015-07-05T10:46:48.000Z</time>
      </trkpt>
      <trkpt lat="48.64358" lon="1.76652">
        <ele>142.5</ele>
        <time>2015-07-05T10:46:57.000Z</time>
      </trkpt>
      <trkpt lat="48.64355" lon="1.76663">
        <ele>142.9</ele>
        <time>2015-07-05T10:47:03.000Z</time>
      </trkpt>
      <trkpt lat="48.64348" lon="1.76674">
        <ele>143.7</ele>
        <time>2015-07-05T10:47:08.000Z</time>
      </trkpt>
      <trkpt lat="48.64332" lon="1.76695">
        <ele>145</ele>
        <time>2015-07-05T10:47:16.000Z</time>
      </trkpt>
      <trkpt lat="48.64319" lon="1.7671">
        <ele>144.8</ele>
        <time>2015-07-05T10:47:22.000Z</time>
      </trkpt>
      <trkpt lat="48.64302" lon="1.76734">
        <ele>144.8</ele>
        <time>2015-07-05T10:47:31.000Z</time>
      </trkpt>
      <trkpt lat="48.64294" lon="1.76747">
        <ele>145</ele>
        <time>2015-07-05T10:47:38.000Z</time>
      </trkpt>
      <trkpt lat="48.64282" lon="1.76767">
        <ele>144.8</ele>
        <time>2015-07-05T10:47:49.000Z</time>
      </trkpt>
      <trkpt lat="48.64274" lon="1.76781">
        <ele>145</ele>
        <time>2015-07-05T10:47:57.000Z</time>
      </trkpt>
      <trkpt lat="48.64267" lon="1.76794">
        <ele>145</ele>
        <time>2015-07-05T10:48:03.000Z</time>
      </trkpt>
      <trkpt lat="48.64257" lon="1.76813">
        <ele>144.5</ele>
        <time>2015-07-05T10:48:10.000Z</time>
      </trkpt>
      <trkpt lat="48.64243" lon="1.76839">
        <ele>144.2</ele>
        <time>2015-07-05T10:48:20.000Z</time>
      </trkpt>
      <trkpt lat="48.6423" lon="1.76861">
        <ele>144.3</ele>
        <time>2015-07-05T10:48:32.000Z</time>
      </trkpt>
      <trkpt lat="48.64216" lon="1.76881">
        <ele>143.8</ele>
        <time>2015-07-05T10:48:42.000Z</time>
      </trkpt>
      <trkpt lat="48.64207" lon="1.76895">
        <ele>143.4</ele>
        <time>2015-07-05T10:48:49.000Z</time>
      </trkpt>
      <trkpt lat="48.64197" lon="1.76908">
        <ele>143</ele>
        <time>2015-07-05T10:48:58.000Z</time>
      </trkpt>
      <trkpt lat="48.64193" lon="1.76914">
        <ele>143</ele>
        <time>2015-07-05T10:49:01.000Z</time>
      </trkpt>
      <trkpt lat="48.64182" lon="1.76928">
        <ele>142.8</ele>
        <time>2015-07-05T10:49:07.000Z</time>
      </trkpt>
      <trkpt lat="48.64172" lon="1.76943">
        <ele>142.2</ele>
        <time>2015-07-05T10:49:15.000Z</time>
      </trkpt>
      <trkpt lat="48.6417" lon="1.76949">
        <ele>142.3</ele>
        <time>2015-07-05T10:49:21.000Z</time>
      </trkpt>
      <trkpt lat="48.64167" lon="1.76958">
        <ele>142.5</ele>
        <time>2015-07-05T10:49:26.000Z</time>
      </trkpt>
      <trkpt lat="48.64159" lon="1.76969">
        <ele>142.6</ele>
        <time>2015-07-05T10:49:33.000Z</time>
      </trkpt>
      <trkpt lat="48.6415" lon="1.7698">
        <ele>142.6</ele>
        <time>2015-07-05T10:49:38.000Z</time>
      </trkpt>
      <trkpt lat="48.64141" lon="1.7699">
        <ele>142.7</ele>
        <time>2015-07-05T10:49:45.000Z</time>
      </trkpt>
      <trkpt lat="48.64127" lon="1.77005">
        <ele>142.5</ele>
        <time>2015-07-05T10:49:57.000Z</time>
      </trkpt>
      <trkpt lat="48.64111" lon="1.77023">
        <ele>142</ele>
        <time>2015-07-05T10:50:10.000Z</time>
      </trkpt>
      <trkpt lat="48.64101" lon="1.77035">
        <ele>142</ele>
        <time>2015-07-05T10:50:18.000Z</time>
      </trkpt>
      <trkpt lat="48.64095" lon="1.77041">
        <ele>142</ele>
        <time>2015-07-05T10:50:23.000Z</time>
      </trkpt>
      <trkpt lat="48.6408" lon="1.77059">
        <ele>142</ele>
        <time>2015-07-05T10:50:35.000Z</time>
      </trkpt>
      <trkpt lat="48.64071" lon="1.77069">
        <ele>142.1</ele>
        <time>2015-07-05T10:50:41.000Z</time>
      </trkpt>
      <trkpt lat="48.64063" lon="1.77078">
        <ele>142.1</ele>
        <time>2015-07-05T10:50:47.000Z</time>
      </trkpt>
      <trkpt lat="48.64054" lon="1.77079">
        <ele>141.8</ele>
        <time>2015-07-05T10:50:55.000Z</time>
      </trkpt>
      <trkpt lat="48.64041" lon="1.77074">
        <ele>141.7</ele>
        <time>2015-07-05T10:51:04.000Z</time>
      </trkpt>
      <trkpt lat="48.64031" lon="1.77073">
        <ele>141.6</ele>
        <time>2015-07-05T10:51:11.000Z</time>
      </trkpt>
      <trkpt lat="48.64023" lon="1.7707">
        <ele>141.8</ele>
        <time>2015-07-05T10:51:16.000Z</time>
      </trkpt>
      <trkpt lat="48.6401" lon="1.77068">
        <ele>142.8</ele>
        <time>2015-07-05T10:51:25.000Z</time>
      </trkpt>
      <trkpt lat="48.63997" lon="1.77067">
        <ele>143.5</ele>
        <time>2015-07-05T10:51:31.000Z</time>
      </trkpt>
      <trkpt lat="48.63986" lon="1.77066">
        <ele>143.9</ele>
        <time>2015-07-05T10:51:39.000Z</time>
      </trkpt>
      <trkpt lat="48.63971" lon="1.77064">
        <ele>144.4</ele>
        <time>2015-07-05T10:51:49.000Z</time>
      </trkpt>
      <trkpt lat="48.63959" lon="1.77063">
        <ele>144.6</ele>
        <time>2015-07-05T10:51:54.000Z</time>
      </trkpt>
      <trkpt lat="48.63949" lon="1.77063">
        <ele>144.9</ele>
        <time>2015-07-05T10:52:00.000Z</time>
      </trkpt>
      <trkpt lat="48.63939" lon="1.77064">
        <ele>145</ele>
        <time>2015-07-05T10:52:07.000Z</time>
      </trkpt>
      <trkpt lat="48.6393" lon="1.77065">
        <ele>145</ele>
        <time>2015-07-05T10:52:14.000Z</time>
      </trkpt>
      <trkpt lat="48.63919" lon="1.77068">
        <ele>145</ele>
        <time>2015-07-05T10:52:23.000Z</time>
      </trkpt>
      <trkpt lat="48.63908" lon="1.77078">
        <ele>144.7</ele>
        <time>2015-07-05T10:52:32.000Z</time>
      </trkpt>
      <trkpt lat="48.63899" lon="1.77088">
        <ele>144.2</ele>
        <time>2015-07-05T10:52:42.000Z</time>
      </trkpt>
      <trkpt lat="48.63898" lon="1.77088">
        <ele>144.2</ele>
        <time>2015-07-05T10:52:43.000Z</time>
      </trkpt>
      <trkpt lat="48.63886" lon="1.77097">
        <ele>143.5</ele>
        <time>2015-07-05T10:58:38.000Z</time>
      </trkpt>
      <trkpt lat="48.63881" lon="1.771">
        <ele>143.4</ele>
        <time>2015-07-05T10:58:44.000Z</time>
      </trkpt>
      <trkpt lat="48.63875" lon="1.77104">
        <ele>143.3</ele>
        <time>2015-07-05T10:58:54.000Z</time>
      </trkpt>
      <trkpt lat="48.63867" lon="1.77112">
        <ele>143</ele>
        <time>2015-07-05T10:59:02.000Z</time>
      </trkpt>
      <trkpt lat="48.63866" lon="1.77113">
        <ele>142.9</ele>
        <time>2015-07-05T10:59:04.000Z</time>
      </trkpt>
      <trkpt lat="48.63853" lon="1.77118">
        <ele>142.2</ele>
        <time>2015-07-05T10:59:13.000Z</time>
      </trkpt>
      <trkpt lat="48.63849" lon="1.77117">
        <ele>142</ele>
        <time>2015-07-05T10:59:16.000Z</time>
      </trkpt>
      <trkpt lat="48.63839" lon="1.77118">
        <ele>141.4</ele>
        <time>2015-07-05T10:59:23.000Z</time>
      </trkpt>
      <trkpt lat="48.63834" lon="1.77119">
        <ele>141</ele>
        <time>2015-07-05T10:59:27.000Z</time>
      </trkpt>
      <trkpt lat="48.63825" lon="1.77121">
        <ele>140.6</ele>
        <time>2015-07-05T10:59:33.000Z</time>
      </trkpt>
      <trkpt lat="48.63821" lon="1.77121">
        <ele>140.4</ele>
        <time>2015-07-05T10:59:36.000Z</time>
      </trkpt>
      <trkpt lat="48.63806" lon="1.77126">
        <ele>139.5</ele>
        <time>2015-07-05T10:59:46.000Z</time>
      </trkpt>
      <trkpt lat="48.63791" lon="1.7713">
        <ele>138.8</ele>
        <time>2015-07-05T10:59:56.000Z</time>
      </trkpt>
      <trkpt lat="48.6378" lon="1.77133">
        <ele>138.3</ele>
        <time>2015-07-05T11:00:04.000Z</time>
      </trkpt>
      <trkpt lat="48.63777" lon="1.77133">
        <ele>138.2</ele>
        <time>2015-07-05T11:00:06.000Z</time>
      </trkpt>
      <trkpt lat="48.63768" lon="1.77134">
        <ele>138.1</ele>
        <time>2015-07-05T11:00:12.000Z</time>
      </trkpt>
      <trkpt lat="48.63759" lon="1.77132">
        <ele>138.1</ele>
        <time>2015-07-05T11:00:18.000Z</time>
      </trkpt>
      <trkpt lat="48.63755" lon="1.77125">
        <ele>138.1</ele>
        <time>2015-07-05T11:00:22.000Z</time>
      </trkpt>
      <trkpt lat="48.63748" lon="1.7712">
        <ele>137.9</ele>
        <time>2015-07-05T11:00:27.000Z</time>
      </trkpt>
      <trkpt lat="48.63742" lon="1.77111">
        <ele>137.7</ele>
        <time>2015-07-05T11:00:33.000Z</time>
      </trkpt>
      <trkpt lat="48.63739" lon="1.77108">
        <ele>137.7</ele>
        <time>2015-07-05T11:00:35.000Z</time>
      </trkpt>
      <trkpt lat="48.63732" lon="1.77096">
        <ele>137.9</ele>
        <time>2015-07-05T11:00:42.000Z</time>
      </trkpt>
      <trkpt lat="48.63725" lon="1.77085">
        <ele>138</ele>
        <time>2015-07-05T11:00:48.000Z</time>
      </trkpt>
      <trkpt lat="48.63719" lon="1.77073">
        <ele>137.9</ele>
        <time>2015-07-05T11:00:54.000Z</time>
      </trkpt>
      <trkpt lat="48.63705" lon="1.77057">
        <ele>137.4</ele>
        <time>2015-07-05T11:00:59.000Z</time>
      </trkpt>
      <trkpt lat="48.63694" lon="1.77054">
        <ele>137</ele>
        <time>2015-07-05T11:01:03.000Z</time>
      </trkpt>
      <trkpt lat="48.63692" lon="1.77055">
        <ele>136.9</ele>
        <time>2015-07-05T11:01:04.000Z</time>
      </trkpt>
      <trkpt lat="48.63675" lon="1.77058">
        <ele>136.3</ele>
        <time>2015-07-05T11:01:13.000Z</time>
      </trkpt>
      <trkpt lat="48.63666" lon="1.77057">
        <ele>136</ele>
        <time>2015-07-05T11:01:19.000Z</time>
      </trkpt>
      <trkpt lat="48.63662" lon="1.77056">
        <ele>136</ele>
        <time>2015-07-05T11:01:22.000Z</time>
      </trkpt>
      <trkpt lat="48.63652" lon="1.77062">
        <ele>136</ele>
        <time>2015-07-05T11:01:29.000Z</time>
      </trkpt>
      <trkpt lat="48.6365" lon="1.77064">
        <ele>136</ele>
        <time>2015-07-05T11:01:30.000Z</time>
      </trkpt>
      <trkpt lat="48.63638" lon="1.77069">
        <ele>136</ele>
        <time>2015-07-05T11:01:38.000Z</time>
      </trkpt>
      <trkpt lat="48.63625" lon="1.77073">
        <ele>136</ele>
        <time>2015-07-05T11:01:46.000Z</time>
      </trkpt>
      <trkpt lat="48.63614" lon="1.77077">
        <ele>136</ele>
        <time>2015-07-05T11:01:53.000Z</time>
      </trkpt>
      <trkpt lat="48.63604" lon="1.77081">
        <ele>136</ele>
        <time>2015-07-05T11:02:00.000Z</time>
      </trkpt>
      <trkpt lat="48.63592" lon="1.77086">
        <ele>136</ele>
        <time>2015-07-05T11:02:07.000Z</time>
      </trkpt>
      <trkpt lat="48.63584" lon="1.7709">
        <ele>136</ele>
        <time>2015-07-05T11:02:13.000Z</time>
      </trkpt>
      <trkpt lat="48.63576" lon="1.77091">
        <ele>136</ele>
        <time>2015-07-05T11:02:19.000Z</time>
      </trkpt>
      <trkpt lat="48.63572" lon="1.77091">
        <ele>136</ele>
        <time>2015-07-05T11:02:25.000Z</time>
      </trkpt>
      <trkpt lat="48.63572" lon="1.7709">
        <ele>136</ele>
        <time>2015-07-05T11:02:26.000Z</time>
      </trkpt>
      <trkpt lat="48.63566" lon="1.77092">
        <ele>136</ele>
        <time>2015-07-05T11:02:36.000Z</time>
      </trkpt>
      <trkpt lat="48.63553" lon="1.77096">
        <ele>136.1</ele>
        <time>2015-07-05T11:02:40.000Z</time>
      </trkpt>
      <trkpt lat="48.63534" lon="1.77096">
        <ele>137.1</ele>
        <time>2015-07-05T11:02:46.000Z</time>
      </trkpt>
      <trkpt lat="48.63525" lon="1.77094">
        <ele>137.7</ele>
        <time>2015-07-05T11:02:51.000Z</time>
      </trkpt>
      <trkpt lat="48.63513" lon="1.77092">
        <ele>138.6</ele>
        <time>2015-07-05T11:02:57.000Z</time>
      </trkpt>
      <trkpt lat="48.63498" lon="1.77091">
        <ele>139.7</ele>
        <time>2015-07-05T11:03:05.000Z</time>
      </trkpt>
      <trkpt lat="48.63489" lon="1.77091">
        <ele>140.3</ele>
        <time>2015-07-05T11:03:12.000Z</time>
      </trkpt>
      <trkpt lat="48.63482" lon="1.77094">
        <ele>141</ele>
        <time>2015-07-05T11:03:17.000Z</time>
      </trkpt>
      <trkpt lat="48.63465" lon="1.771">
        <ele>143.3</ele>
        <time>2015-07-05T11:03:22.000Z</time>
      </trkpt>
      <trkpt lat="48.63441" lon="1.7711">
        <ele>147.3</ele>
        <time>2015-07-05T11:03:29.000Z</time>
      </trkpt>
      <trkpt lat="48.63416" lon="1.77125">
        <ele>150</ele>
        <time>2015-07-05T11:03:37.000Z</time>
      </trkpt>
      <trkpt lat="48.63406" lon="1.77132">
        <ele>150.8</ele>
        <time>2015-07-05T11:03:43.000Z</time>
      </trkpt>
      <trkpt lat="48.63394" lon="1.77139">
        <ele>151.6</ele>
        <time>2015-07-05T11:03:52.000Z</time>
      </trkpt>
      <trkpt lat="48.63389" lon="1.77139">
        <ele>152</ele>
        <time>2015-07-05T11:03:56.000Z</time>
      </trkpt>
      <trkpt lat="48.63381" lon="1.77124">
        <ele>152.4</ele>
        <time>2015-07-05T11:04:04.000Z</time>
      </trkpt>
      <trkpt lat="48.63378" lon="1.7711">
        <ele>152.4</ele>
        <time>2015-07-05T11:04:10.000Z</time>
      </trkpt>
      <trkpt lat="48.63376" lon="1.77091">
        <ele>152.5</ele>
        <time>2015-07-05T11:04:18.000Z</time>
      </trkpt>
      <trkpt lat="48.63374" lon="1.77073">
        <ele>152.1</ele>
        <time>2015-07-05T11:04:25.000Z</time>
      </trkpt>
      <trkpt lat="48.63372" lon="1.77049">
        <ele>151.5</ele>
        <time>2015-07-05T11:04:32.000Z</time>
      </trkpt>
      <trkpt lat="48.6337" lon="1.77033">
        <ele>151.4</ele>
        <time>2015-07-05T11:04:39.000Z</time>
      </trkpt>
      <trkpt lat="48.63368" lon="1.77011">
        <ele>151.4</ele>
        <time>2015-07-05T11:04:49.000Z</time>
      </trkpt>
      <trkpt lat="48.63362" lon="1.76989">
        <ele>151.5</ele>
        <time>2015-07-05T11:04:57.000Z</time>
      </trkpt>
      <trkpt lat="48.63356" lon="1.76966">
        <ele>151</ele>
        <time>2015-07-05T11:05:04.000Z</time>
      </trkpt>
      <trkpt lat="48.6335" lon="1.76947">
        <ele>150.9</ele>
        <time>2015-07-05T11:05:13.000Z</time>
      </trkpt>
      <trkpt lat="48.63343" lon="1.7693">
        <ele>151.1</ele>
        <time>2015-07-05T11:05:22.000Z</time>
      </trkpt>
      <trkpt lat="48.63341" lon="1.76924">
        <ele>151.3</ele>
        <time>2015-07-05T11:05:25.000Z</time>
      </trkpt>
      <trkpt lat="48.63334" lon="1.76907">
        <ele>151.9</ele>
        <time>2015-07-05T11:05:32.000Z</time>
      </trkpt>
      <trkpt lat="48.63327" lon="1.7689">
        <ele>152.2</ele>
        <time>2015-07-05T11:05:39.000Z</time>
      </trkpt>
      <trkpt lat="48.63319" lon="1.76868">
        <ele>152.5</ele>
        <time>2015-07-05T11:05:50.000Z</time>
      </trkpt>
      <trkpt lat="48.63316" lon="1.76858">
        <ele>152.8</ele>
        <time>2015-07-05T11:05:55.000Z</time>
      </trkpt>
      <trkpt lat="48.63309" lon="1.76841">
        <ele>153</ele>
        <time>2015-07-05T11:06:04.000Z</time>
      </trkpt>
      <trkpt lat="48.63304" lon="1.76828">
        <ele>153.3</ele>
        <time>2015-07-05T11:06:10.000Z</time>
      </trkpt>
      <trkpt lat="48.63301" lon="1.7682">
        <ele>153.8</ele>
        <time>2015-07-05T11:06:14.000Z</time>
      </trkpt>
      <trkpt lat="48.6329" lon="1.76794">
        <ele>155.1</ele>
        <time>2015-07-05T11:06:24.000Z</time>
      </trkpt>
      <trkpt lat="48.63285" lon="1.76778">
        <ele>155.5</ele>
        <time>2015-07-05T11:06:29.000Z</time>
      </trkpt>
      <trkpt lat="48.63282" lon="1.76767">
        <ele>156.1</ele>
        <time>2015-07-05T11:06:34.000Z</time>
      </trkpt>
      <trkpt lat="48.63278" lon="1.76758">
        <ele>156.7</ele>
        <time>2015-07-05T11:06:38.000Z</time>
      </trkpt>
      <trkpt lat="48.63276" lon="1.76749">
        <ele>157.2</ele>
        <time>2015-07-05T11:06:42.000Z</time>
      </trkpt>
      <trkpt lat="48.63274" lon="1.76743">
        <ele>157.5</ele>
        <time>2015-07-05T11:06:45.000Z</time>
      </trkpt>
      <trkpt lat="48.63266" lon="1.76723">
        <ele>158.4</ele>
        <time>2015-07-05T11:06:56.000Z</time>
      </trkpt>
      <trkpt lat="48.63256" lon="1.76705">
        <ele>158.8</ele>
        <time>2015-07-05T11:07:04.000Z</time>
      </trkpt>
      <trkpt lat="48.63249" lon="1.76687">
        <ele>159</ele>
        <time>2015-07-05T11:07:11.000Z</time>
      </trkpt>
      <trkpt lat="48.63246" lon="1.76674">
        <ele>159.2</ele>
        <time>2015-07-05T11:07:16.000Z</time>
      </trkpt>
      <trkpt lat="48.63241" lon="1.76665">
        <ele>159.3</ele>
        <time>2015-07-05T11:07:19.000Z</time>
      </trkpt>
      <trkpt lat="48.63236" lon="1.76653">
        <ele>159.5</ele>
        <time>2015-07-05T11:07:25.000Z</time>
      </trkpt>
      <trkpt lat="48.63231" lon="1.76642">
        <ele>159.7</ele>
        <time>2015-07-05T11:07:31.000Z</time>
      </trkpt>
      <trkpt lat="48.63221" lon="1.76641">
        <ele>160.1</ele>
        <time>2015-07-05T11:07:37.000Z</time>
      </trkpt>
      <trkpt lat="48.63208" lon="1.76644">
        <ele>160.5</ele>
        <time>2015-07-05T11:07:43.000Z</time>
      </trkpt>
      <trkpt lat="48.63194" lon="1.76651">
        <ele>161</ele>
        <time>2015-07-05T11:07:53.000Z</time>
      </trkpt>
      <trkpt lat="48.63183" lon="1.76658">
        <ele>161</ele>
        <time>2015-07-05T11:08:00.000Z</time>
      </trkpt>
      <trkpt lat="48.63175" lon="1.76662">
        <ele>161</ele>
        <time>2015-07-05T11:08:05.000Z</time>
      </trkpt>
      <trkpt lat="48.63163" lon="1.76667">
        <ele>161.1</ele>
        <time>2015-07-05T11:08:13.000Z</time>
      </trkpt>
      <trkpt lat="48.63152" lon="1.76672">
        <ele>161.5</ele>
        <time>2015-07-05T11:08:18.000Z</time>
      </trkpt>
      <trkpt lat="48.63136" lon="1.76682">
        <ele>162</ele>
        <time>2015-07-05T11:08:26.000Z</time>
      </trkpt>
      <trkpt lat="48.63129" lon="1.76684">
        <ele>162</ele>
        <time>2015-07-05T11:08:31.000Z</time>
      </trkpt>
      <trkpt lat="48.63114" lon="1.76692">
        <ele>162</ele>
        <time>2015-07-05T11:08:41.000Z</time>
      </trkpt>
      <trkpt lat="48.63101" lon="1.76699">
        <ele>162.4</ele>
        <time>2015-07-05T11:08:49.000Z</time>
      </trkpt>
      <trkpt lat="48.63088" lon="1.76705">
        <ele>162.8</ele>
        <time>2015-07-05T11:08:55.000Z</time>
      </trkpt>
      <trkpt lat="48.63078" lon="1.7671">
        <ele>163</ele>
        <time>2015-07-05T11:09:01.000Z</time>
      </trkpt>
      <trkpt lat="48.63067" lon="1.76716">
        <ele>163</ele>
        <time>2015-07-05T11:09:09.000Z</time>
      </trkpt>
      <trkpt lat="48.63055" lon="1.76722">
        <ele>163</ele>
        <time>2015-07-05T11:09:17.000Z</time>
      </trkpt>
      <trkpt lat="48.63038" lon="1.76729">
        <ele>163</ele>
        <time>2015-07-05T11:09:28.000Z</time>
      </trkpt>
      <trkpt lat="48.63029" lon="1.76732">
        <ele>163</ele>
        <time>2015-07-05T11:09:34.000Z</time>
      </trkpt>
      <trkpt lat="48.63017" lon="1.76736">
        <ele>163</ele>
        <time>2015-07-05T11:09:42.000Z</time>
      </trkpt>
      <trkpt lat="48.63005" lon="1.76742">
        <ele>163</ele>
        <time>2015-07-05T11:09:50.000Z</time>
      </trkpt>
      <trkpt lat="48.62996" lon="1.76743">
        <ele>163</ele>
        <time>2015-07-05T11:09:54.000Z</time>
      </trkpt>
      <trkpt lat="48.62979" lon="1.76749">
        <ele>163</ele>
        <time>2015-07-05T11:10:00.000Z</time>
      </trkpt>
      <trkpt lat="48.62967" lon="1.76753">
        <ele>163</ele>
        <time>2015-07-05T11:10:06.000Z</time>
      </trkpt>
      <trkpt lat="48.62956" lon="1.76757">
        <ele>163</ele>
        <time>2015-07-05T11:10:13.000Z</time>
      </trkpt>
      <trkpt lat="48.62946" lon="1.76762">
        <ele>163</ele>
        <time>2015-07-05T11:10:18.000Z</time>
      </trkpt>
      <trkpt lat="48.62931" lon="1.76765">
        <ele>163</ele>
        <time>2015-07-05T11:10:24.000Z</time>
      </trkpt>
      <trkpt lat="48.62919" lon="1.76763">
        <ele>163</ele>
        <time>2015-07-05T11:10:31.000Z</time>
      </trkpt>
      <trkpt lat="48.62905" lon="1.76756">
        <ele>163</ele>
        <time>2015-07-05T11:10:39.000Z</time>
      </trkpt>
      <trkpt lat="48.62891" lon="1.76749">
        <ele>163</ele>
        <time>2015-07-05T11:10:49.000Z</time>
      </trkpt>
      <trkpt lat="48.62876" lon="1.76741">
        <ele>162.5</ele>
        <time>2015-07-05T11:11:00.000Z</time>
      </trkpt>
      <trkpt lat="48.62873" lon="1.76739">
        <ele>162.4</ele>
        <time>2015-07-05T11:11:02.000Z</time>
      </trkpt>
      <trkpt lat="48.62868" lon="1.76735">
        <ele>162.2</ele>
        <time>2015-07-05T11:11:06.000Z</time>
      </trkpt>
      <trkpt lat="48.62858" lon="1.76733">
        <ele>162</ele>
        <time>2015-07-05T11:11:12.000Z</time>
      </trkpt>
      <trkpt lat="48.62851" lon="1.76729">
        <ele>162</ele>
        <time>2015-07-05T11:11:17.000Z</time>
      </trkpt>
      <trkpt lat="48.62835" lon="1.76721">
        <ele>162</ele>
        <time>2015-07-05T11:11:28.000Z</time>
      </trkpt>
      <trkpt lat="48.62822" lon="1.76715">
        <ele>162</ele>
        <time>2015-07-05T11:11:37.000Z</time>
      </trkpt>
      <trkpt lat="48.62813" lon="1.76712">
        <ele>162</ele>
        <time>2015-07-05T11:11:43.000Z</time>
      </trkpt>
      <trkpt lat="48.62804" lon="1.76706">
        <ele>161.9</ele>
        <time>2015-07-05T11:11:48.000Z</time>
      </trkpt>
      <trkpt lat="48.62793" lon="1.767">
        <ele>161.5</ele>
        <time>2015-07-05T11:11:56.000Z</time>
      </trkpt>
      <trkpt lat="48.62779" lon="1.76694">
        <ele>161</ele>
        <time>2015-07-05T11:12:05.000Z</time>
      </trkpt>
      <trkpt lat="48.62768" lon="1.76689">
        <ele>160.2</ele>
        <time>2015-07-05T11:12:12.000Z</time>
      </trkpt>
      <trkpt lat="48.62754" lon="1.76684">
        <ele>159.2</ele>
        <time>2015-07-05T11:12:19.000Z</time>
      </trkpt>
      <trkpt lat="48.62736" lon="1.76669">
        <ele>158.5</ele>
        <time>2015-07-05T11:12:25.000Z</time>
      </trkpt>
      <trkpt lat="48.62726" lon="1.76642">
        <ele>158</ele>
        <time>2015-07-05T11:12:30.000Z</time>
      </trkpt>
      <trkpt lat="48.62722" lon="1.76625">
        <ele>157.5</ele>
        <time>2015-07-05T11:12:35.000Z</time>
      </trkpt>
      <trkpt lat="48.62718" lon="1.76599">
        <ele>157.3</ele>
        <time>2015-07-05T11:12:46.000Z</time>
      </trkpt>
      <trkpt lat="48.62715" lon="1.7658">
        <ele>157.5</ele>
        <time>2015-07-05T11:12:54.000Z</time>
      </trkpt>
      <trkpt lat="48.62711" lon="1.76562">
        <ele>157.4</ele>
        <time>2015-07-05T11:13:02.000Z</time>
      </trkpt>
      <trkpt lat="48.62707" lon="1.76546">
        <ele>157.7</ele>
        <time>2015-07-05T11:13:06.000Z</time>
      </trkpt>
      <trkpt lat="48.62702" lon="1.76525">
        <ele>158.1</ele>
        <time>2015-07-05T11:13:14.000Z</time>
      </trkpt>
      <trkpt lat="48.62699" lon="1.76507">
        <ele>157.9</ele>
        <time>2015-07-05T11:13:20.000Z</time>
      </trkpt>
      <trkpt lat="48.62695" lon="1.7649">
        <ele>158</ele>
        <time>2015-07-05T11:13:27.000Z</time>
      </trkpt>
      <trkpt lat="48.62693" lon="1.76483">
        <ele>158.1</ele>
        <time>2015-07-05T11:13:30.000Z</time>
      </trkpt>
      <trkpt lat="48.62689" lon="1.76469">
        <ele>158.4</ele>
        <time>2015-07-05T11:13:36.000Z</time>
      </trkpt>
      <trkpt lat="48.62686" lon="1.76455">
        <ele>158.4</ele>
        <time>2015-07-05T11:13:42.000Z</time>
      </trkpt>
      <trkpt lat="48.62683" lon="1.7644">
        <ele>158.4</ele>
        <time>2015-07-05T11:13:49.000Z</time>
      </trkpt>
      <trkpt lat="48.62682" lon="1.76435">
        <ele>158.4</ele>
        <time>2015-07-05T11:13:51.000Z</time>
      </trkpt>
      <trkpt lat="48.62678" lon="1.76415">
        <ele>158.6</ele>
        <time>2015-07-05T11:14:00.000Z</time>
      </trkpt>
      <trkpt lat="48.62674" lon="1.76398">
        <ele>158.8</ele>
        <time>2015-07-05T11:14:08.000Z</time>
      </trkpt>
      <trkpt lat="48.62672" lon="1.76392">
        <ele>158.8</ele>
        <time>2015-07-05T11:14:11.000Z</time>
      </trkpt>
      <trkpt lat="48.6267" lon="1.76385">
        <ele>158.9</ele>
        <time>2015-07-05T11:14:15.000Z</time>
      </trkpt>
      <trkpt lat="48.62667" lon="1.76378">
        <ele>159</ele>
        <time>2015-07-05T11:14:20.000Z</time>
      </trkpt>
      <trkpt lat="48.62661" lon="1.76367">
        <ele>159.2</ele>
        <time>2015-07-05T11:14:25.000Z</time>
      </trkpt>
      <trkpt lat="48.6265" lon="1.76353">
        <ele>159.5</ele>
        <time>2015-07-05T11:14:30.000Z</time>
      </trkpt>
      <trkpt lat="48.62642" lon="1.76348">
        <ele>159.5</ele>
        <time>2015-07-05T11:14:35.000Z</time>
      </trkpt>
      <trkpt lat="48.62635" lon="1.7634">
        <ele>159.3</ele>
        <time>2015-07-05T11:14:40.000Z</time>
      </trkpt>
      <trkpt lat="48.62632" lon="1.76336">
        <ele>159.3</ele>
        <time>2015-07-05T11:14:43.000Z</time>
      </trkpt>
      <trkpt lat="48.6262" lon="1.76327">
        <ele>159.8</ele>
        <time>2015-07-05T11:14:51.000Z</time>
      </trkpt>
      <trkpt lat="48.62613" lon="1.76325">
        <ele>160</ele>
        <time>2015-07-05T11:14:56.000Z</time>
      </trkpt>
      <trkpt lat="48.62606" lon="1.76322">
        <ele>159.9</ele>
        <time>2015-07-05T11:15:02.000Z</time>
      </trkpt>
      <trkpt lat="48.626" lon="1.7632">
        <ele>159.8</ele>
        <time>2015-07-05T11:15:06.000Z</time>
      </trkpt>
      <trkpt lat="48.62587" lon="1.7632">
        <ele>159.6</ele>
        <time>2015-07-05T11:15:13.000Z</time>
      </trkpt>
      <trkpt lat="48.6258" lon="1.7632">
        <ele>159.4</ele>
        <time>2015-07-05T11:15:18.000Z</time>
      </trkpt>
      <trkpt lat="48.62574" lon="1.7632">
        <ele>159.2</ele>
        <time>2015-07-05T11:15:20.000Z</time>
      </trkpt>
      <trkpt lat="48.62566" lon="1.76315">
        <ele>158.5</ele>
        <time>2015-07-05T11:15:26.000Z</time>
      </trkpt>
      <trkpt lat="48.6256" lon="1.76312">
        <ele>157.9</ele>
        <time>2015-07-05T11:15:30.000Z</time>
      </trkpt>
      <trkpt lat="48.62552" lon="1.763">
        <ele>157.7</ele>
        <time>2015-07-05T11:15:38.000Z</time>
      </trkpt>
      <trkpt lat="48.62549" lon="1.76296">
        <ele>158.1</ele>
        <time>2015-07-05T11:15:41.000Z</time>
      </trkpt>
      <trkpt lat="48.62544" lon="1.76285">
        <ele>158.5</ele>
        <time>2015-07-05T11:15:47.000Z</time>
      </trkpt>
      <trkpt lat="48.62534" lon="1.76269">
        <ele>158</ele>
        <time>2015-07-05T11:15:56.000Z</time>
      </trkpt>
      <trkpt lat="48.62528" lon="1.76258">
        <ele>157.3</ele>
        <time>2015-07-05T11:16:02.000Z</time>
      </trkpt>
      <trkpt lat="48.62519" lon="1.76246">
        <ele>156.6</ele>
        <time>2015-07-05T11:16:09.000Z</time>
      </trkpt>
      <trkpt lat="48.62508" lon="1.76235">
        <ele>155.9</ele>
        <time>2015-07-05T11:16:17.000Z</time>
      </trkpt>
      <trkpt lat="48.62504" lon="1.76219">
        <ele>155.1</ele>
        <time>2015-07-05T11:16:23.000Z</time>
      </trkpt>
      <trkpt lat="48.62504" lon="1.76212">
        <ele>154.9</ele>
        <time>2015-07-05T11:16:26.000Z</time>
      </trkpt>
      <trkpt lat="48.62505" lon="1.76188">
        <ele>154</ele>
        <time>2015-07-05T11:16:32.000Z</time>
      </trkpt>
      <trkpt lat="48.62512" lon="1.76154">
        <ele>152.4</ele>
        <time>2015-07-05T11:16:38.000Z</time>
      </trkpt>
      <trkpt lat="48.62521" lon="1.76115">
        <ele>150.9</ele>
        <time>2015-07-05T11:16:46.000Z</time>
      </trkpt>
      <trkpt lat="48.62525" lon="1.76099">
        <ele>150.5</ele>
        <time>2015-07-05T11:16:53.000Z</time>
      </trkpt>
      <trkpt lat="48.62531" lon="1.76078">
        <ele>150.3</ele>
        <time>2015-07-05T11:17:02.000Z</time>
      </trkpt>
      <trkpt lat="48.62538" lon="1.7605">
        <ele>151</ele>
        <time>2015-07-05T11:17:11.000Z</time>
      </trkpt>
      <trkpt lat="48.62545" lon="1.76038">
        <ele>151</ele>
        <time>2015-07-05T11:17:18.000Z</time>
      </trkpt>
      <trkpt lat="48.62553" lon="1.76033">
        <ele>150.8</ele>
        <time>2015-07-05T11:17:24.000Z</time>
      </trkpt>
      <trkpt lat="48.62555" lon="1.76034">
        <ele>151.1</ele>
        <time>2015-07-05T11:17:29.000Z</time>
      </trkpt>
      <trkpt lat="48.62547" lon="1.76039">
        <ele>151.3</ele>
        <time>2015-07-05T11:17:32.000Z</time>
      </trkpt>
      <trkpt lat="48.6254" lon="1.76042">
        <ele>150.9</ele>
        <time>2015-07-05T11:17:33.000Z</time>
      </trkpt>
      <trkpt lat="48.62555" lon="1.76024">
        <ele>150.7</ele>
        <time>2015-07-05T11:17:45.000Z</time>
      </trkpt>
      <trkpt lat="48.62582" lon="1.76034">
        <ele>149.6</ele>
        <time>2015-07-05T11:17:47.000Z</time>
      </trkpt>
      <trkpt lat="48.62584" lon="1.76034">
        <ele>149.4</ele>
        <time>2015-07-05T11:17:50.000Z</time>
      </trkpt>
      <trkpt lat="48.62594" lon="1.76021">
        <ele>149.2</ele>
        <time>2015-07-05T11:17:55.000Z</time>
      </trkpt>
      <trkpt lat="48.62608" lon="1.75999">
        <ele>148.3</ele>
        <time>2015-07-05T11:18:02.000Z</time>
      </trkpt>
      <trkpt lat="48.6261" lon="1.75996">
        <ele>148.2</ele>
        <time>2015-07-05T11:18:04.000Z</time>
      </trkpt>
      <trkpt lat="48.62612" lon="1.75993">
        <ele>148.2</ele>
        <time>2015-07-05T11:18:06.000Z</time>
      </trkpt>
      <trkpt lat="48.62615" lon="1.75989">
        <ele>148.2</ele>
        <time>2015-07-05T11:18:09.000Z</time>
      </trkpt>
      <trkpt lat="48.62621" lon="1.75974">
        <ele>148.2</ele>
        <time>2015-07-05T11:18:16.000Z</time>
      </trkpt>
      <trkpt lat="48.62627" lon="1.75962">
        <ele>148.3</ele>
        <time>2015-07-05T11:18:22.000Z</time>
      </trkpt>
      <trkpt lat="48.62633" lon="1.75952">
        <ele>148.6</ele>
        <time>2015-07-05T11:18:27.000Z</time>
      </trkpt>
      <trkpt lat="48.62634" lon="1.7595">
        <ele>148.7</ele>
        <time>2015-07-05T11:18:28.000Z</time>
      </trkpt>
      <trkpt lat="48.62635" lon="1.75948">
        <ele>148.8</ele>
        <time>2015-07-05T11:18:30.000Z</time>
      </trkpt>
      <trkpt lat="48.62634" lon="1.75947">
        <ele>148.8</ele>
        <time>2015-07-05T11:18:36.000Z</time>
      </trkpt>
      <trkpt lat="48.62633" lon="1.75947">
        <ele>148.9</ele>
        <time>2015-07-05T11:18:39.000Z</time>
      </trkpt>
      <trkpt lat="48.6264" lon="1.75945">
        <ele>149</ele>
        <time>2015-07-05T11:19:21.000Z</time>
      </trkpt>
      <trkpt lat="48.62645" lon="1.75922">
        <ele>149.8</ele>
        <time>2015-07-05T11:19:25.000Z</time>
      </trkpt>
      <trkpt lat="48.62653" lon="1.7589">
        <ele>151</ele>
        <time>2015-07-05T11:19:31.000Z</time>
      </trkpt>
      <trkpt lat="48.62663" lon="1.75868">
        <ele>151.8</ele>
        <time>2015-07-05T11:19:35.000Z</time>
      </trkpt>
      <trkpt lat="48.62675" lon="1.75845">
        <ele>152.4</ele>
        <time>2015-07-05T11:19:40.000Z</time>
      </trkpt>
      <trkpt lat="48.62681" lon="1.75823">
        <ele>152.8</ele>
        <time>2015-07-05T11:19:44.000Z</time>
      </trkpt>
      <trkpt lat="48.62689" lon="1.75807">
        <ele>153.2</ele>
        <time>2015-07-05T11:19:49.000Z</time>
      </trkpt>
      <trkpt lat="48.62694" lon="1.75785">
        <ele>153</ele>
        <time>2015-07-05T11:19:53.000Z</time>
      </trkpt>
      <trkpt lat="48.62698" lon="1.75754">
        <ele>151.9</ele>
        <time>2015-07-05T11:19:59.000Z</time>
      </trkpt>
      <trkpt lat="48.627" lon="1.75732">
        <ele>151.1</ele>
        <time>2015-07-05T11:20:03.000Z</time>
      </trkpt>
      <trkpt lat="48.62701" lon="1.75707">
        <ele>150.1</ele>
        <time>2015-07-05T11:20:08.000Z</time>
      </trkpt>
      <trkpt lat="48.62702" lon="1.75683">
        <ele>148.8</ele>
        <time>2015-07-05T11:20:12.000Z</time>
      </trkpt>
      <trkpt lat="48.62699" lon="1.75658">
        <ele>147.8</ele>
        <time>2015-07-05T11:20:17.000Z</time>
      </trkpt>
      <trkpt lat="48.62698" lon="1.75651">
        <ele>147.5</ele>
        <time>2015-07-05T11:20:21.000Z</time>
      </trkpt>
      <trkpt lat="48.62697" lon="1.75646">
        <ele>147.3</ele>
        <time>2015-07-05T11:20:23.000Z</time>
      </trkpt>
      <trkpt lat="48.62695" lon="1.75622">
        <ele>145.6</ele>
        <time>2015-07-05T11:20:28.000Z</time>
      </trkpt>
      <trkpt lat="48.62691" lon="1.7558">
        <ele>144.4</ele>
        <time>2015-07-05T11:20:33.000Z</time>
      </trkpt>
      <trkpt lat="48.62692" lon="1.75561">
        <ele>143</ele>
        <time>2015-07-05T11:20:36.000Z</time>
      </trkpt>
      <trkpt lat="48.62692" lon="1.75546">
        <ele>142.2</ele>
        <time>2015-07-05T11:20:39.000Z</time>
      </trkpt>
      <trkpt lat="48.62686" lon="1.75523">
        <ele>142</ele>
        <time>2015-07-05T11:20:44.000Z</time>
      </trkpt>
      <trkpt lat="48.62681" lon="1.75501">
        <ele>141.5</ele>
        <time>2015-07-05T11:20:48.000Z</time>
      </trkpt>
      <trkpt lat="48.62676" lon="1.75486">
        <ele>140.5</ele>
        <time>2015-07-05T11:20:52.000Z</time>
      </trkpt>
      <trkpt lat="48.62672" lon="1.75474">
        <ele>139.6</ele>
        <time>2015-07-05T11:20:57.000Z</time>
      </trkpt>
      <trkpt lat="48.62669" lon="1.75464">
        <ele>139.2</ele>
        <time>2015-07-05T11:21:02.000Z</time>
      </trkpt>
      <trkpt lat="48.62663" lon="1.75445">
        <ele>138.4</ele>
        <time>2015-07-05T11:21:08.000Z</time>
      </trkpt>
      <trkpt lat="48.62659" lon="1.75434">
        <ele>138</ele>
        <time>2015-07-05T11:21:12.000Z</time>
      </trkpt>
      <trkpt lat="48.62657" lon="1.7542">
        <ele>137</ele>
        <time>2015-07-05T11:21:16.000Z</time>
      </trkpt>
      <trkpt lat="48.62655" lon="1.75408">
        <ele>136.4</ele>
        <time>2015-07-05T11:21:20.000Z</time>
      </trkpt>
      <trkpt lat="48.62652" lon="1.75393">
        <ele>135.8</ele>
        <time>2015-07-05T11:21:25.000Z</time>
      </trkpt>
      <trkpt lat="48.62645" lon="1.75366">
        <ele>134.8</ele>
        <time>2015-07-05T11:21:32.000Z</time>
      </trkpt>
      <trkpt lat="48.6264" lon="1.75351">
        <ele>134.6</ele>
        <time>2015-07-05T11:21:37.000Z</time>
      </trkpt>
      <trkpt lat="48.62639" lon="1.75345">
        <ele>134.4</ele>
        <time>2015-07-05T11:21:39.000Z</time>
      </trkpt>
      <trkpt lat="48.62636" lon="1.75332">
        <ele>134.1</ele>
        <time>2015-07-05T11:21:44.000Z</time>
      </trkpt>
      <trkpt lat="48.62633" lon="1.75316">
        <ele>133.6</ele>
        <time>2015-07-05T11:21:49.000Z</time>
      </trkpt>
      <trkpt lat="48.62631" lon="1.75301">
        <ele>133.1</ele>
        <time>2015-07-05T11:21:55.000Z</time>
      </trkpt>
      <trkpt lat="48.62627" lon="1.75278">
        <ele>132.4</ele>
        <time>2015-07-05T11:22:00.000Z</time>
      </trkpt>
      <trkpt lat="48.62617" lon="1.7524">
        <ele>132.8</ele>
        <time>2015-07-05T11:22:07.000Z</time>
      </trkpt>
      <trkpt lat="48.62613" lon="1.75221">
        <ele>132.9</ele>
        <time>2015-07-05T11:22:10.000Z</time>
      </trkpt>
      <trkpt lat="48.62611" lon="1.7519">
        <ele>132.3</ele>
        <time>2015-07-05T11:22:15.000Z</time>
      </trkpt>
      <trkpt lat="48.6261" lon="1.75173">
        <ele>132.9</ele>
        <time>2015-07-05T11:22:18.000Z</time>
      </trkpt>
      <trkpt lat="48.62616" lon="1.75152">
        <ele>133.1</ele>
        <time>2015-07-05T11:22:21.000Z</time>
      </trkpt>
      <trkpt lat="48.62623" lon="1.75125">
        <ele>132.7</ele>
        <time>2015-07-05T11:22:25.000Z</time>
      </trkpt>
      <trkpt lat="48.62627" lon="1.75105">
        <ele>132.5</ele>
        <time>2015-07-05T11:22:28.000Z</time>
      </trkpt>
      <trkpt lat="48.62631" lon="1.75085">
        <ele>132.8</ele>
        <time>2015-07-05T11:22:31.000Z</time>
      </trkpt>
      <trkpt lat="48.62633" lon="1.75072">
        <ele>132.7</ele>
        <time>2015-07-05T11:22:33.000Z</time>
      </trkpt>
      <trkpt lat="48.62628" lon="1.75038">
        <ele>132.8</ele>
        <time>2015-07-05T11:22:38.000Z</time>
      </trkpt>
      <trkpt lat="48.62626" lon="1.75032">
        <ele>133</ele>
        <time>2015-07-05T11:22:39.000Z</time>
      </trkpt>
      <trkpt lat="48.62598" lon="1.74985">
        <ele>133.6</ele>
        <time>2015-07-05T11:22:48.000Z</time>
      </trkpt>
      <trkpt lat="48.62592" lon="1.74977">
        <ele>133.7</ele>
        <time>2015-07-05T11:22:50.000Z</time>
      </trkpt>
      <trkpt lat="48.62583" lon="1.74962">
        <ele>133.3</ele>
        <time>2015-07-05T11:22:53.000Z</time>
      </trkpt>
      <trkpt lat="48.62561" lon="1.74932">
        <ele>132.3</ele>
        <time>2015-07-05T11:22:59.000Z</time>
      </trkpt>
      <trkpt lat="48.62557" lon="1.74926">
        <ele>132.2</ele>
        <time>2015-07-05T11:23:00.000Z</time>
      </trkpt>
      <trkpt lat="48.6254" lon="1.74897">
        <ele>134.2</ele>
        <time>2015-07-05T11:23:05.000Z</time>
      </trkpt>
      <trkpt lat="48.62525" lon="1.74857">
        <ele>133.9</ele>
        <time>2015-07-05T11:23:11.000Z</time>
      </trkpt>
      <trkpt lat="48.62527" lon="1.74818">
        <ele>132.8</ele>
        <time>2015-07-05T11:23:17.000Z</time>
      </trkpt>
      <trkpt lat="48.62533" lon="1.7479">
        <ele>132.4</ele>
        <time>2015-07-05T11:23:21.000Z</time>
      </trkpt>
      <trkpt lat="48.6253" lon="1.74757">
        <ele>132.7</ele>
        <time>2015-07-05T11:23:26.000Z</time>
      </trkpt>
      <trkpt lat="48.62526" lon="1.74741">
        <ele>132.6</ele>
        <time>2015-07-05T11:23:29.000Z</time>
      </trkpt>
      <trkpt lat="48.62517" lon="1.74727">
        <ele>132.2</ele>
        <time>2015-07-05T11:23:32.000Z</time>
      </trkpt>
      <trkpt lat="48.62494" lon="1.74691">
        <ele>131.2</ele>
        <time>2015-07-05T11:23:39.000Z</time>
      </trkpt>
      <trkpt lat="48.62486" lon="1.74675">
        <ele>131.5</ele>
        <time>2015-07-05T11:23:42.000Z</time>
      </trkpt>
      <trkpt lat="48.62477" lon="1.74649">
        <ele>131.2</ele>
        <time>2015-07-05T11:23:46.000Z</time>
      </trkpt>
      <trkpt lat="48.62463" lon="1.74622">
        <ele>131.3</ele>
        <time>2015-07-05T11:23:51.000Z</time>
      </trkpt>
      <trkpt lat="48.62458" lon="1.74611">
        <ele>131.5</ele>
        <time>2015-07-05T11:23:53.000Z</time>
      </trkpt>
      <trkpt lat="48.62453" lon="1.74598">
        <ele>131.6</ele>
        <time>2015-07-05T11:23:55.000Z</time>
      </trkpt>
      <trkpt lat="48.62447" lon="1.74587">
        <ele>131.8</ele>
        <time>2015-07-05T11:23:57.000Z</time>
      </trkpt>
      <trkpt lat="48.62442" lon="1.74576">
        <ele>131.8</ele>
        <time>2015-07-05T11:23:59.000Z</time>
      </trkpt>
      <trkpt lat="48.62424" lon="1.74535">
        <ele>131</ele>
        <time>2015-07-05T11:24:06.000Z</time>
      </trkpt>
      <trkpt lat="48.62412" lon="1.74504">
        <ele>131.2</ele>
        <time>2015-07-05T11:24:12.000Z</time>
      </trkpt>
      <trkpt lat="48.62409" lon="1.74499">
        <ele>131.3</ele>
        <time>2015-07-05T11:24:13.000Z</time>
      </trkpt>
      <trkpt lat="48.62406" lon="1.74472">
        <ele>131</ele>
        <time>2015-07-05T11:24:17.000Z</time>
      </trkpt>
      <trkpt lat="48.62407" lon="1.74454">
        <ele>131</ele>
        <time>2015-07-05T11:24:20.000Z</time>
      </trkpt>
      <trkpt lat="48.62402" lon="1.74419">
        <ele>130.6</ele>
        <time>2015-07-05T11:24:25.000Z</time>
      </trkpt>
      <trkpt lat="48.62386" lon="1.74362">
        <ele>130.2</ele>
        <time>2015-07-05T11:24:34.000Z</time>
      </trkpt>
      <trkpt lat="48.62371" lon="1.74309">
        <ele>129.7</ele>
        <time>2015-07-05T11:24:42.000Z</time>
      </trkpt>
      <trkpt lat="48.62364" lon="1.74291">
        <ele>129.9</ele>
        <time>2015-07-05T11:24:45.000Z</time>
      </trkpt>
      <trkpt lat="48.62359" lon="1.74264">
        <ele>130</ele>
        <time>2015-07-05T11:24:49.000Z</time>
      </trkpt>
      <trkpt lat="48.62358" lon="1.7425">
        <ele>129.9</ele>
        <time>2015-07-05T11:24:51.000Z</time>
      </trkpt>
      <trkpt lat="48.62361" lon="1.74216">
        <ele>130</ele>
        <time>2015-07-05T11:24:56.000Z</time>
      </trkpt>
      <trkpt lat="48.62361" lon="1.7421">
        <ele>130</ele>
        <time>2015-07-05T11:24:57.000Z</time>
      </trkpt>
      <trkpt lat="48.62358" lon="1.74185">
        <ele>130.4</ele>
        <time>2015-07-05T11:25:02.000Z</time>
      </trkpt>
      <trkpt lat="48.62343" lon="1.74149">
        <ele>131</ele>
        <time>2015-07-05T11:25:09.000Z</time>
      </trkpt>
      <trkpt lat="48.62327" lon="1.74128">
        <ele>131.5</ele>
        <time>2015-07-05T11:25:14.000Z</time>
      </trkpt>
      <trkpt lat="48.62316" lon="1.74116">
        <ele>131.4</ele>
        <time>2015-07-05T11:25:17.000Z</time>
      </trkpt>
      <trkpt lat="48.62281" lon="1.74097">
        <ele>131</ele>
        <time>2015-07-05T11:25:25.000Z</time>
      </trkpt>
      <trkpt lat="48.62241" lon="1.74078">
        <ele>128.3</ele>
        <time>2015-07-05T11:25:33.000Z</time>
      </trkpt>
      <trkpt lat="48.62223" lon="1.7407">
        <ele>128.5</ele>
        <time>2015-07-05T11:25:37.000Z</time>
      </trkpt>
      <trkpt lat="48.62193" lon="1.74056">
        <ele>128.1</ele>
        <time>2015-07-05T11:25:44.000Z</time>
      </trkpt>
      <trkpt lat="48.62168" lon="1.74046">
        <ele>128.6</ele>
        <time>2015-07-05T11:25:50.000Z</time>
      </trkpt>
      <trkpt lat="48.62155" lon="1.74041">
        <ele>128.9</ele>
        <time>2015-07-05T11:25:53.000Z</time>
      </trkpt>
      <trkpt lat="48.62134" lon="1.74033">
        <ele>128.5</ele>
        <time>2015-07-05T11:25:58.000Z</time>
      </trkpt>
      <trkpt lat="48.62127" lon="1.74028">
        <ele>128.1</ele>
        <time>2015-07-05T11:26:00.000Z</time>
      </trkpt>
      <trkpt lat="48.62116" lon="1.7402">
        <ele>128.2</ele>
        <time>2015-07-05T11:26:03.000Z</time>
      </trkpt>
      <trkpt lat="48.62101" lon="1.74">
        <ele>129</ele>
        <time>2015-07-05T11:26:08.000Z</time>
      </trkpt>
      <trkpt lat="48.62094" lon="1.73992">
        <ele>128.9</ele>
        <time>2015-07-05T11:26:10.000Z</time>
      </trkpt>
      <trkpt lat="48.62077" lon="1.73975">
        <ele>129.7</ele>
        <time>2015-07-05T11:26:15.000Z</time>
      </trkpt>
      <trkpt lat="48.62063" lon="1.73959">
        <ele>129.9</ele>
        <time>2015-07-05T11:26:20.000Z</time>
      </trkpt>
      <trkpt lat="48.62047" lon="1.7394">
        <ele>130</ele>
        <time>2015-07-05T11:26:25.000Z</time>
      </trkpt>
      <trkpt lat="48.62025" lon="1.73921">
        <ele>129.1</ele>
        <time>2015-07-05T11:26:31.000Z</time>
      </trkpt>
      <trkpt lat="48.61997" lon="1.73903">
        <ele>128.7</ele>
        <time>2015-07-05T11:26:38.000Z</time>
      </trkpt>
      <trkpt lat="48.61993" lon="1.73902">
        <ele>128.7</ele>
        <time>2015-07-05T11:26:39.000Z</time>
      </trkpt>
      <trkpt lat="48.61984" lon="1.73901">
        <ele>128.8</ele>
        <time>2015-07-05T11:26:41.000Z</time>
      </trkpt>
      <trkpt lat="48.61973" lon="1.73898">
        <ele>129</ele>
        <time>2015-07-05T11:26:44.000Z</time>
      </trkpt>
      <trkpt lat="48.6196" lon="1.739">
        <ele>129.1</ele>
        <time>2015-07-05T11:26:48.000Z</time>
      </trkpt>
      <trkpt lat="48.61949" lon="1.73893">
        <ele>128.4</ele>
        <time>2015-07-05T11:26:56.000Z</time>
      </trkpt>
      <trkpt lat="48.61947" lon="1.7389">
        <ele>128.2</ele>
        <time>2015-07-05T11:26:58.000Z</time>
      </trkpt>
      <trkpt lat="48.61939" lon="1.73884">
        <ele>128.7</ele>
        <time>2015-07-05T11:27:05.000Z</time>
      </trkpt>
      <trkpt lat="48.61927" lon="1.73874">
        <ele>129.5</ele>
        <time>2015-07-05T11:27:14.000Z</time>
      </trkpt>
      <trkpt lat="48.61916" lon="1.73862">
        <ele>129.2</ele>
        <time>2015-07-05T11:27:22.000Z</time>
      </trkpt>
      <trkpt lat="48.61908" lon="1.73846">
        <ele>131.1</ele>
        <time>2015-07-05T11:27:29.000Z</time>
      </trkpt>
      <trkpt lat="48.61902" lon="1.73833">
        <ele>131.1</ele>
        <time>2015-07-05T11:27:36.000Z</time>
      </trkpt>
      <trkpt lat="48.619" lon="1.73829">
        <ele>131</ele>
        <time>2015-07-05T11:27:39.000Z</time>
      </trkpt>
      <trkpt lat="48.61892" lon="1.73823">
        <ele>131.3</ele>
        <time>2015-07-05T11:27:47.000Z</time>
      </trkpt>
      <trkpt lat="48.61891" lon="1.73822">
        <ele>131.2</ele>
        <time>2015-07-05T11:27:52.000Z</time>
      </trkpt>
      <trkpt lat="48.61909" lon="1.73822">
        <ele>128.7</ele>
        <time>2015-07-05T13:29:25.000Z</time>
      </trkpt>
      <trkpt lat="48.61909" lon="1.73822">
        <ele>128.7</ele>
        <time>2015-07-05T13:29:25.000Z</time>
      </trkpt>
      <trkpt lat="48.61908" lon="1.73822">
        <ele>128.9</ele>
        <time>2015-07-05T13:29:26.000Z</time>
      </trkpt>
      <trkpt lat="48.61907" lon="1.73823">
        <ele>129.1</ele>
        <time>2015-07-05T13:29:29.000Z</time>
      </trkpt>
      <trkpt lat="48.61899" lon="1.73819">
        <ele>129.8</ele>
        <time>2015-07-05T13:29:46.000Z</time>
      </trkpt>
      <trkpt lat="48.61892" lon="1.73815">
        <ele>129.7</ele>
        <time>2015-07-05T13:29:53.000Z</time>
      </trkpt>
      <trkpt lat="48.6189" lon="1.7381">
        <ele>128.9</ele>
        <time>2015-07-05T13:29:58.000Z</time>
      </trkpt>
      <trkpt lat="48.6189" lon="1.73809">
        <ele>128.7</ele>
        <time>2015-07-05T13:30:01.000Z</time>
      </trkpt>
      <trkpt lat="48.61887" lon="1.73798">
        <ele>127.9</ele>
        <time>2015-07-05T13:30:15.000Z</time>
      </trkpt>
      <trkpt lat="48.61882" lon="1.73795">
        <ele>128.5</ele>
        <time>2015-07-05T13:30:20.000Z</time>
      </trkpt>
      <trkpt lat="48.61879" lon="1.7379">
        <ele>128.4</ele>
        <time>2015-07-05T13:30:26.000Z</time>
      </trkpt>
      <trkpt lat="48.61878" lon="1.73783">
        <ele>128.2</ele>
        <time>2015-07-05T13:31:36.000Z</time>
      </trkpt>
      <trkpt lat="48.61871" lon="1.73777">
        <ele>128.3</ele>
        <time>2015-07-05T13:31:41.000Z</time>
      </trkpt>
      <trkpt lat="48.61864" lon="1.73765">
        <ele>128.4</ele>
        <time>2015-07-05T13:31:50.000Z</time>
      </trkpt>
      <trkpt lat="48.61862" lon="1.7375">
        <ele>128</ele>
        <time>2015-07-05T13:31:58.000Z</time>
      </trkpt>
      <trkpt lat="48.61863" lon="1.73735">
        <ele>127.5</ele>
        <time>2015-07-05T13:32:06.000Z</time>
      </trkpt>
      <trkpt lat="48.61867" lon="1.7372">
        <ele>127</ele>
        <time>2015-07-05T13:32:14.000Z</time>
      </trkpt>
      <trkpt lat="48.61876" lon="1.73702">
        <ele>127</ele>
        <time>2015-07-05T13:32:24.000Z</time>
      </trkpt>
      <trkpt lat="48.61881" lon="1.73696">
        <ele>127</ele>
        <time>2015-07-05T13:32:29.000Z</time>
      </trkpt>
      <trkpt lat="48.61886" lon="1.73688">
        <ele>127</ele>
        <time>2015-07-05T13:32:34.000Z</time>
      </trkpt>
      <trkpt lat="48.61887" lon="1.73684">
        <ele>127</ele>
        <time>2015-07-05T13:32:37.000Z</time>
      </trkpt>
      <trkpt lat="48.6189" lon="1.73678">
        <ele>127</ele>
        <time>2015-07-05T13:32:41.000Z</time>
      </trkpt>
      <trkpt lat="48.6189" lon="1.73677">
        <ele>127</ele>
        <time>2015-07-05T13:32:44.000Z</time>
      </trkpt>
      <trkpt lat="48.61907" lon="1.73658">
        <ele>127</ele>
        <time>2015-07-05T13:33:57.000Z</time>
      </trkpt>
      <trkpt lat="48.61912" lon="1.73645">
        <ele>127</ele>
        <time>2015-07-05T13:34:04.000Z</time>
      </trkpt>
      <trkpt lat="48.61915" lon="1.73629">
        <ele>127.3</ele>
        <time>2015-07-05T13:34:12.000Z</time>
      </trkpt>
      <trkpt lat="48.61917" lon="1.73612">
        <ele>128</ele>
        <time>2015-07-05T13:34:20.000Z</time>
      </trkpt>
      <trkpt lat="48.6192" lon="1.73593">
        <ele>128.7</ele>
        <time>2015-07-05T13:34:29.000Z</time>
      </trkpt>
      <trkpt lat="48.61925" lon="1.7358">
        <ele>129.2</ele>
        <time>2015-07-05T13:34:35.000Z</time>
      </trkpt>
      <trkpt lat="48.61933" lon="1.73568">
        <ele>129.9</ele>
        <time>2015-07-05T13:34:42.000Z</time>
      </trkpt>
      <trkpt lat="48.61939" lon="1.73557">
        <ele>130.7</ele>
        <time>2015-07-05T13:34:49.000Z</time>
      </trkpt>
      <trkpt lat="48.61952" lon="1.73545">
        <ele>131.4</ele>
        <time>2015-07-05T13:34:59.000Z</time>
      </trkpt>
      <trkpt lat="48.61964" lon="1.73532">
        <ele>131.9</ele>
        <time>2015-07-05T13:35:08.000Z</time>
      </trkpt>
      <trkpt lat="48.61972" lon="1.73522">
        <ele>132.2</ele>
        <time>2015-07-05T13:35:14.000Z</time>
      </trkpt>
      <trkpt lat="48.61986" lon="1.73504">
        <ele>132.9</ele>
        <time>2015-07-05T13:35:26.000Z</time>
      </trkpt>
      <trkpt lat="48.61994" lon="1.73493">
        <ele>133.2</ele>
        <time>2015-07-05T13:35:33.000Z</time>
      </trkpt>
      <trkpt lat="48.62005" lon="1.73482">
        <ele>133.8</ele>
        <time>2015-07-05T13:35:42.000Z</time>
      </trkpt>
      <trkpt lat="48.62017" lon="1.73464">
        <ele>135</ele>
        <time>2015-07-05T13:35:54.000Z</time>
      </trkpt>
      <trkpt lat="48.6203" lon="1.73447">
        <ele>136</ele>
        <time>2015-07-05T13:36:04.000Z</time>
      </trkpt>
      <trkpt lat="48.62038" lon="1.73438">
        <ele>136.8</ele>
        <time>2015-07-05T13:36:11.000Z</time>
      </trkpt>
      <trkpt lat="48.62049" lon="1.73423">
        <ele>137.7</ele>
        <time>2015-07-05T13:36:21.000Z</time>
      </trkpt>
      <trkpt lat="48.62058" lon="1.73412">
        <ele>138.4</ele>
        <time>2015-07-05T13:36:29.000Z</time>
      </trkpt>
      <trkpt lat="48.62067" lon="1.73401">
        <ele>139.3</ele>
        <time>2015-07-05T13:36:36.000Z</time>
      </trkpt>
      <trkpt lat="48.62076" lon="1.73391">
        <ele>139.9</ele>
        <time>2015-07-05T13:36:43.000Z</time>
      </trkpt>
      <trkpt lat="48.6209" lon="1.73373">
        <ele>140.5</ele>
        <time>2015-07-05T13:36:54.000Z</time>
      </trkpt>
      <trkpt lat="48.62102" lon="1.73361">
        <ele>141</ele>
        <time>2015-07-05T13:37:03.000Z</time>
      </trkpt>
      <trkpt lat="48.62115" lon="1.73361">
        <ele>141</ele>
        <time>2015-07-05T13:37:10.000Z</time>
      </trkpt>
      <trkpt lat="48.62128" lon="1.73361">
        <ele>141</ele>
        <time>2015-07-05T13:37:17.000Z</time>
      </trkpt>
      <trkpt lat="48.62136" lon="1.73353">
        <ele>141.3</ele>
        <time>2015-07-05T13:37:23.000Z</time>
      </trkpt>
      <trkpt lat="48.62149" lon="1.73338">
        <ele>142.1</ele>
        <time>2015-07-05T13:37:33.000Z</time>
      </trkpt>
      <trkpt lat="48.62161" lon="1.73324">
        <ele>142.9</ele>
        <time>2015-07-05T13:37:42.000Z</time>
      </trkpt>
      <trkpt lat="48.62172" lon="1.73308">
        <ele>143.5</ele>
        <time>2015-07-05T13:37:51.000Z</time>
      </trkpt>
      <trkpt lat="48.62183" lon="1.73293">
        <ele>145.4</ele>
        <time>2015-07-05T13:38:00.000Z</time>
      </trkpt>
      <trkpt lat="48.62193" lon="1.73279">
        <ele>146.9</ele>
        <time>2015-07-05T13:38:10.000Z</time>
      </trkpt>
      <trkpt lat="48.622" lon="1.73267">
        <ele>148.1</ele>
        <time>2015-07-05T13:38:17.000Z</time>
      </trkpt>
      <trkpt lat="48.62207" lon="1.73251">
        <ele>149.8</ele>
        <time>2015-07-05T13:38:25.000Z</time>
      </trkpt>
      <trkpt lat="48.62212" lon="1.73242">
        <ele>150.7</ele>
        <time>2015-07-05T13:38:30.000Z</time>
      </trkpt>
      <trkpt lat="48.62221" lon="1.7322">
        <ele>151.9</ele>
        <time>2015-07-05T13:38:41.000Z</time>
      </trkpt>
      <trkpt lat="48.62225" lon="1.73209">
        <ele>152.8</ele>
        <time>2015-07-05T13:38:46.000Z</time>
      </trkpt>
      <trkpt lat="48.62232" lon="1.73187">
        <ele>154.6</ele>
        <time>2015-07-05T13:38:55.000Z</time>
      </trkpt>
      <trkpt lat="48.62239" lon="1.73173">
        <ele>155.7</ele>
        <time>2015-07-05T13:39:02.000Z</time>
      </trkpt>
      <trkpt lat="48.62249" lon="1.7315">
        <ele>156.9</ele>
        <time>2015-07-05T13:39:14.000Z</time>
      </trkpt>
      <trkpt lat="48.62258" lon="1.73129">
        <ele>158.1</ele>
        <time>2015-07-05T13:39:23.000Z</time>
      </trkpt>
      <trkpt lat="48.62265" lon="1.73113">
        <ele>159</ele>
        <time>2015-07-05T13:39:30.000Z</time>
      </trkpt>
      <trkpt lat="48.62269" lon="1.73095">
        <ele>159.9</ele>
        <time>2015-07-05T13:39:39.000Z</time>
      </trkpt>
      <trkpt lat="48.62264" lon="1.73081">
        <ele>160.1</ele>
        <time>2015-07-05T13:39:47.000Z</time>
      </trkpt>
      <trkpt lat="48.62253" lon="1.73062">
        <ele>160.7</ele>
        <time>2015-07-05T13:39:58.000Z</time>
      </trkpt>
      <trkpt lat="48.62247" lon="1.73053">
        <ele>161</ele>
        <time>2015-07-05T13:40:05.000Z</time>
      </trkpt>
      <trkpt lat="48.62247" lon="1.73053">
        <ele>161</ele>
        <time>2015-07-05T13:40:07.000Z</time>
      </trkpt>
      <trkpt lat="48.62251" lon="1.73059">
        <ele>160.8</ele>
        <time>2015-07-05T13:40:18.000Z</time>
      </trkpt>
      <trkpt lat="48.6226" lon="1.73077">
        <ele>160.1</ele>
        <time>2015-07-05T13:40:26.000Z</time>
      </trkpt>
      <trkpt lat="48.62261" lon="1.73079">
        <ele>160</ele>
        <time>2015-07-05T13:40:30.000Z</time>
      </trkpt>
      <trkpt lat="48.62267" lon="1.73082">
        <ele>160.3</ele>
        <time>2015-07-05T13:41:02.000Z</time>
      </trkpt>
      <trkpt lat="48.62269" lon="1.73084">
        <ele>160.3</ele>
        <time>2015-07-05T13:41:06.000Z</time>
      </trkpt>
      <trkpt lat="48.62274" lon="1.73079">
        <ele>160.9</ele>
        <time>2015-07-05T13:41:59.000Z</time>
      </trkpt>
      <trkpt lat="48.62277" lon="1.73077">
        <ele>161.1</ele>
        <time>2015-07-05T13:42:02.000Z</time>
      </trkpt>
      <trkpt lat="48.62283" lon="1.73063">
        <ele>161.8</ele>
        <time>2015-07-05T13:42:56.000Z</time>
      </trkpt>
      <trkpt lat="48.62285" lon="1.73057">
        <ele>162</ele>
        <time>2015-07-05T13:42:58.000Z</time>
      </trkpt>
      <trkpt lat="48.62291" lon="1.73035">
        <ele>162.4</ele>
        <time>2015-07-05T13:43:08.000Z</time>
      </trkpt>
      <trkpt lat="48.62297" lon="1.73012">
        <ele>162.9</ele>
        <time>2015-07-05T13:43:19.000Z</time>
      </trkpt>
      <trkpt lat="48.62302" lon="1.72994">
        <ele>163</ele>
        <time>2015-07-05T13:43:27.000Z</time>
      </trkpt>
      <trkpt lat="48.62306" lon="1.72978">
        <ele>163</ele>
        <time>2015-07-05T13:43:34.000Z</time>
      </trkpt>
      <trkpt lat="48.62311" lon="1.72959">
        <ele>163.6</ele>
        <time>2015-07-05T13:43:43.000Z</time>
      </trkpt>
      <trkpt lat="48.62317" lon="1.72938">
        <ele>164</ele>
        <time>2015-07-05T13:43:52.000Z</time>
      </trkpt>
      <trkpt lat="48.6232" lon="1.72927">
        <ele>164</ele>
        <time>2015-07-05T13:43:57.000Z</time>
      </trkpt>
      <trkpt lat="48.62323" lon="1.72916">
        <ele>164</ele>
        <time>2015-07-05T13:44:02.000Z</time>
      </trkpt>
      <trkpt lat="48.62326" lon="1.72905">
        <ele>164</ele>
        <time>2015-07-05T13:44:07.000Z</time>
      </trkpt>
      <trkpt lat="48.62331" lon="1.7289">
        <ele>164</ele>
        <time>2015-07-05T13:44:14.000Z</time>
      </trkpt>
      <trkpt lat="48.62338" lon="1.72866">
        <ele>164</ele>
        <time>2015-07-05T13:44:25.000Z</time>
      </trkpt>
      <trkpt lat="48.62347" lon="1.72842">
        <ele>164</ele>
        <time>2015-07-05T13:44:36.000Z</time>
      </trkpt>
      <trkpt lat="48.62356" lon="1.72818">
        <ele>164</ele>
        <time>2015-07-05T13:44:47.000Z</time>
      </trkpt>
      <trkpt lat="48.62365" lon="1.72795">
        <ele>164</ele>
        <time>2015-07-05T13:44:58.000Z</time>
      </trkpt>
      <trkpt lat="48.62372" lon="1.72778">
        <ele>164</ele>
        <time>2015-07-05T13:45:05.000Z</time>
      </trkpt>
      <trkpt lat="48.62379" lon="1.7276">
        <ele>164</ele>
        <time>2015-07-05T13:45:14.000Z</time>
      </trkpt>
      <trkpt lat="48.62384" lon="1.72745">
        <ele>164</ele>
        <time>2015-07-05T13:45:21.000Z</time>
      </trkpt>
      <trkpt lat="48.62392" lon="1.72724">
        <ele>163.9</ele>
        <time>2015-07-05T13:45:31.000Z</time>
      </trkpt>
      <trkpt lat="48.62401" lon="1.72706">
        <ele>163.2</ele>
        <time>2015-07-05T13:45:40.000Z</time>
      </trkpt>
      <trkpt lat="48.62408" lon="1.72688">
        <ele>163</ele>
        <time>2015-07-05T13:45:49.000Z</time>
      </trkpt>
      <trkpt lat="48.62415" lon="1.72667">
        <ele>163</ele>
        <time>2015-07-05T13:45:58.000Z</time>
      </trkpt>
      <trkpt lat="48.6242" lon="1.72653">
        <ele>162.4</ele>
        <time>2015-07-05T13:46:05.000Z</time>
      </trkpt>
      <trkpt lat="48.62423" lon="1.72647">
        <ele>162</ele>
        <time>2015-07-05T13:46:09.000Z</time>
      </trkpt>
      <trkpt lat="48.62428" lon="1.7263">
        <ele>161.6</ele>
        <time>2015-07-05T13:46:17.000Z</time>
      </trkpt>
      <trkpt lat="48.62432" lon="1.72611">
        <ele>161.4</ele>
        <time>2015-07-05T13:46:25.000Z</time>
      </trkpt>
      <trkpt lat="48.62438" lon="1.72595">
        <ele>160.8</ele>
        <time>2015-07-05T13:46:33.000Z</time>
      </trkpt>
      <trkpt lat="48.62439" lon="1.72592">
        <ele>160.6</ele>
        <time>2015-07-05T13:46:38.000Z</time>
      </trkpt>
      <trkpt lat="48.62435" lon="1.726">
        <ele>161.1</ele>
        <time>2015-07-05T13:46:50.000Z</time>
      </trkpt>
      <trkpt lat="48.62431" lon="1.72614">
        <ele>161.5</ele>
        <time>2015-07-05T13:46:56.000Z</time>
      </trkpt>
      <trkpt lat="48.6243" lon="1.72632">
        <ele>161.5</ele>
        <time>2015-07-05T13:47:03.000Z</time>
      </trkpt>
      <trkpt lat="48.62434" lon="1.72651">
        <ele>161.8</ele>
        <time>2015-07-05T13:47:08.000Z</time>
      </trkpt>
      <trkpt lat="48.62439" lon="1.72665">
        <ele>162.2</ele>
        <time>2015-07-05T13:47:14.000Z</time>
      </trkpt>
      <trkpt lat="48.62443" lon="1.72686">
        <ele>162.7</ele>
        <time>2015-07-05T13:47:23.000Z</time>
      </trkpt>
      <trkpt lat="48.62448" lon="1.72703">
        <ele>162.7</ele>
        <time>2015-07-05T13:47:31.000Z</time>
      </trkpt>
      <trkpt lat="48.62451" lon="1.72715">
        <ele>162.7</ele>
        <time>2015-07-05T13:47:36.000Z</time>
      </trkpt>
      <trkpt lat="48.62452" lon="1.72719">
        <ele>162.7</ele>
        <time>2015-07-05T13:47:40.000Z</time>
      </trkpt>
      <trkpt lat="48.62454" lon="1.72728">
        <ele>162.7</ele>
        <time>2015-07-05T13:48:04.000Z</time>
      </trkpt>
      <trkpt lat="48.62462" lon="1.72743">
        <ele>162.8</ele>
        <time>2015-07-05T13:48:11.000Z</time>
      </trkpt>
      <trkpt lat="48.62471" lon="1.72754">
        <ele>163</ele>
        <time>2015-07-05T13:48:16.000Z</time>
      </trkpt>
      <trkpt lat="48.62478" lon="1.72765">
        <ele>162.9</ele>
        <time>2015-07-05T13:48:22.000Z</time>
      </trkpt>
      <trkpt lat="48.62486" lon="1.72779">
        <ele>163</ele>
        <time>2015-07-05T13:48:30.000Z</time>
      </trkpt>
      <trkpt lat="48.62492" lon="1.72789">
        <ele>163.1</ele>
        <time>2015-07-05T13:48:35.000Z</time>
      </trkpt>
      <trkpt lat="48.625" lon="1.72802">
        <ele>163</ele>
        <time>2015-07-05T13:48:42.000Z</time>
      </trkpt>
      <trkpt lat="48.62509" lon="1.72814">
        <ele>163</ele>
        <time>2015-07-05T13:48:50.000Z</time>
      </trkpt>
      <trkpt lat="48.6252" lon="1.72832">
        <ele>163.2</ele>
        <time>2015-07-05T13:49:00.000Z</time>
      </trkpt>
      <trkpt lat="48.6253" lon="1.7285">
        <ele>163.5</ele>
        <time>2015-07-05T13:49:09.000Z</time>
      </trkpt>
      <trkpt lat="48.62539" lon="1.72865">
        <ele>163.7</ele>
        <time>2015-07-05T13:49:17.000Z</time>
      </trkpt>
      <trkpt lat="48.62546" lon="1.72875">
        <ele>163.7</ele>
        <time>2015-07-05T13:49:23.000Z</time>
      </trkpt>
      <trkpt lat="48.62559" lon="1.72894">
        <ele>163.9</ele>
        <time>2015-07-05T13:49:34.000Z</time>
      </trkpt>
      <trkpt lat="48.62569" lon="1.72906">
        <ele>163.8</ele>
        <time>2015-07-05T13:49:42.000Z</time>
      </trkpt>
      <trkpt lat="48.62582" lon="1.72918">
        <ele>164.1</ele>
        <time>2015-07-05T13:49:52.000Z</time>
      </trkpt>
      <trkpt lat="48.62591" lon="1.72932">
        <ele>164.4</ele>
        <time>2015-07-05T13:50:00.000Z</time>
      </trkpt>
      <trkpt lat="48.62598" lon="1.72943">
        <ele>164.4</ele>
        <time>2015-07-05T13:50:06.000Z</time>
      </trkpt>
      <trkpt lat="48.62612" lon="1.72959">
        <ele>164.5</ele>
        <time>2015-07-05T13:50:15.000Z</time>
      </trkpt>
      <trkpt lat="48.62616" lon="1.72965">
        <ele>164.7</ele>
        <time>2015-07-05T13:50:18.000Z</time>
      </trkpt>
      <trkpt lat="48.62622" lon="1.72974">
        <ele>165</ele>
        <time>2015-07-05T13:50:23.000Z</time>
      </trkpt>
      <trkpt lat="48.62633" lon="1.7299">
        <ele>165</ele>
        <time>2015-07-05T13:50:33.000Z</time>
      </trkpt>
      <trkpt lat="48.6264" lon="1.73003">
        <ele>165</ele>
        <time>2015-07-05T13:50:40.000Z</time>
      </trkpt>
      <trkpt lat="48.62647" lon="1.73015">
        <ele>165</ele>
        <time>2015-07-05T13:50:45.000Z</time>
      </trkpt>
      <trkpt lat="48.62654" lon="1.7303">
        <ele>165</ele>
        <time>2015-07-05T13:50:52.000Z</time>
      </trkpt>
      <trkpt lat="48.6266" lon="1.73042">
        <ele>165</ele>
        <time>2015-07-05T13:50:58.000Z</time>
      </trkpt>
      <trkpt lat="48.62668" lon="1.73061">
        <ele>165</ele>
        <time>2015-07-05T13:51:07.000Z</time>
      </trkpt>
      <trkpt lat="48.62677" lon="1.73081">
        <ele>165</ele>
        <time>2015-07-05T13:51:16.000Z</time>
      </trkpt>
      <trkpt lat="48.62685" lon="1.731">
        <ele>165</ele>
        <time>2015-07-05T13:51:25.000Z</time>
      </trkpt>
      <trkpt lat="48.62693" lon="1.73117">
        <ele>165</ele>
        <time>2015-07-05T13:51:33.000Z</time>
      </trkpt>
      <trkpt lat="48.62702" lon="1.73139">
        <ele>165</ele>
        <time>2015-07-05T13:51:43.000Z</time>
      </trkpt>
      <trkpt lat="48.62708" lon="1.73154">
        <ele>164.5</ele>
        <time>2015-07-05T13:51:50.000Z</time>
      </trkpt>
      <trkpt lat="48.62716" lon="1.73173">
        <ele>164</ele>
        <time>2015-07-05T13:51:59.000Z</time>
      </trkpt>
      <trkpt lat="48.62722" lon="1.73187">
        <ele>164</ele>
        <time>2015-07-05T13:52:06.000Z</time>
      </trkpt>
      <trkpt lat="48.62732" lon="1.73211">
        <ele>164</ele>
        <time>2015-07-05T13:52:17.000Z</time>
      </trkpt>
      <trkpt lat="48.62739" lon="1.73226">
        <ele>163.9</ele>
        <time>2015-07-05T13:52:24.000Z</time>
      </trkpt>
      <trkpt lat="48.62746" lon="1.73243">
        <ele>163.4</ele>
        <time>2015-07-05T13:52:32.000Z</time>
      </trkpt>
      <trkpt lat="48.62755" lon="1.73263">
        <ele>162.7</ele>
        <time>2015-07-05T13:52:42.000Z</time>
      </trkpt>
      <trkpt lat="48.62761" lon="1.73276">
        <ele>162.5</ele>
        <time>2015-07-05T13:52:48.000Z</time>
      </trkpt>
      <trkpt lat="48.62769" lon="1.7329">
        <ele>162.2</ele>
        <time>2015-07-05T13:52:56.000Z</time>
      </trkpt>
      <trkpt lat="48.62775" lon="1.73305">
        <ele>161.9</ele>
        <time>2015-07-05T13:53:02.000Z</time>
      </trkpt>
      <trkpt lat="48.62783" lon="1.73322">
        <ele>161.6</ele>
        <time>2015-07-05T13:53:08.000Z</time>
      </trkpt>
      <trkpt lat="48.62792" lon="1.73339">
        <ele>161.1</ele>
        <time>2015-07-05T13:53:17.000Z</time>
      </trkpt>
      <trkpt lat="48.62802" lon="1.73362">
        <ele>160.6</ele>
        <time>2015-07-05T13:53:28.000Z</time>
      </trkpt>
      <trkpt lat="48.62808" lon="1.73388">
        <ele>160.2</ele>
        <time>2015-07-05T13:53:37.000Z</time>
      </trkpt>
      <trkpt lat="48.62811" lon="1.73406">
        <ele>159.8</ele>
        <time>2015-07-05T13:53:44.000Z</time>
      </trkpt>
      <trkpt lat="48.62815" lon="1.73422">
        <ele>159.5</ele>
        <time>2015-07-05T13:53:51.000Z</time>
      </trkpt>
      <trkpt lat="48.62819" lon="1.73446">
        <ele>159.4</ele>
        <time>2015-07-05T13:54:01.000Z</time>
      </trkpt>
      <trkpt lat="48.62821" lon="1.73465">
        <ele>160</ele>
        <time>2015-07-05T13:54:09.000Z</time>
      </trkpt>
      <trkpt lat="48.62824" lon="1.73492">
        <ele>160.3</ele>
        <time>2015-07-05T13:54:20.000Z</time>
      </trkpt>
      <trkpt lat="48.62827" lon="1.73506">
        <ele>160.6</ele>
        <time>2015-07-05T13:54:26.000Z</time>
      </trkpt>
      <trkpt lat="48.62831" lon="1.73525">
        <ele>160.9</ele>
        <time>2015-07-05T13:54:34.000Z</time>
      </trkpt>
      <trkpt lat="48.62836" lon="1.73541">
        <ele>161.1</ele>
        <time>2015-07-05T13:54:41.000Z</time>
      </trkpt>
      <trkpt lat="48.6284" lon="1.73556">
        <ele>161.2</ele>
        <time>2015-07-05T13:54:48.000Z</time>
      </trkpt>
      <trkpt lat="48.62846" lon="1.73575">
        <ele>161.4</ele>
        <time>2015-07-05T13:54:56.000Z</time>
      </trkpt>
      <trkpt lat="48.62849" lon="1.73591">
        <ele>161.6</ele>
        <time>2015-07-05T13:55:03.000Z</time>
      </trkpt>
      <trkpt lat="48.6285" lon="1.736">
        <ele>161.6</ele>
        <time>2015-07-05T13:55:08.000Z</time>
      </trkpt>
      <trkpt lat="48.62851" lon="1.73613">
        <ele>161.6</ele>
        <time>2015-07-05T13:55:14.000Z</time>
      </trkpt>
      <trkpt lat="48.62856" lon="1.73627">
        <ele>161.8</ele>
        <time>2015-07-05T13:55:21.000Z</time>
      </trkpt>
      <trkpt lat="48.62863" lon="1.73647">
        <ele>162</ele>
        <time>2015-07-05T13:55:30.000Z</time>
      </trkpt>
      <trkpt lat="48.62864" lon="1.73653">
        <ele>162</ele>
        <time>2015-07-05T13:55:32.000Z</time>
      </trkpt>
      <trkpt lat="48.62865" lon="1.73669">
        <ele>161.9</ele>
        <time>2015-07-05T13:55:39.000Z</time>
      </trkpt>
      <trkpt lat="48.62865" lon="1.73672">
        <ele>161.8</ele>
        <time>2015-07-05T13:55:40.000Z</time>
      </trkpt>
      <trkpt lat="48.62863" lon="1.73694">
        <ele>161.1</ele>
        <time>2015-07-05T13:55:49.000Z</time>
      </trkpt>
      <trkpt lat="48.62858" lon="1.73709">
        <ele>161</ele>
        <time>2015-07-05T13:55:56.000Z</time>
      </trkpt>
      <trkpt lat="48.62854" lon="1.73715">
        <ele>161</ele>
        <time>2015-07-05T13:56:00.000Z</time>
      </trkpt>
      <trkpt lat="48.6285" lon="1.73726">
        <ele>160.9</ele>
        <time>2015-07-05T13:56:05.000Z</time>
      </trkpt>
      <trkpt lat="48.62846" lon="1.73731">
        <ele>160.8</ele>
        <time>2015-07-05T13:56:08.000Z</time>
      </trkpt>
      <trkpt lat="48.6284" lon="1.73743">
        <ele>160.4</ele>
        <time>2015-07-05T13:56:15.000Z</time>
      </trkpt>
      <trkpt lat="48.62828" lon="1.73757">
        <ele>159.8</ele>
        <time>2015-07-05T13:56:24.000Z</time>
      </trkpt>
      <trkpt lat="48.62823" lon="1.73771">
        <ele>159.6</ele>
        <time>2015-07-05T13:56:31.000Z</time>
      </trkpt>
      <trkpt lat="48.62823" lon="1.73778">
        <ele>159.6</ele>
        <time>2015-07-05T13:56:37.000Z</time>
      </trkpt>
      <trkpt lat="48.62817" lon="1.73778">
        <ele>159.4</ele>
        <time>2015-07-05T13:56:46.000Z</time>
      </trkpt>
      <trkpt lat="48.62807" lon="1.73786">
        <ele>159.1</ele>
        <time>2015-07-05T13:56:52.000Z</time>
      </trkpt>
      <trkpt lat="48.628" lon="1.73793">
        <ele>158.8</ele>
        <time>2015-07-05T13:56:58.000Z</time>
      </trkpt>
      <trkpt lat="48.62792" lon="1.73805">
        <ele>158.5</ele>
        <time>2015-07-05T13:57:05.000Z</time>
      </trkpt>
      <trkpt lat="48.62787" lon="1.73811">
        <ele>158.3</ele>
        <time>2015-07-05T13:57:09.000Z</time>
      </trkpt>
      <trkpt lat="48.62788" lon="1.73818">
        <ele>158.4</ele>
        <time>2015-07-05T13:57:13.000Z</time>
      </trkpt>
      <trkpt lat="48.62789" lon="1.73821">
        <ele>158.4</ele>
        <time>2015-07-05T13:57:18.000Z</time>
      </trkpt>
      <trkpt lat="48.62798" lon="1.73821">
        <ele>158.7</ele>
        <time>2015-07-05T13:57:30.000Z</time>
      </trkpt>
      <trkpt lat="48.62808" lon="1.73822">
        <ele>159</ele>
        <time>2015-07-05T13:57:37.000Z</time>
      </trkpt>
      <trkpt lat="48.62818" lon="1.73824">
        <ele>159.2</ele>
        <time>2015-07-05T13:57:45.000Z</time>
      </trkpt>
      <trkpt lat="48.62824" lon="1.73824">
        <ele>159.2</ele>
        <time>2015-07-05T13:57:49.000Z</time>
      </trkpt>
      <trkpt lat="48.62835" lon="1.73823">
        <ele>159.4</ele>
        <time>2015-07-05T13:57:56.000Z</time>
      </trkpt>
      <trkpt lat="48.62846" lon="1.73828">
        <ele>159.2</ele>
        <time>2015-07-05T13:58:04.000Z</time>
      </trkpt>
      <trkpt lat="48.62855" lon="1.73832">
        <ele>159</ele>
        <time>2015-07-05T13:58:10.000Z</time>
      </trkpt>
      <trkpt lat="48.62865" lon="1.73837">
        <ele>158.9</ele>
        <time>2015-07-05T13:58:15.000Z</time>
      </trkpt>
      <trkpt lat="48.62871" lon="1.7384">
        <ele>158.8</ele>
        <time>2015-07-05T13:58:18.000Z</time>
      </trkpt>
      <trkpt lat="48.62882" lon="1.73846">
        <ele>158.5</ele>
        <time>2015-07-05T13:58:24.000Z</time>
      </trkpt>
      <trkpt lat="48.62894" lon="1.73854">
        <ele>158.4</ele>
        <time>2015-07-05T13:58:32.000Z</time>
      </trkpt>
      <trkpt lat="48.62899" lon="1.73857">
        <ele>158.5</ele>
        <time>2015-07-05T13:58:35.000Z</time>
      </trkpt>
      <trkpt lat="48.62907" lon="1.7386">
        <ele>158.7</ele>
        <time>2015-07-05T13:58:41.000Z</time>
      </trkpt>
      <trkpt lat="48.62924" lon="1.7387">
        <ele>158.8</ele>
        <time>2015-07-05T13:58:51.000Z</time>
      </trkpt>
      <trkpt lat="48.62938" lon="1.73878">
        <ele>158.9</ele>
        <time>2015-07-05T13:59:00.000Z</time>
      </trkpt>
      <trkpt lat="48.62953" lon="1.73886">
        <ele>159</ele>
        <time>2015-07-05T13:59:08.000Z</time>
      </trkpt>
      <trkpt lat="48.62969" lon="1.73894">
        <ele>159</ele>
        <time>2015-07-05T13:59:17.000Z</time>
      </trkpt>
      <trkpt lat="48.62983" lon="1.73898">
        <ele>159.4</ele>
        <time>2015-07-05T13:59:26.000Z</time>
      </trkpt>
      <trkpt lat="48.62992" lon="1.739">
        <ele>159.7</ele>
        <time>2015-07-05T13:59:30.000Z</time>
      </trkpt>
      <trkpt lat="48.62996" lon="1.73899">
        <ele>159.8</ele>
        <time>2015-07-05T13:59:34.000Z</time>
      </trkpt>
      <trkpt lat="48.63004" lon="1.73897">
        <ele>160</ele>
        <time>2015-07-05T13:59:40.000Z</time>
      </trkpt>
      <trkpt lat="48.63013" lon="1.73896">
        <ele>160</ele>
        <time>2015-07-05T13:59:45.000Z</time>
      </trkpt>
      <trkpt lat="48.6302" lon="1.73895">
        <ele>160</ele>
        <time>2015-07-05T13:59:50.000Z</time>
      </trkpt>
      <trkpt lat="48.63034" lon="1.73893">
        <ele>160</ele>
        <time>2015-07-05T13:59:56.000Z</time>
      </trkpt>
      <trkpt lat="48.63049" lon="1.73891">
        <ele>160</ele>
        <time>2015-07-05T14:00:04.000Z</time>
      </trkpt>
      <trkpt lat="48.63061" lon="1.73889">
        <ele>160.2</ele>
        <time>2015-07-05T14:00:10.000Z</time>
      </trkpt>
      <trkpt lat="48.63083" lon="1.73885">
        <ele>161</ele>
        <time>2015-07-05T14:00:18.000Z</time>
      </trkpt>
      <trkpt lat="48.63106" lon="1.73885">
        <ele>161</ele>
        <time>2015-07-05T14:00:25.000Z</time>
      </trkpt>
      <trkpt lat="48.63131" lon="1.73883">
        <ele>160.3</ele>
        <time>2015-07-05T14:00:33.000Z</time>
      </trkpt>
      <trkpt lat="48.63157" lon="1.73881">
        <ele>160</ele>
        <time>2015-07-05T14:00:41.000Z</time>
      </trkpt>
      <trkpt lat="48.6318" lon="1.73878">
        <ele>159.5</ele>
        <time>2015-07-05T14:00:48.000Z</time>
      </trkpt>
      <trkpt lat="48.63204" lon="1.73876">
        <ele>158.3</ele>
        <time>2015-07-05T14:00:56.000Z</time>
      </trkpt>
      <trkpt lat="48.63227" lon="1.7388">
        <ele>156.6</ele>
        <time>2015-07-05T14:01:03.000Z</time>
      </trkpt>
      <trkpt lat="48.63248" lon="1.73878">
        <ele>155.1</ele>
        <time>2015-07-05T14:01:09.000Z</time>
      </trkpt>
      <trkpt lat="48.63279" lon="1.73873">
        <ele>152.5</ele>
        <time>2015-07-05T14:01:18.000Z</time>
      </trkpt>
      <trkpt lat="48.63298" lon="1.73867">
        <ele>150.6</ele>
        <time>2015-07-05T14:01:24.000Z</time>
      </trkpt>
      <trkpt lat="48.63324" lon="1.73862">
        <ele>150.6</ele>
        <time>2015-07-05T14:01:32.000Z</time>
      </trkpt>
      <trkpt lat="48.63346" lon="1.73864">
        <ele>152.3</ele>
        <time>2015-07-05T14:01:38.000Z</time>
      </trkpt>
      <trkpt lat="48.63363" lon="1.73865">
        <ele>154.2</ele>
        <time>2015-07-05T14:01:43.000Z</time>
      </trkpt>
      <trkpt lat="48.63382" lon="1.73862">
        <ele>156.3</ele>
        <time>2015-07-05T14:01:49.000Z</time>
      </trkpt>
      <trkpt lat="48.63395" lon="1.73861">
        <ele>157.4</ele>
        <time>2015-07-05T14:01:54.000Z</time>
      </trkpt>
      <trkpt lat="48.63413" lon="1.7386">
        <ele>158.7</ele>
        <time>2015-07-05T14:02:00.000Z</time>
      </trkpt>
      <trkpt lat="48.6343" lon="1.73858">
        <ele>159.4</ele>
        <time>2015-07-05T14:02:06.000Z</time>
      </trkpt>
      <trkpt lat="48.6345" lon="1.73855">
        <ele>160.2</ele>
        <time>2015-07-05T14:02:12.000Z</time>
      </trkpt>
      <trkpt lat="48.63467" lon="1.73855">
        <ele>160.8</ele>
        <time>2015-07-05T14:02:17.000Z</time>
      </trkpt>
      <trkpt lat="48.63498" lon="1.73849">
        <ele>161.5</ele>
        <time>2015-07-05T14:02:24.000Z</time>
      </trkpt>
      <trkpt lat="48.63522" lon="1.73845">
        <ele>161.9</ele>
        <time>2015-07-05T14:02:31.000Z</time>
      </trkpt>
      <trkpt lat="48.63538" lon="1.73842">
        <ele>162</ele>
        <time>2015-07-05T14:02:38.000Z</time>
      </trkpt>
      <trkpt lat="48.63549" lon="1.73841">
        <ele>162</ele>
        <time>2015-07-05T14:02:44.000Z</time>
      </trkpt>
      <trkpt lat="48.63558" lon="1.73839">
        <ele>162</ele>
        <time>2015-07-05T14:02:50.000Z</time>
      </trkpt>
      <trkpt lat="48.63569" lon="1.73837">
        <ele>162</ele>
        <time>2015-07-05T14:02:56.000Z</time>
      </trkpt>
      <trkpt lat="48.63572" lon="1.73837">
        <ele>162</ele>
        <time>2015-07-05T14:02:58.000Z</time>
      </trkpt>
      <trkpt lat="48.63578" lon="1.73831">
        <ele>162</ele>
        <time>2015-07-05T14:03:03.000Z</time>
      </trkpt>
      <trkpt lat="48.63582" lon="1.73825">
        <ele>162</ele>
        <time>2015-07-05T14:03:08.000Z</time>
      </trkpt>
      <trkpt lat="48.63583" lon="1.73824">
        <ele>162</ele>
        <time>2015-07-05T14:03:11.000Z</time>
      </trkpt>
      <trkpt lat="48.63592" lon="1.73825">
        <ele>162</ele>
        <time>2015-07-05T14:03:39.000Z</time>
      </trkpt>
      <trkpt lat="48.63599" lon="1.73837">
        <ele>162</ele>
        <time>2015-07-05T14:03:45.000Z</time>
      </trkpt>
      <trkpt lat="48.63605" lon="1.7385">
        <ele>162</ele>
        <time>2015-07-05T14:03:52.000Z</time>
      </trkpt>
      <trkpt lat="48.63611" lon="1.73863">
        <ele>162.1</ele>
        <time>2015-07-05T14:03:58.000Z</time>
      </trkpt>
      <trkpt lat="48.63621" lon="1.73881">
        <ele>162.8</ele>
        <time>2015-07-05T14:04:08.000Z</time>
      </trkpt>
      <trkpt lat="48.63631" lon="1.73898">
        <ele>163</ele>
        <time>2015-07-05T14:04:16.000Z</time>
      </trkpt>
      <trkpt lat="48.63638" lon="1.73912">
        <ele>163</ele>
        <time>2015-07-05T14:04:23.000Z</time>
      </trkpt>
      <trkpt lat="48.63647" lon="1.7393">
        <ele>163</ele>
        <time>2015-07-05T14:04:32.000Z</time>
      </trkpt>
      <trkpt lat="48.63655" lon="1.73947">
        <ele>163</ele>
        <time>2015-07-05T14:04:41.000Z</time>
      </trkpt>
      <trkpt lat="48.63663" lon="1.73959">
        <ele>163</ele>
        <time>2015-07-05T14:04:48.000Z</time>
      </trkpt>
      <trkpt lat="48.63666" lon="1.73973">
        <ele>163</ele>
        <time>2015-07-05T14:04:54.000Z</time>
      </trkpt>
      <trkpt lat="48.63673" lon="1.7399">
        <ele>163.7</ele>
        <time>2015-07-05T14:05:02.000Z</time>
      </trkpt>
      <trkpt lat="48.63684" lon="1.74016">
        <ele>163.8</ele>
        <time>2015-07-05T14:05:14.000Z</time>
      </trkpt>
      <trkpt lat="48.63692" lon="1.74035">
        <ele>163.9</ele>
        <time>2015-07-05T14:05:23.000Z</time>
      </trkpt>
      <trkpt lat="48.63699" lon="1.74051">
        <ele>164</ele>
        <time>2015-07-05T14:05:29.000Z</time>
      </trkpt>
      <trkpt lat="48.63706" lon="1.74069">
        <ele>164</ele>
        <time>2015-07-05T14:05:35.000Z</time>
      </trkpt>
      <trkpt lat="48.63713" lon="1.74089">
        <ele>164</ele>
        <time>2015-07-05T14:05:44.000Z</time>
      </trkpt>
      <trkpt lat="48.63719" lon="1.74109">
        <ele>164</ele>
        <time>2015-07-05T14:05:53.000Z</time>
      </trkpt>
      <trkpt lat="48.63724" lon="1.74128">
        <ele>164</ele>
        <time>2015-07-05T14:06:02.000Z</time>
      </trkpt>
      <trkpt lat="48.63728" lon="1.74145">
        <ele>164</ele>
        <time>2015-07-05T14:06:09.000Z</time>
      </trkpt>
      <trkpt lat="48.63731" lon="1.74168">
        <ele>164</ele>
        <time>2015-07-05T14:06:17.000Z</time>
      </trkpt>
      <trkpt lat="48.63735" lon="1.74187">
        <ele>164</ele>
        <time>2015-07-05T14:06:24.000Z</time>
      </trkpt>
      <trkpt lat="48.63737" lon="1.74211">
        <ele>164</ele>
        <time>2015-07-05T14:06:34.000Z</time>
      </trkpt>
      <trkpt lat="48.63738" lon="1.74229">
        <ele>164</ele>
        <time>2015-07-05T14:06:42.000Z</time>
      </trkpt>
      <trkpt lat="48.63741" lon="1.74253">
        <ele>164</ele>
        <time>2015-07-05T14:06:52.000Z</time>
      </trkpt>
      <trkpt lat="48.63742" lon="1.74275">
        <ele>164</ele>
        <time>2015-07-05T14:07:01.000Z</time>
      </trkpt>
      <trkpt lat="48.63744" lon="1.74296">
        <ele>164</ele>
        <time>2015-07-05T14:07:11.000Z</time>
      </trkpt>
      <trkpt lat="48.63745" lon="1.74298">
        <ele>164</ele>
        <time>2015-07-05T14:07:15.000Z</time>
      </trkpt>
      <trkpt lat="48.63755" lon="1.74283">
        <ele>164</ele>
        <time>2015-07-05T14:09:19.000Z</time>
      </trkpt>
      <trkpt lat="48.63756" lon="1.74281">
        <ele>164</ele>
        <time>2015-07-05T14:09:20.000Z</time>
      </trkpt>
      <trkpt lat="48.63762" lon="1.74265">
        <ele>164</ele>
        <time>2015-07-05T14:09:29.000Z</time>
      </trkpt>
      <trkpt lat="48.63765" lon="1.74256">
        <ele>164</ele>
        <time>2015-07-05T14:09:34.000Z</time>
      </trkpt>
      <trkpt lat="48.63768" lon="1.74244">
        <ele>164.1</ele>
        <time>2015-07-05T14:09:40.000Z</time>
      </trkpt>
      <trkpt lat="48.63771" lon="1.74235">
        <ele>164.4</ele>
        <time>2015-07-05T14:09:46.000Z</time>
      </trkpt>
      <trkpt lat="48.63775" lon="1.7422">
        <ele>164.9</ele>
        <time>2015-07-05T14:09:54.000Z</time>
      </trkpt>
      <trkpt lat="48.6378" lon="1.74209">
        <ele>165</ele>
        <time>2015-07-05T14:10:01.000Z</time>
      </trkpt>
      <trkpt lat="48.63783" lon="1.74199">
        <ele>165</ele>
        <time>2015-07-05T14:10:07.000Z</time>
      </trkpt>
      <trkpt lat="48.63787" lon="1.74187">
        <ele>164.8</ele>
        <time>2015-07-05T14:10:14.000Z</time>
      </trkpt>
      <trkpt lat="48.63792" lon="1.74174">
        <ele>164.6</ele>
        <time>2015-07-05T14:10:21.000Z</time>
      </trkpt>
      <trkpt lat="48.63795" lon="1.74163">
        <ele>164.6</ele>
        <time>2015-07-05T14:10:27.000Z</time>
      </trkpt>
      <trkpt lat="48.63798" lon="1.74151">
        <ele>164.7</ele>
        <time>2015-07-05T14:10:34.000Z</time>
      </trkpt>
      <trkpt lat="48.63801" lon="1.74136">
        <ele>164.8</ele>
        <time>2015-07-05T14:10:43.000Z</time>
      </trkpt>
      <trkpt lat="48.63806" lon="1.74117">
        <ele>165</ele>
        <time>2015-07-05T14:10:53.000Z</time>
      </trkpt>
      <trkpt lat="48.63809" lon="1.74101">
        <ele>165</ele>
        <time>2015-07-05T14:11:02.000Z</time>
      </trkpt>
      <trkpt lat="48.63812" lon="1.74086">
        <ele>165</ele>
        <time>2015-07-05T14:11:10.000Z</time>
      </trkpt>
      <trkpt lat="48.63815" lon="1.74072">
        <ele>164.6</ele>
        <time>2015-07-05T14:11:18.000Z</time>
      </trkpt>
      <trkpt lat="48.63815" lon="1.74068">
        <ele>164.5</ele>
        <time>2015-07-05T14:11:20.000Z</time>
      </trkpt>
      <trkpt lat="48.63817" lon="1.74056">
        <ele>164</ele>
        <time>2015-07-05T14:11:26.000Z</time>
      </trkpt>
      <trkpt lat="48.63818" lon="1.74054">
        <ele>164</ele>
        <time>2015-07-05T14:11:27.000Z</time>
      </trkpt>
      <trkpt lat="48.63818" lon="1.74053">
        <ele>164</ele>
        <time>2015-07-05T14:11:30.000Z</time>
      </trkpt>
      <trkpt lat="48.63824" lon="1.74032">
        <ele>164</ele>
        <time>2015-07-05T14:12:21.000Z</time>
      </trkpt>
      <trkpt lat="48.63826" lon="1.74022">
        <ele>164</ele>
        <time>2015-07-05T14:12:25.000Z</time>
      </trkpt>
      <trkpt lat="48.63827" lon="1.74016">
        <ele>164</ele>
        <time>2015-07-05T14:12:28.000Z</time>
      </trkpt>
      <trkpt lat="48.63828" lon="1.74004">
        <ele>164</ele>
        <time>2015-07-05T14:12:34.000Z</time>
      </trkpt>
      <trkpt lat="48.63831" lon="1.73991">
        <ele>164</ele>
        <time>2015-07-05T14:12:40.000Z</time>
      </trkpt>
      <trkpt lat="48.63833" lon="1.73979">
        <ele>164</ele>
        <time>2015-07-05T14:12:46.000Z</time>
      </trkpt>
      <trkpt lat="48.63835" lon="1.73964">
        <ele>163.7</ele>
        <time>2015-07-05T14:12:53.000Z</time>
      </trkpt>
      <trkpt lat="48.63839" lon="1.73945">
        <ele>163.2</ele>
        <time>2015-07-05T14:13:02.000Z</time>
      </trkpt>
      <trkpt lat="48.63844" lon="1.73926">
        <ele>163.1</ele>
        <time>2015-07-05T14:13:11.000Z</time>
      </trkpt>
      <trkpt lat="48.6385" lon="1.7391">
        <ele>163</ele>
        <time>2015-07-05T14:13:20.000Z</time>
      </trkpt>
      <trkpt lat="48.63852" lon="1.73902">
        <ele>163</ele>
        <time>2015-07-05T14:13:25.000Z</time>
      </trkpt>
      <trkpt lat="48.63858" lon="1.73889">
        <ele>163</ele>
        <time>2015-07-05T14:13:31.000Z</time>
      </trkpt>
      <trkpt lat="48.63866" lon="1.73874">
        <ele>162.5</ele>
        <time>2015-07-05T14:13:40.000Z</time>
      </trkpt>
      <trkpt lat="48.63873" lon="1.73859">
        <ele>162.4</ele>
        <time>2015-07-05T14:13:49.000Z</time>
      </trkpt>
      <trkpt lat="48.63875" lon="1.73857">
        <ele>162.4</ele>
        <time>2015-07-05T14:13:51.000Z</time>
      </trkpt>
      <trkpt lat="48.6388" lon="1.73849">
        <ele>162.4</ele>
        <time>2015-07-05T14:13:57.000Z</time>
      </trkpt>
      <trkpt lat="48.6389" lon="1.73834">
        <ele>162</ele>
        <time>2015-07-05T14:14:07.000Z</time>
      </trkpt>
      <trkpt lat="48.63897" lon="1.73823">
        <ele>162</ele>
        <time>2015-07-05T14:14:14.000Z</time>
      </trkpt>
      <trkpt lat="48.63901" lon="1.73818">
        <ele>162</ele>
        <time>2015-07-05T14:14:18.000Z</time>
      </trkpt>
      <trkpt lat="48.63912" lon="1.73802">
        <ele>162</ele>
        <time>2015-07-05T14:14:29.000Z</time>
      </trkpt>
      <trkpt lat="48.63918" lon="1.73794">
        <ele>162</ele>
        <time>2015-07-05T14:14:35.000Z</time>
      </trkpt>
      <trkpt lat="48.63921" lon="1.73785">
        <ele>161.9</ele>
        <time>2015-07-05T14:14:42.000Z</time>
      </trkpt>
      <trkpt lat="48.63921" lon="1.73784">
        <ele>161.9</ele>
        <time>2015-07-05T14:14:44.000Z</time>
      </trkpt>
      <trkpt lat="48.63928" lon="1.73781">
        <ele>161.6</ele>
        <time>2015-07-05T14:20:50.000Z</time>
      </trkpt>
      <trkpt lat="48.63929" lon="1.73779">
        <ele>161.6</ele>
        <time>2015-07-05T14:20:51.000Z</time>
      </trkpt>
      <trkpt lat="48.63933" lon="1.73772">
        <ele>161.3</ele>
        <time>2015-07-05T14:20:56.000Z</time>
      </trkpt>
      <trkpt lat="48.63934" lon="1.7377">
        <ele>161.3</ele>
        <time>2015-07-05T14:20:57.000Z</time>
      </trkpt>
      <trkpt lat="48.63942" lon="1.73759">
        <ele>161</ele>
        <time>2015-07-05T14:21:04.000Z</time>
      </trkpt>
      <trkpt lat="48.63947" lon="1.73749">
        <ele>161</ele>
        <time>2015-07-05T14:21:09.000Z</time>
      </trkpt>
      <trkpt lat="48.63956" lon="1.73733">
        <ele>161</ele>
        <time>2015-07-05T14:21:18.000Z</time>
      </trkpt>
      <trkpt lat="48.63962" lon="1.73722">
        <ele>161</ele>
        <time>2015-07-05T14:21:24.000Z</time>
      </trkpt>
      <trkpt lat="48.63967" lon="1.73712">
        <ele>161</ele>
        <time>2015-07-05T14:21:30.000Z</time>
      </trkpt>
      <trkpt lat="48.63974" lon="1.73698">
        <ele>161</ele>
        <time>2015-07-05T14:21:37.000Z</time>
      </trkpt>
      <trkpt lat="48.63978" lon="1.73686">
        <ele>161</ele>
        <time>2015-07-05T14:21:43.000Z</time>
      </trkpt>
      <trkpt lat="48.63982" lon="1.73673">
        <ele>161</ele>
        <time>2015-07-05T14:21:49.000Z</time>
      </trkpt>
      <trkpt lat="48.63991" lon="1.73665">
        <ele>161</ele>
        <time>2015-07-05T14:21:56.000Z</time>
      </trkpt>
      <trkpt lat="48.63994" lon="1.73663">
        <ele>161</ele>
        <time>2015-07-05T14:21:58.000Z</time>
      </trkpt>
      <trkpt lat="48.63997" lon="1.73662">
        <ele>161</ele>
        <time>2015-07-05T14:22:00.000Z</time>
      </trkpt>
      <trkpt lat="48.64004" lon="1.73659">
        <ele>161</ele>
        <time>2015-07-05T14:22:04.000Z</time>
      </trkpt>
      <trkpt lat="48.64017" lon="1.73653">
        <ele>161</ele>
        <time>2015-07-05T14:22:13.000Z</time>
      </trkpt>
      <trkpt lat="48.64032" lon="1.73648">
        <ele>161</ele>
        <time>2015-07-05T14:22:20.000Z</time>
      </trkpt>
      <trkpt lat="48.6405" lon="1.73641">
        <ele>161</ele>
        <time>2015-07-05T14:22:26.000Z</time>
      </trkpt>
      <trkpt lat="48.64058" lon="1.73639">
        <ele>161</ele>
        <time>2015-07-05T14:22:32.000Z</time>
      </trkpt>
      <trkpt lat="48.64073" lon="1.73633">
        <ele>161.1</ele>
        <time>2015-07-05T14:22:43.000Z</time>
      </trkpt>
      <trkpt lat="48.64088" lon="1.73627">
        <ele>161.2</ele>
        <time>2015-07-05T14:22:54.000Z</time>
      </trkpt>
      <trkpt lat="48.64101" lon="1.73624">
        <ele>161.6</ele>
        <time>2015-07-05T14:23:03.000Z</time>
      </trkpt>
      <trkpt lat="48.64103" lon="1.73623">
        <ele>161.7</ele>
        <time>2015-07-05T14:23:05.000Z</time>
      </trkpt>
      <trkpt lat="48.64112" lon="1.73618">
        <ele>162</ele>
        <time>2015-07-05T14:23:11.000Z</time>
      </trkpt>
      <trkpt lat="48.64126" lon="1.73613">
        <ele>162</ele>
        <time>2015-07-05T14:23:18.000Z</time>
      </trkpt>
      <trkpt lat="48.64136" lon="1.7361">
        <ele>162</ele>
        <time>2015-07-05T14:23:22.000Z</time>
      </trkpt>
      <trkpt lat="48.64145" lon="1.73606">
        <ele>162</ele>
        <time>2015-07-05T14:23:28.000Z</time>
      </trkpt>
      <trkpt lat="48.64156" lon="1.73602">
        <ele>162</ele>
        <time>2015-07-05T14:23:36.000Z</time>
      </trkpt>
      <trkpt lat="48.64159" lon="1.736">
        <ele>162</ele>
        <time>2015-07-05T14:23:38.000Z</time>
      </trkpt>
      <trkpt lat="48.64166" lon="1.73595">
        <ele>162</ele>
        <time>2015-07-05T14:23:42.000Z</time>
      </trkpt>
      <trkpt lat="48.64178" lon="1.73591">
        <ele>162</ele>
        <time>2015-07-05T14:23:49.000Z</time>
      </trkpt>
      <trkpt lat="48.64189" lon="1.73587">
        <ele>162</ele>
        <time>2015-07-05T14:23:56.000Z</time>
      </trkpt>
      <trkpt lat="48.64201" lon="1.73584">
        <ele>162</ele>
        <time>2015-07-05T14:24:03.000Z</time>
      </trkpt>
      <trkpt lat="48.6421" lon="1.73581">
        <ele>162</ele>
        <time>2015-07-05T14:24:09.000Z</time>
      </trkpt>
      <trkpt lat="48.64221" lon="1.73578">
        <ele>162</ele>
        <time>2015-07-05T14:24:16.000Z</time>
      </trkpt>
      <trkpt lat="48.64233" lon="1.73574">
        <ele>162</ele>
        <time>2015-07-05T14:24:23.000Z</time>
      </trkpt>
      <trkpt lat="48.64242" lon="1.7357">
        <ele>162</ele>
        <time>2015-07-05T14:24:29.000Z</time>
      </trkpt>
      <trkpt lat="48.6425" lon="1.73567">
        <ele>162</ele>
        <time>2015-07-05T14:24:34.000Z</time>
      </trkpt>
      <trkpt lat="48.64261" lon="1.73561">
        <ele>162</ele>
        <time>2015-07-05T14:24:41.000Z</time>
      </trkpt>
      <trkpt lat="48.64272" lon="1.73557">
        <ele>162</ele>
        <time>2015-07-05T14:24:47.000Z</time>
      </trkpt>
      <trkpt lat="48.64284" lon="1.73552">
        <ele>162</ele>
        <time>2015-07-05T14:24:55.000Z</time>
      </trkpt>
      <trkpt lat="48.64295" lon="1.73548">
        <ele>162</ele>
        <time>2015-07-05T14:25:02.000Z</time>
      </trkpt>
      <trkpt lat="48.64306" lon="1.73544">
        <ele>162</ele>
        <time>2015-07-05T14:25:10.000Z</time>
      </trkpt>
      <trkpt lat="48.64312" lon="1.73541">
        <ele>162</ele>
        <time>2015-07-05T14:25:13.000Z</time>
      </trkpt>
      <trkpt lat="48.64322" lon="1.73535">
        <ele>162</ele>
        <time>2015-07-05T14:25:19.000Z</time>
      </trkpt>
      <trkpt lat="48.64323" lon="1.73535">
        <ele>162</ele>
        <time>2015-07-05T14:25:20.000Z</time>
      </trkpt>
      <trkpt lat="48.64336" lon="1.73531">
        <ele>162</ele>
        <time>2015-07-05T14:25:28.000Z</time>
      </trkpt>
      <trkpt lat="48.64347" lon="1.73527">
        <ele>162</ele>
        <time>2015-07-05T14:25:35.000Z</time>
      </trkpt>
      <trkpt lat="48.64352" lon="1.73525">
        <ele>162</ele>
        <time>2015-07-05T14:25:39.000Z</time>
      </trkpt>
      <trkpt lat="48.64357" lon="1.73522">
        <ele>162</ele>
        <time>2015-07-05T14:25:43.000Z</time>
      </trkpt>
      <trkpt lat="48.64363" lon="1.73519">
        <ele>162</ele>
        <time>2015-07-05T14:25:50.000Z</time>
      </trkpt>
      <trkpt lat="48.64372" lon="1.73517">
        <ele>162.2</ele>
        <time>2015-07-05T14:25:57.000Z</time>
      </trkpt>
      <trkpt lat="48.64379" lon="1.73514">
        <ele>162.3</ele>
        <time>2015-07-05T14:26:02.000Z</time>
      </trkpt>
      <trkpt lat="48.64381" lon="1.73513">
        <ele>162.3</ele>
        <time>2015-07-05T14:26:04.000Z</time>
      </trkpt>
      <trkpt lat="48.64391" lon="1.7351">
        <ele>162.4</ele>
        <time>2015-07-05T14:26:10.000Z</time>
      </trkpt>
      <trkpt lat="48.64394" lon="1.73509">
        <ele>162.5</ele>
        <time>2015-07-05T14:26:13.000Z</time>
      </trkpt>
      <trkpt lat="48.64395" lon="1.73508">
        <ele>162.5</ele>
        <time>2015-07-05T14:26:17.000Z</time>
      </trkpt>
      <trkpt lat="48.64401" lon="1.73504">
        <ele>162.5</ele>
        <time>2015-07-05T14:26:26.000Z</time>
      </trkpt>
      <trkpt lat="48.64403" lon="1.73503">
        <ele>162.6</ele>
        <time>2015-07-05T14:26:27.000Z</time>
      </trkpt>
      <trkpt lat="48.64412" lon="1.73499">
        <ele>162.8</ele>
        <time>2015-07-05T14:26:32.000Z</time>
      </trkpt>
      <trkpt lat="48.64423" lon="1.73497">
        <ele>162.9</ele>
        <time>2015-07-05T14:26:39.000Z</time>
      </trkpt>
      <trkpt lat="48.64431" lon="1.73494">
        <ele>162.9</ele>
        <time>2015-07-05T14:26:44.000Z</time>
      </trkpt>
      <trkpt lat="48.64441" lon="1.7349">
        <ele>163</ele>
        <time>2015-07-05T14:26:51.000Z</time>
      </trkpt>
      <trkpt lat="48.64453" lon="1.73486">
        <ele>163</ele>
        <time>2015-07-05T14:26:58.000Z</time>
      </trkpt>
      <trkpt lat="48.64459" lon="1.73483">
        <ele>163</ele>
        <time>2015-07-05T14:27:03.000Z</time>
      </trkpt>
      <trkpt lat="48.6447" lon="1.73478">
        <ele>163</ele>
        <time>2015-07-05T14:27:11.000Z</time>
      </trkpt>
      <trkpt lat="48.64471" lon="1.73478">
        <ele>163</ele>
        <time>2015-07-05T14:27:14.000Z</time>
      </trkpt>
      <trkpt lat="48.64483" lon="1.73478">
        <ele>163.3</ele>
        <time>2015-07-05T14:30:12.000Z</time>
      </trkpt>
      <trkpt lat="48.64483" lon="1.7348">
        <ele>163.3</ele>
        <time>2015-07-05T14:30:14.000Z</time>
      </trkpt>
      <trkpt lat="48.64498" lon="1.73477">
        <ele>163.8</ele>
        <time>2015-07-05T14:30:57.000Z</time>
      </trkpt>
      <trkpt lat="48.64503" lon="1.73474">
        <ele>164</ele>
        <time>2015-07-05T14:31:00.000Z</time>
      </trkpt>
      <trkpt lat="48.64506" lon="1.7347">
        <ele>164</ele>
        <time>2015-07-05T14:31:05.000Z</time>
      </trkpt>
      <trkpt lat="48.64518" lon="1.73465">
        <ele>164</ele>
        <time>2015-07-05T14:31:22.000Z</time>
      </trkpt>
      <trkpt lat="48.64522" lon="1.73464">
        <ele>164</ele>
        <time>2015-07-05T14:31:24.000Z</time>
      </trkpt>
      <trkpt lat="48.64533" lon="1.73461">
        <ele>164</ele>
        <time>2015-07-05T14:31:33.000Z</time>
      </trkpt>
      <trkpt lat="48.64544" lon="1.73455">
        <ele>164</ele>
        <time>2015-07-05T14:31:40.000Z</time>
      </trkpt>
      <trkpt lat="48.64554" lon="1.73451">
        <ele>164</ele>
        <time>2015-07-05T14:31:47.000Z</time>
      </trkpt>
      <trkpt lat="48.64565" lon="1.73447">
        <ele>164</ele>
        <time>2015-07-05T14:31:54.000Z</time>
      </trkpt>
      <trkpt lat="48.64572" lon="1.73443">
        <ele>164</ele>
        <time>2015-07-05T14:31:59.000Z</time>
      </trkpt>
      <trkpt lat="48.64583" lon="1.73441">
        <ele>164</ele>
        <time>2015-07-05T14:32:05.000Z</time>
      </trkpt>
      <trkpt lat="48.64599" lon="1.73435">
        <ele>164.6</ele>
        <time>2015-07-05T14:32:11.000Z</time>
      </trkpt>
      <trkpt lat="48.64604" lon="1.73433">
        <ele>164.8</ele>
        <time>2015-07-05T14:32:15.000Z</time>
      </trkpt>
      <trkpt lat="48.64615" lon="1.73426">
        <ele>165</ele>
        <time>2015-07-05T14:32:22.000Z</time>
      </trkpt>
      <trkpt lat="48.64621" lon="1.73424">
        <ele>165</ele>
        <time>2015-07-05T14:32:28.000Z</time>
      </trkpt>
      <trkpt lat="48.64625" lon="1.73422">
        <ele>165</ele>
        <time>2015-07-05T14:32:31.000Z</time>
      </trkpt>
      <trkpt lat="48.64632" lon="1.73418">
        <ele>165</ele>
        <time>2015-07-05T14:32:35.000Z</time>
      </trkpt>
      <trkpt lat="48.64642" lon="1.73414">
        <ele>165</ele>
        <time>2015-07-05T14:32:41.000Z</time>
      </trkpt>
      <trkpt lat="48.64652" lon="1.7341">
        <ele>165</ele>
        <time>2015-07-05T14:32:48.000Z</time>
      </trkpt>
      <trkpt lat="48.6466" lon="1.73408">
        <ele>165</ele>
        <time>2015-07-05T14:32:54.000Z</time>
      </trkpt>
      <trkpt lat="48.64674" lon="1.73405">
        <ele>165.2</ele>
        <time>2015-07-05T14:33:02.000Z</time>
      </trkpt>
      <trkpt lat="48.64685" lon="1.73402">
        <ele>165.3</ele>
        <time>2015-07-05T14:33:09.000Z</time>
      </trkpt>
      <trkpt lat="48.64696" lon="1.73398">
        <ele>165.4</ele>
        <time>2015-07-05T14:33:17.000Z</time>
      </trkpt>
      <trkpt lat="48.64705" lon="1.73393">
        <ele>165.5</ele>
        <time>2015-07-05T14:33:23.000Z</time>
      </trkpt>
      <trkpt lat="48.64718" lon="1.7339">
        <ele>165.9</ele>
        <time>2015-07-05T14:33:30.000Z</time>
      </trkpt>
      <trkpt lat="48.64726" lon="1.73386">
        <ele>166</ele>
        <time>2015-07-05T14:33:37.000Z</time>
      </trkpt>
      <trkpt lat="48.64738" lon="1.73381">
        <ele>166</ele>
        <time>2015-07-05T14:33:44.000Z</time>
      </trkpt>
      <trkpt lat="48.64752" lon="1.73376">
        <ele>166.1</ele>
        <time>2015-07-05T14:33:52.000Z</time>
      </trkpt>
      <trkpt lat="48.64762" lon="1.7337">
        <ele>166.4</ele>
        <time>2015-07-05T14:33:57.000Z</time>
      </trkpt>
      <trkpt lat="48.64774" lon="1.73367">
        <ele>166.9</ele>
        <time>2015-07-05T14:34:03.000Z</time>
      </trkpt>
      <trkpt lat="48.64785" lon="1.73361">
        <ele>167</ele>
        <time>2015-07-05T14:34:10.000Z</time>
      </trkpt>
      <trkpt lat="48.64796" lon="1.73357">
        <ele>166.9</ele>
        <time>2015-07-05T14:34:18.000Z</time>
      </trkpt>
      <trkpt lat="48.64806" lon="1.73353">
        <ele>166.7</ele>
        <time>2015-07-05T14:34:25.000Z</time>
      </trkpt>
      <trkpt lat="48.64817" lon="1.73349">
        <ele>166.7</ele>
        <time>2015-07-05T14:34:33.000Z</time>
      </trkpt>
      <trkpt lat="48.64829" lon="1.73347">
        <ele>166.9</ele>
        <time>2015-07-05T14:34:41.000Z</time>
      </trkpt>
      <trkpt lat="48.64834" lon="1.73352">
        <ele>167</ele>
        <time>2015-07-05T14:34:45.000Z</time>
      </trkpt>
      <trkpt lat="48.6484" lon="1.73366">
        <ele>167.4</ele>
        <time>2015-07-05T14:34:51.000Z</time>
      </trkpt>
      <trkpt lat="48.64846" lon="1.73374">
        <ele>167.7</ele>
        <time>2015-07-05T14:34:55.000Z</time>
      </trkpt>
      <trkpt lat="48.64859" lon="1.73397">
        <ele>168</ele>
        <time>2015-07-05T14:35:04.000Z</time>
      </trkpt>
      <trkpt lat="48.64862" lon="1.73406">
        <ele>168</ele>
        <time>2015-07-05T14:35:08.000Z</time>
      </trkpt>
      <trkpt lat="48.64867" lon="1.7342">
        <ele>168</ele>
        <time>2015-07-05T14:35:16.000Z</time>
      </trkpt>
      <trkpt lat="48.64867" lon="1.73424">
        <ele>168.1</ele>
        <time>2015-07-05T14:35:19.000Z</time>
      </trkpt>
      <trkpt lat="48.64874" lon="1.73438">
        <ele>168.4</ele>
        <time>2015-07-05T14:35:25.000Z</time>
      </trkpt>
      <trkpt lat="48.64888" lon="1.73463">
        <ele>169</ele>
        <time>2015-07-05T14:35:35.000Z</time>
      </trkpt>
      <trkpt lat="48.64895" lon="1.73481">
        <ele>169</ele>
        <time>2015-07-05T14:35:43.000Z</time>
      </trkpt>
      <trkpt lat="48.64899" lon="1.73496">
        <ele>169</ele>
        <time>2015-07-05T14:35:48.000Z</time>
      </trkpt>
      <trkpt lat="48.64904" lon="1.73513">
        <ele>169.5</ele>
        <time>2015-07-05T14:35:54.000Z</time>
      </trkpt>
      <trkpt lat="48.64908" lon="1.73524">
        <ele>169.9</ele>
        <time>2015-07-05T14:35:59.000Z</time>
      </trkpt>
      <trkpt lat="48.64909" lon="1.73531">
        <ele>170</ele>
        <time>2015-07-05T14:36:02.000Z</time>
      </trkpt>
      <trkpt lat="48.64911" lon="1.73539">
        <ele>170</ele>
        <time>2015-07-05T14:36:07.000Z</time>
      </trkpt>
      <trkpt lat="48.64917" lon="1.73551">
        <ele>170</ele>
        <time>2015-07-05T14:36:12.000Z</time>
      </trkpt>
      <trkpt lat="48.64919" lon="1.7356">
        <ele>170</ele>
        <time>2015-07-05T14:36:16.000Z</time>
      </trkpt>
      <trkpt lat="48.64927" lon="1.73581">
        <ele>170</ele>
        <time>2015-07-05T14:36:25.000Z</time>
      </trkpt>
      <trkpt lat="48.64931" lon="1.73595">
        <ele>170</ele>
        <time>2015-07-05T14:36:32.000Z</time>
      </trkpt>
      <trkpt lat="48.64941" lon="1.73614">
        <ele>170</ele>
        <time>2015-07-05T14:36:40.000Z</time>
      </trkpt>
      <trkpt lat="48.64942" lon="1.73619">
        <ele>170</ele>
        <time>2015-07-05T14:36:42.000Z</time>
      </trkpt>
      <trkpt lat="48.64944" lon="1.73628">
        <ele>170</ele>
        <time>2015-07-05T14:36:48.000Z</time>
      </trkpt>
      <trkpt lat="48.64954" lon="1.7365">
        <ele>170</ele>
        <time>2015-07-05T14:36:57.000Z</time>
      </trkpt>
      <trkpt lat="48.64955" lon="1.73653">
        <ele>170</ele>
        <time>2015-07-05T14:37:02.000Z</time>
      </trkpt>
      <trkpt lat="48.64958" lon="1.73662">
        <ele>170</ele>
        <time>2015-07-05T14:37:07.000Z</time>
      </trkpt>
      <trkpt lat="48.64965" lon="1.73679">
        <ele>170</ele>
        <time>2015-07-05T14:37:15.000Z</time>
      </trkpt>
      <trkpt lat="48.64966" lon="1.73685">
        <ele>170</ele>
        <time>2015-07-05T14:37:19.000Z</time>
      </trkpt>
      <trkpt lat="48.64974" lon="1.737">
        <ele>170</ele>
        <time>2015-07-05T14:37:26.000Z</time>
      </trkpt>
      <trkpt lat="48.64983" lon="1.73712">
        <ele>170</ele>
        <time>2015-07-05T14:37:33.000Z</time>
      </trkpt>
      <trkpt lat="48.64991" lon="1.73723">
        <ele>170</ele>
        <time>2015-07-05T14:37:40.000Z</time>
      </trkpt>
      <trkpt lat="48.64993" lon="1.73731">
        <ele>170</ele>
        <time>2015-07-05T14:37:45.000Z</time>
      </trkpt>
      <trkpt lat="48.65001" lon="1.73743">
        <ele>170</ele>
        <time>2015-07-05T14:37:53.000Z</time>
      </trkpt>
      <trkpt lat="48.65002" lon="1.73744">
        <ele>170</ele>
        <time>2015-07-05T14:37:54.000Z</time>
      </trkpt>
      <trkpt lat="48.65008" lon="1.7375">
        <ele>170</ele>
        <time>2015-07-05T14:37:58.000Z</time>
      </trkpt>
      <trkpt lat="48.65016" lon="1.73763">
        <ele>170</ele>
        <time>2015-07-05T14:38:06.000Z</time>
      </trkpt>
      <trkpt lat="48.65024" lon="1.73774">
        <ele>170</ele>
        <time>2015-07-05T14:38:14.000Z</time>
      </trkpt>
      <trkpt lat="48.65028" lon="1.73781">
        <ele>170</ele>
        <time>2015-07-05T14:38:18.000Z</time>
      </trkpt>
      <trkpt lat="48.65036" lon="1.73791">
        <ele>170</ele>
        <time>2015-07-05T14:38:25.000Z</time>
      </trkpt>
      <trkpt lat="48.65039" lon="1.73794">
        <ele>170</ele>
        <time>2015-07-05T14:38:27.000Z</time>
      </trkpt>
      <trkpt lat="48.65041" lon="1.73798">
        <ele>170</ele>
        <time>2015-07-05T14:38:29.000Z</time>
      </trkpt>
      <trkpt lat="48.65048" lon="1.73812">
        <ele>170</ele>
        <time>2015-07-05T14:38:37.000Z</time>
      </trkpt>
      <trkpt lat="48.65053" lon="1.73821">
        <ele>170</ele>
        <time>2015-07-05T14:38:43.000Z</time>
      </trkpt>
      <trkpt lat="48.65058" lon="1.73829">
        <ele>170</ele>
        <time>2015-07-05T14:38:49.000Z</time>
      </trkpt>
      <trkpt lat="48.65064" lon="1.7384">
        <ele>170</ele>
        <time>2015-07-05T14:38:57.000Z</time>
      </trkpt>
      <trkpt lat="48.65069" lon="1.73848">
        <ele>170</ele>
        <time>2015-07-05T14:39:02.000Z</time>
      </trkpt>
      <trkpt lat="48.65075" lon="1.73854">
        <ele>170</ele>
        <time>2015-07-05T14:39:07.000Z</time>
      </trkpt>
      <trkpt lat="48.65086" lon="1.73868">
        <ele>170</ele>
        <time>2015-07-05T14:39:16.000Z</time>
      </trkpt>
      <trkpt lat="48.65086" lon="1.73869">
        <ele>170</ele>
        <time>2015-07-05T14:39:17.000Z</time>
      </trkpt>
      <trkpt lat="48.65089" lon="1.73873">
        <ele>170</ele>
        <time>2015-07-05T14:39:20.000Z</time>
      </trkpt>
      <trkpt lat="48.65101" lon="1.73889">
        <ele>170</ele>
        <time>2015-07-05T14:39:28.000Z</time>
      </trkpt>
      <trkpt lat="48.65121" lon="1.73907">
        <ele>170</ele>
        <time>2015-07-05T14:39:35.000Z</time>
      </trkpt>
      <trkpt lat="48.6513" lon="1.73923">
        <ele>170</ele>
        <time>2015-07-05T14:39:42.000Z</time>
      </trkpt>
      <trkpt lat="48.65136" lon="1.73934">
        <ele>170</ele>
        <time>2015-07-05T14:39:47.000Z</time>
      </trkpt>
      <trkpt lat="48.65147" lon="1.73949">
        <ele>170</ele>
        <time>2015-07-05T14:39:53.000Z</time>
      </trkpt>
      <trkpt lat="48.65158" lon="1.73966">
        <ele>170</ele>
        <time>2015-07-05T14:40:01.000Z</time>
      </trkpt>
      <trkpt lat="48.65169" lon="1.73983">
        <ele>170.4</ele>
        <time>2015-07-05T14:40:12.000Z</time>
      </trkpt>
      <trkpt lat="48.65176" lon="1.73993">
        <ele>170.6</ele>
        <time>2015-07-05T14:40:17.000Z</time>
      </trkpt>
      <trkpt lat="48.65183" lon="1.74006">
        <ele>170.3</ele>
        <time>2015-07-05T14:40:24.000Z</time>
      </trkpt>
      <trkpt lat="48.65189" lon="1.74014">
        <ele>170.1</ele>
        <time>2015-07-05T14:40:29.000Z</time>
      </trkpt>
      <trkpt lat="48.65195" lon="1.74025">
        <ele>170</ele>
        <time>2015-07-05T14:40:36.000Z</time>
      </trkpt>
      <trkpt lat="48.65202" lon="1.74037">
        <ele>170.2</ele>
        <time>2015-07-05T14:40:42.000Z</time>
      </trkpt>
      <trkpt lat="48.65212" lon="1.74052">
        <ele>170.1</ele>
        <time>2015-07-05T14:40:50.000Z</time>
      </trkpt>
      <trkpt lat="48.65223" lon="1.74066">
        <ele>170</ele>
        <time>2015-07-05T14:40:55.000Z</time>
      </trkpt>
      <trkpt lat="48.65231" lon="1.74081">
        <ele>170</ele>
        <time>2015-07-05T14:41:03.000Z</time>
      </trkpt>
      <trkpt lat="48.65239" lon="1.74095">
        <ele>170</ele>
        <time>2015-07-05T14:41:11.000Z</time>
      </trkpt>
      <trkpt lat="48.65248" lon="1.7411">
        <ele>170</ele>
        <time>2015-07-05T14:41:17.000Z</time>
      </trkpt>
      <trkpt lat="48.65261" lon="1.7413">
        <ele>170</ele>
        <time>2015-07-05T14:41:23.000Z</time>
      </trkpt>
      <trkpt lat="48.65278" lon="1.7416">
        <ele>169.3</ele>
        <time>2015-07-05T14:41:31.000Z</time>
      </trkpt>
      <trkpt lat="48.65299" lon="1.74192">
        <ele>169.1</ele>
        <time>2015-07-05T14:41:39.000Z</time>
      </trkpt>
      <trkpt lat="48.65316" lon="1.74221">
        <ele>169</ele>
        <time>2015-07-05T14:41:46.000Z</time>
      </trkpt>
      <trkpt lat="48.65335" lon="1.74252">
        <ele>168.9</ele>
        <time>2015-07-05T14:41:54.000Z</time>
      </trkpt>
      <trkpt lat="48.65357" lon="1.74289">
        <ele>168</ele>
        <time>2015-07-05T14:42:02.000Z</time>
      </trkpt>
      <trkpt lat="48.65378" lon="1.74325">
        <ele>168</ele>
        <time>2015-07-05T14:42:10.000Z</time>
      </trkpt>
      <trkpt lat="48.654" lon="1.74358">
        <ele>168</ele>
        <time>2015-07-05T14:42:17.000Z</time>
      </trkpt>
      <trkpt lat="48.65412" lon="1.74379">
        <ele>168</ele>
        <time>2015-07-05T14:42:22.000Z</time>
      </trkpt>
      <trkpt lat="48.65427" lon="1.74406">
        <ele>167.6</ele>
        <time>2015-07-05T14:42:28.000Z</time>
      </trkpt>
      <trkpt lat="48.6545" lon="1.7444">
        <ele>167</ele>
        <time>2015-07-05T14:42:36.000Z</time>
      </trkpt>
      <trkpt lat="48.65466" lon="1.74466">
        <ele>167</ele>
        <time>2015-07-05T14:42:43.000Z</time>
      </trkpt>
      <trkpt lat="48.65471" lon="1.74473">
        <ele>167</ele>
        <time>2015-07-05T14:42:48.000Z</time>
      </trkpt>
      <trkpt lat="48.65477" lon="1.74486">
        <ele>167</ele>
        <time>2015-07-05T14:42:56.000Z</time>
      </trkpt>
      <trkpt lat="48.65478" lon="1.74494">
        <ele>167</ele>
        <time>2015-07-05T14:43:01.000Z</time>
      </trkpt>
      <trkpt lat="48.65477" lon="1.74496">
        <ele>167</ele>
        <time>2015-07-05T14:43:03.000Z</time>
      </trkpt>
      <trkpt lat="48.65485" lon="1.74506">
        <ele>167</ele>
        <time>2015-07-05T14:43:10.000Z</time>
      </trkpt>
      <trkpt lat="48.65503" lon="1.74531">
        <ele>166.9</ele>
        <time>2015-07-05T14:43:22.000Z</time>
      </trkpt>
      <trkpt lat="48.65509" lon="1.74545">
        <ele>166.7</ele>
        <time>2015-07-05T14:43:29.000Z</time>
      </trkpt>
      <trkpt lat="48.65509" lon="1.74553">
        <ele>166.7</ele>
        <time>2015-07-05T14:43:34.000Z</time>
      </trkpt>
      <trkpt lat="48.65511" lon="1.74564">
        <ele>166.4</ele>
        <time>2015-07-05T14:43:40.000Z</time>
      </trkpt>
      <trkpt lat="48.65507" lon="1.74577">
        <ele>166.2</ele>
        <time>2015-07-05T14:43:46.000Z</time>
      </trkpt>
      <trkpt lat="48.65505" lon="1.74592">
        <ele>166.3</ele>
        <time>2015-07-05T14:43:52.000Z</time>
      </trkpt>
      <trkpt lat="48.6551" lon="1.74599">
        <ele>166.3</ele>
        <time>2015-07-05T14:43:56.000Z</time>
      </trkpt>
      <trkpt lat="48.65524" lon="1.74599">
        <ele>166.1</ele>
        <time>2015-07-05T14:44:02.000Z</time>
      </trkpt>
      <trkpt lat="48.65535" lon="1.74603">
        <ele>166</ele>
        <time>2015-07-05T14:44:10.000Z</time>
      </trkpt>
      <trkpt lat="48.65537" lon="1.74603">
        <ele>166</ele>
        <time>2015-07-05T14:44:12.000Z</time>
      </trkpt>
      <trkpt lat="48.65546" lon="1.74608">
        <ele>166</ele>
        <time>2015-07-05T14:44:18.000Z</time>
      </trkpt>
      <trkpt lat="48.6555" lon="1.74609">
        <ele>166</ele>
        <time>2015-07-05T14:44:20.000Z</time>
      </trkpt>
      <trkpt lat="48.6556" lon="1.74613">
        <ele>166</ele>
        <time>2015-07-05T14:44:27.000Z</time>
      </trkpt>
      <trkpt lat="48.65563" lon="1.74615">
        <ele>166</ele>
        <time>2015-07-05T14:44:29.000Z</time>
      </trkpt>
      <trkpt lat="48.65569" lon="1.74628">
        <ele>165.7</ele>
        <time>2015-07-05T14:44:37.000Z</time>
      </trkpt>
      <trkpt lat="48.65576" lon="1.74644">
        <ele>165.3</ele>
        <time>2015-07-05T14:44:44.000Z</time>
      </trkpt>
      <trkpt lat="48.65585" lon="1.74664">
        <ele>165</ele>
        <time>2015-07-05T14:44:51.000Z</time>
      </trkpt>
      <trkpt lat="48.65594" lon="1.74678">
        <ele>165</ele>
        <time>2015-07-05T14:44:56.000Z</time>
      </trkpt>
      <trkpt lat="48.656" lon="1.74694">
        <ele>165</ele>
        <time>2015-07-05T14:45:03.000Z</time>
      </trkpt>
      <trkpt lat="48.65604" lon="1.747">
        <ele>165</ele>
        <time>2015-07-05T14:45:09.000Z</time>
      </trkpt>
      <trkpt lat="48.6561" lon="1.74705">
        <ele>165</ele>
        <time>2015-07-05T14:45:12.000Z</time>
      </trkpt>
      <trkpt lat="48.65609" lon="1.74707">
        <ele>165</ele>
        <time>2015-07-05T14:45:14.000Z</time>
      </trkpt>
      <trkpt lat="48.65615" lon="1.74721">
        <ele>165</ele>
        <time>2015-07-05T14:45:21.000Z</time>
      </trkpt>
      <trkpt lat="48.65616" lon="1.74726">
        <ele>165</ele>
        <time>2015-07-05T14:45:23.000Z</time>
      </trkpt>
      <trkpt lat="48.65622" lon="1.74742">
        <ele>165</ele>
        <time>2015-07-05T14:45:30.000Z</time>
      </trkpt>
      <trkpt lat="48.65627" lon="1.74753">
        <ele>165</ele>
        <time>2015-07-05T14:45:35.000Z</time>
      </trkpt>
      <trkpt lat="48.65629" lon="1.74757">
        <ele>165</ele>
        <time>2015-07-05T14:45:37.000Z</time>
      </trkpt>
      <trkpt lat="48.65635" lon="1.74771">
        <ele>165</ele>
        <time>2015-07-05T14:45:43.000Z</time>
      </trkpt>
      <trkpt lat="48.6564" lon="1.7478">
        <ele>165</ele>
        <time>2015-07-05T14:45:50.000Z</time>
      </trkpt>
      <trkpt lat="48.65643" lon="1.74781">
        <ele>165</ele>
        <time>2015-07-05T14:45:53.000Z</time>
      </trkpt>
      <trkpt lat="48.65648" lon="1.74779">
        <ele>165</ele>
        <time>2015-07-05T14:46:00.000Z</time>
      </trkpt>
      <trkpt lat="48.65652" lon="1.74774">
        <ele>165</ele>
        <time>2015-07-05T14:46:04.000Z</time>
      </trkpt>
      <trkpt lat="48.65658" lon="1.74765">
        <ele>165</ele>
        <time>2015-07-05T14:46:09.000Z</time>
      </trkpt>
      <trkpt lat="48.65666" lon="1.74756">
        <ele>165</ele>
        <time>2015-07-05T14:46:16.000Z</time>
      </trkpt>
      <trkpt lat="48.65676" lon="1.74743">
        <ele>164.5</ele>
        <time>2015-07-05T14:46:24.000Z</time>
      </trkpt>
      <trkpt lat="48.65681" lon="1.74734">
        <ele>164.2</ele>
        <time>2015-07-05T14:46:29.000Z</time>
      </trkpt>
      <trkpt lat="48.65689" lon="1.74719">
        <ele>164</ele>
        <time>2015-07-05T14:46:35.000Z</time>
      </trkpt>
      <trkpt lat="48.65689" lon="1.74716">
        <ele>164</ele>
        <time>2015-07-05T14:46:36.000Z</time>
      </trkpt>
      <trkpt lat="48.65693" lon="1.74708">
        <ele>164</ele>
        <time>2015-07-05T14:46:40.000Z</time>
      </trkpt>
      <trkpt lat="48.65704" lon="1.74686">
        <ele>164</ele>
        <time>2015-07-05T14:46:52.000Z</time>
      </trkpt>
      <trkpt lat="48.6571" lon="1.74673">
        <ele>164</ele>
        <time>2015-07-05T14:46:59.000Z</time>
      </trkpt>
      <trkpt lat="48.65712" lon="1.74664">
        <ele>164</ele>
        <time>2015-07-05T14:47:03.000Z</time>
      </trkpt>
      <trkpt lat="48.65717" lon="1.74649">
        <ele>164</ele>
        <time>2015-07-05T14:47:10.000Z</time>
      </trkpt>
      <trkpt lat="48.65725" lon="1.74632">
        <ele>164.2</ele>
        <time>2015-07-05T14:47:18.000Z</time>
      </trkpt>
      <trkpt lat="48.65726" lon="1.7463">
        <ele>164.3</ele>
        <time>2015-07-05T14:47:19.000Z</time>
      </trkpt>
      <trkpt lat="48.65733" lon="1.74615">
        <ele>164.5</ele>
        <time>2015-07-05T14:47:25.000Z</time>
      </trkpt>
      <trkpt lat="48.65735" lon="1.74609">
        <ele>164.5</ele>
        <time>2015-07-05T14:47:28.000Z</time>
      </trkpt>
      <trkpt lat="48.65739" lon="1.74599">
        <ele>164.4</ele>
        <time>2015-07-05T14:47:33.000Z</time>
      </trkpt>
      <trkpt lat="48.65744" lon="1.74588">
        <ele>164.2</ele>
        <time>2015-07-05T14:47:39.000Z</time>
      </trkpt>
      <trkpt lat="48.65752" lon="1.74575">
        <ele>164</ele>
        <time>2015-07-05T14:47:46.000Z</time>
      </trkpt>
      <trkpt lat="48.65758" lon="1.74561">
        <ele>164</ele>
        <time>2015-07-05T14:47:53.000Z</time>
      </trkpt>
      <trkpt lat="48.65768" lon="1.74544">
        <ele>164.1</ele>
        <time>2015-07-05T14:48:02.000Z</time>
      </trkpt>
      <trkpt lat="48.65772" lon="1.74532">
        <ele>164.2</ele>
        <time>2015-07-05T14:48:07.000Z</time>
      </trkpt>
      <trkpt lat="48.65772" lon="1.74528">
        <ele>164.2</ele>
        <time>2015-07-05T14:48:13.000Z</time>
      </trkpt>
      <trkpt lat="48.65771" lon="1.74524">
        <ele>164.2</ele>
        <time>2015-07-05T14:48:20.000Z</time>
      </trkpt>
      <trkpt lat="48.65773" lon="1.7451">
        <ele>164.2</ele>
        <time>2015-07-05T14:48:33.000Z</time>
      </trkpt>
      <trkpt lat="48.65774" lon="1.74506">
        <ele>164.1</ele>
        <time>2015-07-05T14:48:37.000Z</time>
      </trkpt>
      <trkpt lat="48.65791" lon="1.74496">
        <ele>164</ele>
        <time>2015-07-05T14:49:19.000Z</time>
      </trkpt>
      <trkpt lat="48.65796" lon="1.74492">
        <ele>164</ele>
        <time>2015-07-05T14:49:24.000Z</time>
      </trkpt>
      <trkpt lat="48.65797" lon="1.74492">
        <ele>164</ele>
        <time>2015-07-05T14:49:25.000Z</time>
      </trkpt>
      <trkpt lat="48.65802" lon="1.74491">
        <ele>164</ele>
        <time>2015-07-05T14:49:28.000Z</time>
      </trkpt>
      <trkpt lat="48.65808" lon="1.74491">
        <ele>164</ele>
        <time>2015-07-05T14:49:32.000Z</time>
      </trkpt>
      <trkpt lat="48.65815" lon="1.74491">
        <ele>164</ele>
        <time>2015-07-05T14:49:40.000Z</time>
      </trkpt>
      <trkpt lat="48.65817" lon="1.7449">
        <ele>164</ele>
        <time>2015-07-05T14:49:41.000Z</time>
      </trkpt>
      <trkpt lat="48.65823" lon="1.74482">
        <ele>164</ele>
        <time>2015-07-05T14:49:49.000Z</time>
      </trkpt>
      <trkpt lat="48.65822" lon="1.74476">
        <ele>164</ele>
        <time>2015-07-05T14:49:59.000Z</time>
      </trkpt>
      <trkpt lat="48.65833" lon="1.74454">
        <ele>164.7</ele>
        <time>2015-07-05T14:50:39.000Z</time>
      </trkpt>
      <trkpt lat="48.65838" lon="1.74444">
        <ele>164.8</ele>
        <time>2015-07-05T14:50:45.000Z</time>
      </trkpt>
      <trkpt lat="48.65841" lon="1.74443">
        <ele>164.7</ele>
        <time>2015-07-05T14:50:52.000Z</time>
      </trkpt>
      <trkpt lat="48.65843" lon="1.74444">
        <ele>164.7</ele>
        <time>2015-07-05T14:50:57.000Z</time>
      </trkpt>
      <trkpt lat="48.65843" lon="1.74444">
        <ele>164.6</ele>
        <time>2015-07-05T14:50:58.000Z</time>
      </trkpt>
      <trkpt lat="48.65873" lon="1.74432">
        <ele>164.7</ele>
        <time>2015-07-05T14:52:31.000Z</time>
      </trkpt>
      <trkpt lat="48.6588" lon="1.7443">
        <ele>164.8</ele>
        <time>2015-07-05T14:52:35.000Z</time>
      </trkpt>
      <trkpt lat="48.6589" lon="1.74425">
        <ele>165</ele>
        <time>2015-07-05T14:52:44.000Z</time>
      </trkpt>
      <trkpt lat="48.65898" lon="1.74422">
        <ele>164.7</ele>
        <time>2015-07-05T14:52:51.000Z</time>
      </trkpt>
      <trkpt lat="48.65907" lon="1.74418">
        <ele>164.4</ele>
        <time>2015-07-05T14:52:57.000Z</time>
      </trkpt>
      <trkpt lat="48.6592" lon="1.74415">
        <ele>164</ele>
        <time>2015-07-05T14:53:05.000Z</time>
      </trkpt>
      <trkpt lat="48.65927" lon="1.7441">
        <ele>164</ele>
        <time>2015-07-05T14:53:10.000Z</time>
      </trkpt>
      <trkpt lat="48.65932" lon="1.74409">
        <ele>164</ele>
        <time>2015-07-05T14:53:13.000Z</time>
      </trkpt>
      <trkpt lat="48.65941" lon="1.74406">
        <ele>164</ele>
        <time>2015-07-05T14:53:19.000Z</time>
      </trkpt>
      <trkpt lat="48.65942" lon="1.74406">
        <ele>164</ele>
        <time>2015-07-05T14:53:20.000Z</time>
      </trkpt>
      <trkpt lat="48.65949" lon="1.74403">
        <ele>163.8</ele>
        <time>2015-07-05T14:53:24.000Z</time>
      </trkpt>
      <trkpt lat="48.65958" lon="1.74398">
        <ele>163.5</ele>
        <time>2015-07-05T14:53:30.000Z</time>
      </trkpt>
      <trkpt lat="48.65965" lon="1.74395">
        <ele>163.3</ele>
        <time>2015-07-05T14:53:35.000Z</time>
      </trkpt>
      <trkpt lat="48.65974" lon="1.74389">
        <ele>163</ele>
        <time>2015-07-05T14:53:42.000Z</time>
      </trkpt>
      <trkpt lat="48.65985" lon="1.74386">
        <ele>163</ele>
        <time>2015-07-05T14:53:50.000Z</time>
      </trkpt>
      <trkpt lat="48.65988" lon="1.74387">
        <ele>163</ele>
        <time>2015-07-05T14:53:52.000Z</time>
      </trkpt>
      <trkpt lat="48.65994" lon="1.74385">
        <ele>163</ele>
        <time>2015-07-05T14:53:56.000Z</time>
      </trkpt>
      <trkpt lat="48.66001" lon="1.74371">
        <ele>163</ele>
        <time>2015-07-05T14:54:03.000Z</time>
      </trkpt>
      <trkpt lat="48.66008" lon="1.74359">
        <ele>163</ele>
        <time>2015-07-05T14:54:10.000Z</time>
      </trkpt>
      <trkpt lat="48.66018" lon="1.7435">
        <ele>163</ele>
        <time>2015-07-05T14:54:17.000Z</time>
      </trkpt>
      <trkpt lat="48.66021" lon="1.74344">
        <ele>163</ele>
        <time>2015-07-05T14:54:21.000Z</time>
      </trkpt>
      <trkpt lat="48.66025" lon="1.74325">
        <ele>163</ele>
        <time>2015-07-05T14:54:29.000Z</time>
      </trkpt>
      <trkpt lat="48.6603" lon="1.74315">
        <ele>162.9</ele>
        <time>2015-07-05T14:54:35.000Z</time>
      </trkpt>
      <trkpt lat="48.66035" lon="1.74304">
        <ele>162.8</ele>
        <time>2015-07-05T14:54:40.000Z</time>
      </trkpt>
      <trkpt lat="48.66038" lon="1.743">
        <ele>162.6</ele>
        <time>2015-07-05T14:54:43.000Z</time>
      </trkpt>
      <trkpt lat="48.66044" lon="1.74291">
        <ele>162.4</ele>
        <time>2015-07-05T14:54:49.000Z</time>
      </trkpt>
      <trkpt lat="48.6605" lon="1.74284">
        <ele>162.2</ele>
        <time>2015-07-05T14:54:54.000Z</time>
      </trkpt>
      <trkpt lat="48.66055" lon="1.74273">
        <ele>162.2</ele>
        <time>2015-07-05T14:55:00.000Z</time>
      </trkpt>
      <trkpt lat="48.6606" lon="1.74262">
        <ele>162.2</ele>
        <time>2015-07-05T14:55:06.000Z</time>
      </trkpt>
      <trkpt lat="48.66062" lon="1.74251">
        <ele>162.5</ele>
        <time>2015-07-05T14:55:10.000Z</time>
      </trkpt>
      <trkpt lat="48.66067" lon="1.74237">
        <ele>162.2</ele>
        <time>2015-07-05T14:55:17.000Z</time>
      </trkpt>
      <trkpt lat="48.66071" lon="1.74226">
        <ele>161.9</ele>
        <time>2015-07-05T14:55:21.000Z</time>
      </trkpt>
      <trkpt lat="48.66073" lon="1.74222">
        <ele>161.7</ele>
        <time>2015-07-05T14:55:23.000Z</time>
      </trkpt>
      <trkpt lat="48.6608" lon="1.74209">
        <ele>161.2</ele>
        <time>2015-07-05T14:55:29.000Z</time>
      </trkpt>
      <trkpt lat="48.66087" lon="1.74195">
        <ele>160.6</ele>
        <time>2015-07-05T14:55:36.000Z</time>
      </trkpt>
      <trkpt lat="48.66092" lon="1.74178">
        <ele>159.6</ele>
        <time>2015-07-05T14:55:43.000Z</time>
      </trkpt>
      <trkpt lat="48.66095" lon="1.74173">
        <ele>159.3</ele>
        <time>2015-07-05T14:55:46.000Z</time>
      </trkpt>
      <trkpt lat="48.66097" lon="1.7417">
        <ele>159.1</ele>
        <time>2015-07-05T14:55:48.000Z</time>
      </trkpt>
      <trkpt lat="48.661" lon="1.74161">
        <ele>159</ele>
        <time>2015-07-05T14:55:53.000Z</time>
      </trkpt>
      <trkpt lat="48.66108" lon="1.74147">
        <ele>159.5</ele>
        <time>2015-07-05T14:56:00.000Z</time>
      </trkpt>
      <trkpt lat="48.66114" lon="1.7414">
        <ele>159.7</ele>
        <time>2015-07-05T14:56:05.000Z</time>
      </trkpt>
      <trkpt lat="48.66122" lon="1.74124">
        <ele>160.3</ele>
        <time>2015-07-05T14:56:14.000Z</time>
      </trkpt>
      <trkpt lat="48.66123" lon="1.74122">
        <ele>160.3</ele>
        <time>2015-07-05T14:56:15.000Z</time>
      </trkpt>
      <trkpt lat="48.6613" lon="1.74108">
        <ele>160.8</ele>
        <time>2015-07-05T14:56:22.000Z</time>
      </trkpt>
      <trkpt lat="48.66139" lon="1.74097">
        <ele>161</ele>
        <time>2015-07-05T14:56:29.000Z</time>
      </trkpt>
      <trkpt lat="48.66146" lon="1.74085">
        <ele>161.4</ele>
        <time>2015-07-05T14:56:36.000Z</time>
      </trkpt>
      <trkpt lat="48.66154" lon="1.74072">
        <ele>161.4</ele>
        <time>2015-07-05T14:56:43.000Z</time>
      </trkpt>
      <trkpt lat="48.66163" lon="1.74054">
        <ele>162.1</ele>
        <time>2015-07-05T14:56:51.000Z</time>
      </trkpt>
      <trkpt lat="48.66163" lon="1.74052">
        <ele>162.1</ele>
        <time>2015-07-05T14:56:52.000Z</time>
      </trkpt>
      <trkpt lat="48.66166" lon="1.74043">
        <ele>162.4</ele>
        <time>2015-07-05T14:56:56.000Z</time>
      </trkpt>
      <trkpt lat="48.66175" lon="1.74028">
        <ele>162.7</ele>
        <time>2015-07-05T14:57:04.000Z</time>
      </trkpt>
      <trkpt lat="48.66184" lon="1.7402">
        <ele>162.5</ele>
        <time>2015-07-05T14:57:10.000Z</time>
      </trkpt>
      <trkpt lat="48.66192" lon="1.74013">
        <ele>162.6</ele>
        <time>2015-07-05T14:57:16.000Z</time>
      </trkpt>
      <trkpt lat="48.66195" lon="1.7401">
        <ele>162.6</ele>
        <time>2015-07-05T14:57:18.000Z</time>
      </trkpt>
      <trkpt lat="48.66205" lon="1.74008">
        <ele>161.8</ele>
        <time>2015-07-05T14:57:26.000Z</time>
      </trkpt>
      <trkpt lat="48.66212" lon="1.7401">
        <ele>161.1</ele>
        <time>2015-07-05T14:57:31.000Z</time>
      </trkpt>
      <trkpt lat="48.66222" lon="1.74016">
        <ele>159.9</ele>
        <time>2015-07-05T14:57:38.000Z</time>
      </trkpt>
      <trkpt lat="48.66231" lon="1.74019">
        <ele>159</ele>
        <time>2015-07-05T14:57:44.000Z</time>
      </trkpt>
      <trkpt lat="48.66241" lon="1.74026">
        <ele>157.8</ele>
        <time>2015-07-05T14:57:50.000Z</time>
      </trkpt>
      <trkpt lat="48.66252" lon="1.74029">
        <ele>156.7</ele>
        <time>2015-07-05T14:57:56.000Z</time>
      </trkpt>
      <trkpt lat="48.66267" lon="1.74036">
        <ele>155.4</ele>
        <time>2015-07-05T14:58:04.000Z</time>
      </trkpt>
      <trkpt lat="48.66276" lon="1.74041">
        <ele>154.6</ele>
        <time>2015-07-05T14:58:11.000Z</time>
      </trkpt>
      <trkpt lat="48.66286" lon="1.74045">
        <ele>154.1</ele>
        <time>2015-07-05T14:58:17.000Z</time>
      </trkpt>
      <trkpt lat="48.66298" lon="1.74046">
        <ele>153.6</ele>
        <time>2015-07-05T14:58:24.000Z</time>
      </trkpt>
      <trkpt lat="48.66302" lon="1.74045">
        <ele>153.5</ele>
        <time>2015-07-05T14:58:26.000Z</time>
      </trkpt>
      <trkpt lat="48.66311" lon="1.7403">
        <ele>153.5</ele>
        <time>2015-07-05T14:58:33.000Z</time>
      </trkpt>
      <trkpt lat="48.66316" lon="1.7402">
        <ele>153.4</ele>
        <time>2015-07-05T14:58:37.000Z</time>
      </trkpt>
      <trkpt lat="48.66324" lon="1.74009">
        <ele>152.9</ele>
        <time>2015-07-05T14:58:43.000Z</time>
      </trkpt>
      <trkpt lat="48.66331" lon="1.74001">
        <ele>152.3</ele>
        <time>2015-07-05T14:58:48.000Z</time>
      </trkpt>
      <trkpt lat="48.66337" lon="1.73984">
        <ele>152.3</ele>
        <time>2015-07-05T14:58:55.000Z</time>
      </trkpt>
      <trkpt lat="48.66343" lon="1.73968">
        <ele>152.4</ele>
        <time>2015-07-05T14:59:02.000Z</time>
      </trkpt>
      <trkpt lat="48.66354" lon="1.73957">
        <ele>151.6</ele>
        <time>2015-07-05T14:59:08.000Z</time>
      </trkpt>
      <trkpt lat="48.6636" lon="1.7395">
        <ele>151.1</ele>
        <time>2015-07-05T14:59:12.000Z</time>
      </trkpt>
      <trkpt lat="48.66367" lon="1.73932">
        <ele>150.6</ele>
        <time>2015-07-05T14:59:20.000Z</time>
      </trkpt>
      <trkpt lat="48.66373" lon="1.73925">
        <ele>150.1</ele>
        <time>2015-07-05T14:59:24.000Z</time>
      </trkpt>
      <trkpt lat="48.66381" lon="1.73917">
        <ele>149.6</ele>
        <time>2015-07-05T14:59:30.000Z</time>
      </trkpt>
      <trkpt lat="48.66385" lon="1.73908">
        <ele>149.6</ele>
        <time>2015-07-05T14:59:35.000Z</time>
      </trkpt>
      <trkpt lat="48.66388" lon="1.73898">
        <ele>149.7</ele>
        <time>2015-07-05T14:59:40.000Z</time>
      </trkpt>
      <trkpt lat="48.66398" lon="1.73881">
        <ele>149.6</ele>
        <time>2015-07-05T14:59:49.000Z</time>
      </trkpt>
      <trkpt lat="48.66404" lon="1.7387">
        <ele>149.6</ele>
        <time>2015-07-05T14:59:55.000Z</time>
      </trkpt>
      <trkpt lat="48.66407" lon="1.73865">
        <ele>149.6</ele>
        <time>2015-07-05T14:59:58.000Z</time>
      </trkpt>
      <trkpt lat="48.66412" lon="1.73856">
        <ele>149.5</ele>
        <time>2015-07-05T15:00:03.000Z</time>
      </trkpt>
      <trkpt lat="48.66415" lon="1.73852">
        <ele>149.5</ele>
        <time>2015-07-05T15:00:05.000Z</time>
      </trkpt>
      <trkpt lat="48.66417" lon="1.73834">
        <ele>149.9</ele>
        <time>2015-07-05T15:00:11.000Z</time>
      </trkpt>
      <trkpt lat="48.66431" lon="1.73819">
        <ele>148.9</ele>
        <time>2015-07-05T15:00:21.000Z</time>
      </trkpt>
      <trkpt lat="48.66433" lon="1.73818">
        <ele>148.8</ele>
        <time>2015-07-05T15:00:22.000Z</time>
      </trkpt>
      <trkpt lat="48.66438" lon="1.73809">
        <ele>148.6</ele>
        <time>2015-07-05T15:00:27.000Z</time>
      </trkpt>
      <trkpt lat="48.66446" lon="1.73795">
        <ele>147.9</ele>
        <time>2015-07-05T15:00:35.000Z</time>
      </trkpt>
      <trkpt lat="48.66451" lon="1.73779">
        <ele>147.6</ele>
        <time>2015-07-05T15:00:41.000Z</time>
      </trkpt>
      <trkpt lat="48.66454" lon="1.73768">
        <ele>147.5</ele>
        <time>2015-07-05T15:00:46.000Z</time>
      </trkpt>
      <trkpt lat="48.66458" lon="1.73756">
        <ele>147.4</ele>
        <time>2015-07-05T15:00:51.000Z</time>
      </trkpt>
      <trkpt lat="48.66466" lon="1.73738">
        <ele>146.7</ele>
        <time>2015-07-05T15:00:59.000Z</time>
      </trkpt>
      <trkpt lat="48.66467" lon="1.73736">
        <ele>146.6</ele>
        <time>2015-07-05T15:01:00.000Z</time>
      </trkpt>
      <trkpt lat="48.66474" lon="1.7372">
        <ele>145.9</ele>
        <time>2015-07-05T15:01:07.000Z</time>
      </trkpt>
      <trkpt lat="48.66481" lon="1.73708">
        <ele>145.4</ele>
        <time>2015-07-05T15:01:14.000Z</time>
      </trkpt>
      <trkpt lat="48.66486" lon="1.73697">
        <ele>145</ele>
        <time>2015-07-05T15:01:20.000Z</time>
      </trkpt>
      <trkpt lat="48.66492" lon="1.73684">
        <ele>144.6</ele>
        <time>2015-07-05T15:01:26.000Z</time>
      </trkpt>
      <trkpt lat="48.66502" lon="1.73666">
        <ele>144</ele>
        <time>2015-07-05T15:01:35.000Z</time>
      </trkpt>
      <trkpt lat="48.66508" lon="1.73658">
        <ele>143.9</ele>
        <time>2015-07-05T15:01:40.000Z</time>
      </trkpt>
      <trkpt lat="48.66509" lon="1.73656">
        <ele>143.9</ele>
        <time>2015-07-05T15:01:41.000Z</time>
      </trkpt>
      <trkpt lat="48.66516" lon="1.73644">
        <ele>143.7</ele>
        <time>2015-07-05T15:01:48.000Z</time>
      </trkpt>
      <trkpt lat="48.66521" lon="1.7363">
        <ele>143.5</ele>
        <time>2015-07-05T15:01:54.000Z</time>
      </trkpt>
      <trkpt lat="48.66527" lon="1.73614">
        <ele>143.1</ele>
        <time>2015-07-05T15:02:01.000Z</time>
      </trkpt>
      <trkpt lat="48.66534" lon="1.73594">
        <ele>142.6</ele>
        <time>2015-07-05T15:02:08.000Z</time>
      </trkpt>
      <trkpt lat="48.66541" lon="1.73585">
        <ele>142</ele>
        <time>2015-07-05T15:02:14.000Z</time>
      </trkpt>
      <trkpt lat="48.66543" lon="1.73582">
        <ele>141.9</ele>
        <time>2015-07-05T15:02:16.000Z</time>
      </trkpt>
      <trkpt lat="48.66549" lon="1.73561">
        <ele>141.5</ele>
        <time>2015-07-05T15:02:24.000Z</time>
      </trkpt>
      <trkpt lat="48.6655" lon="1.7356">
        <ele>141.4</ele>
        <time>2015-07-05T15:02:25.000Z</time>
      </trkpt>
      <trkpt lat="48.66556" lon="1.73546">
        <ele>141.3</ele>
        <time>2015-07-05T15:02:32.000Z</time>
      </trkpt>
      <trkpt lat="48.66563" lon="1.73529">
        <ele>141.7</ele>
        <time>2015-07-05T15:02:40.000Z</time>
      </trkpt>
      <trkpt lat="48.66571" lon="1.73523">
        <ele>141.4</ele>
        <time>2015-07-05T15:02:45.000Z</time>
      </trkpt>
      <trkpt lat="48.66575" lon="1.73521">
        <ele>141.3</ele>
        <time>2015-07-05T15:02:50.000Z</time>
      </trkpt>
      <trkpt lat="48.66575" lon="1.73521">
        <ele>141.3</ele>
        <time>2015-07-05T15:02:51.000Z</time>
      </trkpt>
      <trkpt lat="48.66577" lon="1.73506">
        <ele>141.2</ele>
        <time>2015-07-05T15:03:02.000Z</time>
      </trkpt>
      <trkpt lat="48.66582" lon="1.73495">
        <ele>141</ele>
        <time>2015-07-05T15:03:07.000Z</time>
      </trkpt>
      <trkpt lat="48.66586" lon="1.73485">
        <ele>140.9</ele>
        <time>2015-07-05T15:03:12.000Z</time>
      </trkpt>
      <trkpt lat="48.66591" lon="1.73471">
        <ele>140.7</ele>
        <time>2015-07-05T15:03:19.000Z</time>
      </trkpt>
      <trkpt lat="48.66595" lon="1.73457">
        <ele>140.6</ele>
        <time>2015-07-05T15:03:25.000Z</time>
      </trkpt>
      <trkpt lat="48.666" lon="1.73441">
        <ele>140.4</ele>
        <time>2015-07-05T15:03:31.000Z</time>
      </trkpt>
      <trkpt lat="48.66606" lon="1.73428">
        <ele>140.3</ele>
        <time>2015-07-05T15:03:37.000Z</time>
      </trkpt>
      <trkpt lat="48.66614" lon="1.73412">
        <ele>139.9</ele>
        <time>2015-07-05T15:03:45.000Z</time>
      </trkpt>
      <trkpt lat="48.66619" lon="1.734">
        <ele>139.6</ele>
        <time>2015-07-05T15:03:50.000Z</time>
      </trkpt>
      <trkpt lat="48.6662" lon="1.73395">
        <ele>139.5</ele>
        <time>2015-07-05T15:03:52.000Z</time>
      </trkpt>
      <trkpt lat="48.66623" lon="1.73376">
        <ele>138.9</ele>
        <time>2015-07-05T15:03:59.000Z</time>
      </trkpt>
      <trkpt lat="48.66625" lon="1.73367">
        <ele>138.6</ele>
        <time>2015-07-05T15:04:03.000Z</time>
      </trkpt>
      <trkpt lat="48.66629" lon="1.73353">
        <ele>138.3</ele>
        <time>2015-07-05T15:04:08.000Z</time>
      </trkpt>
      <trkpt lat="48.66631" lon="1.73336">
        <ele>138.3</ele>
        <time>2015-07-05T15:04:14.000Z</time>
      </trkpt>
      <trkpt lat="48.66634" lon="1.73329">
        <ele>138.1</ele>
        <time>2015-07-05T15:04:19.000Z</time>
      </trkpt>
      <trkpt lat="48.66639" lon="1.73313">
        <ele>138</ele>
        <time>2015-07-05T15:04:26.000Z</time>
      </trkpt>
      <trkpt lat="48.6664" lon="1.73308">
        <ele>138.1</ele>
        <time>2015-07-05T15:04:28.000Z</time>
      </trkpt>
      <trkpt lat="48.66643" lon="1.73296">
        <ele>138.3</ele>
        <time>2015-07-05T15:04:33.000Z</time>
      </trkpt>
      <trkpt lat="48.66645" lon="1.73295">
        <ele>138.4</ele>
        <time>2015-07-05T15:04:34.000Z</time>
      </trkpt>
      <trkpt lat="48.66652" lon="1.73274">
        <ele>138.9</ele>
        <time>2015-07-05T15:04:43.000Z</time>
      </trkpt>
      <trkpt lat="48.66656" lon="1.73255">
        <ele>138.7</ele>
        <time>2015-07-05T15:04:50.000Z</time>
      </trkpt>
      <trkpt lat="48.6666" lon="1.73243">
        <ele>138.7</ele>
        <time>2015-07-05T15:04:56.000Z</time>
      </trkpt>
      <trkpt lat="48.66664" lon="1.73235">
        <ele>138.9</ele>
        <time>2015-07-05T15:05:01.000Z</time>
      </trkpt>
      <trkpt lat="48.66668" lon="1.73218">
        <ele>138.9</ele>
        <time>2015-07-05T15:05:08.000Z</time>
      </trkpt>
      <trkpt lat="48.66673" lon="1.73207">
        <ele>138.8</ele>
        <time>2015-07-05T15:05:13.000Z</time>
      </trkpt>
      <trkpt lat="48.66676" lon="1.73197">
        <ele>138.5</ele>
        <time>2015-07-05T15:05:18.000Z</time>
      </trkpt>
      <trkpt lat="48.66679" lon="1.73191">
        <ele>138.6</ele>
        <time>2015-07-05T15:05:21.000Z</time>
      </trkpt>
      <trkpt lat="48.66682" lon="1.73177">
        <ele>138.3</ele>
        <time>2015-07-05T15:05:27.000Z</time>
      </trkpt>
      <trkpt lat="48.66685" lon="1.73169">
        <ele>138.1</ele>
        <time>2015-07-05T15:05:31.000Z</time>
      </trkpt>
      <trkpt lat="48.66692" lon="1.73151">
        <ele>137.7</ele>
        <time>2015-07-05T15:05:39.000Z</time>
      </trkpt>
      <trkpt lat="48.66698" lon="1.73143">
        <ele>137.3</ele>
        <time>2015-07-05T15:05:44.000Z</time>
      </trkpt>
      <trkpt lat="48.66707" lon="1.73141">
        <ele>137.2</ele>
        <time>2015-07-05T15:05:49.000Z</time>
      </trkpt>
      <trkpt lat="48.66712" lon="1.73143">
        <ele>137.4</ele>
        <time>2015-07-05T15:05:51.000Z</time>
      </trkpt>
      <trkpt lat="48.66717" lon="1.73157">
        <ele>138.9</ele>
        <time>2015-07-05T15:05:56.000Z</time>
      </trkpt>
      <trkpt lat="48.66722" lon="1.73167">
        <ele>140</ele>
        <time>2015-07-05T15:06:02.000Z</time>
      </trkpt>
      <trkpt lat="48.66723" lon="1.73168">
        <ele>140</ele>
        <time>2015-07-05T15:06:05.000Z</time>
      </trkpt>
      <trkpt lat="48.66741" lon="1.73187">
        <ele>138.9</ele>
        <time>2015-07-05T15:06:49.000Z</time>
      </trkpt>
      <trkpt lat="48.6675" lon="1.73191">
        <ele>137.9</ele>
        <time>2015-07-05T15:06:53.000Z</time>
      </trkpt>
      <trkpt lat="48.66754" lon="1.73193">
        <ele>137.8</ele>
        <time>2015-07-05T15:06:55.000Z</time>
      </trkpt>
      <trkpt lat="48.66765" lon="1.73201">
        <ele>138</ele>
        <time>2015-07-05T15:07:03.000Z</time>
      </trkpt>
      <trkpt lat="48.66768" lon="1.73204">
        <ele>138.2</ele>
        <time>2015-07-05T15:07:06.000Z</time>
      </trkpt>
      <trkpt lat="48.66774" lon="1.73209">
        <ele>138.2</ele>
        <time>2015-07-05T15:07:11.000Z</time>
      </trkpt>
      <trkpt lat="48.66785" lon="1.73215">
        <ele>138.3</ele>
        <time>2015-07-05T15:07:17.000Z</time>
      </trkpt>
      <trkpt lat="48.66793" lon="1.73221">
        <ele>138.4</ele>
        <time>2015-07-05T15:07:23.000Z</time>
      </trkpt>
      <trkpt lat="48.66799" lon="1.73229">
        <ele>138.7</ele>
        <time>2015-07-05T15:07:29.000Z</time>
      </trkpt>
      <trkpt lat="48.66813" lon="1.73237">
        <ele>138.5</ele>
        <time>2015-07-05T15:07:36.000Z</time>
      </trkpt>
      <trkpt lat="48.66822" lon="1.73246">
        <ele>138.1</ele>
        <time>2015-07-05T15:07:42.000Z</time>
      </trkpt>
      <trkpt lat="48.66831" lon="1.73256">
        <ele>137.7</ele>
        <time>2015-07-05T15:07:49.000Z</time>
      </trkpt>
      <trkpt lat="48.66837" lon="1.73265">
        <ele>138</ele>
        <time>2015-07-05T15:07:56.000Z</time>
      </trkpt>
      <trkpt lat="48.66846" lon="1.73268">
        <ele>138</ele>
        <time>2015-07-05T15:08:00.000Z</time>
      </trkpt>
      <trkpt lat="48.66858" lon="1.73268">
        <ele>137.7</ele>
        <time>2015-07-05T15:08:06.000Z</time>
      </trkpt>
      <trkpt lat="48.66865" lon="1.73263">
        <ele>137.8</ele>
        <time>2015-07-05T15:08:13.000Z</time>
      </trkpt>
      <trkpt lat="48.66873" lon="1.7326">
        <ele>138.2</ele>
        <time>2015-07-05T15:08:20.000Z</time>
      </trkpt>
      <trkpt lat="48.66887" lon="1.73261">
        <ele>139.3</ele>
        <time>2015-07-05T15:08:27.000Z</time>
      </trkpt>
      <trkpt lat="48.66899" lon="1.73265">
        <ele>139</ele>
        <time>2015-07-05T15:08:34.000Z</time>
      </trkpt>
      <trkpt lat="48.66905" lon="1.73271">
        <ele>139</ele>
        <time>2015-07-05T15:08:39.000Z</time>
      </trkpt>
      <trkpt lat="48.66908" lon="1.73274">
        <ele>139.1</ele>
        <time>2015-07-05T15:08:42.000Z</time>
      </trkpt>
      <trkpt lat="48.66912" lon="1.73282">
        <ele>139.6</ele>
        <time>2015-07-05T15:08:48.000Z</time>
      </trkpt>
      <trkpt lat="48.66913" lon="1.73283">
        <ele>139.7</ele>
        <time>2015-07-05T15:08:49.000Z</time>
      </trkpt>
      <trkpt lat="48.66923" lon="1.733">
        <ele>140.5</ele>
        <time>2015-07-05T15:08:56.000Z</time>
      </trkpt>
      <trkpt lat="48.66925" lon="1.73315">
        <ele>140.8</ele>
        <time>2015-07-05T15:09:04.000Z</time>
      </trkpt>
      <trkpt lat="48.66925" lon="1.73323">
        <ele>140.9</ele>
        <time>2015-07-05T15:09:08.000Z</time>
      </trkpt>
      <trkpt lat="48.66922" lon="1.73337">
        <ele>141.8</ele>
        <time>2015-07-05T15:09:13.000Z</time>
      </trkpt>
      <trkpt lat="48.66923" lon="1.73349">
        <ele>141.1</ele>
        <time>2015-07-05T15:09:17.000Z</time>
      </trkpt>
      <trkpt lat="48.66927" lon="1.7336">
        <ele>140.1</ele>
        <time>2015-07-05T15:09:21.000Z</time>
      </trkpt>
      <trkpt lat="48.66934" lon="1.73378">
        <ele>139.2</ele>
        <time>2015-07-05T15:09:28.000Z</time>
      </trkpt>
      <trkpt lat="48.6694" lon="1.73384">
        <ele>138.9</ele>
        <time>2015-07-05T15:09:32.000Z</time>
      </trkpt>
      <trkpt lat="48.66954" lon="1.73382">
        <ele>139.3</ele>
        <time>2015-07-05T15:09:37.000Z</time>
      </trkpt>
      <trkpt lat="48.66967" lon="1.73371">
        <ele>138.5</ele>
        <time>2015-07-05T15:09:46.000Z</time>
      </trkpt>
      <trkpt lat="48.66973" lon="1.7337">
        <ele>138.5</ele>
        <time>2015-07-05T15:09:52.000Z</time>
      </trkpt>
      <trkpt lat="48.66979" lon="1.73369">
        <ele>138.1</ele>
        <time>2015-07-05T15:09:57.000Z</time>
      </trkpt>
      <trkpt lat="48.66985" lon="1.73376">
        <ele>138.6</ele>
        <time>2015-07-05T15:10:02.000Z</time>
      </trkpt>
      <trkpt lat="48.6699" lon="1.73381">
        <ele>138.7</ele>
        <time>2015-07-05T15:10:05.000Z</time>
      </trkpt>
      <trkpt lat="48.66996" lon="1.73386">
        <ele>138.4</ele>
        <time>2015-07-05T15:10:09.000Z</time>
      </trkpt>
      <trkpt lat="48.67004" lon="1.73385">
        <ele>138.8</ele>
        <time>2015-07-05T15:10:15.000Z</time>
      </trkpt>
      <trkpt lat="48.67012" lon="1.73377">
        <ele>139.4</ele>
        <time>2015-07-05T15:10:22.000Z</time>
      </trkpt>
      <trkpt lat="48.67018" lon="1.73368">
        <ele>138.9</ele>
        <time>2015-07-05T15:10:28.000Z</time>
      </trkpt>
      <trkpt lat="48.67026" lon="1.73359">
        <ele>137.9</ele>
        <time>2015-07-05T15:10:35.000Z</time>
      </trkpt>
      <trkpt lat="48.67035" lon="1.73345">
        <ele>139.4</ele>
        <time>2015-07-05T15:10:43.000Z</time>
      </trkpt>
      <trkpt lat="48.67037" lon="1.73342">
        <ele>139.7</ele>
        <time>2015-07-05T15:10:45.000Z</time>
      </trkpt>
      <trkpt lat="48.67042" lon="1.7333">
        <ele>139.4</ele>
        <time>2015-07-05T15:10:51.000Z</time>
      </trkpt>
      <trkpt lat="48.67049" lon="1.73316">
        <ele>138.5</ele>
        <time>2015-07-05T15:10:59.000Z</time>
      </trkpt>
      <trkpt lat="48.6705" lon="1.73315">
        <ele>138.4</ele>
        <time>2015-07-05T15:11:00.000Z</time>
      </trkpt>
      <trkpt lat="48.6706" lon="1.73309">
        <ele>137.8</ele>
        <time>2015-07-05T15:11:07.000Z</time>
      </trkpt>
      <trkpt lat="48.67079" lon="1.73311">
        <ele>138.6</ele>
        <time>2015-07-05T15:11:17.000Z</time>
      </trkpt>
      <trkpt lat="48.67091" lon="1.73315">
        <ele>139.1</ele>
        <time>2015-07-05T15:11:25.000Z</time>
      </trkpt>
      <trkpt lat="48.67102" lon="1.73322">
        <ele>139.2</ele>
        <time>2015-07-05T15:11:32.000Z</time>
      </trkpt>
      <trkpt lat="48.67103" lon="1.73323">
        <ele>139.2</ele>
        <time>2015-07-05T15:11:33.000Z</time>
      </trkpt>
      <trkpt lat="48.6711" lon="1.73329">
        <ele>139</ele>
        <time>2015-07-05T15:11:39.000Z</time>
      </trkpt>
      <trkpt lat="48.67115" lon="1.73338">
        <ele>140</ele>
        <time>2015-07-05T15:11:44.000Z</time>
      </trkpt>
      <trkpt lat="48.67125" lon="1.73344">
        <ele>140.4</ele>
        <time>2015-07-05T15:11:52.000Z</time>
      </trkpt>
      <trkpt lat="48.67127" lon="1.73346">
        <ele>140.5</ele>
        <time>2015-07-05T15:11:54.000Z</time>
      </trkpt>
      <trkpt lat="48.67136" lon="1.73352">
        <ele>140.5</ele>
        <time>2015-07-05T15:12:01.000Z</time>
      </trkpt>
      <trkpt lat="48.67137" lon="1.73353">
        <ele>140.4</ele>
        <time>2015-07-05T15:12:02.000Z</time>
      </trkpt>
      <trkpt lat="48.67147" lon="1.73365">
        <ele>140.8</ele>
        <time>2015-07-05T15:12:11.000Z</time>
      </trkpt>
      <trkpt lat="48.67148" lon="1.73367">
        <ele>141</ele>
        <time>2015-07-05T15:12:12.000Z</time>
      </trkpt>
      <trkpt lat="48.6715" lon="1.73375">
        <ele>142.1</ele>
        <time>2015-07-05T15:12:17.000Z</time>
      </trkpt>
      <trkpt lat="48.67154" lon="1.73383">
        <ele>142.4</ele>
        <time>2015-07-05T15:12:22.000Z</time>
      </trkpt>
      <trkpt lat="48.67158" lon="1.73394">
        <ele>142.3</ele>
        <time>2015-07-05T15:12:26.000Z</time>
      </trkpt>
      <trkpt lat="48.67167" lon="1.73404">
        <ele>140</ele>
        <time>2015-07-05T15:12:31.000Z</time>
      </trkpt>
      <trkpt lat="48.67168" lon="1.73407">
        <ele>140.2</ele>
        <time>2015-07-05T15:12:33.000Z</time>
      </trkpt>
      <trkpt lat="48.67175" lon="1.73421">
        <ele>140.7</ele>
        <time>2015-07-05T15:12:41.000Z</time>
      </trkpt>
      <trkpt lat="48.67182" lon="1.73433">
        <ele>140.6</ele>
        <time>2015-07-05T15:12:48.000Z</time>
      </trkpt>
      <trkpt lat="48.67192" lon="1.73452">
        <ele>140</ele>
        <time>2015-07-05T15:12:58.000Z</time>
      </trkpt>
      <trkpt lat="48.67194" lon="1.73456">
        <ele>139.6</ele>
        <time>2015-07-05T15:13:00.000Z</time>
      </trkpt>
      <trkpt lat="48.672" lon="1.73469">
        <ele>139.5</ele>
        <time>2015-07-05T15:13:06.000Z</time>
      </trkpt>
      <trkpt lat="48.67202" lon="1.73474">
        <ele>139.7</ele>
        <time>2015-07-05T15:13:08.000Z</time>
      </trkpt>
      <trkpt lat="48.67204" lon="1.73491">
        <ele>141.5</ele>
        <time>2015-07-05T15:13:16.000Z</time>
      </trkpt>
      <trkpt lat="48.67208" lon="1.73502">
        <ele>141.7</ele>
        <time>2015-07-05T15:13:22.000Z</time>
      </trkpt>
      <trkpt lat="48.67209" lon="1.73506">
        <ele>142</ele>
        <time>2015-07-05T15:13:24.000Z</time>
      </trkpt>
      <trkpt lat="48.67211" lon="1.73518">
        <ele>142.5</ele>
        <time>2015-07-05T15:13:29.000Z</time>
      </trkpt>
      <trkpt lat="48.67215" lon="1.73533">
        <ele>142.4</ele>
        <time>2015-07-05T15:13:37.000Z</time>
      </trkpt>
      <trkpt lat="48.67218" lon="1.7354">
        <ele>141.9</ele>
        <time>2015-07-05T15:13:41.000Z</time>
      </trkpt>
      <trkpt lat="48.67221" lon="1.73552">
        <ele>141.3</ele>
        <time>2015-07-05T15:13:47.000Z</time>
      </trkpt>
      <trkpt lat="48.67221" lon="1.73557">
        <ele>141.7</ele>
        <time>2015-07-05T15:13:49.000Z</time>
      </trkpt>
      <trkpt lat="48.67224" lon="1.73574">
        <ele>142</ele>
        <time>2015-07-05T15:13:56.000Z</time>
      </trkpt>
      <trkpt lat="48.67225" lon="1.73586">
        <ele>142.8</ele>
        <time>2015-07-05T15:14:01.000Z</time>
      </trkpt>
      <trkpt lat="48.67229" lon="1.73602">
        <ele>143.4</ele>
        <time>2015-07-05T15:14:08.000Z</time>
      </trkpt>
      <trkpt lat="48.67231" lon="1.73608">
        <ele>143.1</ele>
        <time>2015-07-05T15:14:11.000Z</time>
      </trkpt>
      <trkpt lat="48.67232" lon="1.73619">
        <ele>143.5</ele>
        <time>2015-07-05T15:14:16.000Z</time>
      </trkpt>
      <trkpt lat="48.67232" lon="1.73626">
        <ele>143.8</ele>
        <time>2015-07-05T15:14:20.000Z</time>
      </trkpt>
      <trkpt lat="48.67232" lon="1.73635">
        <ele>144.2</ele>
        <time>2015-07-05T15:14:25.000Z</time>
      </trkpt>
      <trkpt lat="48.67238" lon="1.73647">
        <ele>143.1</ele>
        <time>2015-07-05T15:14:32.000Z</time>
      </trkpt>
      <trkpt lat="48.6724" lon="1.73662">
        <ele>143.8</ele>
        <time>2015-07-05T15:14:39.000Z</time>
      </trkpt>
      <trkpt lat="48.67236" lon="1.73679">
        <ele>145.8</ele>
        <time>2015-07-05T15:14:46.000Z</time>
      </trkpt>
      <trkpt lat="48.67236" lon="1.73684">
        <ele>145.7</ele>
        <time>2015-07-05T15:14:48.000Z</time>
      </trkpt>
      <trkpt lat="48.67238" lon="1.73699">
        <ele>144.4</ele>
        <time>2015-07-05T15:14:54.000Z</time>
      </trkpt>
      <trkpt lat="48.67239" lon="1.73703">
        <ele>143.6</ele>
        <time>2015-07-05T15:14:56.000Z</time>
      </trkpt>
      <trkpt lat="48.6724" lon="1.73712">
        <ele>142.8</ele>
        <time>2015-07-05T15:15:01.000Z</time>
      </trkpt>
      <trkpt lat="48.6724" lon="1.73725">
        <ele>142.1</ele>
        <time>2015-07-05T15:15:07.000Z</time>
      </trkpt>
      <trkpt lat="48.67241" lon="1.73729">
        <ele>142</ele>
        <time>2015-07-05T15:15:09.000Z</time>
      </trkpt>
      <trkpt lat="48.67244" lon="1.73746">
        <ele>141.2</ele>
        <time>2015-07-05T15:15:17.000Z</time>
      </trkpt>
      <trkpt lat="48.67249" lon="1.73761">
        <ele>140.2</ele>
        <time>2015-07-05T15:15:23.000Z</time>
      </trkpt>
      <trkpt lat="48.67254" lon="1.73781">
        <ele>140</ele>
        <time>2015-07-05T15:15:32.000Z</time>
      </trkpt>
      <trkpt lat="48.67257" lon="1.73791">
        <ele>140.1</ele>
        <time>2015-07-05T15:15:37.000Z</time>
      </trkpt>
      <trkpt lat="48.67261" lon="1.73795">
        <ele>140</ele>
        <time>2015-07-05T15:15:40.000Z</time>
      </trkpt>
      <trkpt lat="48.67265" lon="1.73807">
        <ele>140</ele>
        <time>2015-07-05T15:15:45.000Z</time>
      </trkpt>
      <trkpt lat="48.67267" lon="1.73812">
        <ele>140</ele>
        <time>2015-07-05T15:15:49.000Z</time>
      </trkpt>
      <trkpt lat="48.67276" lon="1.7381">
        <ele>139.2</ele>
        <time>2015-07-05T15:15:57.000Z</time>
      </trkpt>
      <trkpt lat="48.67281" lon="1.73804">
        <ele>139</ele>
        <time>2015-07-05T15:16:02.000Z</time>
      </trkpt>
      <trkpt lat="48.67286" lon="1.73787">
        <ele>139</ele>
        <time>2015-07-05T15:16:10.000Z</time>
      </trkpt>
      <trkpt lat="48.6729" lon="1.73772">
        <ele>138.9</ele>
        <time>2015-07-05T15:16:17.000Z</time>
      </trkpt>
      <trkpt lat="48.67292" lon="1.73766">
        <ele>138.8</ele>
        <time>2015-07-05T15:16:20.000Z</time>
      </trkpt>
      <trkpt lat="48.67294" lon="1.73752">
        <ele>138.5</ele>
        <time>2015-07-05T15:16:25.000Z</time>
      </trkpt>
      <trkpt lat="48.67297" lon="1.73743">
        <ele>138.4</ele>
        <time>2015-07-05T15:16:29.000Z</time>
      </trkpt>
      <trkpt lat="48.67299" lon="1.73735">
        <ele>138.5</ele>
        <time>2015-07-05T15:16:32.000Z</time>
      </trkpt>
      <trkpt lat="48.67304" lon="1.73714">
        <ele>138.7</ele>
        <time>2015-07-05T15:16:42.000Z</time>
      </trkpt>
      <trkpt lat="48.67308" lon="1.737">
        <ele>138.3</ele>
        <time>2015-07-05T15:16:50.000Z</time>
      </trkpt>
      <trkpt lat="48.67313" lon="1.73685">
        <ele>138.2</ele>
        <time>2015-07-05T15:16:58.000Z</time>
      </trkpt>
      <trkpt lat="48.67317" lon="1.73669">
        <ele>138</ele>
        <time>2015-07-05T15:17:05.000Z</time>
      </trkpt>
      <trkpt lat="48.67322" lon="1.7365">
        <ele>138.1</ele>
        <time>2015-07-05T15:17:13.000Z</time>
      </trkpt>
      <trkpt lat="48.67325" lon="1.73635">
        <ele>138.4</ele>
        <time>2015-07-05T15:17:20.000Z</time>
      </trkpt>
      <trkpt lat="48.67324" lon="1.73615">
        <ele>138.6</ele>
        <time>2015-07-05T15:17:27.000Z</time>
      </trkpt>
      <trkpt lat="48.67325" lon="1.736">
        <ele>139</ele>
        <time>2015-07-05T15:17:33.000Z</time>
      </trkpt>
      <trkpt lat="48.67328" lon="1.73591">
        <ele>139.4</ele>
        <time>2015-07-05T15:17:38.000Z</time>
      </trkpt>
      <trkpt lat="48.67333" lon="1.73589">
        <ele>139.7</ele>
        <time>2015-07-05T15:17:43.000Z</time>
      </trkpt>
      <trkpt lat="48.67335" lon="1.73591">
        <ele>140.1</ele>
        <time>2015-07-05T15:17:46.000Z</time>
      </trkpt>
      <trkpt lat="48.67339" lon="1.73603">
        <ele>140.3</ele>
        <time>2015-07-05T15:17:54.000Z</time>
      </trkpt>
      <trkpt lat="48.67341" lon="1.73607">
        <ele>140.4</ele>
        <time>2015-07-05T15:17:56.000Z</time>
      </trkpt>
      <trkpt lat="48.6735" lon="1.73618">
        <ele>141.1</ele>
        <time>2015-07-05T15:18:04.000Z</time>
      </trkpt>
      <trkpt lat="48.67351" lon="1.73621">
        <ele>141.1</ele>
        <time>2015-07-05T15:18:07.000Z</time>
      </trkpt>
      <trkpt lat="48.67359" lon="1.73631">
        <ele>141.3</ele>
        <time>2015-07-05T15:18:14.000Z</time>
      </trkpt>
      <trkpt lat="48.67362" lon="1.73634">
        <ele>141.4</ele>
        <time>2015-07-05T15:18:16.000Z</time>
      </trkpt>
      <trkpt lat="48.67376" lon="1.73644">
        <ele>141.8</ele>
        <time>2015-07-05T15:18:23.000Z</time>
      </trkpt>
      <trkpt lat="48.67385" lon="1.73648">
        <ele>142.1</ele>
        <time>2015-07-05T15:18:29.000Z</time>
      </trkpt>
      <trkpt lat="48.67393" lon="1.73647">
        <ele>142.5</ele>
        <time>2015-07-05T15:18:34.000Z</time>
      </trkpt>
      <trkpt lat="48.67403" lon="1.73646">
        <ele>142.6</ele>
        <time>2015-07-05T15:18:39.000Z</time>
      </trkpt>
      <trkpt lat="48.67408" lon="1.73642">
        <ele>142.8</ele>
        <time>2015-07-05T15:18:44.000Z</time>
      </trkpt>
      <trkpt lat="48.67418" lon="1.73638">
        <ele>143.1</ele>
        <time>2015-07-05T15:18:51.000Z</time>
      </trkpt>
      <trkpt lat="48.67422" lon="1.73636">
        <ele>143.3</ele>
        <time>2015-07-05T15:18:52.000Z</time>
      </trkpt>
      <trkpt lat="48.67429" lon="1.73629">
        <ele>143.8</ele>
        <time>2015-07-05T15:18:58.000Z</time>
      </trkpt>
      <trkpt lat="48.67439" lon="1.73625">
        <ele>143.7</ele>
        <time>2015-07-05T15:19:04.000Z</time>
      </trkpt>
      <trkpt lat="48.67451" lon="1.73618">
        <ele>144.1</ele>
        <time>2015-07-05T15:19:10.000Z</time>
      </trkpt>
      <trkpt lat="48.6746" lon="1.73612">
        <ele>144.6</ele>
        <time>2015-07-05T15:19:16.000Z</time>
      </trkpt>
      <trkpt lat="48.67472" lon="1.73607">
        <ele>145</ele>
        <time>2015-07-05T15:19:21.000Z</time>
      </trkpt>
      <trkpt lat="48.6748" lon="1.73605">
        <ele>146.9</ele>
        <time>2015-07-05T15:19:26.000Z</time>
      </trkpt>
      <trkpt lat="48.67489" lon="1.73602">
        <ele>148.8</ele>
        <time>2015-07-05T15:19:31.000Z</time>
      </trkpt>
      <trkpt lat="48.67498" lon="1.73593">
        <ele>150.3</ele>
        <time>2015-07-05T15:19:38.000Z</time>
      </trkpt>
      <trkpt lat="48.6751" lon="1.73586">
        <ele>152.7</ele>
        <time>2015-07-05T15:19:43.000Z</time>
      </trkpt>
      <trkpt lat="48.67518" lon="1.73581">
        <ele>154.4</ele>
        <time>2015-07-05T15:19:47.000Z</time>
      </trkpt>
      <trkpt lat="48.67526" lon="1.73577">
        <ele>155.9</ele>
        <time>2015-07-05T15:19:53.000Z</time>
      </trkpt>
      <trkpt lat="48.67535" lon="1.73571">
        <ele>156.4</ele>
        <time>2015-07-05T15:20:00.000Z</time>
      </trkpt>
      <trkpt lat="48.67544" lon="1.73567">
        <ele>157</ele>
        <time>2015-07-05T15:20:06.000Z</time>
      </trkpt>
      <trkpt lat="48.67556" lon="1.73562">
        <ele>157.7</ele>
        <time>2015-07-05T15:20:13.000Z</time>
      </trkpt>
      <trkpt lat="48.67565" lon="1.73557">
        <ele>158.4</ele>
        <time>2015-07-05T15:20:19.000Z</time>
      </trkpt>
      <trkpt lat="48.6757" lon="1.73552">
        <ele>159</ele>
        <time>2015-07-05T15:20:23.000Z</time>
      </trkpt>
      <trkpt lat="48.67583" lon="1.73544">
        <ele>161</ele>
        <time>2015-07-05T15:20:29.000Z</time>
      </trkpt>
      <trkpt lat="48.67593" lon="1.73539">
        <ele>162.5</ele>
        <time>2015-07-05T15:20:34.000Z</time>
      </trkpt>
      <trkpt lat="48.67605" lon="1.73534">
        <ele>164.7</ele>
        <time>2015-07-05T15:20:42.000Z</time>
      </trkpt>
      <trkpt lat="48.67614" lon="1.73528">
        <ele>166.1</ele>
        <time>2015-07-05T15:20:49.000Z</time>
      </trkpt>
      <trkpt lat="48.67621" lon="1.73522">
        <ele>166.4</ele>
        <time>2015-07-05T15:20:56.000Z</time>
      </trkpt>
      <trkpt lat="48.6763" lon="1.73515">
        <ele>167</ele>
        <time>2015-07-05T15:21:02.000Z</time>
      </trkpt>
      <trkpt lat="48.67637" lon="1.73511">
        <ele>167.5</ele>
        <time>2015-07-05T15:21:08.000Z</time>
      </trkpt>
      <trkpt lat="48.67649" lon="1.73506">
        <ele>168.2</ele>
        <time>2015-07-05T15:21:14.000Z</time>
      </trkpt>
      <trkpt lat="48.67656" lon="1.73501">
        <ele>168.6</ele>
        <time>2015-07-05T15:21:19.000Z</time>
      </trkpt>
      <trkpt lat="48.67665" lon="1.73495">
        <ele>168.9</ele>
        <time>2015-07-05T15:21:26.000Z</time>
      </trkpt>
      <trkpt lat="48.67671" lon="1.73491">
        <ele>169.1</ele>
        <time>2015-07-05T15:21:31.000Z</time>
      </trkpt>
      <trkpt lat="48.67681" lon="1.73487">
        <ele>169.5</ele>
        <time>2015-07-05T15:21:37.000Z</time>
      </trkpt>
      <trkpt lat="48.67692" lon="1.73479">
        <ele>169.9</ele>
        <time>2015-07-05T15:21:44.000Z</time>
      </trkpt>
      <trkpt lat="48.67693" lon="1.73477">
        <ele>169.9</ele>
        <time>2015-07-05T15:21:45.000Z</time>
      </trkpt>
      <trkpt lat="48.67699" lon="1.73471">
        <ele>170</ele>
        <time>2015-07-05T15:21:50.000Z</time>
      </trkpt>
      <trkpt lat="48.67708" lon="1.73467">
        <ele>170</ele>
        <time>2015-07-05T15:21:55.000Z</time>
      </trkpt>
      <trkpt lat="48.6772" lon="1.7346">
        <ele>170</ele>
        <time>2015-07-05T15:22:02.000Z</time>
      </trkpt>
      <trkpt lat="48.67721" lon="1.73459">
        <ele>170</ele>
        <time>2015-07-05T15:22:03.000Z</time>
      </trkpt>
      <trkpt lat="48.6773" lon="1.73456">
        <ele>170</ele>
        <time>2015-07-05T15:22:09.000Z</time>
      </trkpt>
      <trkpt lat="48.67735" lon="1.73454">
        <ele>170</ele>
        <time>2015-07-05T15:22:13.000Z</time>
      </trkpt>
      <trkpt lat="48.67741" lon="1.73457">
        <ele>170</ele>
        <time>2015-07-05T15:22:18.000Z</time>
      </trkpt>
      <trkpt lat="48.67749" lon="1.73454">
        <ele>170</ele>
        <time>2015-07-05T15:22:24.000Z</time>
      </trkpt>
      <trkpt lat="48.67756" lon="1.73454">
        <ele>170</ele>
        <time>2015-07-05T15:22:29.000Z</time>
      </trkpt>
      <trkpt lat="48.67772" lon="1.73455">
        <ele>170</ele>
        <time>2015-07-05T15:22:38.000Z</time>
      </trkpt>
      <trkpt lat="48.67785" lon="1.73455">
        <ele>170</ele>
        <time>2015-07-05T15:22:45.000Z</time>
      </trkpt>
      <trkpt lat="48.67795" lon="1.73457">
        <ele>170</ele>
        <time>2015-07-05T15:22:51.000Z</time>
      </trkpt>
      <trkpt lat="48.67802" lon="1.73458">
        <ele>170</ele>
        <time>2015-07-05T15:22:56.000Z</time>
      </trkpt>
      <trkpt lat="48.6781" lon="1.7346">
        <ele>169.9</ele>
        <time>2015-07-05T15:23:02.000Z</time>
      </trkpt>
      <trkpt lat="48.67821" lon="1.7346">
        <ele>169.4</ele>
        <time>2015-07-05T15:23:07.000Z</time>
      </trkpt>
      <trkpt lat="48.67832" lon="1.73461">
        <ele>169</ele>
        <time>2015-07-05T15:23:13.000Z</time>
      </trkpt>
      <trkpt lat="48.67842" lon="1.73462">
        <ele>169</ele>
        <time>2015-07-05T15:23:19.000Z</time>
      </trkpt>
      <trkpt lat="48.67852" lon="1.73462">
        <ele>169</ele>
        <time>2015-07-05T15:23:26.000Z</time>
      </trkpt>
      <trkpt lat="48.67855" lon="1.73464">
        <ele>169</ele>
        <time>2015-07-05T15:23:28.000Z</time>
      </trkpt>
      <trkpt lat="48.67863" lon="1.73465">
        <ele>169</ele>
        <time>2015-07-05T15:23:33.000Z</time>
      </trkpt>
      <trkpt lat="48.67871" lon="1.73469">
        <ele>169</ele>
        <time>2015-07-05T15:23:38.000Z</time>
      </trkpt>
      <trkpt lat="48.67879" lon="1.73463">
        <ele>169</ele>
        <time>2015-07-05T15:23:44.000Z</time>
      </trkpt>
      <trkpt lat="48.67891" lon="1.73465">
        <ele>168.9</ele>
        <time>2015-07-05T15:23:49.000Z</time>
      </trkpt>
      <trkpt lat="48.67893" lon="1.73465">
        <ele>168.9</ele>
        <time>2015-07-05T15:23:50.000Z</time>
      </trkpt>
      <trkpt lat="48.67903" lon="1.73467">
        <ele>168.6</ele>
        <time>2015-07-05T15:23:55.000Z</time>
      </trkpt>
      <trkpt lat="48.67908" lon="1.73467">
        <ele>168.4</ele>
        <time>2015-07-05T15:23:58.000Z</time>
      </trkpt>
      <trkpt lat="48.6792" lon="1.73467">
        <ele>168.2</ele>
        <time>2015-07-05T15:24:05.000Z</time>
      </trkpt>
      <trkpt lat="48.67925" lon="1.73467">
        <ele>168.1</ele>
        <time>2015-07-05T15:24:11.000Z</time>
      </trkpt>
      <trkpt lat="48.67939" lon="1.73471">
        <ele>168</ele>
        <time>2015-07-05T15:24:16.000Z</time>
      </trkpt>
      <trkpt lat="48.67949" lon="1.73472">
        <ele>168</ele>
        <time>2015-07-05T15:24:22.000Z</time>
      </trkpt>
      <trkpt lat="48.67951" lon="1.73473">
        <ele>168</ele>
        <time>2015-07-05T15:24:24.000Z</time>
      </trkpt>
      <trkpt lat="48.67961" lon="1.73474">
        <ele>168</ele>
        <time>2015-07-05T15:24:31.000Z</time>
      </trkpt>
      <trkpt lat="48.67968" lon="1.73475">
        <ele>168</ele>
        <time>2015-07-05T15:24:37.000Z</time>
      </trkpt>
      <trkpt lat="48.67977" lon="1.73477">
        <ele>168</ele>
        <time>2015-07-05T15:24:43.000Z</time>
      </trkpt>
      <trkpt lat="48.67986" lon="1.7348">
        <ele>168</ele>
        <time>2015-07-05T15:24:49.000Z</time>
      </trkpt>
      <trkpt lat="48.67988" lon="1.73481">
        <ele>168</ele>
        <time>2015-07-05T15:24:50.000Z</time>
      </trkpt>
      <trkpt lat="48.67993" lon="1.73483">
        <ele>168</ele>
        <time>2015-07-05T15:24:54.000Z</time>
      </trkpt>
      <trkpt lat="48.67999" lon="1.73484">
        <ele>168</ele>
        <time>2015-07-05T15:24:57.000Z</time>
      </trkpt>
      <trkpt lat="48.68006" lon="1.73483">
        <ele>168</ele>
        <time>2015-07-05T15:25:01.000Z</time>
      </trkpt>
      <trkpt lat="48.68019" lon="1.73481">
        <ele>168</ele>
        <time>2015-07-05T15:25:09.000Z</time>
      </trkpt>
      <trkpt lat="48.68031" lon="1.73484">
        <ele>168</ele>
        <time>2015-07-05T15:25:16.000Z</time>
      </trkpt>
      <trkpt lat="48.68039" lon="1.73487">
        <ele>168</ele>
        <time>2015-07-05T15:25:22.000Z</time>
      </trkpt>
      <trkpt lat="48.68053" lon="1.73488">
        <ele>168</ele>
        <time>2015-07-05T15:25:30.000Z</time>
      </trkpt>
      <trkpt lat="48.68064" lon="1.7349">
        <ele>167.7</ele>
        <time>2015-07-05T15:25:36.000Z</time>
      </trkpt>
      <trkpt lat="48.68079" lon="1.73492">
        <ele>167.1</ele>
        <time>2015-07-05T15:25:44.000Z</time>
      </trkpt>
      <trkpt lat="48.68095" lon="1.73495">
        <ele>166.6</ele>
        <time>2015-07-05T15:25:53.000Z</time>
      </trkpt>
      <trkpt lat="48.6811" lon="1.73497">
        <ele>166</ele>
        <time>2015-07-05T15:26:01.000Z</time>
      </trkpt>
      <trkpt lat="48.68114" lon="1.73499">
        <ele>165.9</ele>
        <time>2015-07-05T15:26:06.000Z</time>
      </trkpt>
      <trkpt lat="48.68121" lon="1.73499">
        <ele>165.7</ele>
        <time>2015-07-05T15:26:11.000Z</time>
      </trkpt>
      <trkpt lat="48.68132" lon="1.735">
        <ele>165.3</ele>
        <time>2015-07-05T15:26:18.000Z</time>
      </trkpt>
      <trkpt lat="48.68141" lon="1.73501">
        <ele>165</ele>
        <time>2015-07-05T15:26:25.000Z</time>
      </trkpt>
      <trkpt lat="48.68159" lon="1.735">
        <ele>165</ele>
        <time>2015-07-05T15:26:34.000Z</time>
      </trkpt>
      <trkpt lat="48.68171" lon="1.73501">
        <ele>164.8</ele>
        <time>2015-07-05T15:26:39.000Z</time>
      </trkpt>
      <trkpt lat="48.68183" lon="1.73502">
        <ele>164.4</ele>
        <time>2015-07-05T15:26:44.000Z</time>
      </trkpt>
      <trkpt lat="48.68194" lon="1.73505">
        <ele>164</ele>
        <time>2015-07-05T15:26:51.000Z</time>
      </trkpt>
      <trkpt lat="48.68204" lon="1.73506">
        <ele>163.7</ele>
        <time>2015-07-05T15:26:58.000Z</time>
      </trkpt>
      <trkpt lat="48.68217" lon="1.73507">
        <ele>163.2</ele>
        <time>2015-07-05T15:27:07.000Z</time>
      </trkpt>
      <trkpt lat="48.68226" lon="1.73508">
        <ele>163</ele>
        <time>2015-07-05T15:27:12.000Z</time>
      </trkpt>
      <trkpt lat="48.68235" lon="1.73509">
        <ele>163</ele>
        <time>2015-07-05T15:27:19.000Z</time>
      </trkpt>
      <trkpt lat="48.68243" lon="1.73511">
        <ele>163</ele>
        <time>2015-07-05T15:27:24.000Z</time>
      </trkpt>
      <trkpt lat="48.6825" lon="1.73514">
        <ele>163</ele>
        <time>2015-07-05T15:27:28.000Z</time>
      </trkpt>
      <trkpt lat="48.6826" lon="1.73515">
        <ele>162.4</ele>
        <time>2015-07-05T15:27:34.000Z</time>
      </trkpt>
      <trkpt lat="48.68271" lon="1.73516">
        <ele>161.8</ele>
        <time>2015-07-05T15:27:40.000Z</time>
      </trkpt>
      <trkpt lat="48.68283" lon="1.73516">
        <ele>161.4</ele>
        <time>2015-07-05T15:27:46.000Z</time>
      </trkpt>
      <trkpt lat="48.68291" lon="1.73517">
        <ele>161.4</ele>
        <time>2015-07-05T15:27:51.000Z</time>
      </trkpt>
      <trkpt lat="48.68305" lon="1.73519">
        <ele>161.3</ele>
        <time>2015-07-05T15:27:59.000Z</time>
      </trkpt>
      <trkpt lat="48.68319" lon="1.7352">
        <ele>160.8</ele>
        <time>2015-07-05T15:28:06.000Z</time>
      </trkpt>
      <trkpt lat="48.6832" lon="1.73519">
        <ele>160.8</ele>
        <time>2015-07-05T15:28:07.000Z</time>
      </trkpt>
      <trkpt lat="48.68327" lon="1.73521">
        <ele>160.5</ele>
        <time>2015-07-05T15:28:12.000Z</time>
      </trkpt>
      <trkpt lat="48.68329" lon="1.73529">
        <ele>160.2</ele>
        <time>2015-07-05T15:28:17.000Z</time>
      </trkpt>
      <trkpt lat="48.68331" lon="1.73534">
        <ele>160.1</ele>
        <time>2015-07-05T15:28:25.000Z</time>
      </trkpt>
      <trkpt lat="48.68336" lon="1.73541">
        <ele>160</ele>
        <time>2015-07-05T15:28:35.000Z</time>
      </trkpt>
      <trkpt lat="48.68335" lon="1.73541">
        <ele>160</ele>
        <time>2015-07-05T15:28:37.000Z</time>
      </trkpt>
      <trkpt lat="48.68336" lon="1.73525">
        <ele>160.1</ele>
        <time>2015-07-05T15:28:56.000Z</time>
      </trkpt>
      <trkpt lat="48.68347" lon="1.73523">
        <ele>160.1</ele>
        <time>2015-07-05T15:29:01.000Z</time>
      </trkpt>
      <trkpt lat="48.68357" lon="1.73523">
        <ele>160</ele>
        <time>2015-07-05T15:29:08.000Z</time>
      </trkpt>
      <trkpt lat="48.68366" lon="1.73524">
        <ele>159.9</ele>
        <time>2015-07-05T15:29:14.000Z</time>
      </trkpt>
      <trkpt lat="48.68375" lon="1.73526">
        <ele>159.5</ele>
        <time>2015-07-05T15:29:21.000Z</time>
      </trkpt>
      <trkpt lat="48.68382" lon="1.73528">
        <ele>159.2</ele>
        <time>2015-07-05T15:29:27.000Z</time>
      </trkpt>
      <trkpt lat="48.68391" lon="1.73527">
        <ele>158.9</ele>
        <time>2015-07-05T15:29:33.000Z</time>
      </trkpt>
      <trkpt lat="48.68405" lon="1.73527">
        <ele>158.5</ele>
        <time>2015-07-05T15:29:40.000Z</time>
      </trkpt>
      <trkpt lat="48.68407" lon="1.73526">
        <ele>158.4</ele>
        <time>2015-07-05T15:29:42.000Z</time>
      </trkpt>
      <trkpt lat="48.68418" lon="1.73528">
        <ele>157.9</ele>
        <time>2015-07-05T15:29:49.000Z</time>
      </trkpt>
      <trkpt lat="48.6843" lon="1.73531">
        <ele>157.6</ele>
        <time>2015-07-05T15:29:56.000Z</time>
      </trkpt>
      <trkpt lat="48.68434" lon="1.73535">
        <ele>157.5</ele>
        <time>2015-07-05T15:29:59.000Z</time>
      </trkpt>
      <trkpt lat="48.6844" lon="1.73547">
        <ele>157.7</ele>
        <time>2015-07-05T15:30:05.000Z</time>
      </trkpt>
      <trkpt lat="48.68444" lon="1.73554">
        <ele>157.9</ele>
        <time>2015-07-05T15:30:09.000Z</time>
      </trkpt>
      <trkpt lat="48.68449" lon="1.7356">
        <ele>157.7</ele>
        <time>2015-07-05T15:30:13.000Z</time>
      </trkpt>
      <trkpt lat="48.68455" lon="1.73564">
        <ele>157.3</ele>
        <time>2015-07-05T15:30:19.000Z</time>
      </trkpt>
      <trkpt lat="48.68465" lon="1.73555">
        <ele>157.3</ele>
        <time>2015-07-05T15:30:27.000Z</time>
      </trkpt>
      <trkpt lat="48.68474" lon="1.7355">
        <ele>156.9</ele>
        <time>2015-07-05T15:30:33.000Z</time>
      </trkpt>
      <trkpt lat="48.68477" lon="1.73547">
        <ele>156.7</ele>
        <time>2015-07-05T15:30:36.000Z</time>
      </trkpt>
      <trkpt lat="48.68479" lon="1.73542">
        <ele>156.6</ele>
        <time>2015-07-05T15:30:40.000Z</time>
      </trkpt>
      <trkpt lat="48.68486" lon="1.73539">
        <ele>156.3</ele>
        <time>2015-07-05T15:30:46.000Z</time>
      </trkpt>
      <trkpt lat="48.68487" lon="1.7354">
        <ele>156.2</ele>
        <time>2015-07-05T15:30:51.000Z</time>
      </trkpt>
      <trkpt lat="48.68492" lon="1.73541">
        <ele>155.9</ele>
        <time>2015-07-05T15:30:57.000Z</time>
      </trkpt>
      <trkpt lat="48.68502" lon="1.73543">
        <ele>155.4</ele>
        <time>2015-07-05T15:31:02.000Z</time>
      </trkpt>
      <trkpt lat="48.68511" lon="1.73544">
        <ele>155.2</ele>
        <time>2015-07-05T15:31:08.000Z</time>
      </trkpt>
      <trkpt lat="48.68518" lon="1.73545">
        <ele>155.1</ele>
        <time>2015-07-05T15:31:12.000Z</time>
      </trkpt>
      <trkpt lat="48.68528" lon="1.73547">
        <ele>155</ele>
        <time>2015-07-05T15:31:19.000Z</time>
      </trkpt>
      <trkpt lat="48.6854" lon="1.73548">
        <ele>154.2</ele>
        <time>2015-07-05T15:31:26.000Z</time>
      </trkpt>
      <trkpt lat="48.68555" lon="1.73551">
        <ele>153.2</ele>
        <time>2015-07-05T15:31:33.000Z</time>
      </trkpt>
      <trkpt lat="48.68563" lon="1.7355">
        <ele>152.4</ele>
        <time>2015-07-05T15:31:38.000Z</time>
      </trkpt>
      <trkpt lat="48.68573" lon="1.73549">
        <ele>151.3</ele>
        <time>2015-07-05T15:31:43.000Z</time>
      </trkpt>
      <trkpt lat="48.68581" lon="1.73551">
        <ele>150.4</ele>
        <time>2015-07-05T15:31:50.000Z</time>
      </trkpt>
      <trkpt lat="48.6859" lon="1.73552">
        <ele>150.3</ele>
        <time>2015-07-05T15:31:56.000Z</time>
      </trkpt>
      <trkpt lat="48.68599" lon="1.73555">
        <ele>150.6</ele>
        <time>2015-07-05T15:32:02.000Z</time>
      </trkpt>
      <trkpt lat="48.68611" lon="1.73558">
        <ele>151.2</ele>
        <time>2015-07-05T15:32:09.000Z</time>
      </trkpt>
      <trkpt lat="48.68621" lon="1.73555">
        <ele>153.1</ele>
        <time>2015-07-05T15:32:16.000Z</time>
      </trkpt>
      <trkpt lat="48.68628" lon="1.73557">
        <ele>154.8</ele>
        <time>2015-07-05T15:32:22.000Z</time>
      </trkpt>
      <trkpt lat="48.68636" lon="1.73558">
        <ele>156.7</ele>
        <time>2015-07-05T15:32:27.000Z</time>
      </trkpt>
      <trkpt lat="48.68646" lon="1.73558">
        <ele>157.7</ele>
        <time>2015-07-05T15:32:33.000Z</time>
      </trkpt>
      <trkpt lat="48.68656" lon="1.7356">
        <ele>158.5</ele>
        <time>2015-07-05T15:32:39.000Z</time>
      </trkpt>
      <trkpt lat="48.68668" lon="1.7356">
        <ele>159.2</ele>
        <time>2015-07-05T15:32:47.000Z</time>
      </trkpt>
      <trkpt lat="48.68678" lon="1.7356">
        <ele>159.5</ele>
        <time>2015-07-05T15:32:54.000Z</time>
      </trkpt>
      <trkpt lat="48.6869" lon="1.73562">
        <ele>159.9</ele>
        <time>2015-07-05T15:33:00.000Z</time>
      </trkpt>
      <trkpt lat="48.6871" lon="1.73564">
        <ele>160.4</ele>
        <time>2015-07-05T15:33:06.000Z</time>
      </trkpt>
      <trkpt lat="48.68729" lon="1.73567">
        <ele>160.4</ele>
        <time>2015-07-05T15:33:12.000Z</time>
      </trkpt>
      <trkpt lat="48.68743" lon="1.73569">
        <ele>160.1</ele>
        <time>2015-07-05T15:33:17.000Z</time>
      </trkpt>
      <trkpt lat="48.68766" lon="1.73571">
        <ele>159.7</ele>
        <time>2015-07-05T15:33:23.000Z</time>
      </trkpt>
      <trkpt lat="48.68787" lon="1.73576">
        <ele>159.2</ele>
        <time>2015-07-05T15:33:29.000Z</time>
      </trkpt>
      <trkpt lat="48.68805" lon="1.73578">
        <ele>159.2</ele>
        <time>2015-07-05T15:33:34.000Z</time>
      </trkpt>
      <trkpt lat="48.68817" lon="1.7358">
        <ele>159.1</ele>
        <time>2015-07-05T15:33:38.000Z</time>
      </trkpt>
      <trkpt lat="48.6883" lon="1.73581">
        <ele>159</ele>
        <time>2015-07-05T15:33:42.000Z</time>
      </trkpt>
      <trkpt lat="48.68848" lon="1.73583">
        <ele>159</ele>
        <time>2015-07-05T15:33:47.000Z</time>
      </trkpt>
      <trkpt lat="48.68871" lon="1.73585">
        <ele>159.3</ele>
        <time>2015-07-05T15:33:53.000Z</time>
      </trkpt>
      <trkpt lat="48.68898" lon="1.73589">
        <ele>160.3</ele>
        <time>2015-07-05T15:34:00.000Z</time>
      </trkpt>
      <trkpt lat="48.68919" lon="1.73588">
        <ele>161.1</ele>
        <time>2015-07-05T15:34:05.000Z</time>
      </trkpt>
      <trkpt lat="48.68964" lon="1.73592">
        <ele>162.7</ele>
        <time>2015-07-05T15:34:17.000Z</time>
      </trkpt>
      <trkpt lat="48.68984" lon="1.73594">
        <ele>163.8</ele>
        <time>2015-07-05T15:34:23.000Z</time>
      </trkpt>
      <trkpt lat="48.69006" lon="1.73594">
        <ele>165.4</ele>
        <time>2015-07-05T15:34:30.000Z</time>
      </trkpt>
      <trkpt lat="48.69025" lon="1.73598">
        <ele>166.8</ele>
        <time>2015-07-05T15:34:37.000Z</time>
      </trkpt>
      <trkpt lat="48.69035" lon="1.73601">
        <ele>167.2</ele>
        <time>2015-07-05T15:34:43.000Z</time>
      </trkpt>
      <trkpt lat="48.69036" lon="1.73601">
        <ele>167.3</ele>
        <time>2015-07-05T15:34:44.000Z</time>
      </trkpt>
      <trkpt lat="48.69044" lon="1.73601">
        <ele>167.6</ele>
        <time>2015-07-05T15:34:49.000Z</time>
      </trkpt>
      <trkpt lat="48.69048" lon="1.73601">
        <ele>167.7</ele>
        <time>2015-07-05T15:34:53.000Z</time>
      </trkpt>
      <trkpt lat="48.6906" lon="1.73603">
        <ele>168.2</ele>
        <time>2015-07-05T15:35:02.000Z</time>
      </trkpt>
      <trkpt lat="48.69066" lon="1.73608">
        <ele>168.4</ele>
        <time>2015-07-05T15:35:07.000Z</time>
      </trkpt>
      <trkpt lat="48.69071" lon="1.73624">
        <ele>168.6</ele>
        <time>2015-07-05T15:35:15.000Z</time>
      </trkpt>
      <trkpt lat="48.69075" lon="1.73642">
        <ele>168.7</ele>
        <time>2015-07-05T15:35:23.000Z</time>
      </trkpt>
      <trkpt lat="48.69078" lon="1.73654">
        <ele>168.8</ele>
        <time>2015-07-05T15:35:28.000Z</time>
      </trkpt>
      <trkpt lat="48.69082" lon="1.73667">
        <ele>168.9</ele>
        <time>2015-07-05T15:35:34.000Z</time>
      </trkpt>
      <trkpt lat="48.69085" lon="1.73677">
        <ele>169</ele>
        <time>2015-07-05T15:35:39.000Z</time>
      </trkpt>
      <trkpt lat="48.69089" lon="1.7369">
        <ele>169</ele>
        <time>2015-07-05T15:35:45.000Z</time>
      </trkpt>
      <trkpt lat="48.69095" lon="1.73705">
        <ele>168.8</ele>
        <time>2015-07-05T15:35:53.000Z</time>
      </trkpt>
      <trkpt lat="48.69103" lon="1.73714">
        <ele>168.8</ele>
        <time>2015-07-05T15:35:59.000Z</time>
      </trkpt>
      <trkpt lat="48.69107" lon="1.7372">
        <ele>168.9</ele>
        <time>2015-07-05T15:36:03.000Z</time>
      </trkpt>
      <trkpt lat="48.69107" lon="1.73729">
        <ele>168.6</ele>
        <time>2015-07-05T15:36:08.000Z</time>
      </trkpt>
      <trkpt lat="48.69102" lon="1.73743">
        <ele>167.9</ele>
        <time>2015-07-05T15:36:14.000Z</time>
      </trkpt>
      <trkpt lat="48.69106" lon="1.73764">
        <ele>166.9</ele>
        <time>2015-07-05T15:36:21.000Z</time>
      </trkpt>
      <trkpt lat="48.69111" lon="1.73779">
        <ele>165.9</ele>
        <time>2015-07-05T15:36:27.000Z</time>
      </trkpt>
      <trkpt lat="48.69113" lon="1.73788">
        <ele>165.2</ele>
        <time>2015-07-05T15:36:31.000Z</time>
      </trkpt>
      <trkpt lat="48.69117" lon="1.73806">
        <ele>163.8</ele>
        <time>2015-07-05T15:36:39.000Z</time>
      </trkpt>
      <trkpt lat="48.69119" lon="1.73816">
        <ele>163.3</ele>
        <time>2015-07-05T15:36:44.000Z</time>
      </trkpt>
      <trkpt lat="48.69122" lon="1.7383">
        <ele>162.7</ele>
        <time>2015-07-05T15:36:51.000Z</time>
      </trkpt>
      <trkpt lat="48.69124" lon="1.73838">
        <ele>162.3</ele>
        <time>2015-07-05T15:36:55.000Z</time>
      </trkpt>
      <trkpt lat="48.69129" lon="1.73858">
        <ele>161.4</ele>
        <time>2015-07-05T15:37:03.000Z</time>
      </trkpt>
      <trkpt lat="48.69134" lon="1.73878">
        <ele>160.6</ele>
        <time>2015-07-05T15:37:11.000Z</time>
      </trkpt>
      <trkpt lat="48.69137" lon="1.73885">
        <ele>160.2</ele>
        <time>2015-07-05T15:37:14.000Z</time>
      </trkpt>
      <trkpt lat="48.69141" lon="1.73895">
        <ele>159.7</ele>
        <time>2015-07-05T15:37:19.000Z</time>
      </trkpt>
      <trkpt lat="48.69145" lon="1.73917">
        <ele>158.8</ele>
        <time>2015-07-05T15:37:25.000Z</time>
      </trkpt>
      <trkpt lat="48.69148" lon="1.73935">
        <ele>158</ele>
        <time>2015-07-05T15:37:32.000Z</time>
      </trkpt>
      <trkpt lat="48.69154" lon="1.73948">
        <ele>157.5</ele>
        <time>2015-07-05T15:37:39.000Z</time>
      </trkpt>
      <trkpt lat="48.69158" lon="1.73965">
        <ele>157.3</ele>
        <time>2015-07-05T15:37:45.000Z</time>
      </trkpt>
      <trkpt lat="48.6916" lon="1.73979">
        <ele>157</ele>
        <time>2015-07-05T15:37:51.000Z</time>
      </trkpt>
      <trkpt lat="48.69166" lon="1.73998">
        <ele>156.1</ele>
        <time>2015-07-05T15:38:00.000Z</time>
      </trkpt>
      <trkpt lat="48.69172" lon="1.74022">
        <ele>155</ele>
        <time>2015-07-05T15:38:10.000Z</time>
      </trkpt>
      <trkpt lat="48.69178" lon="1.74052">
        <ele>154.6</ele>
        <time>2015-07-05T15:38:22.000Z</time>
      </trkpt>
      <trkpt lat="48.69183" lon="1.74068">
        <ele>154.2</ele>
        <time>2015-07-05T15:38:29.000Z</time>
      </trkpt>
      <trkpt lat="48.69188" lon="1.74086">
        <ele>154</ele>
        <time>2015-07-05T15:38:36.000Z</time>
      </trkpt>
      <trkpt lat="48.69195" lon="1.7411">
        <ele>154</ele>
        <time>2015-07-05T15:38:43.000Z</time>
      </trkpt>
      <trkpt lat="48.69199" lon="1.74122">
        <ele>153.7</ele>
        <time>2015-07-05T15:38:48.000Z</time>
      </trkpt>
      <trkpt lat="48.69203" lon="1.74137">
        <ele>153.3</ele>
        <time>2015-07-05T15:38:55.000Z</time>
      </trkpt>
      <trkpt lat="48.69206" lon="1.74155">
        <ele>153.4</ele>
        <time>2015-07-05T15:39:03.000Z</time>
      </trkpt>
      <trkpt lat="48.6921" lon="1.74179">
        <ele>153.3</ele>
        <time>2015-07-05T15:39:13.000Z</time>
      </trkpt>
      <trkpt lat="48.69214" lon="1.74196">
        <ele>153</ele>
        <time>2015-07-05T15:39:20.000Z</time>
      </trkpt>
      <trkpt lat="48.69218" lon="1.74208">
        <ele>152.9</ele>
        <time>2015-07-05T15:39:26.000Z</time>
      </trkpt>
      <trkpt lat="48.69223" lon="1.74226">
        <ele>153</ele>
        <time>2015-07-05T15:39:34.000Z</time>
      </trkpt>
      <trkpt lat="48.69225" lon="1.74239">
        <ele>153.1</ele>
        <time>2015-07-05T15:39:40.000Z</time>
      </trkpt>
      <trkpt lat="48.6923" lon="1.74254">
        <ele>153.3</ele>
        <time>2015-07-05T15:39:46.000Z</time>
      </trkpt>
      <trkpt lat="48.69235" lon="1.74273">
        <ele>153.5</ele>
        <time>2015-07-05T15:39:54.000Z</time>
      </trkpt>
      <trkpt lat="48.6924" lon="1.74292">
        <ele>153.8</ele>
        <time>2015-07-05T15:40:02.000Z</time>
      </trkpt>
      <trkpt lat="48.69243" lon="1.74301">
        <ele>154</ele>
        <time>2015-07-05T15:40:06.000Z</time>
      </trkpt>
      <trkpt lat="48.69247" lon="1.74316">
        <ele>154.4</ele>
        <time>2015-07-05T15:40:13.000Z</time>
      </trkpt>
      <trkpt lat="48.6925" lon="1.74329">
        <ele>154.8</ele>
        <time>2015-07-05T15:40:19.000Z</time>
      </trkpt>
      <trkpt lat="48.69253" lon="1.7435">
        <ele>155.6</ele>
        <time>2015-07-05T15:40:28.000Z</time>
      </trkpt>
      <trkpt lat="48.69257" lon="1.74369">
        <ele>156.3</ele>
        <time>2015-07-05T15:40:36.000Z</time>
      </trkpt>
      <trkpt lat="48.69261" lon="1.74385">
        <ele>156.9</ele>
        <time>2015-07-05T15:40:44.000Z</time>
      </trkpt>
      <trkpt lat="48.69266" lon="1.74402">
        <ele>158</ele>
        <time>2015-07-05T15:40:52.000Z</time>
      </trkpt>
      <trkpt lat="48.69272" lon="1.74418">
        <ele>159</ele>
        <time>2015-07-05T15:41:00.000Z</time>
      </trkpt>
      <trkpt lat="48.69275" lon="1.74428">
        <ele>159.4</ele>
        <time>2015-07-05T15:41:05.000Z</time>
      </trkpt>
      <trkpt lat="48.69281" lon="1.74444">
        <ele>160</ele>
        <time>2015-07-05T15:41:10.000Z</time>
      </trkpt>
      <trkpt lat="48.69287" lon="1.74469">
        <ele>160.9</ele>
        <time>2015-07-05T15:41:17.000Z</time>
      </trkpt>
      <trkpt lat="48.69291" lon="1.74483">
        <ele>161.2</ele>
        <time>2015-07-05T15:41:24.000Z</time>
      </trkpt>
      <trkpt lat="48.69294" lon="1.74504">
        <ele>161.7</ele>
        <time>2015-07-05T15:41:34.000Z</time>
      </trkpt>
      <trkpt lat="48.69297" lon="1.74516">
        <ele>162.3</ele>
        <time>2015-07-05T15:41:40.000Z</time>
      </trkpt>
      <trkpt lat="48.69301" lon="1.7453">
        <ele>162.9</ele>
        <time>2015-07-05T15:41:47.000Z</time>
      </trkpt>
      <trkpt lat="48.69306" lon="1.74547">
        <ele>163</ele>
        <time>2015-07-05T15:41:55.000Z</time>
      </trkpt>
      <trkpt lat="48.6931" lon="1.74566">
        <ele>163.3</ele>
        <time>2015-07-05T15:42:04.000Z</time>
      </trkpt>
      <trkpt lat="48.69316" lon="1.74585">
        <ele>163.7</ele>
        <time>2015-07-05T15:42:11.000Z</time>
      </trkpt>
      <trkpt lat="48.69323" lon="1.74603">
        <ele>163.8</ele>
        <time>2015-07-05T15:42:17.000Z</time>
      </trkpt>
      <trkpt lat="48.69324" lon="1.74611">
        <ele>163.7</ele>
        <time>2015-07-05T15:42:21.000Z</time>
      </trkpt>
      <trkpt lat="48.69326" lon="1.74632">
        <ele>163.6</ele>
        <time>2015-07-05T15:42:29.000Z</time>
      </trkpt>
      <trkpt lat="48.69331" lon="1.74649">
        <ele>163.5</ele>
        <time>2015-07-05T15:42:35.000Z</time>
      </trkpt>
      <trkpt lat="48.69336" lon="1.7466">
        <ele>163.2</ele>
        <time>2015-07-05T15:42:42.000Z</time>
      </trkpt>
      <trkpt lat="48.69337" lon="1.74662">
        <ele>163.2</ele>
        <time>2015-07-05T15:42:43.000Z</time>
      </trkpt>
      <trkpt lat="48.6934" lon="1.74678">
        <ele>162.6</ele>
        <time>2015-07-05T15:42:50.000Z</time>
      </trkpt>
      <trkpt lat="48.69343" lon="1.74698">
        <ele>161.9</ele>
        <time>2015-07-05T15:42:58.000Z</time>
      </trkpt>
      <trkpt lat="48.69348" lon="1.74709">
        <ele>161.5</ele>
        <time>2015-07-05T15:43:03.000Z</time>
      </trkpt>
      <trkpt lat="48.69349" lon="1.7472">
        <ele>161.1</ele>
        <time>2015-07-05T15:43:08.000Z</time>
      </trkpt>
      <trkpt lat="48.69353" lon="1.74733">
        <ele>160.4</ele>
        <time>2015-07-05T15:43:14.000Z</time>
      </trkpt>
      <trkpt lat="48.69356" lon="1.74749">
        <ele>159.2</ele>
        <time>2015-07-05T15:43:22.000Z</time>
      </trkpt>
      <trkpt lat="48.6936" lon="1.7476">
        <ele>158.4</ele>
        <time>2015-07-05T15:43:27.000Z</time>
      </trkpt>
      <trkpt lat="48.69362" lon="1.74765">
        <ele>157.9</ele>
        <time>2015-07-05T15:43:30.000Z</time>
      </trkpt>
      <trkpt lat="48.69366" lon="1.74775">
        <ele>157</ele>
        <time>2015-07-05T15:43:35.000Z</time>
      </trkpt>
      <trkpt lat="48.69367" lon="1.74786">
        <ele>156.5</ele>
        <time>2015-07-05T15:43:39.000Z</time>
      </trkpt>
      <trkpt lat="48.69373" lon="1.74808">
        <ele>155.1</ele>
        <time>2015-07-05T15:43:48.000Z</time>
      </trkpt>
      <trkpt lat="48.69377" lon="1.74822">
        <ele>154.6</ele>
        <time>2015-07-05T15:43:54.000Z</time>
      </trkpt>
      <trkpt lat="48.69382" lon="1.74842">
        <ele>154.2</ele>
        <time>2015-07-05T15:44:03.000Z</time>
      </trkpt>
      <trkpt lat="48.69383" lon="1.74844">
        <ele>154.1</ele>
        <time>2015-07-05T15:44:04.000Z</time>
      </trkpt>
      <trkpt lat="48.69386" lon="1.74854">
        <ele>154</ele>
        <time>2015-07-05T15:44:09.000Z</time>
      </trkpt>
      <trkpt lat="48.69387" lon="1.74859">
        <ele>154</ele>
        <time>2015-07-05T15:44:11.000Z</time>
      </trkpt>
      <trkpt lat="48.6939" lon="1.74876">
        <ele>154.7</ele>
        <time>2015-07-05T15:44:18.000Z</time>
      </trkpt>
      <trkpt lat="48.69394" lon="1.74896">
        <ele>156.1</ele>
        <time>2015-07-05T15:44:27.000Z</time>
      </trkpt>
      <trkpt lat="48.69398" lon="1.74909">
        <ele>157.3</ele>
        <time>2015-07-05T15:44:32.000Z</time>
      </trkpt>
      <trkpt lat="48.69402" lon="1.74921">
        <ele>158.6</ele>
        <time>2015-07-05T15:44:38.000Z</time>
      </trkpt>
      <trkpt lat="48.69407" lon="1.74935">
        <ele>159.9</ele>
        <time>2015-07-05T15:44:45.000Z</time>
      </trkpt>
      <trkpt lat="48.69409" lon="1.7495">
        <ele>160.9</ele>
        <time>2015-07-05T15:44:52.000Z</time>
      </trkpt>
      <trkpt lat="48.6941" lon="1.74962">
        <ele>161.7</ele>
        <time>2015-07-05T15:44:58.000Z</time>
      </trkpt>
      <trkpt lat="48.69416" lon="1.74976">
        <ele>163.1</ele>
        <time>2015-07-05T15:45:06.000Z</time>
      </trkpt>
      <trkpt lat="48.69421" lon="1.74992">
        <ele>163.9</ele>
        <time>2015-07-05T15:45:14.000Z</time>
      </trkpt>
      <trkpt lat="48.69424" lon="1.75002">
        <ele>164.3</ele>
        <time>2015-07-05T15:45:20.000Z</time>
      </trkpt>
      <trkpt lat="48.69428" lon="1.75015">
        <ele>164.7</ele>
        <time>2015-07-05T15:45:27.000Z</time>
      </trkpt>
      <trkpt lat="48.69431" lon="1.75028">
        <ele>165</ele>
        <time>2015-07-05T15:45:33.000Z</time>
      </trkpt>
      <trkpt lat="48.69436" lon="1.75049">
        <ele>164.5</ele>
        <time>2015-07-05T15:45:42.000Z</time>
      </trkpt>
      <trkpt lat="48.6944" lon="1.7507">
        <ele>164.1</ele>
        <time>2015-07-05T15:45:51.000Z</time>
      </trkpt>
      <trkpt lat="48.69441" lon="1.75072">
        <ele>164.1</ele>
        <time>2015-07-05T15:45:52.000Z</time>
      </trkpt>
      <trkpt lat="48.69445" lon="1.75082">
        <ele>164</ele>
        <time>2015-07-05T15:45:57.000Z</time>
      </trkpt>
      <trkpt lat="48.69448" lon="1.75097">
        <ele>163.4</ele>
        <time>2015-07-05T15:46:04.000Z</time>
      </trkpt>
      <trkpt lat="48.69452" lon="1.75107">
        <ele>162.9</ele>
        <time>2015-07-05T15:46:10.000Z</time>
      </trkpt>
      <trkpt lat="48.69457" lon="1.75121">
        <ele>161.9</ele>
        <time>2015-07-05T15:46:17.000Z</time>
      </trkpt>
      <trkpt lat="48.6946" lon="1.75131">
        <ele>161</ele>
        <time>2015-07-05T15:46:23.000Z</time>
      </trkpt>
      <trkpt lat="48.69462" lon="1.7515">
        <ele>159.8</ele>
        <time>2015-07-05T15:46:30.000Z</time>
      </trkpt>
      <trkpt lat="48.69463" lon="1.75154">
        <ele>159.6</ele>
        <time>2015-07-05T15:46:32.000Z</time>
      </trkpt>
      <trkpt lat="48.69466" lon="1.75166">
        <ele>159</ele>
        <time>2015-07-05T15:46:38.000Z</time>
      </trkpt>
      <trkpt lat="48.69467" lon="1.75169">
        <ele>158.9</ele>
        <time>2015-07-05T15:46:39.000Z</time>
      </trkpt>
      <trkpt lat="48.69472" lon="1.75195">
        <ele>158</ele>
        <time>2015-07-05T15:46:49.000Z</time>
      </trkpt>
      <trkpt lat="48.69477" lon="1.75213">
        <ele>157.4</ele>
        <time>2015-07-05T15:46:57.000Z</time>
      </trkpt>
      <trkpt lat="48.69482" lon="1.75226">
        <ele>157.3</ele>
        <time>2015-07-05T15:47:03.000Z</time>
      </trkpt>
      <trkpt lat="48.69484" lon="1.75235">
        <ele>157.2</ele>
        <time>2015-07-05T15:47:08.000Z</time>
      </trkpt>
      <trkpt lat="48.6949" lon="1.75256">
        <ele>156.8</ele>
        <time>2015-07-05T15:47:18.000Z</time>
      </trkpt>
      <trkpt lat="48.69494" lon="1.75274">
        <ele>156.1</ele>
        <time>2015-07-05T15:47:26.000Z</time>
      </trkpt>
      <trkpt lat="48.695" lon="1.75292">
        <ele>156</ele>
        <time>2015-07-05T15:47:34.000Z</time>
      </trkpt>
      <trkpt lat="48.69503" lon="1.7531">
        <ele>156.1</ele>
        <time>2015-07-05T15:47:41.000Z</time>
      </trkpt>
      <trkpt lat="48.69508" lon="1.75327">
        <ele>156.1</ele>
        <time>2015-07-05T15:47:49.000Z</time>
      </trkpt>
      <trkpt lat="48.69513" lon="1.75345">
        <ele>155.8</ele>
        <time>2015-07-05T15:47:57.000Z</time>
      </trkpt>
      <trkpt lat="48.69516" lon="1.75358">
        <ele>155.6</ele>
        <time>2015-07-05T15:48:03.000Z</time>
      </trkpt>
      <trkpt lat="48.6952" lon="1.75379">
        <ele>155.7</ele>
        <time>2015-07-05T15:48:11.000Z</time>
      </trkpt>
      <trkpt lat="48.69524" lon="1.75398">
        <ele>155.6</ele>
        <time>2015-07-05T15:48:19.000Z</time>
      </trkpt>
      <trkpt lat="48.69525" lon="1.75402">
        <ele>155.5</ele>
        <time>2015-07-05T15:48:21.000Z</time>
      </trkpt>
      <trkpt lat="48.69529" lon="1.75413">
        <ele>155.2</ele>
        <time>2015-07-05T15:48:27.000Z</time>
      </trkpt>
      <trkpt lat="48.69533" lon="1.75426">
        <ele>155.2</ele>
        <time>2015-07-05T15:48:32.000Z</time>
      </trkpt>
      <trkpt lat="48.69534" lon="1.75433">
        <ele>155.2</ele>
        <time>2015-07-05T15:48:35.000Z</time>
      </trkpt>
      <trkpt lat="48.6954" lon="1.75447">
        <ele>155.4</ele>
        <time>2015-07-05T15:48:42.000Z</time>
      </trkpt>
      <trkpt lat="48.69547" lon="1.75463">
        <ele>155.2</ele>
        <time>2015-07-05T15:48:49.000Z</time>
      </trkpt>
      <trkpt lat="48.69551" lon="1.7548">
        <ele>155</ele>
        <time>2015-07-05T15:48:57.000Z</time>
      </trkpt>
      <trkpt lat="48.69556" lon="1.755">
        <ele>155</ele>
        <time>2015-07-05T15:49:06.000Z</time>
      </trkpt>
      <trkpt lat="48.69561" lon="1.75524">
        <ele>154.3</ele>
        <time>2015-07-05T15:49:17.000Z</time>
      </trkpt>
      <trkpt lat="48.69569" lon="1.75544">
        <ele>154.2</ele>
        <time>2015-07-05T15:49:27.000Z</time>
      </trkpt>
      <trkpt lat="48.6957" lon="1.75545">
        <ele>154.2</ele>
        <time>2015-07-05T15:49:28.000Z</time>
      </trkpt>
      <trkpt lat="48.6958" lon="1.75541">
        <ele>154.5</ele>
        <time>2015-07-05T15:49:36.000Z</time>
      </trkpt>
      <trkpt lat="48.69589" lon="1.75537">
        <ele>154.7</ele>
        <time>2015-07-05T15:49:42.000Z</time>
      </trkpt>
      <trkpt lat="48.69592" lon="1.75536">
        <ele>154.8</ele>
        <time>2015-07-05T15:49:44.000Z</time>
      </trkpt>
      <trkpt lat="48.69598" lon="1.75534">
        <ele>154.9</ele>
        <time>2015-07-05T15:49:49.000Z</time>
      </trkpt>
      <trkpt lat="48.6961" lon="1.75529">
        <ele>155</ele>
        <time>2015-07-05T15:49:58.000Z</time>
      </trkpt>
      <trkpt lat="48.6962" lon="1.75525">
        <ele>155.4</ele>
        <time>2015-07-05T15:50:05.000Z</time>
      </trkpt>
      <trkpt lat="48.6963" lon="1.7552">
        <ele>156</ele>
        <time>2015-07-05T15:50:12.000Z</time>
      </trkpt>
      <trkpt lat="48.69641" lon="1.75516">
        <ele>156.5</ele>
        <time>2015-07-05T15:50:20.000Z</time>
      </trkpt>
      <trkpt lat="48.69647" lon="1.75512">
        <ele>156.7</ele>
        <time>2015-07-05T15:50:25.000Z</time>
      </trkpt>
      <trkpt lat="48.69647" lon="1.75511">
        <ele>156.7</ele>
        <time>2015-07-05T15:50:26.000Z</time>
      </trkpt>
      <trkpt lat="48.69658" lon="1.75505">
        <ele>156.9</ele>
        <time>2015-07-05T15:50:35.000Z</time>
      </trkpt>
      <trkpt lat="48.6967" lon="1.75499">
        <ele>157.1</ele>
        <time>2015-07-05T15:50:43.000Z</time>
      </trkpt>
      <trkpt lat="48.69677" lon="1.75495">
        <ele>157.5</ele>
        <time>2015-07-05T15:50:50.000Z</time>
      </trkpt>
      <trkpt lat="48.69689" lon="1.75488">
        <ele>158.2</ele>
        <time>2015-07-05T15:50:59.000Z</time>
      </trkpt>
      <trkpt lat="48.697" lon="1.75484">
        <ele>158.7</ele>
        <time>2015-07-05T15:51:07.000Z</time>
      </trkpt>
      <trkpt lat="48.69711" lon="1.75478">
        <ele>158.9</ele>
        <time>2015-07-05T15:51:15.000Z</time>
      </trkpt>
      <trkpt lat="48.69725" lon="1.75472">
        <ele>159.1</ele>
        <time>2015-07-05T15:51:24.000Z</time>
      </trkpt>
      <trkpt lat="48.69739" lon="1.75466">
        <ele>159.7</ele>
        <time>2015-07-05T15:51:32.000Z</time>
      </trkpt>
      <trkpt lat="48.69748" lon="1.75462">
        <ele>160</ele>
        <time>2015-07-05T15:51:39.000Z</time>
      </trkpt>
      <trkpt lat="48.69755" lon="1.75459">
        <ele>160.1</ele>
        <time>2015-07-05T15:51:45.000Z</time>
      </trkpt>
      <trkpt lat="48.69766" lon="1.75453">
        <ele>160.4</ele>
        <time>2015-07-05T15:51:53.000Z</time>
      </trkpt>
      <trkpt lat="48.69772" lon="1.75451">
        <ele>160.6</ele>
        <time>2015-07-05T15:51:58.000Z</time>
      </trkpt>
      <trkpt lat="48.69782" lon="1.75447">
        <ele>160.9</ele>
        <time>2015-07-05T15:52:06.000Z</time>
      </trkpt>
      <trkpt lat="48.69791" lon="1.75446">
        <ele>161</ele>
        <time>2015-07-05T15:52:13.000Z</time>
      </trkpt>
      <trkpt lat="48.69796" lon="1.75443">
        <ele>161</ele>
        <time>2015-07-05T15:52:17.000Z</time>
      </trkpt>
      <trkpt lat="48.69802" lon="1.75431">
        <ele>161.4</ele>
        <time>2015-07-05T15:52:24.000Z</time>
      </trkpt>
      <trkpt lat="48.69804" lon="1.7543">
        <ele>161.5</ele>
        <time>2015-07-05T15:52:25.000Z</time>
      </trkpt>
      <trkpt lat="48.69811" lon="1.75423">
        <ele>162</ele>
        <time>2015-07-05T15:52:30.000Z</time>
      </trkpt>
      <trkpt lat="48.69819" lon="1.7542">
        <ele>162.3</ele>
        <time>2015-07-05T15:52:34.000Z</time>
      </trkpt>
      <trkpt lat="48.69823" lon="1.75421">
        <ele>162.5</ele>
        <time>2015-07-05T15:52:37.000Z</time>
      </trkpt>
      <trkpt lat="48.69834" lon="1.75415">
        <ele>163</ele>
        <time>2015-07-05T15:52:44.000Z</time>
      </trkpt>
      <trkpt lat="48.69846" lon="1.75412">
        <ele>163</ele>
        <time>2015-07-05T15:52:51.000Z</time>
      </trkpt>
      <trkpt lat="48.69856" lon="1.75408">
        <ele>163</ele>
        <time>2015-07-05T15:52:59.000Z</time>
      </trkpt>
      <trkpt lat="48.69861" lon="1.75404">
        <ele>163</ele>
        <time>2015-07-05T15:53:03.000Z</time>
      </trkpt>
      <trkpt lat="48.69872" lon="1.75397">
        <ele>163.3</ele>
        <time>2015-07-05T15:53:10.000Z</time>
      </trkpt>
      <trkpt lat="48.69884" lon="1.75391">
        <ele>163.8</ele>
        <time>2015-07-05T15:53:16.000Z</time>
      </trkpt>
      <trkpt lat="48.69892" lon="1.75391">
        <ele>163.8</ele>
        <time>2015-07-05T15:53:23.000Z</time>
      </trkpt>
      <trkpt lat="48.699" lon="1.75389">
        <ele>163.6</ele>
        <time>2015-07-05T15:53:28.000Z</time>
      </trkpt>
      <trkpt lat="48.6991" lon="1.75385">
        <ele>163.4</ele>
        <time>2015-07-05T15:53:35.000Z</time>
      </trkpt>
      <trkpt lat="48.69916" lon="1.75382">
        <ele>163.3</ele>
        <time>2015-07-05T15:53:39.000Z</time>
      </trkpt>
      <trkpt lat="48.69922" lon="1.75378">
        <ele>163.2</ele>
        <time>2015-07-05T15:53:44.000Z</time>
      </trkpt>
      <trkpt lat="48.6993" lon="1.75375">
        <ele>163</ele>
        <time>2015-07-05T15:53:50.000Z</time>
      </trkpt>
      <trkpt lat="48.69937" lon="1.7537">
        <ele>162.9</ele>
        <time>2015-07-05T15:53:56.000Z</time>
      </trkpt>
      <trkpt lat="48.69949" lon="1.75364">
        <ele>162.7</ele>
        <time>2015-07-05T15:54:04.000Z</time>
      </trkpt>
      <trkpt lat="48.69954" lon="1.75361">
        <ele>162.7</ele>
        <time>2015-07-05T15:54:08.000Z</time>
      </trkpt>
      <trkpt lat="48.69957" lon="1.7536">
        <ele>162.6</ele>
        <time>2015-07-05T15:54:10.000Z</time>
      </trkpt>
      <trkpt lat="48.69967" lon="1.75355">
        <ele>162.4</ele>
        <time>2015-07-05T15:54:17.000Z</time>
      </trkpt>
      <trkpt lat="48.69972" lon="1.75352">
        <ele>162.4</ele>
        <time>2015-07-05T15:54:20.000Z</time>
      </trkpt>
      <trkpt lat="48.69989" lon="1.75347">
        <ele>162.5</ele>
        <time>2015-07-05T15:54:29.000Z</time>
      </trkpt>
      <trkpt lat="48.7" lon="1.75344">
        <ele>162.6</ele>
        <time>2015-07-05T15:54:36.000Z</time>
      </trkpt>
      <trkpt lat="48.70009" lon="1.75338">
        <ele>162.8</ele>
        <time>2015-07-05T15:54:43.000Z</time>
      </trkpt>
      <trkpt lat="48.70018" lon="1.75333">
        <ele>163</ele>
        <time>2015-07-05T15:54:49.000Z</time>
      </trkpt>
      <trkpt lat="48.70028" lon="1.75328">
        <ele>163.2</ele>
        <time>2015-07-05T15:54:56.000Z</time>
      </trkpt>
      <trkpt lat="48.70034" lon="1.75327">
        <ele>163.4</ele>
        <time>2015-07-05T15:55:00.000Z</time>
      </trkpt>
      <trkpt lat="48.70043" lon="1.75323">
        <ele>163.9</ele>
        <time>2015-07-05T15:55:06.000Z</time>
      </trkpt>
      <trkpt lat="48.7005" lon="1.75319">
        <ele>164.3</ele>
        <time>2015-07-05T15:55:11.000Z</time>
      </trkpt>
      <trkpt lat="48.70058" lon="1.75316">
        <ele>164.7</ele>
        <time>2015-07-05T15:55:16.000Z</time>
      </trkpt>
      <trkpt lat="48.70065" lon="1.75313">
        <ele>165.1</ele>
        <time>2015-07-05T15:55:21.000Z</time>
      </trkpt>
      <trkpt lat="48.70075" lon="1.75308">
        <ele>165.6</ele>
        <time>2015-07-05T15:55:28.000Z</time>
      </trkpt>
      <trkpt lat="48.70084" lon="1.75302">
        <ele>166</ele>
        <time>2015-07-05T15:55:35.000Z</time>
      </trkpt>
      <trkpt lat="48.70093" lon="1.75299">
        <ele>166.3</ele>
        <time>2015-07-05T15:55:41.000Z</time>
      </trkpt>
      <trkpt lat="48.70099" lon="1.75295">
        <ele>166.6</ele>
        <time>2015-07-05T15:55:46.000Z</time>
      </trkpt>
      <trkpt lat="48.70112" lon="1.75289">
        <ele>167</ele>
        <time>2015-07-05T15:55:54.000Z</time>
      </trkpt>
      <trkpt lat="48.70123" lon="1.75285">
        <ele>167.4</ele>
        <time>2015-07-05T15:56:01.000Z</time>
      </trkpt>
      <trkpt lat="48.70131" lon="1.75282">
        <ele>167.7</ele>
        <time>2015-07-05T15:56:06.000Z</time>
      </trkpt>
      <trkpt lat="48.70139" lon="1.75275">
        <ele>168</ele>
        <time>2015-07-05T15:56:12.000Z</time>
      </trkpt>
      <trkpt lat="48.70149" lon="1.75275">
        <ele>168.4</ele>
        <time>2015-07-05T15:56:17.000Z</time>
      </trkpt>
      <trkpt lat="48.70155" lon="1.75269">
        <ele>168.6</ele>
        <time>2015-07-05T15:56:24.000Z</time>
      </trkpt>
      <trkpt lat="48.70159" lon="1.75265">
        <ele>168.7</ele>
        <time>2015-07-05T15:56:30.000Z</time>
      </trkpt>
      <trkpt lat="48.70164" lon="1.75263">
        <ele>168.9</ele>
        <time>2015-07-05T15:56:35.000Z</time>
      </trkpt>
      <trkpt lat="48.70174" lon="1.75259">
        <ele>169</ele>
        <time>2015-07-05T15:56:42.000Z</time>
      </trkpt>
      <trkpt lat="48.70177" lon="1.75257">
        <ele>169</ele>
        <time>2015-07-05T15:56:44.000Z</time>
      </trkpt>
      <trkpt lat="48.70191" lon="1.75251">
        <ele>169</ele>
        <time>2015-07-05T15:56:54.000Z</time>
      </trkpt>
      <trkpt lat="48.70202" lon="1.75246">
        <ele>168.9</ele>
        <time>2015-07-05T15:57:02.000Z</time>
      </trkpt>
      <trkpt lat="48.70206" lon="1.75244">
        <ele>168.9</ele>
        <time>2015-07-05T15:57:06.000Z</time>
      </trkpt>
      <trkpt lat="48.70216" lon="1.75244">
        <ele>169</ele>
        <time>2015-07-05T15:57:13.000Z</time>
      </trkpt>
      <trkpt lat="48.70218" lon="1.75244">
        <ele>169</ele>
        <time>2015-07-05T15:57:14.000Z</time>
      </trkpt>
      <trkpt lat="48.70229" lon="1.75248">
        <ele>169</ele>
        <time>2015-07-05T15:57:21.000Z</time>
      </trkpt>
      <trkpt lat="48.70232" lon="1.75249">
        <ele>169</ele>
        <time>2015-07-05T15:57:23.000Z</time>
      </trkpt>
      <trkpt lat="48.70241" lon="1.75254">
        <ele>169.2</ele>
        <time>2015-07-05T15:57:29.000Z</time>
      </trkpt>
      <trkpt lat="48.70243" lon="1.75255">
        <ele>169.2</ele>
        <time>2015-07-05T15:57:30.000Z</time>
      </trkpt>
      <trkpt lat="48.70252" lon="1.75262">
        <ele>169.4</ele>
        <time>2015-07-05T15:57:38.000Z</time>
      </trkpt>
      <trkpt lat="48.70264" lon="1.75271">
        <ele>169.8</ele>
        <time>2015-07-05T15:57:46.000Z</time>
      </trkpt>
      <trkpt lat="48.70272" lon="1.75277">
        <ele>170</ele>
        <time>2015-07-05T15:57:50.000Z</time>
      </trkpt>
      <trkpt lat="48.70284" lon="1.75286">
        <ele>170</ele>
        <time>2015-07-05T15:57:58.000Z</time>
      </trkpt>
      <trkpt lat="48.7029" lon="1.75292">
        <ele>170</ele>
        <time>2015-07-05T15:58:03.000Z</time>
      </trkpt>
      <trkpt lat="48.70297" lon="1.75296">
        <ele>170</ele>
        <time>2015-07-05T15:58:07.000Z</time>
      </trkpt>
      <trkpt lat="48.70302" lon="1.75307">
        <ele>170.1</ele>
        <time>2015-07-05T15:58:14.000Z</time>
      </trkpt>
      <trkpt lat="48.70304" lon="1.75315">
        <ele>170.3</ele>
        <time>2015-07-05T15:58:18.000Z</time>
      </trkpt>
      <trkpt lat="48.70309" lon="1.75329">
        <ele>171</ele>
        <time>2015-07-05T15:58:25.000Z</time>
      </trkpt>
      <trkpt lat="48.70318" lon="1.75342">
        <ele>171.6</ele>
        <time>2015-07-05T15:58:32.000Z</time>
      </trkpt>
      <trkpt lat="48.70327" lon="1.75349">
        <ele>171.9</ele>
        <time>2015-07-05T15:58:38.000Z</time>
      </trkpt>
      <trkpt lat="48.70335" lon="1.75356">
        <ele>172.1</ele>
        <time>2015-07-05T15:58:44.000Z</time>
      </trkpt>
      <trkpt lat="48.70346" lon="1.75364">
        <ele>172.5</ele>
        <time>2015-07-05T15:58:53.000Z</time>
      </trkpt>
      <trkpt lat="48.70349" lon="1.75368">
        <ele>172.7</ele>
        <time>2015-07-05T15:58:57.000Z</time>
      </trkpt>
      <trkpt lat="48.70355" lon="1.75377">
        <ele>172.9</ele>
        <time>2015-07-05T15:59:05.000Z</time>
      </trkpt>
      <trkpt lat="48.70363" lon="1.75383">
        <ele>173</ele>
        <time>2015-07-05T15:59:12.000Z</time>
      </trkpt>
      <trkpt lat="48.70372" lon="1.75392">
        <ele>173</ele>
        <time>2015-07-05T15:59:20.000Z</time>
      </trkpt>
      <trkpt lat="48.70374" lon="1.75395">
        <ele>173</ele>
        <time>2015-07-05T15:59:23.000Z</time>
      </trkpt>
      <trkpt lat="48.70381" lon="1.754">
        <ele>173</ele>
        <time>2015-07-05T15:59:31.000Z</time>
      </trkpt>
      <trkpt lat="48.70381" lon="1.75401">
        <ele>173</ele>
        <time>2015-07-05T15:59:32.000Z</time>
      </trkpt>
      <trkpt lat="48.70389" lon="1.75404">
        <ele>173</ele>
        <time>2015-07-05T15:59:54.000Z</time>
      </trkpt>
      <trkpt lat="48.70394" lon="1.75406">
        <ele>173</ele>
        <time>2015-07-05T15:59:57.000Z</time>
      </trkpt>
      <trkpt lat="48.70398" lon="1.75411">
        <ele>173</ele>
        <time>2015-07-05T16:00:01.000Z</time>
      </trkpt>
      <trkpt lat="48.70405" lon="1.75414">
        <ele>173</ele>
        <time>2015-07-05T16:00:07.000Z</time>
      </trkpt>
      <trkpt lat="48.70407" lon="1.75415">
        <ele>173</ele>
        <time>2015-07-05T16:00:08.000Z</time>
      </trkpt>
      <trkpt lat="48.70418" lon="1.75422">
        <ele>173</ele>
        <time>2015-07-05T16:00:15.000Z</time>
      </trkpt>
      <trkpt lat="48.70421" lon="1.75424">
        <ele>173.1</ele>
        <time>2015-07-05T16:00:17.000Z</time>
      </trkpt>
      <trkpt lat="48.70429" lon="1.75428">
        <ele>173.3</ele>
        <time>2015-07-05T16:00:21.000Z</time>
      </trkpt>
      <trkpt lat="48.70441" lon="1.75438">
        <ele>173.2</ele>
        <time>2015-07-05T16:00:30.000Z</time>
      </trkpt>
      <trkpt lat="48.7045" lon="1.75445">
        <ele>173.2</ele>
        <time>2015-07-05T16:00:36.000Z</time>
      </trkpt>
      <trkpt lat="48.70454" lon="1.75449">
        <ele>173.3</ele>
        <time>2015-07-05T16:00:40.000Z</time>
      </trkpt>
      <trkpt lat="48.70465" lon="1.75458">
        <ele>173.7</ele>
        <time>2015-07-05T16:00:47.000Z</time>
      </trkpt>
      <trkpt lat="48.70471" lon="1.75464">
        <ele>174</ele>
        <time>2015-07-05T16:00:51.000Z</time>
      </trkpt>
      <trkpt lat="48.70473" lon="1.75467">
        <ele>174</ele>
        <time>2015-07-05T16:00:56.000Z</time>
      </trkpt>
      <trkpt lat="48.70473" lon="1.75468">
        <ele>174</ele>
        <time>2015-07-05T16:01:09.000Z</time>
      </trkpt>
      <trkpt lat="48.70473" lon="1.75468">
        <ele>174</ele>
        <time>2015-07-05T16:01:15.000Z</time>
      </trkpt>
      <trkpt lat="48.70473" lon="1.75469">
        <ele>174</ele>
        <time>2015-07-05T16:01:18.000Z</time>
      </trkpt>
      <trkpt lat="48.70481" lon="1.75476">
        <ele>173.9</ele>
        <time>2015-07-05T16:02:02.000Z</time>
      </trkpt>
      <trkpt lat="48.70487" lon="1.75482">
        <ele>173.6</ele>
        <time>2015-07-05T16:02:07.000Z</time>
      </trkpt>
      <trkpt lat="48.70498" lon="1.75491">
        <ele>173.3</ele>
        <time>2015-07-05T16:02:15.000Z</time>
      </trkpt>
      <trkpt lat="48.70505" lon="1.75496">
        <ele>173.1</ele>
        <time>2015-07-05T16:02:21.000Z</time>
      </trkpt>
      <trkpt lat="48.70507" lon="1.75497">
        <ele>173.1</ele>
        <time>2015-07-05T16:02:22.000Z</time>
      </trkpt>
      <trkpt lat="48.70512" lon="1.75503">
        <ele>173</ele>
        <time>2015-07-05T16:02:27.000Z</time>
      </trkpt>
      <trkpt lat="48.70516" lon="1.75506">
        <ele>173</ele>
        <time>2015-07-05T16:02:31.000Z</time>
      </trkpt>
      <trkpt lat="48.70522" lon="1.75508">
        <ele>173</ele>
        <time>2015-07-05T16:02:34.000Z</time>
      </trkpt>
      <trkpt lat="48.70526" lon="1.75515">
        <ele>173</ele>
        <time>2015-07-05T16:02:39.000Z</time>
      </trkpt>
      <trkpt lat="48.70528" lon="1.75516">
        <ele>173</ele>
        <time>2015-07-05T16:02:40.000Z</time>
      </trkpt>
      <trkpt lat="48.70533" lon="1.75523">
        <ele>173</ele>
        <time>2015-07-05T16:02:45.000Z</time>
      </trkpt>
      <trkpt lat="48.70534" lon="1.75524">
        <ele>173</ele>
        <time>2015-07-05T16:02:46.000Z</time>
      </trkpt>
      <trkpt lat="48.7054" lon="1.75531">
        <ele>173</ele>
        <time>2015-07-05T16:02:51.000Z</time>
      </trkpt>
      <trkpt lat="48.70551" lon="1.75539">
        <ele>173</ele>
        <time>2015-07-05T16:02:59.000Z</time>
      </trkpt>
      <trkpt lat="48.70553" lon="1.75543">
        <ele>173</ele>
        <time>2015-07-05T16:03:02.000Z</time>
      </trkpt>
      <trkpt lat="48.70558" lon="1.75549">
        <ele>173</ele>
        <time>2015-07-05T16:03:08.000Z</time>
      </trkpt>
      <trkpt lat="48.70564" lon="1.75557">
        <ele>173</ele>
        <time>2015-07-05T16:03:16.000Z</time>
      </trkpt>
      <trkpt lat="48.7057" lon="1.75563">
        <ele>173</ele>
        <time>2015-07-05T16:03:23.000Z</time>
      </trkpt>
      <trkpt lat="48.7057" lon="1.75565">
        <ele>173</ele>
        <time>2015-07-05T16:03:25.000Z</time>
      </trkpt>
      <trkpt lat="48.70574" lon="1.75569">
        <ele>173</ele>
        <time>2015-07-05T16:03:29.000Z</time>
      </trkpt>
      <trkpt lat="48.70583" lon="1.75579">
        <ele>173</ele>
        <time>2015-07-05T16:03:37.000Z</time>
      </trkpt>
      <trkpt lat="48.70586" lon="1.75587">
        <ele>172.9</ele>
        <time>2015-07-05T16:03:42.000Z</time>
      </trkpt>
      <trkpt lat="48.70598" lon="1.75597">
        <ele>172.5</ele>
        <time>2015-07-05T16:03:51.000Z</time>
      </trkpt>
      <trkpt lat="48.70604" lon="1.75604">
        <ele>172.3</ele>
        <time>2015-07-05T16:03:57.000Z</time>
      </trkpt>
      <trkpt lat="48.70606" lon="1.75607">
        <ele>172.2</ele>
        <time>2015-07-05T16:03:59.000Z</time>
      </trkpt>
      <trkpt lat="48.70615" lon="1.75616">
        <ele>172.2</ele>
        <time>2015-07-05T16:04:06.000Z</time>
      </trkpt>
      <trkpt lat="48.7062" lon="1.75622">
        <ele>172.4</ele>
        <time>2015-07-05T16:04:11.000Z</time>
      </trkpt>
      <trkpt lat="48.70624" lon="1.75631">
        <ele>172.7</ele>
        <time>2015-07-05T16:04:17.000Z</time>
      </trkpt>
      <trkpt lat="48.70633" lon="1.75638">
        <ele>173</ele>
        <time>2015-07-05T16:04:23.000Z</time>
      </trkpt>
      <trkpt lat="48.70636" lon="1.75642">
        <ele>173</ele>
        <time>2015-07-05T16:04:27.000Z</time>
      </trkpt>
      <trkpt lat="48.7064" lon="1.75647">
        <ele>173</ele>
        <time>2015-07-05T16:04:32.000Z</time>
      </trkpt>
      <trkpt lat="48.70642" lon="1.75642">
        <ele>172.9</ele>
        <time>2015-07-05T16:04:39.000Z</time>
      </trkpt>
      <trkpt lat="48.70643" lon="1.75639">
        <ele>172.9</ele>
        <time>2015-07-05T16:04:41.000Z</time>
      </trkpt>
      <trkpt lat="48.70644" lon="1.75634">
        <ele>172.7</ele>
        <time>2015-07-05T16:04:44.000Z</time>
      </trkpt>
      <trkpt lat="48.70648" lon="1.75627">
        <ele>172.5</ele>
        <time>2015-07-05T16:04:48.000Z</time>
      </trkpt>
      <trkpt lat="48.70651" lon="1.75617">
        <ele>172.5</ele>
        <time>2015-07-05T16:04:55.000Z</time>
      </trkpt>
      <trkpt lat="48.70652" lon="1.75611">
        <ele>172.5</ele>
        <time>2015-07-05T16:04:59.000Z</time>
      </trkpt>
      <trkpt lat="48.70654" lon="1.75599">
        <ele>172.6</ele>
        <time>2015-07-05T16:05:06.000Z</time>
      </trkpt>
      <trkpt lat="48.70659" lon="1.75587">
        <ele>172.7</ele>
        <time>2015-07-05T16:05:13.000Z</time>
      </trkpt>
      <trkpt lat="48.70666" lon="1.75575">
        <ele>173</ele>
        <time>2015-07-05T16:05:22.000Z</time>
      </trkpt>
      <trkpt lat="48.70672" lon="1.75562">
        <ele>173</ele>
        <time>2015-07-05T16:05:30.000Z</time>
      </trkpt>
      <trkpt lat="48.70676" lon="1.75549">
        <ele>173</ele>
        <time>2015-07-05T16:05:37.000Z</time>
      </trkpt>
      <trkpt lat="48.7068" lon="1.75539">
        <ele>173</ele>
        <time>2015-07-05T16:05:43.000Z</time>
      </trkpt>
      <trkpt lat="48.70687" lon="1.75525">
        <ele>173</ele>
        <time>2015-07-05T16:05:51.000Z</time>
      </trkpt>
      <trkpt lat="48.70691" lon="1.75522">
        <ele>173</ele>
        <time>2015-07-05T16:05:54.000Z</time>
      </trkpt>
      <trkpt lat="48.70692" lon="1.75516">
        <ele>173</ele>
        <time>2015-07-05T16:05:58.000Z</time>
      </trkpt>
      <trkpt lat="48.70694" lon="1.75512">
        <ele>173</ele>
        <time>2015-07-05T16:06:00.000Z</time>
      </trkpt>
      <trkpt lat="48.70699" lon="1.75493">
        <ele>173</ele>
        <time>2015-07-05T16:06:10.000Z</time>
      </trkpt>
      <trkpt lat="48.707" lon="1.75479">
        <ele>173</ele>
        <time>2015-07-05T16:06:17.000Z</time>
      </trkpt>
      <trkpt lat="48.70701" lon="1.75478">
        <ele>173</ele>
        <time>2015-07-05T16:06:23.000Z</time>
      </trkpt>
      <trkpt lat="48.70699" lon="1.75458">
        <ele>173</ele>
        <time>2015-07-05T16:07:17.000Z</time>
      </trkpt>
      <trkpt lat="48.70703" lon="1.75455">
        <ele>173</ele>
        <time>2015-07-05T16:07:20.000Z</time>
      </trkpt>
      <trkpt lat="48.70706" lon="1.75454">
        <ele>173</ele>
        <time>2015-07-05T16:07:26.000Z</time>
      </trkpt>
      <trkpt lat="48.70707" lon="1.75448">
        <ele>173</ele>
        <time>2015-07-05T16:09:07.000Z</time>
      </trkpt>
      <trkpt lat="48.70703" lon="1.75446">
        <ele>173</ele>
        <time>2015-07-05T16:09:09.000Z</time>
      </trkpt>
      <trkpt lat="48.70695" lon="1.75444">
        <ele>173</ele>
        <time>2015-07-05T16:09:16.000Z</time>
      </trkpt>
      <trkpt lat="48.70694" lon="1.75443">
        <ele>173</ele>
        <time>2015-07-05T16:09:17.000Z</time>
      </trkpt>
    </trkseg>
  </trk>
</gpx>